<?xml version="1.0" encoding="UTF-8" standalone="no" ?>
<gpx xmlns="http://www.topografix.com/GPX/1/1" xmlns:xsi="http://www.w3.org/2001/XMLSchema-instance" xsi:schemaLocation="http://www.topografix.com/GPX/1/1 http://www.topografix.com/GPX/1/1/gpx.xsd" version="1.1" creator="VisuGPX - https://www.visugpx.com">
  <metadata>
    <name>2023-11-29_09-27_Wed  Santeuil Nucourt</name>
  </metadata>
  <trk>
    <name><![CDATA[2023-11-29_09-27_Wed  Santeuil Nucourt_1]]></name>
    <trkseg>
      <trkpt lat="49.12186" lon="1.94877">
        <ele>58.7</ele>
        <time>2023-11-29T08:27:45Z</time>
      </trkpt>
      <trkpt lat="49.12185" lon="1.94877">
        <ele>58.6</ele>
        <time>2023-11-29T08:27:51Z</time>
      </trkpt>
      <trkpt lat="49.12184" lon="1.94875">
        <ele>58.5</ele>
        <time>2023-11-29T08:27:57Z</time>
      </trkpt>
      <trkpt lat="49.12179" lon="1.94869">
        <ele>58</ele>
        <time>2023-11-29T08:28:03Z</time>
      </trkpt>
      <trkpt lat="49.12173" lon="1.9486">
        <ele>57.1</ele>
        <time>2023-11-29T08:28:11Z</time>
      </trkpt>
      <trkpt lat="49.12166" lon="1.94846">
        <ele>55.4</ele>
        <time>2023-11-29T08:28:16Z</time>
      </trkpt>
      <trkpt lat="49.12161" lon="1.94837">
        <ele>54.9</ele>
        <time>2023-11-29T08:28:21Z</time>
      </trkpt>
      <trkpt lat="49.12157" lon="1.94827">
        <ele>54.4</ele>
        <time>2023-11-29T08:28:28Z</time>
      </trkpt>
      <trkpt lat="49.12152" lon="1.94819">
        <ele>53.9</ele>
        <time>2023-11-29T08:28:33Z</time>
      </trkpt>
      <trkpt lat="49.12147" lon="1.9481">
        <ele>53.5</ele>
        <time>2023-11-29T08:28:39Z</time>
      </trkpt>
      <trkpt lat="49.12145" lon="1.94803">
        <ele>53.2</ele>
        <time>2023-11-29T08:28:45Z</time>
      </trkpt>
      <trkpt lat="49.12141" lon="1.94797">
        <ele>53.1</ele>
        <time>2023-11-29T08:28:50Z</time>
      </trkpt>
      <trkpt lat="49.12138" lon="1.94792">
        <ele>53</ele>
        <time>2023-11-29T08:28:55Z</time>
      </trkpt>
      <trkpt lat="49.12133" lon="1.94787">
        <ele>53</ele>
        <time>2023-11-29T08:29:00Z</time>
      </trkpt>
      <trkpt lat="49.12127" lon="1.9478">
        <ele>53</ele>
        <time>2023-11-29T08:29:06Z</time>
      </trkpt>
      <trkpt lat="49.12122" lon="1.94773">
        <ele>53</ele>
        <time>2023-11-29T08:29:11Z</time>
      </trkpt>
      <trkpt lat="49.12115" lon="1.94764">
        <ele>53</ele>
        <time>2023-11-29T08:29:17Z</time>
      </trkpt>
      <trkpt lat="49.12108" lon="1.94754">
        <ele>53</ele>
        <time>2023-11-29T08:29:23Z</time>
      </trkpt>
      <trkpt lat="49.12102" lon="1.94746">
        <ele>53</ele>
        <time>2023-11-29T08:29:28Z</time>
      </trkpt>
      <trkpt lat="49.12097" lon="1.94735">
        <ele>53</ele>
        <time>2023-11-29T08:29:34Z</time>
      </trkpt>
      <trkpt lat="49.12091" lon="1.94725">
        <ele>53</ele>
        <time>2023-11-29T08:29:40Z</time>
      </trkpt>
      <trkpt lat="49.12087" lon="1.94718">
        <ele>53.1</ele>
        <time>2023-11-29T08:29:45Z</time>
      </trkpt>
      <trkpt lat="49.12083" lon="1.94711">
        <ele>53.4</ele>
        <time>2023-11-29T08:29:50Z</time>
      </trkpt>
      <trkpt lat="49.12078" lon="1.94703">
        <ele>53.9</ele>
        <time>2023-11-29T08:29:56Z</time>
      </trkpt>
      <trkpt lat="49.12073" lon="1.94696">
        <ele>54.3</ele>
        <time>2023-11-29T08:30:01Z</time>
      </trkpt>
      <trkpt lat="49.12069" lon="1.94688">
        <ele>54.8</ele>
        <time>2023-11-29T08:30:06Z</time>
      </trkpt>
      <trkpt lat="49.12063" lon="1.94678">
        <ele>55.3</ele>
        <time>2023-11-29T08:30:12Z</time>
      </trkpt>
      <trkpt lat="49.12058" lon="1.9467">
        <ele>55.8</ele>
        <time>2023-11-29T08:30:18Z</time>
      </trkpt>
      <trkpt lat="49.12055" lon="1.94664">
        <ele>56.1</ele>
        <time>2023-11-29T08:30:23Z</time>
      </trkpt>
      <trkpt lat="49.12052" lon="1.94657">
        <ele>56.5</ele>
        <time>2023-11-29T08:30:28Z</time>
      </trkpt>
      <trkpt lat="49.12048" lon="1.94649">
        <ele>56.9</ele>
        <time>2023-11-29T08:30:33Z</time>
      </trkpt>
      <trkpt lat="49.12044" lon="1.9464">
        <ele>57.4</ele>
        <time>2023-11-29T08:30:39Z</time>
      </trkpt>
      <trkpt lat="49.1204" lon="1.94628">
        <ele>57.8</ele>
        <time>2023-11-29T08:30:45Z</time>
      </trkpt>
      <trkpt lat="49.12037" lon="1.94618">
        <ele>58.4</ele>
        <time>2023-11-29T08:30:51Z</time>
      </trkpt>
      <trkpt lat="49.12034" lon="1.94608">
        <ele>59.3</ele>
        <time>2023-11-29T08:30:57Z</time>
      </trkpt>
      <trkpt lat="49.12032" lon="1.94601">
        <ele>59.8</ele>
        <time>2023-11-29T08:31:02Z</time>
      </trkpt>
      <trkpt lat="49.1203" lon="1.94591">
        <ele>60.4</ele>
        <time>2023-11-29T08:31:08Z</time>
      </trkpt>
      <trkpt lat="49.12029" lon="1.9458">
        <ele>61.1</ele>
        <time>2023-11-29T08:31:14Z</time>
      </trkpt>
      <trkpt lat="49.12027" lon="1.94571">
        <ele>62</ele>
        <time>2023-11-29T08:31:19Z</time>
      </trkpt>
      <trkpt lat="49.12026" lon="1.94559">
        <ele>63.2</ele>
        <time>2023-11-29T08:31:25Z</time>
      </trkpt>
      <trkpt lat="49.12025" lon="1.94549">
        <ele>63.7</ele>
        <time>2023-11-29T08:31:30Z</time>
      </trkpt>
      <trkpt lat="49.12024" lon="1.94537">
        <ele>64</ele>
        <time>2023-11-29T08:31:36Z</time>
      </trkpt>
      <trkpt lat="49.12023" lon="1.94526">
        <ele>64.2</ele>
        <time>2023-11-29T08:31:42Z</time>
      </trkpt>
      <trkpt lat="49.12024" lon="1.94516">
        <ele>64.3</ele>
        <time>2023-11-29T08:31:48Z</time>
      </trkpt>
      <trkpt lat="49.12027" lon="1.94507">
        <ele>64</ele>
        <time>2023-11-29T08:31:54Z</time>
      </trkpt>
      <trkpt lat="49.12028" lon="1.94497">
        <ele>64.1</ele>
        <time>2023-11-29T08:32:00Z</time>
      </trkpt>
      <trkpt lat="49.12028" lon="1.94487">
        <ele>64.4</ele>
        <time>2023-11-29T08:32:05Z</time>
      </trkpt>
      <trkpt lat="49.12028" lon="1.94477">
        <ele>64.8</ele>
        <time>2023-11-29T08:32:10Z</time>
      </trkpt>
      <trkpt lat="49.12028" lon="1.94466">
        <ele>65.2</ele>
        <time>2023-11-29T08:32:15Z</time>
      </trkpt>
      <trkpt lat="49.12028" lon="1.94454">
        <ele>65.6</ele>
        <time>2023-11-29T08:32:21Z</time>
      </trkpt>
      <trkpt lat="49.12029" lon="1.94445">
        <ele>65.8</ele>
        <time>2023-11-29T08:32:26Z</time>
      </trkpt>
      <trkpt lat="49.1203" lon="1.94437">
        <ele>65.8</ele>
        <time>2023-11-29T08:32:31Z</time>
      </trkpt>
      <trkpt lat="49.12033" lon="1.94428">
        <ele>65.7</ele>
        <time>2023-11-29T08:32:36Z</time>
      </trkpt>
      <trkpt lat="49.12036" lon="1.94417">
        <ele>65.5</ele>
        <time>2023-11-29T08:32:42Z</time>
      </trkpt>
      <trkpt lat="49.12039" lon="1.94409">
        <ele>65.2</ele>
        <time>2023-11-29T08:32:47Z</time>
      </trkpt>
      <trkpt lat="49.12042" lon="1.94402">
        <ele>64.7</ele>
        <time>2023-11-29T08:32:52Z</time>
      </trkpt>
      <trkpt lat="49.12046" lon="1.94392">
        <ele>64.1</ele>
        <time>2023-11-29T08:32:58Z</time>
      </trkpt>
      <trkpt lat="49.1205" lon="1.94383">
        <ele>63.6</ele>
        <time>2023-11-29T08:33:04Z</time>
      </trkpt>
      <trkpt lat="49.12054" lon="1.94374">
        <ele>63.5</ele>
        <time>2023-11-29T08:33:10Z</time>
      </trkpt>
      <trkpt lat="49.12057" lon="1.94365">
        <ele>63.4</ele>
        <time>2023-11-29T08:33:15Z</time>
      </trkpt>
      <trkpt lat="49.12061" lon="1.94356">
        <ele>62.9</ele>
        <time>2023-11-29T08:33:20Z</time>
      </trkpt>
      <trkpt lat="49.12066" lon="1.94346">
        <ele>62.1</ele>
        <time>2023-11-29T08:33:26Z</time>
      </trkpt>
      <trkpt lat="49.12072" lon="1.94335">
        <ele>61.5</ele>
        <time>2023-11-29T08:33:32Z</time>
      </trkpt>
      <trkpt lat="49.12077" lon="1.94326">
        <ele>61.3</ele>
        <time>2023-11-29T08:33:37Z</time>
      </trkpt>
      <trkpt lat="49.12083" lon="1.94316">
        <ele>61.3</ele>
        <time>2023-11-29T08:33:43Z</time>
      </trkpt>
      <trkpt lat="49.12088" lon="1.94308">
        <ele>61</ele>
        <time>2023-11-29T08:33:48Z</time>
      </trkpt>
      <trkpt lat="49.12094" lon="1.94297">
        <ele>60.4</ele>
        <time>2023-11-29T08:33:54Z</time>
      </trkpt>
      <trkpt lat="49.121" lon="1.94286">
        <ele>60.2</ele>
        <time>2023-11-29T08:34:00Z</time>
      </trkpt>
      <trkpt lat="49.12105" lon="1.94277">
        <ele>60.4</ele>
        <time>2023-11-29T08:34:05Z</time>
      </trkpt>
      <trkpt lat="49.1211" lon="1.94266">
        <ele>60.5</ele>
        <time>2023-11-29T08:34:11Z</time>
      </trkpt>
      <trkpt lat="49.12116" lon="1.94255">
        <ele>60.2</ele>
        <time>2023-11-29T08:34:17Z</time>
      </trkpt>
      <trkpt lat="49.1212" lon="1.94244">
        <ele>59.9</ele>
        <time>2023-11-29T08:34:22Z</time>
      </trkpt>
      <trkpt lat="49.12124" lon="1.94233">
        <ele>59.7</ele>
        <time>2023-11-29T08:34:28Z</time>
      </trkpt>
      <trkpt lat="49.12129" lon="1.94222">
        <ele>59.7</ele>
        <time>2023-11-29T08:34:34Z</time>
      </trkpt>
      <trkpt lat="49.12132" lon="1.94214">
        <ele>59.8</ele>
        <time>2023-11-29T08:34:39Z</time>
      </trkpt>
      <trkpt lat="49.12136" lon="1.94203">
        <ele>59.9</ele>
        <time>2023-11-29T08:34:45Z</time>
      </trkpt>
      <trkpt lat="49.1214" lon="1.94192">
        <ele>60.1</ele>
        <time>2023-11-29T08:34:51Z</time>
      </trkpt>
      <trkpt lat="49.12145" lon="1.94184">
        <ele>60.2</ele>
        <time>2023-11-29T08:34:57Z</time>
      </trkpt>
      <trkpt lat="49.12149" lon="1.94176">
        <ele>60.2</ele>
        <time>2023-11-29T08:35:02Z</time>
      </trkpt>
      <trkpt lat="49.12154" lon="1.94167">
        <ele>60.4</ele>
        <time>2023-11-29T08:35:08Z</time>
      </trkpt>
      <trkpt lat="49.12158" lon="1.94158">
        <ele>60.2</ele>
        <time>2023-11-29T08:35:13Z</time>
      </trkpt>
      <trkpt lat="49.12162" lon="1.94147">
        <ele>60.1</ele>
        <time>2023-11-29T08:35:19Z</time>
      </trkpt>
      <trkpt lat="49.12166" lon="1.94135">
        <ele>60.2</ele>
        <time>2023-11-29T08:35:25Z</time>
      </trkpt>
      <trkpt lat="49.12171" lon="1.94124">
        <ele>60.2</ele>
        <time>2023-11-29T08:35:31Z</time>
      </trkpt>
      <trkpt lat="49.12174" lon="1.94114">
        <ele>60.3</ele>
        <time>2023-11-29T08:35:36Z</time>
      </trkpt>
      <trkpt lat="49.12178" lon="1.94103">
        <ele>60.5</ele>
        <time>2023-11-29T08:35:42Z</time>
      </trkpt>
      <trkpt lat="49.12182" lon="1.94092">
        <ele>60.6</ele>
        <time>2023-11-29T08:35:48Z</time>
      </trkpt>
      <trkpt lat="49.12186" lon="1.9408">
        <ele>60.8</ele>
        <time>2023-11-29T08:35:54Z</time>
      </trkpt>
      <trkpt lat="49.1219" lon="1.9407">
        <ele>60.9</ele>
        <time>2023-11-29T08:35:59Z</time>
      </trkpt>
      <trkpt lat="49.12195" lon="1.94059">
        <ele>60.8</ele>
        <time>2023-11-29T08:36:05Z</time>
      </trkpt>
      <trkpt lat="49.122" lon="1.94053">
        <ele>60.7</ele>
        <time>2023-11-29T08:36:10Z</time>
      </trkpt>
      <trkpt lat="49.12206" lon="1.94048">
        <ele>60.4</ele>
        <time>2023-11-29T08:36:16Z</time>
      </trkpt>
      <trkpt lat="49.12214" lon="1.94043">
        <ele>60.1</ele>
        <time>2023-11-29T08:36:22Z</time>
      </trkpt>
      <trkpt lat="49.1222" lon="1.9404">
        <ele>59.7</ele>
        <time>2023-11-29T08:36:27Z</time>
      </trkpt>
      <trkpt lat="49.12227" lon="1.94037">
        <ele>59.3</ele>
        <time>2023-11-29T08:36:33Z</time>
      </trkpt>
      <trkpt lat="49.12234" lon="1.94037">
        <ele>58.7</ele>
        <time>2023-11-29T08:36:38Z</time>
      </trkpt>
      <trkpt lat="49.12242" lon="1.94037">
        <ele>58</ele>
        <time>2023-11-29T08:36:44Z</time>
      </trkpt>
      <trkpt lat="49.1225" lon="1.94037">
        <ele>57.4</ele>
        <time>2023-11-29T08:36:49Z</time>
      </trkpt>
      <trkpt lat="49.12258" lon="1.94035">
        <ele>57.5</ele>
        <time>2023-11-29T08:36:54Z</time>
      </trkpt>
      <trkpt lat="49.12267" lon="1.94033">
        <ele>57.7</ele>
        <time>2023-11-29T08:37:00Z</time>
      </trkpt>
      <trkpt lat="49.12275" lon="1.94031">
        <ele>57.9</ele>
        <time>2023-11-29T08:37:05Z</time>
      </trkpt>
      <trkpt lat="49.12284" lon="1.94028">
        <ele>58</ele>
        <time>2023-11-29T08:37:11Z</time>
      </trkpt>
      <trkpt lat="49.12291" lon="1.94027">
        <ele>58.1</ele>
        <time>2023-11-29T08:37:16Z</time>
      </trkpt>
      <trkpt lat="49.12298" lon="1.94025">
        <ele>58.3</ele>
        <time>2023-11-29T08:37:22Z</time>
      </trkpt>
      <trkpt lat="49.12306" lon="1.94023">
        <ele>58.5</ele>
        <time>2023-11-29T08:37:27Z</time>
      </trkpt>
      <trkpt lat="49.12313" lon="1.94021">
        <ele>58.4</ele>
        <time>2023-11-29T08:37:33Z</time>
      </trkpt>
      <trkpt lat="49.1232" lon="1.94016">
        <ele>58.5</ele>
        <time>2023-11-29T08:37:39Z</time>
      </trkpt>
      <trkpt lat="49.12325" lon="1.94009">
        <ele>58.8</ele>
        <time>2023-11-29T08:37:44Z</time>
      </trkpt>
      <trkpt lat="49.1233" lon="1.94001">
        <ele>59.2</ele>
        <time>2023-11-29T08:37:49Z</time>
      </trkpt>
      <trkpt lat="49.12336" lon="1.93992">
        <ele>59.6</ele>
        <time>2023-11-29T08:37:55Z</time>
      </trkpt>
      <trkpt lat="49.1234" lon="1.93982">
        <ele>59.9</ele>
        <time>2023-11-29T08:38:01Z</time>
      </trkpt>
      <trkpt lat="49.12343" lon="1.93972">
        <ele>60.3</ele>
        <time>2023-11-29T08:38:07Z</time>
      </trkpt>
      <trkpt lat="49.12345" lon="1.93961">
        <ele>60.5</ele>
        <time>2023-11-29T08:38:13Z</time>
      </trkpt>
      <trkpt lat="49.12349" lon="1.93949">
        <ele>60.3</ele>
        <time>2023-11-29T08:38:19Z</time>
      </trkpt>
      <trkpt lat="49.12354" lon="1.93938">
        <ele>60</ele>
        <time>2023-11-29T08:38:25Z</time>
      </trkpt>
      <trkpt lat="49.12357" lon="1.9393">
        <ele>59.8</ele>
        <time>2023-11-29T08:38:30Z</time>
      </trkpt>
      <trkpt lat="49.12362" lon="1.93924">
        <ele>59.4</ele>
        <time>2023-11-29T08:38:36Z</time>
      </trkpt>
      <trkpt lat="49.12364" lon="1.93915">
        <ele>59.5</ele>
        <time>2023-11-29T08:38:42Z</time>
      </trkpt>
      <trkpt lat="49.12366" lon="1.93899">
        <ele>59.3</ele>
        <time>2023-11-29T08:38:48Z</time>
      </trkpt>
      <trkpt lat="49.12369" lon="1.93884">
        <ele>59</ele>
        <time>2023-11-29T08:38:54Z</time>
      </trkpt>
      <trkpt lat="49.12371" lon="1.93871">
        <ele>58.8</ele>
        <time>2023-11-29T08:38:59Z</time>
      </trkpt>
      <trkpt lat="49.12374" lon="1.93856">
        <ele>58.6</ele>
        <time>2023-11-29T08:39:05Z</time>
      </trkpt>
      <trkpt lat="49.12375" lon="1.93846">
        <ele>58.5</ele>
        <time>2023-11-29T08:39:10Z</time>
      </trkpt>
      <trkpt lat="49.12379" lon="1.93838">
        <ele>58.1</ele>
        <time>2023-11-29T08:39:16Z</time>
      </trkpt>
      <trkpt lat="49.12382" lon="1.93832">
        <ele>57.8</ele>
        <time>2023-11-29T08:39:21Z</time>
      </trkpt>
      <trkpt lat="49.12384" lon="1.93827">
        <ele>57.7</ele>
        <time>2023-11-29T08:39:27Z</time>
      </trkpt>
      <trkpt lat="49.12385" lon="1.93823">
        <ele>57.7</ele>
        <time>2023-11-29T08:39:32Z</time>
      </trkpt>
      <trkpt lat="49.12388" lon="1.93819">
        <ele>57.6</ele>
        <time>2023-11-29T08:39:38Z</time>
      </trkpt>
      <trkpt lat="49.12393" lon="1.93816">
        <ele>57.6</ele>
        <time>2023-11-29T08:39:44Z</time>
      </trkpt>
      <trkpt lat="49.12397" lon="1.93814">
        <ele>57.7</ele>
        <time>2023-11-29T08:39:49Z</time>
      </trkpt>
      <trkpt lat="49.12401" lon="1.93812">
        <ele>57.8</ele>
        <time>2023-11-29T08:39:55Z</time>
      </trkpt>
      <trkpt lat="49.12405" lon="1.93809">
        <ele>57.9</ele>
        <time>2023-11-29T08:40:01Z</time>
      </trkpt>
      <trkpt lat="49.12406" lon="1.93808">
        <ele>57.9</ele>
        <time>2023-11-29T08:40:06Z</time>
      </trkpt>
      <trkpt lat="49.12407" lon="1.93807">
        <ele>58</ele>
        <time>2023-11-29T08:40:12Z</time>
      </trkpt>
      <trkpt lat="49.12411" lon="1.93807">
        <ele>58</ele>
        <time>2023-11-29T08:40:17Z</time>
      </trkpt>
      <trkpt lat="49.12415" lon="1.93808">
        <ele>57.9</ele>
        <time>2023-11-29T08:40:22Z</time>
      </trkpt>
      <trkpt lat="49.12416" lon="1.93808">
        <ele>57.9</ele>
        <time>2023-11-29T08:40:28Z</time>
      </trkpt>
      <trkpt lat="49.12417" lon="1.93809">
        <ele>57.9</ele>
        <time>2023-11-29T08:40:34Z</time>
      </trkpt>
      <trkpt lat="49.12418" lon="1.93809">
        <ele>57.9</ele>
        <time>2023-11-29T08:40:40Z</time>
      </trkpt>
      <trkpt lat="49.12421" lon="1.93808">
        <ele>57.9</ele>
        <time>2023-11-29T08:40:45Z</time>
      </trkpt>
      <trkpt lat="49.12426" lon="1.93807">
        <ele>57.9</ele>
        <time>2023-11-29T08:40:50Z</time>
      </trkpt>
      <trkpt lat="49.12431" lon="1.93806">
        <ele>58</ele>
        <time>2023-11-29T08:40:55Z</time>
      </trkpt>
      <trkpt lat="49.12434" lon="1.93804">
        <ele>58.2</ele>
        <time>2023-11-29T08:41:01Z</time>
      </trkpt>
      <trkpt lat="49.12439" lon="1.93801">
        <ele>58.4</ele>
        <time>2023-11-29T08:41:06Z</time>
      </trkpt>
      <trkpt lat="49.12445" lon="1.93798">
        <ele>58.8</ele>
        <time>2023-11-29T08:41:12Z</time>
      </trkpt>
      <trkpt lat="49.12451" lon="1.93793">
        <ele>59.1</ele>
        <time>2023-11-29T08:41:17Z</time>
      </trkpt>
      <trkpt lat="49.12457" lon="1.93787">
        <ele>59.5</ele>
        <time>2023-11-29T08:41:23Z</time>
      </trkpt>
      <trkpt lat="49.12463" lon="1.93782">
        <ele>59.9</ele>
        <time>2023-11-29T08:41:28Z</time>
      </trkpt>
      <trkpt lat="49.12469" lon="1.93774">
        <ele>60.6</ele>
        <time>2023-11-29T08:41:34Z</time>
      </trkpt>
      <trkpt lat="49.12474" lon="1.93765">
        <ele>61.1</ele>
        <time>2023-11-29T08:41:39Z</time>
      </trkpt>
      <trkpt lat="49.1248" lon="1.93756">
        <ele>61.3</ele>
        <time>2023-11-29T08:41:45Z</time>
      </trkpt>
      <trkpt lat="49.12485" lon="1.93749">
        <ele>61.3</ele>
        <time>2023-11-29T08:41:51Z</time>
      </trkpt>
      <trkpt lat="49.12488" lon="1.93745">
        <ele>61.4</ele>
        <time>2023-11-29T08:41:57Z</time>
      </trkpt>
      <trkpt lat="49.1249" lon="1.93743">
        <ele>61.5</ele>
        <time>2023-11-29T08:42:03Z</time>
      </trkpt>
      <trkpt lat="49.12491" lon="1.93743">
        <ele>61.2</ele>
        <time>2023-11-29T08:42:08Z</time>
      </trkpt>
      <trkpt lat="49.12494" lon="1.93746">
        <ele>60.5</ele>
        <time>2023-11-29T08:42:13Z</time>
      </trkpt>
      <trkpt lat="49.12497" lon="1.9375">
        <ele>59.4</ele>
        <time>2023-11-29T08:42:19Z</time>
      </trkpt>
      <trkpt lat="49.12501" lon="1.93755">
        <ele>58.6</ele>
        <time>2023-11-29T08:42:25Z</time>
      </trkpt>
      <trkpt lat="49.12504" lon="1.9376">
        <ele>58.1</ele>
        <time>2023-11-29T08:42:30Z</time>
      </trkpt>
      <trkpt lat="49.12505" lon="1.93761">
        <ele>57.9</ele>
        <time>2023-11-29T08:42:35Z</time>
      </trkpt>
      <trkpt lat="49.12506" lon="1.93762">
        <ele>57.8</ele>
        <time>2023-11-29T08:42:41Z</time>
      </trkpt>
      <trkpt lat="49.12506" lon="1.93765">
        <ele>57.6</ele>
        <time>2023-11-29T08:42:47Z</time>
      </trkpt>
      <trkpt lat="49.12507" lon="1.93766">
        <ele>57.5</ele>
        <time>2023-11-29T08:42:53Z</time>
      </trkpt>
      <trkpt lat="49.12506" lon="1.93767">
        <ele>57.5</ele>
        <time>2023-11-29T08:42:59Z</time>
      </trkpt>
      <trkpt lat="49.12506" lon="1.93767">
        <ele>57.5</ele>
        <time>2023-11-29T08:43:05Z</time>
      </trkpt>
      <trkpt lat="49.12506" lon="1.93766">
        <ele>57.6</ele>
        <time>2023-11-29T08:43:11Z</time>
      </trkpt>
      <trkpt lat="49.12505" lon="1.93764">
        <ele>57.7</ele>
        <time>2023-11-29T08:43:16Z</time>
      </trkpt>
      <trkpt lat="49.12505" lon="1.93763">
        <ele>57.8</ele>
        <time>2023-11-29T08:43:21Z</time>
      </trkpt>
      <trkpt lat="49.12505" lon="1.93762">
        <ele>57.9</ele>
        <time>2023-11-29T08:43:26Z</time>
      </trkpt>
      <trkpt lat="49.12505" lon="1.93761">
        <ele>57.9</ele>
        <time>2023-11-29T08:43:32Z</time>
      </trkpt>
      <trkpt lat="49.12505" lon="1.93761">
        <ele>57.9</ele>
        <time>2023-11-29T08:43:37Z</time>
      </trkpt>
      <trkpt lat="49.12505" lon="1.93761">
        <ele>58</ele>
        <time>2023-11-29T08:43:43Z</time>
      </trkpt>
      <trkpt lat="49.12505" lon="1.93761">
        <ele>57.9</ele>
        <time>2023-11-29T08:43:48Z</time>
      </trkpt>
      <trkpt lat="49.12506" lon="1.93764">
        <ele>57.7</ele>
        <time>2023-11-29T08:43:54Z</time>
      </trkpt>
      <trkpt lat="49.12513" lon="1.93774">
        <ele>56.8</ele>
        <time>2023-11-29T08:44:00Z</time>
      </trkpt>
      <trkpt lat="49.12518" lon="1.93778">
        <ele>56.3</ele>
        <time>2023-11-29T08:44:05Z</time>
      </trkpt>
      <trkpt lat="49.12518" lon="1.93779">
        <ele>56.3</ele>
        <time>2023-11-29T08:44:11Z</time>
      </trkpt>
      <trkpt lat="49.12518" lon="1.9378">
        <ele>56.3</ele>
        <time>2023-11-29T08:44:16Z</time>
      </trkpt>
      <trkpt lat="49.12518" lon="1.9378">
        <ele>56.3</ele>
        <time>2023-11-29T08:44:22Z</time>
      </trkpt>
      <trkpt lat="49.12518" lon="1.93781">
        <ele>56.3</ele>
        <time>2023-11-29T08:44:28Z</time>
      </trkpt>
      <trkpt lat="49.12518" lon="1.93781">
        <ele>56.3</ele>
        <time>2023-11-29T08:44:34Z</time>
      </trkpt>
      <trkpt lat="49.12518" lon="1.9378">
        <ele>56.3</ele>
        <time>2023-11-29T08:44:39Z</time>
      </trkpt>
      <trkpt lat="49.12518" lon="1.93779">
        <ele>56.3</ele>
        <time>2023-11-29T08:44:45Z</time>
      </trkpt>
      <trkpt lat="49.12518" lon="1.93779">
        <ele>56.3</ele>
        <time>2023-11-29T08:44:51Z</time>
      </trkpt>
      <trkpt lat="49.12518" lon="1.9378">
        <ele>56.3</ele>
        <time>2023-11-29T08:44:56Z</time>
      </trkpt>
      <trkpt lat="49.12519" lon="1.9378">
        <ele>56.3</ele>
        <time>2023-11-29T08:45:01Z</time>
      </trkpt>
      <trkpt lat="49.12519" lon="1.9378">
        <ele>56.3</ele>
        <time>2023-11-29T08:45:07Z</time>
      </trkpt>
      <trkpt lat="49.12519" lon="1.9378">
        <ele>56.3</ele>
        <time>2023-11-29T08:45:12Z</time>
      </trkpt>
      <trkpt lat="49.12519" lon="1.9378">
        <ele>56.3</ele>
        <time>2023-11-29T08:45:18Z</time>
      </trkpt>
      <trkpt lat="49.12519" lon="1.93781">
        <ele>56.3</ele>
        <time>2023-11-29T08:45:24Z</time>
      </trkpt>
      <trkpt lat="49.1252" lon="1.93781">
        <ele>56.3</ele>
        <time>2023-11-29T08:45:29Z</time>
      </trkpt>
      <trkpt lat="49.1252" lon="1.93781">
        <ele>56.3</ele>
        <time>2023-11-29T08:45:34Z</time>
      </trkpt>
      <trkpt lat="49.12522" lon="1.93783">
        <ele>56.2</ele>
        <time>2023-11-29T08:45:40Z</time>
      </trkpt>
      <trkpt lat="49.12525" lon="1.93787">
        <ele>56.1</ele>
        <time>2023-11-29T08:45:46Z</time>
      </trkpt>
      <trkpt lat="49.12527" lon="1.93795">
        <ele>56</ele>
        <time>2023-11-29T08:45:51Z</time>
      </trkpt>
      <trkpt lat="49.1253" lon="1.938">
        <ele>55.9</ele>
        <time>2023-11-29T08:45:57Z</time>
      </trkpt>
      <trkpt lat="49.12534" lon="1.93807">
        <ele>55.7</ele>
        <time>2023-11-29T08:46:03Z</time>
      </trkpt>
      <trkpt lat="49.1254" lon="1.93813">
        <ele>55.4</ele>
        <time>2023-11-29T08:46:09Z</time>
      </trkpt>
      <trkpt lat="49.12548" lon="1.93817">
        <ele>55.2</ele>
        <time>2023-11-29T08:46:15Z</time>
      </trkpt>
      <trkpt lat="49.12554" lon="1.93821">
        <ele>55</ele>
        <time>2023-11-29T08:46:21Z</time>
      </trkpt>
      <trkpt lat="49.12558" lon="1.93826">
        <ele>55</ele>
        <time>2023-11-29T08:46:26Z</time>
      </trkpt>
      <trkpt lat="49.12565" lon="1.93832">
        <ele>55</ele>
        <time>2023-11-29T08:46:32Z</time>
      </trkpt>
      <trkpt lat="49.12574" lon="1.93837">
        <ele>55</ele>
        <time>2023-11-29T08:46:38Z</time>
      </trkpt>
      <trkpt lat="49.12585" lon="1.93842">
        <ele>55</ele>
        <time>2023-11-29T08:46:44Z</time>
      </trkpt>
      <trkpt lat="49.12591" lon="1.93846">
        <ele>55.3</ele>
        <time>2023-11-29T08:46:49Z</time>
      </trkpt>
      <trkpt lat="49.12597" lon="1.9385">
        <ele>55.5</ele>
        <time>2023-11-29T08:46:54Z</time>
      </trkpt>
      <trkpt lat="49.12604" lon="1.93853">
        <ele>55.7</ele>
        <time>2023-11-29T08:47:00Z</time>
      </trkpt>
      <trkpt lat="49.12611" lon="1.93856">
        <ele>56</ele>
        <time>2023-11-29T08:47:06Z</time>
      </trkpt>
      <trkpt lat="49.12618" lon="1.93859">
        <ele>56.7</ele>
        <time>2023-11-29T08:47:12Z</time>
      </trkpt>
      <trkpt lat="49.12624" lon="1.93861">
        <ele>57.4</ele>
        <time>2023-11-29T08:47:17Z</time>
      </trkpt>
      <trkpt lat="49.12631" lon="1.93864">
        <ele>58.3</ele>
        <time>2023-11-29T08:47:22Z</time>
      </trkpt>
      <trkpt lat="49.1264" lon="1.93867">
        <ele>59.6</ele>
        <time>2023-11-29T08:47:28Z</time>
      </trkpt>
      <trkpt lat="49.12647" lon="1.93866">
        <ele>60.3</ele>
        <time>2023-11-29T08:47:34Z</time>
      </trkpt>
      <trkpt lat="49.12653" lon="1.93866">
        <ele>60.9</ele>
        <time>2023-11-29T08:47:39Z</time>
      </trkpt>
      <trkpt lat="49.12659" lon="1.93864">
        <ele>61.5</ele>
        <time>2023-11-29T08:47:45Z</time>
      </trkpt>
      <trkpt lat="49.12663" lon="1.93865">
        <ele>62</ele>
        <time>2023-11-29T08:47:50Z</time>
      </trkpt>
      <trkpt lat="49.12669" lon="1.93858">
        <ele>62</ele>
        <time>2023-11-29T08:47:56Z</time>
      </trkpt>
      <trkpt lat="49.12674" lon="1.93854">
        <ele>62.4</ele>
        <time>2023-11-29T08:48:02Z</time>
      </trkpt>
      <trkpt lat="49.12683" lon="1.93848">
        <ele>62.9</ele>
        <time>2023-11-29T08:48:09Z</time>
      </trkpt>
      <trkpt lat="49.1269" lon="1.93844">
        <ele>63.4</ele>
        <time>2023-11-29T08:48:15Z</time>
      </trkpt>
      <trkpt lat="49.12698" lon="1.93836">
        <ele>63.7</ele>
        <time>2023-11-29T08:48:21Z</time>
      </trkpt>
      <trkpt lat="49.12705" lon="1.93827">
        <ele>63.4</ele>
        <time>2023-11-29T08:48:28Z</time>
      </trkpt>
      <trkpt lat="49.1271" lon="1.93821">
        <ele>63.3</ele>
        <time>2023-11-29T08:48:33Z</time>
      </trkpt>
      <trkpt lat="49.12715" lon="1.93816">
        <ele>63.3</ele>
        <time>2023-11-29T08:48:38Z</time>
      </trkpt>
      <trkpt lat="49.1272" lon="1.93808">
        <ele>63.1</ele>
        <time>2023-11-29T08:48:43Z</time>
      </trkpt>
      <trkpt lat="49.12727" lon="1.93797">
        <ele>62.4</ele>
        <time>2023-11-29T08:48:49Z</time>
      </trkpt>
      <trkpt lat="49.12732" lon="1.9379">
        <ele>62</ele>
        <time>2023-11-29T08:48:54Z</time>
      </trkpt>
      <trkpt lat="49.12738" lon="1.93784">
        <ele>61.9</ele>
        <time>2023-11-29T08:49:00Z</time>
      </trkpt>
      <trkpt lat="49.12744" lon="1.93779">
        <ele>61.7</ele>
        <time>2023-11-29T08:49:06Z</time>
      </trkpt>
      <trkpt lat="49.12754" lon="1.93776">
        <ele>62.2</ele>
        <time>2023-11-29T08:49:12Z</time>
      </trkpt>
      <trkpt lat="49.12761" lon="1.93772">
        <ele>62.7</ele>
        <time>2023-11-29T08:49:17Z</time>
      </trkpt>
      <trkpt lat="49.12767" lon="1.9377">
        <ele>63.1</ele>
        <time>2023-11-29T08:49:23Z</time>
      </trkpt>
      <trkpt lat="49.12775" lon="1.93769">
        <ele>63.8</ele>
        <time>2023-11-29T08:49:29Z</time>
      </trkpt>
      <trkpt lat="49.1278" lon="1.93768">
        <ele>64.2</ele>
        <time>2023-11-29T08:49:35Z</time>
      </trkpt>
      <trkpt lat="49.12785" lon="1.93771">
        <ele>65</ele>
        <time>2023-11-29T08:49:41Z</time>
      </trkpt>
      <trkpt lat="49.12792" lon="1.93774">
        <ele>66.1</ele>
        <time>2023-11-29T08:49:47Z</time>
      </trkpt>
      <trkpt lat="49.12798" lon="1.93775">
        <ele>66.8</ele>
        <time>2023-11-29T08:49:53Z</time>
      </trkpt>
      <trkpt lat="49.12805" lon="1.93774">
        <ele>67.5</ele>
        <time>2023-11-29T08:49:58Z</time>
      </trkpt>
      <trkpt lat="49.12809" lon="1.93773">
        <ele>68</ele>
        <time>2023-11-29T08:50:03Z</time>
      </trkpt>
      <trkpt lat="49.12817" lon="1.93771">
        <ele>68.6</ele>
        <time>2023-11-29T08:50:09Z</time>
      </trkpt>
      <trkpt lat="49.12825" lon="1.9377">
        <ele>69.5</ele>
        <time>2023-11-29T08:50:14Z</time>
      </trkpt>
      <trkpt lat="49.12835" lon="1.9377">
        <ele>70.6</ele>
        <time>2023-11-29T08:50:20Z</time>
      </trkpt>
      <trkpt lat="49.12843" lon="1.9377">
        <ele>71.3</ele>
        <time>2023-11-29T08:50:26Z</time>
      </trkpt>
      <trkpt lat="49.12852" lon="1.93769">
        <ele>72.2</ele>
        <time>2023-11-29T08:50:32Z</time>
      </trkpt>
      <trkpt lat="49.12859" lon="1.9377">
        <ele>72.8</ele>
        <time>2023-11-29T08:50:37Z</time>
      </trkpt>
      <trkpt lat="49.12866" lon="1.93767">
        <ele>73.4</ele>
        <time>2023-11-29T08:50:43Z</time>
      </trkpt>
      <trkpt lat="49.12874" lon="1.93764">
        <ele>73.9</ele>
        <time>2023-11-29T08:50:49Z</time>
      </trkpt>
      <trkpt lat="49.1288" lon="1.93764">
        <ele>74.4</ele>
        <time>2023-11-29T08:50:54Z</time>
      </trkpt>
      <trkpt lat="49.12887" lon="1.93763">
        <ele>74.9</ele>
        <time>2023-11-29T08:51:00Z</time>
      </trkpt>
      <trkpt lat="49.12894" lon="1.9376">
        <ele>75.4</ele>
        <time>2023-11-29T08:51:05Z</time>
      </trkpt>
      <trkpt lat="49.12901" lon="1.93758">
        <ele>76</ele>
        <time>2023-11-29T08:51:11Z</time>
      </trkpt>
      <trkpt lat="49.12907" lon="1.93759">
        <ele>76.5</ele>
        <time>2023-11-29T08:51:16Z</time>
      </trkpt>
      <trkpt lat="49.12914" lon="1.93758">
        <ele>77.1</ele>
        <time>2023-11-29T08:51:22Z</time>
      </trkpt>
      <trkpt lat="49.12921" lon="1.93758">
        <ele>77.7</ele>
        <time>2023-11-29T08:51:27Z</time>
      </trkpt>
      <trkpt lat="49.12927" lon="1.93759">
        <ele>78.3</ele>
        <time>2023-11-29T08:51:33Z</time>
      </trkpt>
      <trkpt lat="49.12933" lon="1.93759">
        <ele>78.9</ele>
        <time>2023-11-29T08:51:38Z</time>
      </trkpt>
      <trkpt lat="49.1294" lon="1.93758">
        <ele>79.5</ele>
        <time>2023-11-29T08:51:44Z</time>
      </trkpt>
      <trkpt lat="49.12947" lon="1.93755">
        <ele>80.1</ele>
        <time>2023-11-29T08:51:49Z</time>
      </trkpt>
      <trkpt lat="49.12955" lon="1.93752">
        <ele>80.4</ele>
        <time>2023-11-29T08:51:55Z</time>
      </trkpt>
      <trkpt lat="49.12961" lon="1.9375">
        <ele>80.6</ele>
        <time>2023-11-29T08:52:00Z</time>
      </trkpt>
      <trkpt lat="49.12967" lon="1.93752">
        <ele>80.8</ele>
        <time>2023-11-29T08:52:06Z</time>
      </trkpt>
      <trkpt lat="49.12974" lon="1.93754">
        <ele>81.1</ele>
        <time>2023-11-29T08:52:11Z</time>
      </trkpt>
      <trkpt lat="49.12981" lon="1.93756">
        <ele>81.4</ele>
        <time>2023-11-29T08:52:17Z</time>
      </trkpt>
      <trkpt lat="49.12987" lon="1.93756">
        <ele>81.7</ele>
        <time>2023-11-29T08:52:22Z</time>
      </trkpt>
      <trkpt lat="49.12995" lon="1.93756">
        <ele>82</ele>
        <time>2023-11-29T08:52:27Z</time>
      </trkpt>
      <trkpt lat="49.13003" lon="1.93754">
        <ele>82.3</ele>
        <time>2023-11-29T08:52:33Z</time>
      </trkpt>
      <trkpt lat="49.13009" lon="1.93753">
        <ele>82.5</ele>
        <time>2023-11-29T08:52:38Z</time>
      </trkpt>
      <trkpt lat="49.13016" lon="1.93751">
        <ele>82.6</ele>
        <time>2023-11-29T08:52:44Z</time>
      </trkpt>
      <trkpt lat="49.13024" lon="1.93749">
        <ele>82.8</ele>
        <time>2023-11-29T08:52:50Z</time>
      </trkpt>
      <trkpt lat="49.13033" lon="1.93747">
        <ele>83.1</ele>
        <time>2023-11-29T08:52:56Z</time>
      </trkpt>
      <trkpt lat="49.1304" lon="1.93747">
        <ele>83.3</ele>
        <time>2023-11-29T08:53:02Z</time>
      </trkpt>
      <trkpt lat="49.13047" lon="1.93745">
        <ele>83.5</ele>
        <time>2023-11-29T08:53:07Z</time>
      </trkpt>
      <trkpt lat="49.13054" lon="1.93739">
        <ele>83.6</ele>
        <time>2023-11-29T08:53:13Z</time>
      </trkpt>
      <trkpt lat="49.1306" lon="1.93732">
        <ele>83.7</ele>
        <time>2023-11-29T08:53:19Z</time>
      </trkpt>
      <trkpt lat="49.13067" lon="1.93723">
        <ele>83.9</ele>
        <time>2023-11-29T08:53:25Z</time>
      </trkpt>
      <trkpt lat="49.13073" lon="1.93712">
        <ele>83.8</ele>
        <time>2023-11-29T08:53:31Z</time>
      </trkpt>
      <trkpt lat="49.13077" lon="1.93707">
        <ele>83.7</ele>
        <time>2023-11-29T08:53:36Z</time>
      </trkpt>
      <trkpt lat="49.13083" lon="1.93699">
        <ele>83.4</ele>
        <time>2023-11-29T08:53:42Z</time>
      </trkpt>
      <trkpt lat="49.13088" lon="1.93691">
        <ele>83.4</ele>
        <time>2023-11-29T08:53:48Z</time>
      </trkpt>
      <trkpt lat="49.13094" lon="1.93685">
        <ele>83.8</ele>
        <time>2023-11-29T08:53:53Z</time>
      </trkpt>
      <trkpt lat="49.13099" lon="1.93677">
        <ele>84</ele>
        <time>2023-11-29T08:53:58Z</time>
      </trkpt>
      <trkpt lat="49.13104" lon="1.93667">
        <ele>84.2</ele>
        <time>2023-11-29T08:54:04Z</time>
      </trkpt>
      <trkpt lat="49.13108" lon="1.93655">
        <ele>84.3</ele>
        <time>2023-11-29T08:54:10Z</time>
      </trkpt>
      <trkpt lat="49.13111" lon="1.93645">
        <ele>84.2</ele>
        <time>2023-11-29T08:54:15Z</time>
      </trkpt>
      <trkpt lat="49.13114" lon="1.93635">
        <ele>84.1</ele>
        <time>2023-11-29T08:54:20Z</time>
      </trkpt>
      <trkpt lat="49.13117" lon="1.93623">
        <ele>84</ele>
        <time>2023-11-29T08:54:26Z</time>
      </trkpt>
      <trkpt lat="49.13121" lon="1.93614">
        <ele>84.1</ele>
        <time>2023-11-29T08:54:31Z</time>
      </trkpt>
      <trkpt lat="49.13124" lon="1.93601">
        <ele>84.2</ele>
        <time>2023-11-29T08:54:37Z</time>
      </trkpt>
      <trkpt lat="49.13129" lon="1.93587">
        <ele>84.4</ele>
        <time>2023-11-29T08:54:43Z</time>
      </trkpt>
      <trkpt lat="49.13133" lon="1.93577">
        <ele>84.3</ele>
        <time>2023-11-29T08:54:48Z</time>
      </trkpt>
      <trkpt lat="49.13135" lon="1.93565">
        <ele>84.1</ele>
        <time>2023-11-29T08:54:53Z</time>
      </trkpt>
      <trkpt lat="49.13138" lon="1.93554">
        <ele>84</ele>
        <time>2023-11-29T08:54:59Z</time>
      </trkpt>
      <trkpt lat="49.13142" lon="1.93541">
        <ele>84.3</ele>
        <time>2023-11-29T08:55:05Z</time>
      </trkpt>
      <trkpt lat="49.13146" lon="1.9353">
        <ele>84.5</ele>
        <time>2023-11-29T08:55:10Z</time>
      </trkpt>
      <trkpt lat="49.13151" lon="1.93521">
        <ele>84.9</ele>
        <time>2023-11-29T08:55:16Z</time>
      </trkpt>
      <trkpt lat="49.13156" lon="1.93511">
        <ele>85.2</ele>
        <time>2023-11-29T08:55:22Z</time>
      </trkpt>
      <trkpt lat="49.13159" lon="1.93502">
        <ele>85.5</ele>
        <time>2023-11-29T08:55:27Z</time>
      </trkpt>
      <trkpt lat="49.13164" lon="1.93491">
        <ele>85.7</ele>
        <time>2023-11-29T08:55:33Z</time>
      </trkpt>
      <trkpt lat="49.13168" lon="1.93479">
        <ele>86.1</ele>
        <time>2023-11-29T08:55:39Z</time>
      </trkpt>
      <trkpt lat="49.13171" lon="1.93472">
        <ele>86.3</ele>
        <time>2023-11-29T08:55:44Z</time>
      </trkpt>
      <trkpt lat="49.13176" lon="1.93463">
        <ele>86.6</ele>
        <time>2023-11-29T08:55:49Z</time>
      </trkpt>
      <trkpt lat="49.1318" lon="1.93453">
        <ele>87</ele>
        <time>2023-11-29T08:55:54Z</time>
      </trkpt>
      <trkpt lat="49.13184" lon="1.93442">
        <ele>87.2</ele>
        <time>2023-11-29T08:56:00Z</time>
      </trkpt>
      <trkpt lat="49.13188" lon="1.9343">
        <ele>87</ele>
        <time>2023-11-29T08:56:06Z</time>
      </trkpt>
      <trkpt lat="49.13192" lon="1.93419">
        <ele>86.9</ele>
        <time>2023-11-29T08:56:12Z</time>
      </trkpt>
      <trkpt lat="49.13196" lon="1.93407">
        <ele>87.1</ele>
        <time>2023-11-29T08:56:18Z</time>
      </trkpt>
      <trkpt lat="49.13202" lon="1.93397">
        <ele>87.6</ele>
        <time>2023-11-29T08:56:24Z</time>
      </trkpt>
      <trkpt lat="49.13207" lon="1.9339">
        <ele>87.9</ele>
        <time>2023-11-29T08:56:29Z</time>
      </trkpt>
      <trkpt lat="49.13214" lon="1.93383">
        <ele>88.2</ele>
        <time>2023-11-29T08:56:35Z</time>
      </trkpt>
      <trkpt lat="49.13218" lon="1.93371">
        <ele>88</ele>
        <time>2023-11-29T08:56:41Z</time>
      </trkpt>
      <trkpt lat="49.13221" lon="1.93361">
        <ele>87.9</ele>
        <time>2023-11-29T08:56:46Z</time>
      </trkpt>
      <trkpt lat="49.13227" lon="1.9335">
        <ele>88</ele>
        <time>2023-11-29T08:56:52Z</time>
      </trkpt>
      <trkpt lat="49.13232" lon="1.9334">
        <ele>87.9</ele>
        <time>2023-11-29T08:56:58Z</time>
      </trkpt>
      <trkpt lat="49.13235" lon="1.93332">
        <ele>87.9</ele>
        <time>2023-11-29T08:57:03Z</time>
      </trkpt>
      <trkpt lat="49.13238" lon="1.93322">
        <ele>87.9</ele>
        <time>2023-11-29T08:57:09Z</time>
      </trkpt>
      <trkpt lat="49.13241" lon="1.9331">
        <ele>87.8</ele>
        <time>2023-11-29T08:57:15Z</time>
      </trkpt>
      <trkpt lat="49.13242" lon="1.93302">
        <ele>87.6</ele>
        <time>2023-11-29T08:57:20Z</time>
      </trkpt>
      <trkpt lat="49.1324" lon="1.93292">
        <ele>87.1</ele>
        <time>2023-11-29T08:57:25Z</time>
      </trkpt>
      <trkpt lat="49.13236" lon="1.9328">
        <ele>86.6</ele>
        <time>2023-11-29T08:57:31Z</time>
      </trkpt>
      <trkpt lat="49.13232" lon="1.9327">
        <ele>85.8</ele>
        <time>2023-11-29T08:57:37Z</time>
      </trkpt>
      <trkpt lat="49.1323" lon="1.9326">
        <ele>85.2</ele>
        <time>2023-11-29T08:57:42Z</time>
      </trkpt>
      <trkpt lat="49.13229" lon="1.93248">
        <ele>84.3</ele>
        <time>2023-11-29T08:57:48Z</time>
      </trkpt>
      <trkpt lat="49.13231" lon="1.93238">
        <ele>83.8</ele>
        <time>2023-11-29T08:57:53Z</time>
      </trkpt>
      <trkpt lat="49.13235" lon="1.93228">
        <ele>83.4</ele>
        <time>2023-11-29T08:57:59Z</time>
      </trkpt>
      <trkpt lat="49.13238" lon="1.9322">
        <ele>82.9</ele>
        <time>2023-11-29T08:58:04Z</time>
      </trkpt>
      <trkpt lat="49.13242" lon="1.93209">
        <ele>82.1</ele>
        <time>2023-11-29T08:58:10Z</time>
      </trkpt>
      <trkpt lat="49.13244" lon="1.93199">
        <ele>81.6</ele>
        <time>2023-11-29T08:58:15Z</time>
      </trkpt>
      <trkpt lat="49.13248" lon="1.93186">
        <ele>80.8</ele>
        <time>2023-11-29T08:58:21Z</time>
      </trkpt>
      <trkpt lat="49.13252" lon="1.93175">
        <ele>80.1</ele>
        <time>2023-11-29T08:58:26Z</time>
      </trkpt>
      <trkpt lat="49.13258" lon="1.93164">
        <ele>79</ele>
        <time>2023-11-29T08:58:32Z</time>
      </trkpt>
      <trkpt lat="49.13264" lon="1.93157">
        <ele>78.1</ele>
        <time>2023-11-29T08:58:37Z</time>
      </trkpt>
      <trkpt lat="49.13272" lon="1.93152">
        <ele>77.9</ele>
        <time>2023-11-29T08:58:43Z</time>
      </trkpt>
      <trkpt lat="49.1328" lon="1.93148">
        <ele>77.8</ele>
        <time>2023-11-29T08:58:49Z</time>
      </trkpt>
      <trkpt lat="49.13285" lon="1.93143">
        <ele>77.5</ele>
        <time>2023-11-29T08:58:54Z</time>
      </trkpt>
      <trkpt lat="49.13291" lon="1.93136">
        <ele>76.8</ele>
        <time>2023-11-29T08:59:00Z</time>
      </trkpt>
      <trkpt lat="49.13298" lon="1.93131">
        <ele>76.2</ele>
        <time>2023-11-29T08:59:06Z</time>
      </trkpt>
      <trkpt lat="49.13305" lon="1.93127">
        <ele>75.8</ele>
        <time>2023-11-29T08:59:11Z</time>
      </trkpt>
      <trkpt lat="49.13313" lon="1.9312">
        <ele>74.7</ele>
        <time>2023-11-29T08:59:17Z</time>
      </trkpt>
      <trkpt lat="49.1332" lon="1.93117">
        <ele>74.3</ele>
        <time>2023-11-29T08:59:22Z</time>
      </trkpt>
      <trkpt lat="49.13328" lon="1.93111">
        <ele>73.6</ele>
        <time>2023-11-29T08:59:28Z</time>
      </trkpt>
      <trkpt lat="49.13334" lon="1.93105">
        <ele>72.8</ele>
        <time>2023-11-29T08:59:34Z</time>
      </trkpt>
      <trkpt lat="49.13341" lon="1.931">
        <ele>72.6</ele>
        <time>2023-11-29T08:59:39Z</time>
      </trkpt>
      <trkpt lat="49.13349" lon="1.93091">
        <ele>71.7</ele>
        <time>2023-11-29T08:59:45Z</time>
      </trkpt>
      <trkpt lat="49.13355" lon="1.93085">
        <ele>71.6</ele>
        <time>2023-11-29T08:59:50Z</time>
      </trkpt>
      <trkpt lat="49.13363" lon="1.93079">
        <ele>71.3</ele>
        <time>2023-11-29T08:59:56Z</time>
      </trkpt>
      <trkpt lat="49.1337" lon="1.93068">
        <ele>69.9</ele>
        <time>2023-11-29T09:00:02Z</time>
      </trkpt>
      <trkpt lat="49.13378" lon="1.93062">
        <ele>69.7</ele>
        <time>2023-11-29T09:00:08Z</time>
      </trkpt>
      <trkpt lat="49.13386" lon="1.93056">
        <ele>69.6</ele>
        <time>2023-11-29T09:00:14Z</time>
      </trkpt>
      <trkpt lat="49.13393" lon="1.93048">
        <ele>69.7</ele>
        <time>2023-11-29T09:00:20Z</time>
      </trkpt>
      <trkpt lat="49.13399" lon="1.93042">
        <ele>70</ele>
        <time>2023-11-29T09:00:26Z</time>
      </trkpt>
      <trkpt lat="49.13404" lon="1.93034">
        <ele>69.7</ele>
        <time>2023-11-29T09:00:32Z</time>
      </trkpt>
      <trkpt lat="49.13408" lon="1.93025">
        <ele>68.8</ele>
        <time>2023-11-29T09:00:37Z</time>
      </trkpt>
      <trkpt lat="49.13414" lon="1.93015">
        <ele>68.6</ele>
        <time>2023-11-29T09:00:43Z</time>
      </trkpt>
      <trkpt lat="49.13417" lon="1.93007">
        <ele>68.2</ele>
        <time>2023-11-29T09:00:48Z</time>
      </trkpt>
      <trkpt lat="49.13424" lon="1.92999">
        <ele>68.5</ele>
        <time>2023-11-29T09:00:54Z</time>
      </trkpt>
      <trkpt lat="49.1343" lon="1.9299">
        <ele>68.9</ele>
        <time>2023-11-29T09:00:59Z</time>
      </trkpt>
      <trkpt lat="49.13433" lon="1.92982">
        <ele>68.8</ele>
        <time>2023-11-29T09:01:04Z</time>
      </trkpt>
      <trkpt lat="49.13435" lon="1.92974">
        <ele>68.4</ele>
        <time>2023-11-29T09:01:10Z</time>
      </trkpt>
      <trkpt lat="49.13435" lon="1.92967">
        <ele>68.1</ele>
        <time>2023-11-29T09:01:15Z</time>
      </trkpt>
      <trkpt lat="49.13435" lon="1.92963">
        <ele>67.8</ele>
        <time>2023-11-29T09:01:20Z</time>
      </trkpt>
      <trkpt lat="49.13435" lon="1.9296">
        <ele>67.6</ele>
        <time>2023-11-29T09:01:26Z</time>
      </trkpt>
      <trkpt lat="49.13434" lon="1.92952">
        <ele>67.1</ele>
        <time>2023-11-29T09:01:32Z</time>
      </trkpt>
      <trkpt lat="49.13428" lon="1.9294">
        <ele>66.2</ele>
        <time>2023-11-29T09:01:37Z</time>
      </trkpt>
      <trkpt lat="49.13422" lon="1.92929">
        <ele>65.4</ele>
        <time>2023-11-29T09:01:43Z</time>
      </trkpt>
      <trkpt lat="49.13415" lon="1.92922">
        <ele>64.9</ele>
        <time>2023-11-29T09:01:48Z</time>
      </trkpt>
      <trkpt lat="49.13407" lon="1.92915">
        <ele>64.7</ele>
        <time>2023-11-29T09:01:54Z</time>
      </trkpt>
      <trkpt lat="49.134" lon="1.92905">
        <ele>64.7</ele>
        <time>2023-11-29T09:02:00Z</time>
      </trkpt>
      <trkpt lat="49.13395" lon="1.92895">
        <ele>64.8</ele>
        <time>2023-11-29T09:02:06Z</time>
      </trkpt>
      <trkpt lat="49.13391" lon="1.92885">
        <ele>65</ele>
        <time>2023-11-29T09:02:12Z</time>
      </trkpt>
      <trkpt lat="49.13387" lon="1.92876">
        <ele>65</ele>
        <time>2023-11-29T09:02:17Z</time>
      </trkpt>
      <trkpt lat="49.13382" lon="1.9287">
        <ele>64.9</ele>
        <time>2023-11-29T09:02:23Z</time>
      </trkpt>
      <trkpt lat="49.13376" lon="1.9286">
        <ele>65</ele>
        <time>2023-11-29T09:02:29Z</time>
      </trkpt>
      <trkpt lat="49.13372" lon="1.9285">
        <ele>64.9</ele>
        <time>2023-11-29T09:02:35Z</time>
      </trkpt>
      <trkpt lat="49.13367" lon="1.92844">
        <ele>64.9</ele>
        <time>2023-11-29T09:02:40Z</time>
      </trkpt>
      <trkpt lat="49.13361" lon="1.92836">
        <ele>65</ele>
        <time>2023-11-29T09:02:45Z</time>
      </trkpt>
      <trkpt lat="49.13353" lon="1.92826">
        <ele>64.8</ele>
        <time>2023-11-29T09:02:51Z</time>
      </trkpt>
      <trkpt lat="49.13348" lon="1.92819">
        <ele>64.8</ele>
        <time>2023-11-29T09:02:56Z</time>
      </trkpt>
      <trkpt lat="49.13341" lon="1.92809">
        <ele>64.9</ele>
        <time>2023-11-29T09:03:02Z</time>
      </trkpt>
      <trkpt lat="49.13336" lon="1.928">
        <ele>65.2</ele>
        <time>2023-11-29T09:03:07Z</time>
      </trkpt>
      <trkpt lat="49.13332" lon="1.92794">
        <ele>65.7</ele>
        <time>2023-11-29T09:03:13Z</time>
      </trkpt>
      <trkpt lat="49.13328" lon="1.92785">
        <ele>66.7</ele>
        <time>2023-11-29T09:03:19Z</time>
      </trkpt>
      <trkpt lat="49.13326" lon="1.92775">
        <ele>67.8</ele>
        <time>2023-11-29T09:03:25Z</time>
      </trkpt>
      <trkpt lat="49.13323" lon="1.92771">
        <ele>68.8</ele>
        <time>2023-11-29T09:03:30Z</time>
      </trkpt>
      <trkpt lat="49.1332" lon="1.92771">
        <ele>69.4</ele>
        <time>2023-11-29T09:03:36Z</time>
      </trkpt>
      <trkpt lat="49.13318" lon="1.92774">
        <ele>69.7</ele>
        <time>2023-11-29T09:03:41Z</time>
      </trkpt>
      <trkpt lat="49.13317" lon="1.92779">
        <ele>69.3</ele>
        <time>2023-11-29T09:03:47Z</time>
      </trkpt>
      <trkpt lat="49.13316" lon="1.92787">
        <ele>68.9</ele>
        <time>2023-11-29T09:03:52Z</time>
      </trkpt>
      <trkpt lat="49.13314" lon="1.92799">
        <ele>67.9</ele>
        <time>2023-11-29T09:03:58Z</time>
      </trkpt>
      <trkpt lat="49.13312" lon="1.92807">
        <ele>67.2</ele>
        <time>2023-11-29T09:04:03Z</time>
      </trkpt>
      <trkpt lat="49.13309" lon="1.92815">
        <ele>66.4</ele>
        <time>2023-11-29T09:04:08Z</time>
      </trkpt>
      <trkpt lat="49.13303" lon="1.92822">
        <ele>65.7</ele>
        <time>2023-11-29T09:04:14Z</time>
      </trkpt>
      <trkpt lat="49.13298" lon="1.92825">
        <ele>65.4</ele>
        <time>2023-11-29T09:04:19Z</time>
      </trkpt>
      <trkpt lat="49.1329" lon="1.92826">
        <ele>65.4</ele>
        <time>2023-11-29T09:04:25Z</time>
      </trkpt>
      <trkpt lat="49.13283" lon="1.92825">
        <ele>65.7</ele>
        <time>2023-11-29T09:04:31Z</time>
      </trkpt>
      <trkpt lat="49.13275" lon="1.92825">
        <ele>65.8</ele>
        <time>2023-11-29T09:04:37Z</time>
      </trkpt>
      <trkpt lat="49.13268" lon="1.92826">
        <ele>65.7</ele>
        <time>2023-11-29T09:04:42Z</time>
      </trkpt>
      <trkpt lat="49.1326" lon="1.92827">
        <ele>65.6</ele>
        <time>2023-11-29T09:04:48Z</time>
      </trkpt>
      <trkpt lat="49.13253" lon="1.92827">
        <ele>65.5</ele>
        <time>2023-11-29T09:04:53Z</time>
      </trkpt>
      <trkpt lat="49.13245" lon="1.92828">
        <ele>65.5</ele>
        <time>2023-11-29T09:04:59Z</time>
      </trkpt>
      <trkpt lat="49.13236" lon="1.92829">
        <ele>65.6</ele>
        <time>2023-11-29T09:05:05Z</time>
      </trkpt>
      <trkpt lat="49.13228" lon="1.92829">
        <ele>65.7</ele>
        <time>2023-11-29T09:05:11Z</time>
      </trkpt>
      <trkpt lat="49.13219" lon="1.9283">
        <ele>65.8</ele>
        <time>2023-11-29T09:05:17Z</time>
      </trkpt>
      <trkpt lat="49.13211" lon="1.92831">
        <ele>65.9</ele>
        <time>2023-11-29T09:05:22Z</time>
      </trkpt>
      <trkpt lat="49.13204" lon="1.92832">
        <ele>66</ele>
        <time>2023-11-29T09:05:27Z</time>
      </trkpt>
      <trkpt lat="49.13197" lon="1.92834">
        <ele>65.9</ele>
        <time>2023-11-29T09:05:33Z</time>
      </trkpt>
      <trkpt lat="49.1319" lon="1.92837">
        <ele>65.9</ele>
        <time>2023-11-29T09:05:39Z</time>
      </trkpt>
      <trkpt lat="49.13184" lon="1.9284">
        <ele>66</ele>
        <time>2023-11-29T09:05:45Z</time>
      </trkpt>
      <trkpt lat="49.13177" lon="1.92843">
        <ele>66.1</ele>
        <time>2023-11-29T09:05:51Z</time>
      </trkpt>
      <trkpt lat="49.1317" lon="1.92846">
        <ele>66</ele>
        <time>2023-11-29T09:05:56Z</time>
      </trkpt>
      <trkpt lat="49.13163" lon="1.9285">
        <ele>65.6</ele>
        <time>2023-11-29T09:06:02Z</time>
      </trkpt>
      <trkpt lat="49.13158" lon="1.92853">
        <ele>65.4</ele>
        <time>2023-11-29T09:06:07Z</time>
      </trkpt>
      <trkpt lat="49.13151" lon="1.92857">
        <ele>65</ele>
        <time>2023-11-29T09:06:13Z</time>
      </trkpt>
      <trkpt lat="49.13144" lon="1.92861">
        <ele>64.6</ele>
        <time>2023-11-29T09:06:18Z</time>
      </trkpt>
      <trkpt lat="49.13134" lon="1.92868">
        <ele>64.8</ele>
        <time>2023-11-29T09:06:24Z</time>
      </trkpt>
      <trkpt lat="49.13125" lon="1.92877">
        <ele>64.8</ele>
        <time>2023-11-29T09:06:30Z</time>
      </trkpt>
      <trkpt lat="49.13117" lon="1.92885">
        <ele>64.2</ele>
        <time>2023-11-29T09:06:36Z</time>
      </trkpt>
      <trkpt lat="49.13113" lon="1.92889">
        <ele>63.8</ele>
        <time>2023-11-29T09:06:41Z</time>
      </trkpt>
      <trkpt lat="49.13109" lon="1.92893">
        <ele>64</ele>
        <time>2023-11-29T09:06:46Z</time>
      </trkpt>
      <trkpt lat="49.13104" lon="1.92899">
        <ele>64.4</ele>
        <time>2023-11-29T09:06:51Z</time>
      </trkpt>
      <trkpt lat="49.13099" lon="1.92906">
        <ele>64.6</ele>
        <time>2023-11-29T09:06:57Z</time>
      </trkpt>
      <trkpt lat="49.13093" lon="1.92914">
        <ele>64.6</ele>
        <time>2023-11-29T09:07:03Z</time>
      </trkpt>
      <trkpt lat="49.13089" lon="1.92921">
        <ele>64.5</ele>
        <time>2023-11-29T09:07:08Z</time>
      </trkpt>
      <trkpt lat="49.13083" lon="1.92928">
        <ele>64.5</ele>
        <time>2023-11-29T09:07:14Z</time>
      </trkpt>
      <trkpt lat="49.13078" lon="1.92935">
        <ele>64.2</ele>
        <time>2023-11-29T09:07:19Z</time>
      </trkpt>
      <trkpt lat="49.13073" lon="1.92944">
        <ele>63.9</ele>
        <time>2023-11-29T09:07:25Z</time>
      </trkpt>
      <trkpt lat="49.13069" lon="1.92953">
        <ele>63.9</ele>
        <time>2023-11-29T09:07:31Z</time>
      </trkpt>
      <trkpt lat="49.13065" lon="1.9296">
        <ele>63.8</ele>
        <time>2023-11-29T09:07:37Z</time>
      </trkpt>
      <trkpt lat="49.1306" lon="1.92967">
        <ele>63.9</ele>
        <time>2023-11-29T09:07:43Z</time>
      </trkpt>
      <trkpt lat="49.13055" lon="1.92973">
        <ele>63.9</ele>
        <time>2023-11-29T09:07:49Z</time>
      </trkpt>
      <trkpt lat="49.13052" lon="1.92977">
        <ele>63.4</ele>
        <time>2023-11-29T09:07:55Z</time>
      </trkpt>
      <trkpt lat="49.13049" lon="1.92981">
        <ele>62.9</ele>
        <time>2023-11-29T09:08:01Z</time>
      </trkpt>
      <trkpt lat="49.13046" lon="1.92984">
        <ele>62.5</ele>
        <time>2023-11-29T09:08:06Z</time>
      </trkpt>
      <trkpt lat="49.13044" lon="1.92986">
        <ele>62.3</ele>
        <time>2023-11-29T09:08:12Z</time>
      </trkpt>
      <trkpt lat="49.13043" lon="1.92988">
        <ele>62.1</ele>
        <time>2023-11-29T09:08:18Z</time>
      </trkpt>
      <trkpt lat="49.13042" lon="1.92988">
        <ele>62.1</ele>
        <time>2023-11-29T09:08:24Z</time>
      </trkpt>
      <trkpt lat="49.13041" lon="1.92989">
        <ele>62</ele>
        <time>2023-11-29T09:08:30Z</time>
      </trkpt>
      <trkpt lat="49.13041" lon="1.92989">
        <ele>62</ele>
        <time>2023-11-29T09:08:36Z</time>
      </trkpt>
      <trkpt lat="49.13041" lon="1.92989">
        <ele>62</ele>
        <time>2023-11-29T09:08:41Z</time>
      </trkpt>
      <trkpt lat="49.1304" lon="1.92988">
        <ele>62</ele>
        <time>2023-11-29T09:08:46Z</time>
      </trkpt>
      <trkpt lat="49.1304" lon="1.92988">
        <ele>62.1</ele>
        <time>2023-11-29T09:08:52Z</time>
      </trkpt>
      <trkpt lat="49.13039" lon="1.92988">
        <ele>62.1</ele>
        <time>2023-11-29T09:08:58Z</time>
      </trkpt>
      <trkpt lat="49.13039" lon="1.92988">
        <ele>62</ele>
        <time>2023-11-29T09:09:03Z</time>
      </trkpt>
      <trkpt lat="49.13039" lon="1.92988">
        <ele>62</ele>
        <time>2023-11-29T09:09:09Z</time>
      </trkpt>
      <trkpt lat="49.13039" lon="1.92988">
        <ele>62</ele>
        <time>2023-11-29T09:09:14Z</time>
      </trkpt>
      <trkpt lat="49.13038" lon="1.92988">
        <ele>62</ele>
        <time>2023-11-29T09:09:20Z</time>
      </trkpt>
      <trkpt lat="49.1303" lon="1.92983">
        <ele>62.3</ele>
        <time>2023-11-29T09:09:26Z</time>
      </trkpt>
      <trkpt lat="49.13026" lon="1.92977">
        <ele>62.4</ele>
        <time>2023-11-29T09:09:31Z</time>
      </trkpt>
      <trkpt lat="49.13025" lon="1.92967">
        <ele>62.9</ele>
        <time>2023-11-29T09:09:37Z</time>
      </trkpt>
      <trkpt lat="49.13026" lon="1.92958">
        <ele>63.8</ele>
        <time>2023-11-29T09:09:42Z</time>
      </trkpt>
      <trkpt lat="49.13028" lon="1.92945">
        <ele>64.9</ele>
        <time>2023-11-29T09:09:48Z</time>
      </trkpt>
      <trkpt lat="49.13029" lon="1.92934">
        <ele>65.1</ele>
        <time>2023-11-29T09:09:54Z</time>
      </trkpt>
      <trkpt lat="49.13028" lon="1.92924">
        <ele>65.1</ele>
        <time>2023-11-29T09:09:59Z</time>
      </trkpt>
      <trkpt lat="49.13027" lon="1.92912">
        <ele>65.1</ele>
        <time>2023-11-29T09:10:05Z</time>
      </trkpt>
      <trkpt lat="49.13027" lon="1.92902">
        <ele>65.4</ele>
        <time>2023-11-29T09:10:10Z</time>
      </trkpt>
      <trkpt lat="49.13025" lon="1.92891">
        <ele>65.5</ele>
        <time>2023-11-29T09:10:16Z</time>
      </trkpt>
      <trkpt lat="49.13023" lon="1.92882">
        <ele>65.7</ele>
        <time>2023-11-29T09:10:21Z</time>
      </trkpt>
      <trkpt lat="49.1302" lon="1.92873">
        <ele>65.7</ele>
        <time>2023-11-29T09:10:26Z</time>
      </trkpt>
      <trkpt lat="49.13017" lon="1.92863">
        <ele>65.6</ele>
        <time>2023-11-29T09:10:32Z</time>
      </trkpt>
      <trkpt lat="49.13014" lon="1.92853">
        <ele>65.4</ele>
        <time>2023-11-29T09:10:38Z</time>
      </trkpt>
      <trkpt lat="49.13012" lon="1.92845">
        <ele>65.4</ele>
        <time>2023-11-29T09:10:43Z</time>
      </trkpt>
      <trkpt lat="49.13009" lon="1.92831">
        <ele>65.3</ele>
        <time>2023-11-29T09:10:49Z</time>
      </trkpt>
      <trkpt lat="49.13006" lon="1.92819">
        <ele>65.2</ele>
        <time>2023-11-29T09:10:54Z</time>
      </trkpt>
      <trkpt lat="49.13003" lon="1.92805">
        <ele>64.9</ele>
        <time>2023-11-29T09:11:00Z</time>
      </trkpt>
      <trkpt lat="49.13001" lon="1.92794">
        <ele>65</ele>
        <time>2023-11-29T09:11:05Z</time>
      </trkpt>
      <trkpt lat="49.12998" lon="1.92782">
        <ele>65.4</ele>
        <time>2023-11-29T09:11:11Z</time>
      </trkpt>
      <trkpt lat="49.12995" lon="1.9277">
        <ele>65.7</ele>
        <time>2023-11-29T09:11:17Z</time>
      </trkpt>
      <trkpt lat="49.12992" lon="1.92757">
        <ele>65.8</ele>
        <time>2023-11-29T09:11:23Z</time>
      </trkpt>
      <trkpt lat="49.12987" lon="1.92745">
        <ele>65.5</ele>
        <time>2023-11-29T09:11:29Z</time>
      </trkpt>
      <trkpt lat="49.12984" lon="1.92732">
        <ele>65.9</ele>
        <time>2023-11-29T09:11:35Z</time>
      </trkpt>
      <trkpt lat="49.1298" lon="1.9272">
        <ele>65.7</ele>
        <time>2023-11-29T09:11:41Z</time>
      </trkpt>
      <trkpt lat="49.12976" lon="1.9271">
        <ele>65.7</ele>
        <time>2023-11-29T09:11:46Z</time>
      </trkpt>
      <trkpt lat="49.12972" lon="1.92701">
        <ele>65.2</ele>
        <time>2023-11-29T09:11:51Z</time>
      </trkpt>
      <trkpt lat="49.12966" lon="1.92691">
        <ele>65.5</ele>
        <time>2023-11-29T09:11:57Z</time>
      </trkpt>
      <trkpt lat="49.1296" lon="1.92679">
        <ele>65.5</ele>
        <time>2023-11-29T09:12:03Z</time>
      </trkpt>
      <trkpt lat="49.12957" lon="1.92667">
        <ele>65.7</ele>
        <time>2023-11-29T09:12:09Z</time>
      </trkpt>
      <trkpt lat="49.12955" lon="1.92655">
        <ele>66.1</ele>
        <time>2023-11-29T09:12:15Z</time>
      </trkpt>
      <trkpt lat="49.12951" lon="1.92649">
        <ele>65.3</ele>
        <time>2023-11-29T09:12:20Z</time>
      </trkpt>
      <trkpt lat="49.12945" lon="1.92641">
        <ele>64</ele>
        <time>2023-11-29T09:12:26Z</time>
      </trkpt>
      <trkpt lat="49.1294" lon="1.92632">
        <ele>64.4</ele>
        <time>2023-11-29T09:12:31Z</time>
      </trkpt>
      <trkpt lat="49.12937" lon="1.92622">
        <ele>65</ele>
        <time>2023-11-29T09:12:36Z</time>
      </trkpt>
      <trkpt lat="49.12933" lon="1.92609">
        <ele>65.5</ele>
        <time>2023-11-29T09:12:42Z</time>
      </trkpt>
      <trkpt lat="49.1293" lon="1.92598">
        <ele>66.2</ele>
        <time>2023-11-29T09:12:48Z</time>
      </trkpt>
      <trkpt lat="49.12928" lon="1.92586">
        <ele>66.6</ele>
        <time>2023-11-29T09:12:53Z</time>
      </trkpt>
      <trkpt lat="49.12923" lon="1.92574">
        <ele>66.2</ele>
        <time>2023-11-29T09:12:59Z</time>
      </trkpt>
      <trkpt lat="49.1292" lon="1.92565">
        <ele>66</ele>
        <time>2023-11-29T09:13:04Z</time>
      </trkpt>
      <trkpt lat="49.12914" lon="1.92559">
        <ele>65.4</ele>
        <time>2023-11-29T09:13:09Z</time>
      </trkpt>
      <trkpt lat="49.12908" lon="1.92548">
        <ele>65.4</ele>
        <time>2023-11-29T09:13:15Z</time>
      </trkpt>
      <trkpt lat="49.12904" lon="1.92539">
        <ele>65.4</ele>
        <time>2023-11-29T09:13:20Z</time>
      </trkpt>
      <trkpt lat="49.12903" lon="1.92526">
        <ele>66.1</ele>
        <time>2023-11-29T09:13:26Z</time>
      </trkpt>
      <trkpt lat="49.129" lon="1.92516">
        <ele>66</ele>
        <time>2023-11-29T09:13:31Z</time>
      </trkpt>
      <trkpt lat="49.12897" lon="1.92507">
        <ele>65.8</ele>
        <time>2023-11-29T09:13:36Z</time>
      </trkpt>
      <trkpt lat="49.12894" lon="1.92497">
        <ele>65.3</ele>
        <time>2023-11-29T09:13:42Z</time>
      </trkpt>
      <trkpt lat="49.12891" lon="1.92485">
        <ele>65.2</ele>
        <time>2023-11-29T09:13:47Z</time>
      </trkpt>
      <trkpt lat="49.12888" lon="1.92472">
        <ele>65</ele>
        <time>2023-11-29T09:13:53Z</time>
      </trkpt>
      <trkpt lat="49.12886" lon="1.92462">
        <ele>65.5</ele>
        <time>2023-11-29T09:13:58Z</time>
      </trkpt>
      <trkpt lat="49.12886" lon="1.92452">
        <ele>66.1</ele>
        <time>2023-11-29T09:14:04Z</time>
      </trkpt>
      <trkpt lat="49.12885" lon="1.92449">
        <ele>66.2</ele>
        <time>2023-11-29T09:14:09Z</time>
      </trkpt>
      <trkpt lat="49.12885" lon="1.92443">
        <ele>66.5</ele>
        <time>2023-11-29T09:14:15Z</time>
      </trkpt>
      <trkpt lat="49.12883" lon="1.92432">
        <ele>67</ele>
        <time>2023-11-29T09:14:20Z</time>
      </trkpt>
      <trkpt lat="49.12882" lon="1.92419">
        <ele>67.7</ele>
        <time>2023-11-29T09:14:25Z</time>
      </trkpt>
      <trkpt lat="49.12878" lon="1.9241">
        <ele>67.4</ele>
        <time>2023-11-29T09:14:31Z</time>
      </trkpt>
      <trkpt lat="49.12873" lon="1.92401">
        <ele>66.9</ele>
        <time>2023-11-29T09:14:36Z</time>
      </trkpt>
      <trkpt lat="49.12869" lon="1.92391">
        <ele>66.7</ele>
        <time>2023-11-29T09:14:42Z</time>
      </trkpt>
      <trkpt lat="49.12866" lon="1.92382">
        <ele>66.7</ele>
        <time>2023-11-29T09:14:47Z</time>
      </trkpt>
      <trkpt lat="49.12862" lon="1.92371">
        <ele>66.6</ele>
        <time>2023-11-29T09:14:53Z</time>
      </trkpt>
      <trkpt lat="49.12857" lon="1.92361">
        <ele>66.8</ele>
        <time>2023-11-29T09:14:59Z</time>
      </trkpt>
      <trkpt lat="49.12857" lon="1.92347">
        <ele>68.1</ele>
        <time>2023-11-29T09:15:05Z</time>
      </trkpt>
      <trkpt lat="49.12857" lon="1.92341">
        <ele>68.7</ele>
        <time>2023-11-29T09:15:10Z</time>
      </trkpt>
      <trkpt lat="49.12857" lon="1.92331">
        <ele>69.6</ele>
        <time>2023-11-29T09:15:16Z</time>
      </trkpt>
      <trkpt lat="49.12855" lon="1.92321">
        <ele>69.9</ele>
        <time>2023-11-29T09:15:21Z</time>
      </trkpt>
      <trkpt lat="49.12851" lon="1.92311">
        <ele>69.9</ele>
        <time>2023-11-29T09:15:27Z</time>
      </trkpt>
      <trkpt lat="49.12846" lon="1.92303">
        <ele>69.4</ele>
        <time>2023-11-29T09:15:32Z</time>
      </trkpt>
      <trkpt lat="49.12842" lon="1.92298">
        <ele>69</ele>
        <time>2023-11-29T09:15:37Z</time>
      </trkpt>
      <trkpt lat="49.12842" lon="1.92288">
        <ele>69.3</ele>
        <time>2023-11-29T09:15:43Z</time>
      </trkpt>
      <trkpt lat="49.12842" lon="1.92279">
        <ele>69.7</ele>
        <time>2023-11-29T09:15:49Z</time>
      </trkpt>
      <trkpt lat="49.1284" lon="1.92271">
        <ele>69.6</ele>
        <time>2023-11-29T09:15:55Z</time>
      </trkpt>
      <trkpt lat="49.12839" lon="1.92265">
        <ele>69.4</ele>
        <time>2023-11-29T09:16:01Z</time>
      </trkpt>
      <trkpt lat="49.12839" lon="1.92257">
        <ele>69.3</ele>
        <time>2023-11-29T09:16:06Z</time>
      </trkpt>
      <trkpt lat="49.12839" lon="1.92248">
        <ele>69.5</ele>
        <time>2023-11-29T09:16:12Z</time>
      </trkpt>
      <trkpt lat="49.12839" lon="1.92239">
        <ele>69.5</ele>
        <time>2023-11-29T09:16:17Z</time>
      </trkpt>
      <trkpt lat="49.12838" lon="1.92228">
        <ele>69.3</ele>
        <time>2023-11-29T09:16:23Z</time>
      </trkpt>
      <trkpt lat="49.12838" lon="1.9222">
        <ele>69.4</ele>
        <time>2023-11-29T09:16:28Z</time>
      </trkpt>
      <trkpt lat="49.12837" lon="1.92208">
        <ele>69.5</ele>
        <time>2023-11-29T09:16:34Z</time>
      </trkpt>
      <trkpt lat="49.12837" lon="1.92199">
        <ele>69.8</ele>
        <time>2023-11-29T09:16:40Z</time>
      </trkpt>
      <trkpt lat="49.12837" lon="1.9219">
        <ele>70.3</ele>
        <time>2023-11-29T09:16:45Z</time>
      </trkpt>
      <trkpt lat="49.12836" lon="1.92183">
        <ele>70.7</ele>
        <time>2023-11-29T09:16:51Z</time>
      </trkpt>
      <trkpt lat="49.12836" lon="1.92179">
        <ele>70.8</ele>
        <time>2023-11-29T09:16:56Z</time>
      </trkpt>
      <trkpt lat="49.12833" lon="1.9217">
        <ele>70.8</ele>
        <time>2023-11-29T09:17:02Z</time>
      </trkpt>
      <trkpt lat="49.12835" lon="1.92159">
        <ele>71.8</ele>
        <time>2023-11-29T09:17:08Z</time>
      </trkpt>
      <trkpt lat="49.12836" lon="1.92151">
        <ele>72.4</ele>
        <time>2023-11-29T09:17:13Z</time>
      </trkpt>
      <trkpt lat="49.12835" lon="1.92146">
        <ele>72.2</ele>
        <time>2023-11-29T09:17:18Z</time>
      </trkpt>
      <trkpt lat="49.12832" lon="1.92137">
        <ele>71.8</ele>
        <time>2023-11-29T09:17:24Z</time>
      </trkpt>
      <trkpt lat="49.12828" lon="1.92121">
        <ele>71.3</ele>
        <time>2023-11-29T09:17:30Z</time>
      </trkpt>
      <trkpt lat="49.12826" lon="1.9211">
        <ele>71.3</ele>
        <time>2023-11-29T09:17:35Z</time>
      </trkpt>
      <trkpt lat="49.12825" lon="1.92104">
        <ele>71.1</ele>
        <time>2023-11-29T09:17:41Z</time>
      </trkpt>
      <trkpt lat="49.12823" lon="1.92099">
        <ele>70.6</ele>
        <time>2023-11-29T09:17:47Z</time>
      </trkpt>
      <trkpt lat="49.12822" lon="1.92093">
        <ele>70.5</ele>
        <time>2023-11-29T09:17:52Z</time>
      </trkpt>
      <trkpt lat="49.12821" lon="1.92087">
        <ele>70.4</ele>
        <time>2023-11-29T09:17:58Z</time>
      </trkpt>
      <trkpt lat="49.1282" lon="1.92081">
        <ele>70.3</ele>
        <time>2023-11-29T09:18:03Z</time>
      </trkpt>
      <trkpt lat="49.12821" lon="1.92075">
        <ele>71</ele>
        <time>2023-11-29T09:18:08Z</time>
      </trkpt>
      <trkpt lat="49.12823" lon="1.92069">
        <ele>71.8</ele>
        <time>2023-11-29T09:18:14Z</time>
      </trkpt>
      <trkpt lat="49.12823" lon="1.92064">
        <ele>72.3</ele>
        <time>2023-11-29T09:18:20Z</time>
      </trkpt>
      <trkpt lat="49.12824" lon="1.92059">
        <ele>72.9</ele>
        <time>2023-11-29T09:18:26Z</time>
      </trkpt>
      <trkpt lat="49.12824" lon="1.92057">
        <ele>73</ele>
        <time>2023-11-29T09:18:32Z</time>
      </trkpt>
      <trkpt lat="49.12823" lon="1.92053">
        <ele>72.7</ele>
        <time>2023-11-29T09:18:37Z</time>
      </trkpt>
      <trkpt lat="49.12821" lon="1.9205">
        <ele>72.1</ele>
        <time>2023-11-29T09:18:42Z</time>
      </trkpt>
      <trkpt lat="49.1282" lon="1.92049">
        <ele>71.7</ele>
        <time>2023-11-29T09:18:48Z</time>
      </trkpt>
      <trkpt lat="49.1282" lon="1.92047">
        <ele>71.7</ele>
        <time>2023-11-29T09:18:54Z</time>
      </trkpt>
      <trkpt lat="49.1282" lon="1.92042">
        <ele>71.9</ele>
        <time>2023-11-29T09:18:59Z</time>
      </trkpt>
      <trkpt lat="49.12818" lon="1.92034">
        <ele>71.6</ele>
        <time>2023-11-29T09:19:05Z</time>
      </trkpt>
      <trkpt lat="49.12819" lon="1.92029">
        <ele>71.8</ele>
        <time>2023-11-29T09:19:11Z</time>
      </trkpt>
      <trkpt lat="49.12818" lon="1.92025">
        <ele>71.6</ele>
        <time>2023-11-29T09:19:16Z</time>
      </trkpt>
      <trkpt lat="49.12818" lon="1.92023">
        <ele>71.7</ele>
        <time>2023-11-29T09:19:22Z</time>
      </trkpt>
      <trkpt lat="49.12819" lon="1.92022">
        <ele>72.1</ele>
        <time>2023-11-29T09:19:27Z</time>
      </trkpt>
      <trkpt lat="49.1282" lon="1.92013">
        <ele>72.5</ele>
        <time>2023-11-29T09:19:33Z</time>
      </trkpt>
      <trkpt lat="49.12821" lon="1.92007">
        <ele>73</ele>
        <time>2023-11-29T09:19:39Z</time>
      </trkpt>
      <trkpt lat="49.12822" lon="1.92004">
        <ele>73.1</ele>
        <time>2023-11-29T09:19:44Z</time>
      </trkpt>
      <trkpt lat="49.1282" lon="1.91999">
        <ele>72.9</ele>
        <time>2023-11-29T09:19:50Z</time>
      </trkpt>
      <trkpt lat="49.1282" lon="1.91992">
        <ele>72.8</ele>
        <time>2023-11-29T09:19:56Z</time>
      </trkpt>
      <trkpt lat="49.1282" lon="1.91986">
        <ele>73.2</ele>
        <time>2023-11-29T09:20:01Z</time>
      </trkpt>
      <trkpt lat="49.1282" lon="1.91979">
        <ele>73.4</ele>
        <time>2023-11-29T09:20:07Z</time>
      </trkpt>
      <trkpt lat="49.12819" lon="1.91971">
        <ele>73.4</ele>
        <time>2023-11-29T09:20:12Z</time>
      </trkpt>
      <trkpt lat="49.12819" lon="1.91965">
        <ele>73.5</ele>
        <time>2023-11-29T09:20:17Z</time>
      </trkpt>
      <trkpt lat="49.12817" lon="1.91955">
        <ele>73.4</ele>
        <time>2023-11-29T09:20:23Z</time>
      </trkpt>
      <trkpt lat="49.12816" lon="1.91944">
        <ele>73.5</ele>
        <time>2023-11-29T09:20:29Z</time>
      </trkpt>
      <trkpt lat="49.12814" lon="1.91928">
        <ele>73.5</ele>
        <time>2023-11-29T09:20:35Z</time>
      </trkpt>
      <trkpt lat="49.12811" lon="1.91913">
        <ele>73</ele>
        <time>2023-11-29T09:20:40Z</time>
      </trkpt>
      <trkpt lat="49.12806" lon="1.91895">
        <ele>72</ele>
        <time>2023-11-29T09:20:46Z</time>
      </trkpt>
      <trkpt lat="49.12803" lon="1.91881">
        <ele>72</ele>
        <time>2023-11-29T09:20:51Z</time>
      </trkpt>
      <trkpt lat="49.12798" lon="1.91864">
        <ele>72</ele>
        <time>2023-11-29T09:20:57Z</time>
      </trkpt>
      <trkpt lat="49.12795" lon="1.91849">
        <ele>72.1</ele>
        <time>2023-11-29T09:21:03Z</time>
      </trkpt>
      <trkpt lat="49.12792" lon="1.9184">
        <ele>72.1</ele>
        <time>2023-11-29T09:21:08Z</time>
      </trkpt>
      <trkpt lat="49.12788" lon="1.91828">
        <ele>72.2</ele>
        <time>2023-11-29T09:21:14Z</time>
      </trkpt>
      <trkpt lat="49.12785" lon="1.91817">
        <ele>72.5</ele>
        <time>2023-11-29T09:21:20Z</time>
      </trkpt>
      <trkpt lat="49.12781" lon="1.91807">
        <ele>72.6</ele>
        <time>2023-11-29T09:21:25Z</time>
      </trkpt>
      <trkpt lat="49.12777" lon="1.91795">
        <ele>73</ele>
        <time>2023-11-29T09:21:31Z</time>
      </trkpt>
      <trkpt lat="49.12773" lon="1.91783">
        <ele>73.7</ele>
        <time>2023-11-29T09:21:36Z</time>
      </trkpt>
      <trkpt lat="49.12769" lon="1.9177">
        <ele>74.2</ele>
        <time>2023-11-29T09:21:42Z</time>
      </trkpt>
      <trkpt lat="49.12766" lon="1.9176">
        <ele>74.5</ele>
        <time>2023-11-29T09:21:48Z</time>
      </trkpt>
      <trkpt lat="49.12763" lon="1.9175">
        <ele>74.9</ele>
        <time>2023-11-29T09:21:53Z</time>
      </trkpt>
      <trkpt lat="49.12761" lon="1.91741">
        <ele>74.9</ele>
        <time>2023-11-29T09:21:59Z</time>
      </trkpt>
      <trkpt lat="49.12757" lon="1.91731">
        <ele>74.9</ele>
        <time>2023-11-29T09:22:05Z</time>
      </trkpt>
      <trkpt lat="49.12753" lon="1.91719">
        <ele>74.8</ele>
        <time>2023-11-29T09:22:11Z</time>
      </trkpt>
      <trkpt lat="49.1275" lon="1.91706">
        <ele>74.5</ele>
        <time>2023-11-29T09:22:17Z</time>
      </trkpt>
      <trkpt lat="49.12746" lon="1.91698">
        <ele>74.1</ele>
        <time>2023-11-29T09:22:22Z</time>
      </trkpt>
      <trkpt lat="49.12742" lon="1.91687">
        <ele>73.4</ele>
        <time>2023-11-29T09:22:28Z</time>
      </trkpt>
      <trkpt lat="49.12739" lon="1.91677">
        <ele>72.9</ele>
        <time>2023-11-29T09:22:34Z</time>
      </trkpt>
      <trkpt lat="49.12735" lon="1.91665">
        <ele>72.4</ele>
        <time>2023-11-29T09:22:40Z</time>
      </trkpt>
      <trkpt lat="49.12732" lon="1.91651">
        <ele>72.2</ele>
        <time>2023-11-29T09:22:46Z</time>
      </trkpt>
      <trkpt lat="49.12728" lon="1.91641">
        <ele>71.5</ele>
        <time>2023-11-29T09:22:52Z</time>
      </trkpt>
      <trkpt lat="49.12723" lon="1.91632">
        <ele>70.6</ele>
        <time>2023-11-29T09:22:58Z</time>
      </trkpt>
      <trkpt lat="49.12719" lon="1.91621">
        <ele>70.2</ele>
        <time>2023-11-29T09:23:04Z</time>
      </trkpt>
      <trkpt lat="49.12715" lon="1.91613">
        <ele>69.9</ele>
        <time>2023-11-29T09:23:10Z</time>
      </trkpt>
      <trkpt lat="49.12711" lon="1.91605">
        <ele>69.8</ele>
        <time>2023-11-29T09:23:15Z</time>
      </trkpt>
      <trkpt lat="49.12707" lon="1.91594">
        <ele>69.9</ele>
        <time>2023-11-29T09:23:21Z</time>
      </trkpt>
      <trkpt lat="49.12702" lon="1.91584">
        <ele>69.5</ele>
        <time>2023-11-29T09:23:27Z</time>
      </trkpt>
      <trkpt lat="49.12697" lon="1.91575">
        <ele>68.8</ele>
        <time>2023-11-29T09:23:32Z</time>
      </trkpt>
      <trkpt lat="49.12692" lon="1.91565">
        <ele>68.5</ele>
        <time>2023-11-29T09:23:38Z</time>
      </trkpt>
      <trkpt lat="49.12689" lon="1.91555">
        <ele>68.5</ele>
        <time>2023-11-29T09:23:44Z</time>
      </trkpt>
      <trkpt lat="49.12688" lon="1.91546">
        <ele>69.2</ele>
        <time>2023-11-29T09:23:49Z</time>
      </trkpt>
      <trkpt lat="49.12686" lon="1.91536">
        <ele>69.6</ele>
        <time>2023-11-29T09:23:54Z</time>
      </trkpt>
      <trkpt lat="49.12684" lon="1.91526">
        <ele>69.9</ele>
        <time>2023-11-29T09:23:59Z</time>
      </trkpt>
      <trkpt lat="49.12681" lon="1.91514">
        <ele>70.3</ele>
        <time>2023-11-29T09:24:05Z</time>
      </trkpt>
      <trkpt lat="49.12679" lon="1.91506">
        <ele>70.7</ele>
        <time>2023-11-29T09:24:10Z</time>
      </trkpt>
      <trkpt lat="49.12677" lon="1.91497">
        <ele>71.1</ele>
        <time>2023-11-29T09:24:16Z</time>
      </trkpt>
      <trkpt lat="49.12674" lon="1.91488">
        <ele>71.4</ele>
        <time>2023-11-29T09:24:22Z</time>
      </trkpt>
      <trkpt lat="49.12671" lon="1.91477">
        <ele>71.8</ele>
        <time>2023-11-29T09:24:27Z</time>
      </trkpt>
      <trkpt lat="49.12668" lon="1.91464">
        <ele>71.9</ele>
        <time>2023-11-29T09:24:33Z</time>
      </trkpt>
      <trkpt lat="49.12665" lon="1.91456">
        <ele>71.9</ele>
        <time>2023-11-29T09:24:38Z</time>
      </trkpt>
      <trkpt lat="49.12663" lon="1.91446">
        <ele>72.1</ele>
        <time>2023-11-29T09:24:44Z</time>
      </trkpt>
      <trkpt lat="49.12663" lon="1.91437">
        <ele>72.7</ele>
        <time>2023-11-29T09:24:50Z</time>
      </trkpt>
      <trkpt lat="49.12664" lon="1.91428">
        <ele>73.5</ele>
        <time>2023-11-29T09:24:55Z</time>
      </trkpt>
      <trkpt lat="49.12662" lon="1.91414">
        <ele>74</ele>
        <time>2023-11-29T09:25:01Z</time>
      </trkpt>
      <trkpt lat="49.12661" lon="1.91404">
        <ele>74.3</ele>
        <time>2023-11-29T09:25:06Z</time>
      </trkpt>
      <trkpt lat="49.12659" lon="1.91395">
        <ele>74.4</ele>
        <time>2023-11-29T09:25:12Z</time>
      </trkpt>
      <trkpt lat="49.12658" lon="1.91389">
        <ele>74.6</ele>
        <time>2023-11-29T09:25:17Z</time>
      </trkpt>
      <trkpt lat="49.12657" lon="1.91383">
        <ele>74.7</ele>
        <time>2023-11-29T09:25:23Z</time>
      </trkpt>
      <trkpt lat="49.12655" lon="1.91376">
        <ele>74.5</ele>
        <time>2023-11-29T09:25:28Z</time>
      </trkpt>
      <trkpt lat="49.12652" lon="1.91368">
        <ele>74.1</ele>
        <time>2023-11-29T09:25:34Z</time>
      </trkpt>
      <trkpt lat="49.1265" lon="1.91358">
        <ele>74.4</ele>
        <time>2023-11-29T09:25:40Z</time>
      </trkpt>
      <trkpt lat="49.1265" lon="1.91349">
        <ele>74.6</ele>
        <time>2023-11-29T09:25:45Z</time>
      </trkpt>
      <trkpt lat="49.12649" lon="1.9134">
        <ele>74.7</ele>
        <time>2023-11-29T09:25:50Z</time>
      </trkpt>
      <trkpt lat="49.12649" lon="1.9133">
        <ele>75</ele>
        <time>2023-11-29T09:25:56Z</time>
      </trkpt>
      <trkpt lat="49.12648" lon="1.91322">
        <ele>74.8</ele>
        <time>2023-11-29T09:26:01Z</time>
      </trkpt>
      <trkpt lat="49.12646" lon="1.91311">
        <ele>74.4</ele>
        <time>2023-11-29T09:26:07Z</time>
      </trkpt>
      <trkpt lat="49.12646" lon="1.91305">
        <ele>74.2</ele>
        <time>2023-11-29T09:26:12Z</time>
      </trkpt>
      <trkpt lat="49.12644" lon="1.91297">
        <ele>73.6</ele>
        <time>2023-11-29T09:26:18Z</time>
      </trkpt>
      <trkpt lat="49.12643" lon="1.91287">
        <ele>73.3</ele>
        <time>2023-11-29T09:26:23Z</time>
      </trkpt>
      <trkpt lat="49.12641" lon="1.91277">
        <ele>72.7</ele>
        <time>2023-11-29T09:26:28Z</time>
      </trkpt>
      <trkpt lat="49.12639" lon="1.91267">
        <ele>72.3</ele>
        <time>2023-11-29T09:26:34Z</time>
      </trkpt>
      <trkpt lat="49.12637" lon="1.91257">
        <ele>72.4</ele>
        <time>2023-11-29T09:26:39Z</time>
      </trkpt>
      <trkpt lat="49.12635" lon="1.91249">
        <ele>72.5</ele>
        <time>2023-11-29T09:26:44Z</time>
      </trkpt>
      <trkpt lat="49.12634" lon="1.91239">
        <ele>72.9</ele>
        <time>2023-11-29T09:26:50Z</time>
      </trkpt>
      <trkpt lat="49.12634" lon="1.9123">
        <ele>73.4</ele>
        <time>2023-11-29T09:26:55Z</time>
      </trkpt>
      <trkpt lat="49.12635" lon="1.91218">
        <ele>74.1</ele>
        <time>2023-11-29T09:27:01Z</time>
      </trkpt>
      <trkpt lat="49.12635" lon="1.91208">
        <ele>74.2</ele>
        <time>2023-11-29T09:27:06Z</time>
      </trkpt>
      <trkpt lat="49.12636" lon="1.91199">
        <ele>74.4</ele>
        <time>2023-11-29T09:27:12Z</time>
      </trkpt>
      <trkpt lat="49.12636" lon="1.91193">
        <ele>74.3</ele>
        <time>2023-11-29T09:27:17Z</time>
      </trkpt>
      <trkpt lat="49.12636" lon="1.91185">
        <ele>74.3</ele>
        <time>2023-11-29T09:27:23Z</time>
      </trkpt>
      <trkpt lat="49.12639" lon="1.91175">
        <ele>75</ele>
        <time>2023-11-29T09:27:29Z</time>
      </trkpt>
      <trkpt lat="49.12642" lon="1.91167">
        <ele>76</ele>
        <time>2023-11-29T09:27:34Z</time>
      </trkpt>
      <trkpt lat="49.12646" lon="1.91159">
        <ele>76.6</ele>
        <time>2023-11-29T09:27:40Z</time>
      </trkpt>
      <trkpt lat="49.12651" lon="1.91152">
        <ele>77.6</ele>
        <time>2023-11-29T09:27:46Z</time>
      </trkpt>
      <trkpt lat="49.12654" lon="1.91148">
        <ele>78.2</ele>
        <time>2023-11-29T09:27:52Z</time>
      </trkpt>
      <trkpt lat="49.12657" lon="1.91143">
        <ele>78.6</ele>
        <time>2023-11-29T09:27:57Z</time>
      </trkpt>
      <trkpt lat="49.1266" lon="1.91136">
        <ele>78.6</ele>
        <time>2023-11-29T09:28:03Z</time>
      </trkpt>
      <trkpt lat="49.12662" lon="1.91132">
        <ele>78.8</ele>
        <time>2023-11-29T09:28:08Z</time>
      </trkpt>
      <trkpt lat="49.12666" lon="1.91129">
        <ele>79.2</ele>
        <time>2023-11-29T09:28:14Z</time>
      </trkpt>
      <trkpt lat="49.12669" lon="1.91126">
        <ele>79.7</ele>
        <time>2023-11-29T09:28:20Z</time>
      </trkpt>
      <trkpt lat="49.12673" lon="1.91123">
        <ele>80.3</ele>
        <time>2023-11-29T09:28:25Z</time>
      </trkpt>
      <trkpt lat="49.12676" lon="1.91122">
        <ele>81</ele>
        <time>2023-11-29T09:28:30Z</time>
      </trkpt>
      <trkpt lat="49.12679" lon="1.91115">
        <ele>80.9</ele>
        <time>2023-11-29T09:28:36Z</time>
      </trkpt>
      <trkpt lat="49.12681" lon="1.91111">
        <ele>80.6</ele>
        <time>2023-11-29T09:28:41Z</time>
      </trkpt>
      <trkpt lat="49.1268" lon="1.91108">
        <ele>79.9</ele>
        <time>2023-11-29T09:28:47Z</time>
      </trkpt>
      <trkpt lat="49.12677" lon="1.91104">
        <ele>78.6</ele>
        <time>2023-11-29T09:28:53Z</time>
      </trkpt>
      <trkpt lat="49.12676" lon="1.91103">
        <ele>78</ele>
        <time>2023-11-29T09:28:58Z</time>
      </trkpt>
      <trkpt lat="49.12674" lon="1.91101">
        <ele>77.2</ele>
        <time>2023-11-29T09:29:04Z</time>
      </trkpt>
      <trkpt lat="49.12673" lon="1.911">
        <ele>76.8</ele>
        <time>2023-11-29T09:29:10Z</time>
      </trkpt>
      <trkpt lat="49.12672" lon="1.911">
        <ele>76.7</ele>
        <time>2023-11-29T09:29:15Z</time>
      </trkpt>
      <trkpt lat="49.12672" lon="1.911">
        <ele>76.6</ele>
        <time>2023-11-29T09:29:21Z</time>
      </trkpt>
      <trkpt lat="49.12671" lon="1.91097">
        <ele>76.1</ele>
        <time>2023-11-29T09:29:26Z</time>
      </trkpt>
      <trkpt lat="49.12679" lon="1.91094">
        <ele>77.2</ele>
        <time>2023-11-29T09:29:31Z</time>
      </trkpt>
      <trkpt lat="49.12686" lon="1.91089">
        <ele>78</ele>
        <time>2023-11-29T09:29:36Z</time>
      </trkpt>
      <trkpt lat="49.12693" lon="1.91081">
        <ele>78.4</ele>
        <time>2023-11-29T09:29:42Z</time>
      </trkpt>
      <trkpt lat="49.12698" lon="1.91075">
        <ele>78.7</ele>
        <time>2023-11-29T09:29:47Z</time>
      </trkpt>
      <trkpt lat="49.12702" lon="1.9107">
        <ele>78.9</ele>
        <time>2023-11-29T09:29:52Z</time>
      </trkpt>
      <trkpt lat="49.1271" lon="1.91066">
        <ele>79.7</ele>
        <time>2023-11-29T09:29:58Z</time>
      </trkpt>
      <trkpt lat="49.12714" lon="1.91062">
        <ele>80.1</ele>
        <time>2023-11-29T09:30:03Z</time>
      </trkpt>
      <trkpt lat="49.1272" lon="1.91064">
        <ele>81.8</ele>
        <time>2023-11-29T09:30:09Z</time>
      </trkpt>
      <trkpt lat="49.12726" lon="1.91059">
        <ele>82.3</ele>
        <time>2023-11-29T09:30:14Z</time>
      </trkpt>
      <trkpt lat="49.12732" lon="1.9105">
        <ele>82.3</ele>
        <time>2023-11-29T09:30:19Z</time>
      </trkpt>
      <trkpt lat="49.12736" lon="1.91039">
        <ele>81.7</ele>
        <time>2023-11-29T09:30:24Z</time>
      </trkpt>
      <trkpt lat="49.1274" lon="1.91027">
        <ele>80.8</ele>
        <time>2023-11-29T09:30:30Z</time>
      </trkpt>
      <trkpt lat="49.12743" lon="1.91019">
        <ele>80.5</ele>
        <time>2023-11-29T09:30:36Z</time>
      </trkpt>
      <trkpt lat="49.12746" lon="1.91009">
        <ele>80</ele>
        <time>2023-11-29T09:30:41Z</time>
      </trkpt>
      <trkpt lat="49.12747" lon="1.91">
        <ele>79.4</ele>
        <time>2023-11-29T09:30:47Z</time>
      </trkpt>
      <trkpt lat="49.12749" lon="1.90994">
        <ele>79.2</ele>
        <time>2023-11-29T09:30:52Z</time>
      </trkpt>
      <trkpt lat="49.12751" lon="1.90986">
        <ele>78.8</ele>
        <time>2023-11-29T09:30:58Z</time>
      </trkpt>
      <trkpt lat="49.12754" lon="1.9098">
        <ele>78.8</ele>
        <time>2023-11-29T09:31:04Z</time>
      </trkpt>
      <trkpt lat="49.12754" lon="1.90977">
        <ele>78.6</ele>
        <time>2023-11-29T09:31:09Z</time>
      </trkpt>
      <trkpt lat="49.12759" lon="1.90974">
        <ele>79.5</ele>
        <time>2023-11-29T09:31:15Z</time>
      </trkpt>
      <trkpt lat="49.12762" lon="1.90971">
        <ele>79.8</ele>
        <time>2023-11-29T09:31:20Z</time>
      </trkpt>
      <trkpt lat="49.12766" lon="1.90965">
        <ele>80.1</ele>
        <time>2023-11-29T09:31:26Z</time>
      </trkpt>
      <trkpt lat="49.12771" lon="1.90956">
        <ele>80.5</ele>
        <time>2023-11-29T09:31:33Z</time>
      </trkpt>
      <trkpt lat="49.12775" lon="1.9094">
        <ele>80.1</ele>
        <time>2023-11-29T09:31:38Z</time>
      </trkpt>
      <trkpt lat="49.12779" lon="1.90922">
        <ele>79.6</ele>
        <time>2023-11-29T09:31:44Z</time>
      </trkpt>
      <trkpt lat="49.1278" lon="1.90912">
        <ele>79.2</ele>
        <time>2023-11-29T09:31:49Z</time>
      </trkpt>
      <trkpt lat="49.12781" lon="1.90904">
        <ele>79</ele>
        <time>2023-11-29T09:31:55Z</time>
      </trkpt>
      <trkpt lat="49.12782" lon="1.90899">
        <ele>78.8</ele>
        <time>2023-11-29T09:32:00Z</time>
      </trkpt>
      <trkpt lat="49.12784" lon="1.90894">
        <ele>79.1</ele>
        <time>2023-11-29T09:32:06Z</time>
      </trkpt>
      <trkpt lat="49.12786" lon="1.90888">
        <ele>79.4</ele>
        <time>2023-11-29T09:32:11Z</time>
      </trkpt>
      <trkpt lat="49.12789" lon="1.90883">
        <ele>80.1</ele>
        <time>2023-11-29T09:32:16Z</time>
      </trkpt>
      <trkpt lat="49.12793" lon="1.90877">
        <ele>81.2</ele>
        <time>2023-11-29T09:32:22Z</time>
      </trkpt>
      <trkpt lat="49.12798" lon="1.90871">
        <ele>82.5</ele>
        <time>2023-11-29T09:32:28Z</time>
      </trkpt>
      <trkpt lat="49.12802" lon="1.90866">
        <ele>83.2</ele>
        <time>2023-11-29T09:32:34Z</time>
      </trkpt>
      <trkpt lat="49.12804" lon="1.90863">
        <ele>83.6</ele>
        <time>2023-11-29T09:32:40Z</time>
      </trkpt>
      <trkpt lat="49.12806" lon="1.90859">
        <ele>84.1</ele>
        <time>2023-11-29T09:32:45Z</time>
      </trkpt>
      <trkpt lat="49.12806" lon="1.90842">
        <ele>84.1</ele>
        <time>2023-11-29T09:32:51Z</time>
      </trkpt>
      <trkpt lat="49.12806" lon="1.90823">
        <ele>84.4</ele>
        <time>2023-11-29T09:32:57Z</time>
      </trkpt>
      <trkpt lat="49.12807" lon="1.90804">
        <ele>85.4</ele>
        <time>2023-11-29T09:33:03Z</time>
      </trkpt>
      <trkpt lat="49.12809" lon="1.90791">
        <ele>86.6</ele>
        <time>2023-11-29T09:33:08Z</time>
      </trkpt>
      <trkpt lat="49.12811" lon="1.90771">
        <ele>87.8</ele>
        <time>2023-11-29T09:33:14Z</time>
      </trkpt>
      <trkpt lat="49.12812" lon="1.90757">
        <ele>88.2</ele>
        <time>2023-11-29T09:33:19Z</time>
      </trkpt>
      <trkpt lat="49.12813" lon="1.90744">
        <ele>88.7</ele>
        <time>2023-11-29T09:33:25Z</time>
      </trkpt>
      <trkpt lat="49.12814" lon="1.90735">
        <ele>89</ele>
        <time>2023-11-29T09:33:30Z</time>
      </trkpt>
      <trkpt lat="49.12815" lon="1.90723">
        <ele>89.3</ele>
        <time>2023-11-29T09:33:36Z</time>
      </trkpt>
      <trkpt lat="49.12817" lon="1.90713">
        <ele>89.6</ele>
        <time>2023-11-29T09:33:42Z</time>
      </trkpt>
      <trkpt lat="49.12818" lon="1.90706">
        <ele>89.8</ele>
        <time>2023-11-29T09:33:47Z</time>
      </trkpt>
      <trkpt lat="49.1282" lon="1.90697">
        <ele>90</ele>
        <time>2023-11-29T09:33:53Z</time>
      </trkpt>
      <trkpt lat="49.12822" lon="1.90686">
        <ele>90.3</ele>
        <time>2023-11-29T09:33:59Z</time>
      </trkpt>
      <trkpt lat="49.12824" lon="1.9068">
        <ele>90.5</ele>
        <time>2023-11-29T09:34:04Z</time>
      </trkpt>
      <trkpt lat="49.12825" lon="1.90673">
        <ele>90.8</ele>
        <time>2023-11-29T09:34:10Z</time>
      </trkpt>
      <trkpt lat="49.12827" lon="1.90666">
        <ele>91</ele>
        <time>2023-11-29T09:34:15Z</time>
      </trkpt>
      <trkpt lat="49.12828" lon="1.90654">
        <ele>91.5</ele>
        <time>2023-11-29T09:34:21Z</time>
      </trkpt>
      <trkpt lat="49.12828" lon="1.90637">
        <ele>92</ele>
        <time>2023-11-29T09:34:27Z</time>
      </trkpt>
      <trkpt lat="49.12827" lon="1.90625">
        <ele>92.4</ele>
        <time>2023-11-29T09:34:32Z</time>
      </trkpt>
      <trkpt lat="49.12826" lon="1.90609">
        <ele>92.8</ele>
        <time>2023-11-29T09:34:38Z</time>
      </trkpt>
      <trkpt lat="49.12824" lon="1.9059">
        <ele>92.9</ele>
        <time>2023-11-29T09:34:44Z</time>
      </trkpt>
      <trkpt lat="49.12823" lon="1.90579">
        <ele>93</ele>
        <time>2023-11-29T09:34:49Z</time>
      </trkpt>
      <trkpt lat="49.12823" lon="1.90566">
        <ele>93</ele>
        <time>2023-11-29T09:34:55Z</time>
      </trkpt>
      <trkpt lat="49.12821" lon="1.90556">
        <ele>93</ele>
        <time>2023-11-29T09:35:01Z</time>
      </trkpt>
      <trkpt lat="49.12821" lon="1.90549">
        <ele>93.1</ele>
        <time>2023-11-29T09:35:06Z</time>
      </trkpt>
      <trkpt lat="49.1282" lon="1.90541">
        <ele>93.3</ele>
        <time>2023-11-29T09:35:11Z</time>
      </trkpt>
      <trkpt lat="49.12817" lon="1.90528">
        <ele>93.4</ele>
        <time>2023-11-29T09:35:17Z</time>
      </trkpt>
      <trkpt lat="49.12814" lon="1.90514">
        <ele>93.3</ele>
        <time>2023-11-29T09:35:22Z</time>
      </trkpt>
      <trkpt lat="49.12812" lon="1.90502">
        <ele>93.2</ele>
        <time>2023-11-29T09:35:27Z</time>
      </trkpt>
      <trkpt lat="49.12811" lon="1.90491">
        <ele>92.9</ele>
        <time>2023-11-29T09:35:33Z</time>
      </trkpt>
      <trkpt lat="49.1281" lon="1.90483">
        <ele>92.6</ele>
        <time>2023-11-29T09:35:38Z</time>
      </trkpt>
      <trkpt lat="49.12811" lon="1.90475">
        <ele>92.3</ele>
        <time>2023-11-29T09:35:43Z</time>
      </trkpt>
      <trkpt lat="49.12812" lon="1.90466">
        <ele>92.3</ele>
        <time>2023-11-29T09:35:48Z</time>
      </trkpt>
      <trkpt lat="49.12813" lon="1.90453">
        <ele>92.4</ele>
        <time>2023-11-29T09:35:54Z</time>
      </trkpt>
      <trkpt lat="49.12813" lon="1.90438">
        <ele>92.4</ele>
        <time>2023-11-29T09:35:59Z</time>
      </trkpt>
      <trkpt lat="49.12812" lon="1.90418">
        <ele>91.8</ele>
        <time>2023-11-29T09:36:05Z</time>
      </trkpt>
      <trkpt lat="49.12814" lon="1.90407">
        <ele>91.9</ele>
        <time>2023-11-29T09:36:10Z</time>
      </trkpt>
      <trkpt lat="49.12816" lon="1.90395">
        <ele>92.1</ele>
        <time>2023-11-29T09:36:15Z</time>
      </trkpt>
      <trkpt lat="49.12818" lon="1.90383">
        <ele>92.4</ele>
        <time>2023-11-29T09:36:21Z</time>
      </trkpt>
      <trkpt lat="49.1282" lon="1.90372">
        <ele>92.8</ele>
        <time>2023-11-29T09:36:26Z</time>
      </trkpt>
      <trkpt lat="49.12822" lon="1.90362">
        <ele>93.3</ele>
        <time>2023-11-29T09:36:32Z</time>
      </trkpt>
      <trkpt lat="49.12823" lon="1.90355">
        <ele>93.5</ele>
        <time>2023-11-29T09:36:37Z</time>
      </trkpt>
      <trkpt lat="49.12825" lon="1.90348">
        <ele>93.9</ele>
        <time>2023-11-29T09:36:42Z</time>
      </trkpt>
      <trkpt lat="49.12828" lon="1.90337">
        <ele>94.3</ele>
        <time>2023-11-29T09:36:48Z</time>
      </trkpt>
      <trkpt lat="49.12832" lon="1.90324">
        <ele>94.8</ele>
        <time>2023-11-29T09:36:54Z</time>
      </trkpt>
      <trkpt lat="49.12835" lon="1.9031">
        <ele>95</ele>
        <time>2023-11-29T09:37:00Z</time>
      </trkpt>
      <trkpt lat="49.12837" lon="1.90297">
        <ele>94.8</ele>
        <time>2023-11-29T09:37:06Z</time>
      </trkpt>
      <trkpt lat="49.12839" lon="1.90286">
        <ele>94.6</ele>
        <time>2023-11-29T09:37:11Z</time>
      </trkpt>
      <trkpt lat="49.12841" lon="1.90277">
        <ele>94.5</ele>
        <time>2023-11-29T09:37:16Z</time>
      </trkpt>
      <trkpt lat="49.12843" lon="1.90268">
        <ele>94.8</ele>
        <time>2023-11-29T09:37:21Z</time>
      </trkpt>
      <trkpt lat="49.12845" lon="1.90257">
        <ele>95.2</ele>
        <time>2023-11-29T09:37:27Z</time>
      </trkpt>
      <trkpt lat="49.12848" lon="1.90244">
        <ele>95.6</ele>
        <time>2023-11-29T09:37:33Z</time>
      </trkpt>
      <trkpt lat="49.12851" lon="1.90231">
        <ele>96</ele>
        <time>2023-11-29T09:37:39Z</time>
      </trkpt>
      <trkpt lat="49.12854" lon="1.90219">
        <ele>96.3</ele>
        <time>2023-11-29T09:37:45Z</time>
      </trkpt>
      <trkpt lat="49.12855" lon="1.9021">
        <ele>96.4</ele>
        <time>2023-11-29T09:37:50Z</time>
      </trkpt>
      <trkpt lat="49.12856" lon="1.90198">
        <ele>96.6</ele>
        <time>2023-11-29T09:37:55Z</time>
      </trkpt>
      <trkpt lat="49.12857" lon="1.90183">
        <ele>96.7</ele>
        <time>2023-11-29T09:38:01Z</time>
      </trkpt>
      <trkpt lat="49.12858" lon="1.90173">
        <ele>96.7</ele>
        <time>2023-11-29T09:38:06Z</time>
      </trkpt>
      <trkpt lat="49.12859" lon="1.90159">
        <ele>96.8</ele>
        <time>2023-11-29T09:38:12Z</time>
      </trkpt>
      <trkpt lat="49.12859" lon="1.90149">
        <ele>96.9</ele>
        <time>2023-11-29T09:38:17Z</time>
      </trkpt>
      <trkpt lat="49.1286" lon="1.90139">
        <ele>97</ele>
        <time>2023-11-29T09:38:22Z</time>
      </trkpt>
      <trkpt lat="49.1286" lon="1.90129">
        <ele>97.3</ele>
        <time>2023-11-29T09:38:27Z</time>
      </trkpt>
      <trkpt lat="49.12859" lon="1.90116">
        <ele>97.6</ele>
        <time>2023-11-29T09:38:33Z</time>
      </trkpt>
      <trkpt lat="49.12858" lon="1.90107">
        <ele>97.8</ele>
        <time>2023-11-29T09:38:38Z</time>
      </trkpt>
      <trkpt lat="49.12857" lon="1.901">
        <ele>97.8</ele>
        <time>2023-11-29T09:38:43Z</time>
      </trkpt>
      <trkpt lat="49.12856" lon="1.90092">
        <ele>97.8</ele>
        <time>2023-11-29T09:38:48Z</time>
      </trkpt>
      <trkpt lat="49.12856" lon="1.90082">
        <ele>97.9</ele>
        <time>2023-11-29T09:38:54Z</time>
      </trkpt>
      <trkpt lat="49.12855" lon="1.90073">
        <ele>98</ele>
        <time>2023-11-29T09:38:59Z</time>
      </trkpt>
      <trkpt lat="49.12854" lon="1.90067">
        <ele>98.2</ele>
        <time>2023-11-29T09:39:04Z</time>
      </trkpt>
      <trkpt lat="49.12854" lon="1.9006">
        <ele>98.3</ele>
        <time>2023-11-29T09:39:09Z</time>
      </trkpt>
      <trkpt lat="49.12852" lon="1.90047">
        <ele>98.3</ele>
        <time>2023-11-29T09:39:15Z</time>
      </trkpt>
      <trkpt lat="49.1285" lon="1.90034">
        <ele>98.2</ele>
        <time>2023-11-29T09:39:21Z</time>
      </trkpt>
      <trkpt lat="49.12848" lon="1.90019">
        <ele>98.4</ele>
        <time>2023-11-29T09:39:27Z</time>
      </trkpt>
      <trkpt lat="49.12846" lon="1.90005">
        <ele>98.7</ele>
        <time>2023-11-29T09:39:33Z</time>
      </trkpt>
      <trkpt lat="49.12844" lon="1.89993">
        <ele>98.6</ele>
        <time>2023-11-29T09:39:38Z</time>
      </trkpt>
      <trkpt lat="49.12841" lon="1.89976">
        <ele>98</ele>
        <time>2023-11-29T09:39:44Z</time>
      </trkpt>
      <trkpt lat="49.1284" lon="1.89964">
        <ele>97.7</ele>
        <time>2023-11-29T09:39:49Z</time>
      </trkpt>
      <trkpt lat="49.12838" lon="1.89951">
        <ele>97.5</ele>
        <time>2023-11-29T09:39:55Z</time>
      </trkpt>
      <trkpt lat="49.12833" lon="1.89932">
        <ele>97.4</ele>
        <time>2023-11-29T09:40:01Z</time>
      </trkpt>
      <trkpt lat="49.1283" lon="1.89919">
        <ele>98</ele>
        <time>2023-11-29T09:40:07Z</time>
      </trkpt>
      <trkpt lat="49.12828" lon="1.89913">
        <ele>98.3</ele>
        <time>2023-11-29T09:40:12Z</time>
      </trkpt>
      <trkpt lat="49.12827" lon="1.89909">
        <ele>98.5</ele>
        <time>2023-11-29T09:40:17Z</time>
      </trkpt>
      <trkpt lat="49.12824" lon="1.89899">
        <ele>98.8</ele>
        <time>2023-11-29T09:40:23Z</time>
      </trkpt>
      <trkpt lat="49.12821" lon="1.89891">
        <ele>99</ele>
        <time>2023-11-29T09:40:29Z</time>
      </trkpt>
      <trkpt lat="49.12819" lon="1.89881">
        <ele>99.1</ele>
        <time>2023-11-29T09:40:35Z</time>
      </trkpt>
      <trkpt lat="49.12818" lon="1.89863">
        <ele>99.4</ele>
        <time>2023-11-29T09:40:40Z</time>
      </trkpt>
      <trkpt lat="49.12815" lon="1.89846">
        <ele>99.1</ele>
        <time>2023-11-29T09:40:45Z</time>
      </trkpt>
      <trkpt lat="49.12811" lon="1.89834">
        <ele>98.6</ele>
        <time>2023-11-29T09:40:50Z</time>
      </trkpt>
      <trkpt lat="49.12808" lon="1.89822">
        <ele>98.3</ele>
        <time>2023-11-29T09:40:56Z</time>
      </trkpt>
      <trkpt lat="49.12807" lon="1.89806">
        <ele>98.2</ele>
        <time>2023-11-29T09:41:02Z</time>
      </trkpt>
      <trkpt lat="49.12805" lon="1.89797">
        <ele>98.7</ele>
        <time>2023-11-29T09:41:07Z</time>
      </trkpt>
      <trkpt lat="49.128" lon="1.89787">
        <ele>99.4</ele>
        <time>2023-11-29T09:41:12Z</time>
      </trkpt>
      <trkpt lat="49.12795" lon="1.89774">
        <ele>100.1</ele>
        <time>2023-11-29T09:41:18Z</time>
      </trkpt>
      <trkpt lat="49.12791" lon="1.8976">
        <ele>100.3</ele>
        <time>2023-11-29T09:41:24Z</time>
      </trkpt>
      <trkpt lat="49.12789" lon="1.89749">
        <ele>100.4</ele>
        <time>2023-11-29T09:41:29Z</time>
      </trkpt>
      <trkpt lat="49.12787" lon="1.89733">
        <ele>99.9</ele>
        <time>2023-11-29T09:41:35Z</time>
      </trkpt>
      <trkpt lat="49.12785" lon="1.89721">
        <ele>99.6</ele>
        <time>2023-11-29T09:41:41Z</time>
      </trkpt>
      <trkpt lat="49.12783" lon="1.89709">
        <ele>99.7</ele>
        <time>2023-11-29T09:41:47Z</time>
      </trkpt>
      <trkpt lat="49.1278" lon="1.89702">
        <ele>99.8</ele>
        <time>2023-11-29T09:41:53Z</time>
      </trkpt>
      <trkpt lat="49.12779" lon="1.89696">
        <ele>100</ele>
        <time>2023-11-29T09:41:59Z</time>
      </trkpt>
      <trkpt lat="49.12778" lon="1.89692">
        <ele>100.1</ele>
        <time>2023-11-29T09:42:05Z</time>
      </trkpt>
      <trkpt lat="49.12776" lon="1.89686">
        <ele>100.3</ele>
        <time>2023-11-29T09:42:11Z</time>
      </trkpt>
      <trkpt lat="49.12775" lon="1.89675">
        <ele>100.7</ele>
        <time>2023-11-29T09:42:17Z</time>
      </trkpt>
      <trkpt lat="49.12772" lon="1.89661">
        <ele>101</ele>
        <time>2023-11-29T09:42:22Z</time>
      </trkpt>
      <trkpt lat="49.12769" lon="1.89648">
        <ele>101</ele>
        <time>2023-11-29T09:42:27Z</time>
      </trkpt>
      <trkpt lat="49.12764" lon="1.89632">
        <ele>101.1</ele>
        <time>2023-11-29T09:42:33Z</time>
      </trkpt>
      <trkpt lat="49.12761" lon="1.89619">
        <ele>101.3</ele>
        <time>2023-11-29T09:42:38Z</time>
      </trkpt>
      <trkpt lat="49.12757" lon="1.89604">
        <ele>101.3</ele>
        <time>2023-11-29T09:42:44Z</time>
      </trkpt>
      <trkpt lat="49.12754" lon="1.89593">
        <ele>101.2</ele>
        <time>2023-11-29T09:42:49Z</time>
      </trkpt>
      <trkpt lat="49.12752" lon="1.89583">
        <ele>101.1</ele>
        <time>2023-11-29T09:42:54Z</time>
      </trkpt>
      <trkpt lat="49.12749" lon="1.89571">
        <ele>101.5</ele>
        <time>2023-11-29T09:43:00Z</time>
      </trkpt>
      <trkpt lat="49.12746" lon="1.89561">
        <ele>101.9</ele>
        <time>2023-11-29T09:43:06Z</time>
      </trkpt>
      <trkpt lat="49.12744" lon="1.89548">
        <ele>102.2</ele>
        <time>2023-11-29T09:43:12Z</time>
      </trkpt>
      <trkpt lat="49.12741" lon="1.89535">
        <ele>102.3</ele>
        <time>2023-11-29T09:43:18Z</time>
      </trkpt>
      <trkpt lat="49.12739" lon="1.89524">
        <ele>102.5</ele>
        <time>2023-11-29T09:43:23Z</time>
      </trkpt>
      <trkpt lat="49.12736" lon="1.89511">
        <ele>102.8</ele>
        <time>2023-11-29T09:43:29Z</time>
      </trkpt>
      <trkpt lat="49.12733" lon="1.89499">
        <ele>103</ele>
        <time>2023-11-29T09:43:35Z</time>
      </trkpt>
      <trkpt lat="49.12731" lon="1.89491">
        <ele>103</ele>
        <time>2023-11-29T09:43:41Z</time>
      </trkpt>
      <trkpt lat="49.1273" lon="1.89485">
        <ele>103</ele>
        <time>2023-11-29T09:43:46Z</time>
      </trkpt>
      <trkpt lat="49.12729" lon="1.89481">
        <ele>103</ele>
        <time>2023-11-29T09:43:52Z</time>
      </trkpt>
      <trkpt lat="49.12729" lon="1.89475">
        <ele>103</ele>
        <time>2023-11-29T09:43:57Z</time>
      </trkpt>
      <trkpt lat="49.12729" lon="1.89467">
        <ele>103</ele>
        <time>2023-11-29T09:44:03Z</time>
      </trkpt>
      <trkpt lat="49.12728" lon="1.89462">
        <ele>103.1</ele>
        <time>2023-11-29T09:44:09Z</time>
      </trkpt>
      <trkpt lat="49.12728" lon="1.89459">
        <ele>103.1</ele>
        <time>2023-11-29T09:44:15Z</time>
      </trkpt>
      <trkpt lat="49.12727" lon="1.89458">
        <ele>103.1</ele>
        <time>2023-11-29T09:44:21Z</time>
      </trkpt>
      <trkpt lat="49.12727" lon="1.89458">
        <ele>103.1</ele>
        <time>2023-11-29T09:44:27Z</time>
      </trkpt>
      <trkpt lat="49.12726" lon="1.89459">
        <ele>103.1</ele>
        <time>2023-11-29T09:44:33Z</time>
      </trkpt>
      <trkpt lat="49.12725" lon="1.89459">
        <ele>103</ele>
        <time>2023-11-29T09:44:38Z</time>
      </trkpt>
      <trkpt lat="49.12725" lon="1.89459">
        <ele>103</ele>
        <time>2023-11-29T09:44:44Z</time>
      </trkpt>
      <trkpt lat="49.12725" lon="1.8946">
        <ele>103</ele>
        <time>2023-11-29T09:44:49Z</time>
      </trkpt>
      <trkpt lat="49.12724" lon="1.8946">
        <ele>103</ele>
        <time>2023-11-29T09:44:55Z</time>
      </trkpt>
      <trkpt lat="49.12724" lon="1.8946">
        <ele>103</ele>
        <time>2023-11-29T09:45:01Z</time>
      </trkpt>
      <trkpt lat="49.12724" lon="1.8946">
        <ele>103</ele>
        <time>2023-11-29T09:45:07Z</time>
      </trkpt>
      <trkpt lat="49.12723" lon="1.8946">
        <ele>103</ele>
        <time>2023-11-29T09:45:13Z</time>
      </trkpt>
      <trkpt lat="49.12723" lon="1.8946">
        <ele>103</ele>
        <time>2023-11-29T09:45:19Z</time>
      </trkpt>
      <trkpt lat="49.12724" lon="1.8946">
        <ele>103</ele>
        <time>2023-11-29T09:45:24Z</time>
      </trkpt>
      <trkpt lat="49.12725" lon="1.8946">
        <ele>103</ele>
        <time>2023-11-29T09:45:30Z</time>
      </trkpt>
      <trkpt lat="49.12726" lon="1.89459">
        <ele>103.1</ele>
        <time>2023-11-29T09:45:35Z</time>
      </trkpt>
      <trkpt lat="49.12727" lon="1.89458">
        <ele>103.1</ele>
        <time>2023-11-29T09:45:41Z</time>
      </trkpt>
      <trkpt lat="49.12728" lon="1.89457">
        <ele>103.1</ele>
        <time>2023-11-29T09:45:47Z</time>
      </trkpt>
      <trkpt lat="49.12728" lon="1.89457">
        <ele>103.1</ele>
        <time>2023-11-29T09:45:53Z</time>
      </trkpt>
      <trkpt lat="49.12728" lon="1.89457">
        <ele>103.1</ele>
        <time>2023-11-29T09:45:59Z</time>
      </trkpt>
      <trkpt lat="49.12727" lon="1.89457">
        <ele>103.1</ele>
        <time>2023-11-29T09:46:05Z</time>
      </trkpt>
      <trkpt lat="49.12727" lon="1.89457">
        <ele>103.1</ele>
        <time>2023-11-29T09:46:10Z</time>
      </trkpt>
      <trkpt lat="49.12727" lon="1.89457">
        <ele>103.1</ele>
        <time>2023-11-29T09:46:16Z</time>
      </trkpt>
      <trkpt lat="49.12727" lon="1.89457">
        <ele>103.1</ele>
        <time>2023-11-29T09:46:21Z</time>
      </trkpt>
      <trkpt lat="49.12726" lon="1.89456">
        <ele>103.1</ele>
        <time>2023-11-29T09:46:27Z</time>
      </trkpt>
      <trkpt lat="49.12725" lon="1.89456">
        <ele>103.1</ele>
        <time>2023-11-29T09:46:32Z</time>
      </trkpt>
      <trkpt lat="49.12724" lon="1.89457">
        <ele>103</ele>
        <time>2023-11-29T09:46:37Z</time>
      </trkpt>
      <trkpt lat="49.12723" lon="1.89454">
        <ele>103</ele>
        <time>2023-11-29T09:46:43Z</time>
      </trkpt>
      <trkpt lat="49.12721" lon="1.89449">
        <ele>103</ele>
        <time>2023-11-29T09:46:48Z</time>
      </trkpt>
      <trkpt lat="49.12721" lon="1.89443">
        <ele>103.2</ele>
        <time>2023-11-29T09:46:54Z</time>
      </trkpt>
      <trkpt lat="49.12722" lon="1.89439">
        <ele>103.2</ele>
        <time>2023-11-29T09:47:00Z</time>
      </trkpt>
      <trkpt lat="49.1272" lon="1.89427">
        <ele>103.7</ele>
        <time>2023-11-29T09:47:05Z</time>
      </trkpt>
      <trkpt lat="49.12718" lon="1.89413">
        <ele>104.2</ele>
        <time>2023-11-29T09:47:11Z</time>
      </trkpt>
      <trkpt lat="49.12715" lon="1.89401">
        <ele>104.4</ele>
        <time>2023-11-29T09:47:17Z</time>
      </trkpt>
      <trkpt lat="49.12713" lon="1.89392">
        <ele>104.6</ele>
        <time>2023-11-29T09:47:22Z</time>
      </trkpt>
      <trkpt lat="49.12712" lon="1.89382">
        <ele>104.9</ele>
        <time>2023-11-29T09:47:28Z</time>
      </trkpt>
      <trkpt lat="49.12711" lon="1.89375">
        <ele>105.1</ele>
        <time>2023-11-29T09:47:33Z</time>
      </trkpt>
      <trkpt lat="49.12709" lon="1.89364">
        <ele>105.4</ele>
        <time>2023-11-29T09:47:39Z</time>
      </trkpt>
      <trkpt lat="49.12706" lon="1.89355">
        <ele>105.7</ele>
        <time>2023-11-29T09:47:45Z</time>
      </trkpt>
      <trkpt lat="49.12704" lon="1.8935">
        <ele>105.8</ele>
        <time>2023-11-29T09:47:50Z</time>
      </trkpt>
      <trkpt lat="49.127" lon="1.8934">
        <ele>106</ele>
        <time>2023-11-29T09:47:56Z</time>
      </trkpt>
      <trkpt lat="49.12696" lon="1.89327">
        <ele>106.2</ele>
        <time>2023-11-29T09:48:02Z</time>
      </trkpt>
      <trkpt lat="49.12695" lon="1.89319">
        <ele>106.5</ele>
        <time>2023-11-29T09:48:07Z</time>
      </trkpt>
      <trkpt lat="49.12693" lon="1.89308">
        <ele>106.9</ele>
        <time>2023-11-29T09:48:13Z</time>
      </trkpt>
      <trkpt lat="49.1269" lon="1.89297">
        <ele>107.1</ele>
        <time>2023-11-29T09:48:18Z</time>
      </trkpt>
      <trkpt lat="49.12688" lon="1.89288">
        <ele>107.2</ele>
        <time>2023-11-29T09:48:24Z</time>
      </trkpt>
      <trkpt lat="49.12687" lon="1.89284">
        <ele>107.2</ele>
        <time>2023-11-29T09:48:29Z</time>
      </trkpt>
      <trkpt lat="49.12687" lon="1.89281">
        <ele>107.2</ele>
        <time>2023-11-29T09:48:35Z</time>
      </trkpt>
      <trkpt lat="49.12686" lon="1.8928">
        <ele>107.3</ele>
        <time>2023-11-29T09:48:41Z</time>
      </trkpt>
      <trkpt lat="49.12686" lon="1.89276">
        <ele>107.3</ele>
        <time>2023-11-29T09:48:47Z</time>
      </trkpt>
      <trkpt lat="49.12686" lon="1.8927">
        <ele>107.5</ele>
        <time>2023-11-29T09:48:52Z</time>
      </trkpt>
      <trkpt lat="49.12683" lon="1.89263">
        <ele>107.7</ele>
        <time>2023-11-29T09:48:58Z</time>
      </trkpt>
      <trkpt lat="49.1268" lon="1.89255">
        <ele>107.9</ele>
        <time>2023-11-29T09:49:03Z</time>
      </trkpt>
      <trkpt lat="49.12676" lon="1.89243">
        <ele>108.2</ele>
        <time>2023-11-29T09:49:09Z</time>
      </trkpt>
      <trkpt lat="49.12669" lon="1.89232">
        <ele>108.6</ele>
        <time>2023-11-29T09:49:15Z</time>
      </trkpt>
      <trkpt lat="49.12665" lon="1.89221">
        <ele>109</ele>
        <time>2023-11-29T09:49:21Z</time>
      </trkpt>
      <trkpt lat="49.12665" lon="1.89214">
        <ele>109</ele>
        <time>2023-11-29T09:49:27Z</time>
      </trkpt>
      <trkpt lat="49.12664" lon="1.89207">
        <ele>109</ele>
        <time>2023-11-29T09:49:32Z</time>
      </trkpt>
      <trkpt lat="49.12663" lon="1.89198">
        <ele>109</ele>
        <time>2023-11-29T09:49:38Z</time>
      </trkpt>
      <trkpt lat="49.12659" lon="1.89185">
        <ele>109</ele>
        <time>2023-11-29T09:49:44Z</time>
      </trkpt>
      <trkpt lat="49.12655" lon="1.89173">
        <ele>109</ele>
        <time>2023-11-29T09:49:50Z</time>
      </trkpt>
      <trkpt lat="49.12651" lon="1.89159">
        <ele>109</ele>
        <time>2023-11-29T09:49:56Z</time>
      </trkpt>
      <trkpt lat="49.12646" lon="1.89146">
        <ele>109</ele>
        <time>2023-11-29T09:50:02Z</time>
      </trkpt>
      <trkpt lat="49.12646" lon="1.89138">
        <ele>109</ele>
        <time>2023-11-29T09:50:07Z</time>
      </trkpt>
      <trkpt lat="49.12647" lon="1.89135">
        <ele>109</ele>
        <time>2023-11-29T09:50:13Z</time>
      </trkpt>
      <trkpt lat="49.12648" lon="1.89134">
        <ele>109</ele>
        <time>2023-11-29T09:50:19Z</time>
      </trkpt>
      <trkpt lat="49.12654" lon="1.8913">
        <ele>109</ele>
        <time>2023-11-29T09:50:25Z</time>
      </trkpt>
      <trkpt lat="49.12663" lon="1.89124">
        <ele>109</ele>
        <time>2023-11-29T09:50:31Z</time>
      </trkpt>
      <trkpt lat="49.12668" lon="1.89111">
        <ele>109.1</ele>
        <time>2023-11-29T09:50:36Z</time>
      </trkpt>
      <trkpt lat="49.12674" lon="1.89098">
        <ele>109.1</ele>
        <time>2023-11-29T09:50:42Z</time>
      </trkpt>
      <trkpt lat="49.12679" lon="1.89087">
        <ele>109.1</ele>
        <time>2023-11-29T09:50:48Z</time>
      </trkpt>
      <trkpt lat="49.12682" lon="1.89078">
        <ele>109.1</ele>
        <time>2023-11-29T09:50:53Z</time>
      </trkpt>
      <trkpt lat="49.12685" lon="1.89067">
        <ele>109.4</ele>
        <time>2023-11-29T09:50:58Z</time>
      </trkpt>
      <trkpt lat="49.12687" lon="1.89055">
        <ele>109.8</ele>
        <time>2023-11-29T09:51:04Z</time>
      </trkpt>
      <trkpt lat="49.12688" lon="1.89046">
        <ele>109.8</ele>
        <time>2023-11-29T09:51:09Z</time>
      </trkpt>
      <trkpt lat="49.12686" lon="1.8904">
        <ele>109.9</ele>
        <time>2023-11-29T09:51:14Z</time>
      </trkpt>
      <trkpt lat="49.12683" lon="1.89037">
        <ele>109.9</ele>
        <time>2023-11-29T09:51:19Z</time>
      </trkpt>
      <trkpt lat="49.12681" lon="1.89039">
        <ele>109.8</ele>
        <time>2023-11-29T09:51:24Z</time>
      </trkpt>
      <trkpt lat="49.12678" lon="1.89042">
        <ele>109.7</ele>
        <time>2023-11-29T09:51:29Z</time>
      </trkpt>
      <trkpt lat="49.12675" lon="1.89046">
        <ele>109.5</ele>
        <time>2023-11-29T09:51:35Z</time>
      </trkpt>
      <trkpt lat="49.12674" lon="1.89049">
        <ele>109.4</ele>
        <time>2023-11-29T09:51:40Z</time>
      </trkpt>
      <trkpt lat="49.12673" lon="1.89047">
        <ele>109.5</ele>
        <time>2023-11-29T09:51:46Z</time>
      </trkpt>
      <trkpt lat="49.12673" lon="1.89045">
        <ele>109.5</ele>
        <time>2023-11-29T09:51:51Z</time>
      </trkpt>
      <trkpt lat="49.12672" lon="1.89044">
        <ele>109.5</ele>
        <time>2023-11-29T09:51:57Z</time>
      </trkpt>
      <trkpt lat="49.12672" lon="1.89042">
        <ele>109.6</ele>
        <time>2023-11-29T09:52:03Z</time>
      </trkpt>
      <trkpt lat="49.12671" lon="1.89041">
        <ele>109.6</ele>
        <time>2023-11-29T09:52:08Z</time>
      </trkpt>
      <trkpt lat="49.1267" lon="1.89037">
        <ele>109.7</ele>
        <time>2023-11-29T09:52:14Z</time>
      </trkpt>
      <trkpt lat="49.12667" lon="1.89025">
        <ele>110</ele>
        <time>2023-11-29T09:52:20Z</time>
      </trkpt>
      <trkpt lat="49.1266" lon="1.88999">
        <ele>110</ele>
        <time>2023-11-29T09:52:26Z</time>
      </trkpt>
      <trkpt lat="49.12651" lon="1.88976">
        <ele>110.4</ele>
        <time>2023-11-29T09:52:32Z</time>
      </trkpt>
      <trkpt lat="49.12643" lon="1.88962">
        <ele>110.2</ele>
        <time>2023-11-29T09:52:37Z</time>
      </trkpt>
      <trkpt lat="49.12633" lon="1.88946">
        <ele>109.8</ele>
        <time>2023-11-29T09:52:42Z</time>
      </trkpt>
      <trkpt lat="49.12625" lon="1.88937">
        <ele>109.5</ele>
        <time>2023-11-29T09:52:47Z</time>
      </trkpt>
      <trkpt lat="49.12617" lon="1.88928">
        <ele>109.2</ele>
        <time>2023-11-29T09:52:53Z</time>
      </trkpt>
      <trkpt lat="49.12611" lon="1.88921">
        <ele>109</ele>
        <time>2023-11-29T09:52:58Z</time>
      </trkpt>
      <trkpt lat="49.12604" lon="1.88914">
        <ele>109</ele>
        <time>2023-11-29T09:53:03Z</time>
      </trkpt>
      <trkpt lat="49.12598" lon="1.88907">
        <ele>109</ele>
        <time>2023-11-29T09:53:09Z</time>
      </trkpt>
      <trkpt lat="49.12592" lon="1.889">
        <ele>109</ele>
        <time>2023-11-29T09:53:15Z</time>
      </trkpt>
      <trkpt lat="49.12584" lon="1.88893">
        <ele>109</ele>
        <time>2023-11-29T09:53:21Z</time>
      </trkpt>
      <trkpt lat="49.12577" lon="1.88884">
        <ele>108.6</ele>
        <time>2023-11-29T09:53:27Z</time>
      </trkpt>
      <trkpt lat="49.12571" lon="1.88874">
        <ele>108.3</ele>
        <time>2023-11-29T09:53:33Z</time>
      </trkpt>
      <trkpt lat="49.12567" lon="1.88866">
        <ele>108.1</ele>
        <time>2023-11-29T09:53:38Z</time>
      </trkpt>
      <trkpt lat="49.12562" lon="1.88856">
        <ele>108</ele>
        <time>2023-11-29T09:53:44Z</time>
      </trkpt>
      <trkpt lat="49.12559" lon="1.8885">
        <ele>108</ele>
        <time>2023-11-29T09:53:49Z</time>
      </trkpt>
      <trkpt lat="49.12553" lon="1.88841">
        <ele>107.9</ele>
        <time>2023-11-29T09:53:55Z</time>
      </trkpt>
      <trkpt lat="49.1255" lon="1.8883">
        <ele>107.9</ele>
        <time>2023-11-29T09:54:01Z</time>
      </trkpt>
      <trkpt lat="49.12547" lon="1.88825">
        <ele>108</ele>
        <time>2023-11-29T09:54:06Z</time>
      </trkpt>
      <trkpt lat="49.12544" lon="1.8882">
        <ele>108.1</ele>
        <time>2023-11-29T09:54:11Z</time>
      </trkpt>
      <trkpt lat="49.12539" lon="1.88811">
        <ele>108.2</ele>
        <time>2023-11-29T09:54:16Z</time>
      </trkpt>
      <trkpt lat="49.12533" lon="1.888">
        <ele>108.5</ele>
        <time>2023-11-29T09:54:22Z</time>
      </trkpt>
      <trkpt lat="49.12529" lon="1.88791">
        <ele>108.6</ele>
        <time>2023-11-29T09:54:28Z</time>
      </trkpt>
      <trkpt lat="49.12525" lon="1.88784">
        <ele>108.7</ele>
        <time>2023-11-29T09:54:33Z</time>
      </trkpt>
      <trkpt lat="49.12522" lon="1.88777">
        <ele>108.9</ele>
        <time>2023-11-29T09:54:38Z</time>
      </trkpt>
      <trkpt lat="49.12514" lon="1.88762">
        <ele>110</ele>
        <time>2023-11-29T09:54:49Z</time>
      </trkpt>
      <trkpt lat="49.12509" lon="1.88752">
        <ele>110.5</ele>
        <time>2023-11-29T09:54:55Z</time>
      </trkpt>
      <trkpt lat="49.12508" lon="1.88742">
        <ele>109.8</ele>
        <time>2023-11-29T09:55:01Z</time>
      </trkpt>
      <trkpt lat="49.12507" lon="1.88731">
        <ele>108.8</ele>
        <time>2023-11-29T09:55:07Z</time>
      </trkpt>
      <trkpt lat="49.12504" lon="1.88721">
        <ele>108</ele>
        <time>2023-11-29T09:55:13Z</time>
      </trkpt>
      <trkpt lat="49.125" lon="1.88714">
        <ele>108</ele>
        <time>2023-11-29T09:55:18Z</time>
      </trkpt>
      <trkpt lat="49.12494" lon="1.88705">
        <ele>108.4</ele>
        <time>2023-11-29T09:55:24Z</time>
      </trkpt>
      <trkpt lat="49.12488" lon="1.88693">
        <ele>108.4</ele>
        <time>2023-11-29T09:55:29Z</time>
      </trkpt>
      <trkpt lat="49.12485" lon="1.88684">
        <ele>108.3</ele>
        <time>2023-11-29T09:55:34Z</time>
      </trkpt>
      <trkpt lat="49.12482" lon="1.88676">
        <ele>108.2</ele>
        <time>2023-11-29T09:55:40Z</time>
      </trkpt>
      <trkpt lat="49.12479" lon="1.88669">
        <ele>108.1</ele>
        <time>2023-11-29T09:55:45Z</time>
      </trkpt>
      <trkpt lat="49.12475" lon="1.88656">
        <ele>108</ele>
        <time>2023-11-29T09:55:51Z</time>
      </trkpt>
      <trkpt lat="49.12471" lon="1.88643">
        <ele>108</ele>
        <time>2023-11-29T09:55:57Z</time>
      </trkpt>
      <trkpt lat="49.12465" lon="1.88629">
        <ele>108</ele>
        <time>2023-11-29T09:56:03Z</time>
      </trkpt>
      <trkpt lat="49.1246" lon="1.88617">
        <ele>108</ele>
        <time>2023-11-29T09:56:08Z</time>
      </trkpt>
      <trkpt lat="49.12454" lon="1.88605">
        <ele>108</ele>
        <time>2023-11-29T09:56:14Z</time>
      </trkpt>
      <trkpt lat="49.12451" lon="1.88595">
        <ele>108</ele>
        <time>2023-11-29T09:56:19Z</time>
      </trkpt>
      <trkpt lat="49.12447" lon="1.88584">
        <ele>108</ele>
        <time>2023-11-29T09:56:25Z</time>
      </trkpt>
      <trkpt lat="49.12443" lon="1.88574">
        <ele>108</ele>
        <time>2023-11-29T09:56:30Z</time>
      </trkpt>
      <trkpt lat="49.12439" lon="1.88563">
        <ele>108</ele>
        <time>2023-11-29T09:56:36Z</time>
      </trkpt>
      <trkpt lat="49.12436" lon="1.88553">
        <ele>108</ele>
        <time>2023-11-29T09:56:41Z</time>
      </trkpt>
      <trkpt lat="49.12434" lon="1.88542">
        <ele>108</ele>
        <time>2023-11-29T09:56:47Z</time>
      </trkpt>
      <trkpt lat="49.12431" lon="1.88532">
        <ele>108</ele>
        <time>2023-11-29T09:56:52Z</time>
      </trkpt>
      <trkpt lat="49.12427" lon="1.88517">
        <ele>108</ele>
        <time>2023-11-29T09:56:58Z</time>
      </trkpt>
      <trkpt lat="49.12424" lon="1.88504">
        <ele>108</ele>
        <time>2023-11-29T09:57:04Z</time>
      </trkpt>
      <trkpt lat="49.12422" lon="1.88492">
        <ele>108.1</ele>
        <time>2023-11-29T09:57:09Z</time>
      </trkpt>
      <trkpt lat="49.1242" lon="1.8848">
        <ele>108.1</ele>
        <time>2023-11-29T09:57:15Z</time>
      </trkpt>
      <trkpt lat="49.12418" lon="1.8847">
        <ele>108.1</ele>
        <time>2023-11-29T09:57:20Z</time>
      </trkpt>
      <trkpt lat="49.12416" lon="1.88457">
        <ele>108.5</ele>
        <time>2023-11-29T09:57:26Z</time>
      </trkpt>
      <trkpt lat="49.12416" lon="1.88446">
        <ele>108.9</ele>
        <time>2023-11-29T09:57:31Z</time>
      </trkpt>
      <trkpt lat="49.12415" lon="1.88435">
        <ele>109</ele>
        <time>2023-11-29T09:57:36Z</time>
      </trkpt>
      <trkpt lat="49.12413" lon="1.88423">
        <ele>109</ele>
        <time>2023-11-29T09:57:41Z</time>
      </trkpt>
      <trkpt lat="49.12411" lon="1.88409">
        <ele>109</ele>
        <time>2023-11-29T09:57:47Z</time>
      </trkpt>
      <trkpt lat="49.12409" lon="1.88397">
        <ele>109</ele>
        <time>2023-11-29T09:57:53Z</time>
      </trkpt>
      <trkpt lat="49.12406" lon="1.88384">
        <ele>109</ele>
        <time>2023-11-29T09:57:59Z</time>
      </trkpt>
      <trkpt lat="49.12403" lon="1.88372">
        <ele>109</ele>
        <time>2023-11-29T09:58:04Z</time>
      </trkpt>
      <trkpt lat="49.124" lon="1.88361">
        <ele>109</ele>
        <time>2023-11-29T09:58:09Z</time>
      </trkpt>
      <trkpt lat="49.12397" lon="1.88349">
        <ele>109</ele>
        <time>2023-11-29T09:58:15Z</time>
      </trkpt>
      <trkpt lat="49.12394" lon="1.88338">
        <ele>109</ele>
        <time>2023-11-29T09:58:20Z</time>
      </trkpt>
      <trkpt lat="49.12391" lon="1.88323">
        <ele>109</ele>
        <time>2023-11-29T09:58:26Z</time>
      </trkpt>
      <trkpt lat="49.12387" lon="1.88311">
        <ele>109</ele>
        <time>2023-11-29T09:58:31Z</time>
      </trkpt>
      <trkpt lat="49.12383" lon="1.88296">
        <ele>109</ele>
        <time>2023-11-29T09:58:37Z</time>
      </trkpt>
      <trkpt lat="49.1238" lon="1.88285">
        <ele>109</ele>
        <time>2023-11-29T09:58:42Z</time>
      </trkpt>
      <trkpt lat="49.12377" lon="1.88276">
        <ele>109</ele>
        <time>2023-11-29T09:58:47Z</time>
      </trkpt>
      <trkpt lat="49.12372" lon="1.88265">
        <ele>109</ele>
        <time>2023-11-29T09:58:53Z</time>
      </trkpt>
      <trkpt lat="49.12368" lon="1.88253">
        <ele>109</ele>
        <time>2023-11-29T09:58:58Z</time>
      </trkpt>
      <trkpt lat="49.12364" lon="1.88241">
        <ele>109</ele>
        <time>2023-11-29T09:59:04Z</time>
      </trkpt>
      <trkpt lat="49.12361" lon="1.88228">
        <ele>109</ele>
        <time>2023-11-29T09:59:10Z</time>
      </trkpt>
      <trkpt lat="49.12357" lon="1.88219">
        <ele>109.2</ele>
        <time>2023-11-29T09:59:15Z</time>
      </trkpt>
      <trkpt lat="49.12353" lon="1.88209">
        <ele>109.6</ele>
        <time>2023-11-29T09:59:21Z</time>
      </trkpt>
      <trkpt lat="49.12348" lon="1.882">
        <ele>109.9</ele>
        <time>2023-11-29T09:59:26Z</time>
      </trkpt>
      <trkpt lat="49.12343" lon="1.88189">
        <ele>110</ele>
        <time>2023-11-29T09:59:32Z</time>
      </trkpt>
      <trkpt lat="49.12337" lon="1.88178">
        <ele>110</ele>
        <time>2023-11-29T09:59:38Z</time>
      </trkpt>
      <trkpt lat="49.12332" lon="1.8817">
        <ele>110</ele>
        <time>2023-11-29T09:59:43Z</time>
      </trkpt>
      <trkpt lat="49.12326" lon="1.8816">
        <ele>110</ele>
        <time>2023-11-29T09:59:49Z</time>
      </trkpt>
      <trkpt lat="49.12319" lon="1.8815">
        <ele>110</ele>
        <time>2023-11-29T09:59:55Z</time>
      </trkpt>
      <trkpt lat="49.12312" lon="1.88143">
        <ele>110</ele>
        <time>2023-11-29T10:00:01Z</time>
      </trkpt>
      <trkpt lat="49.12305" lon="1.88133">
        <ele>110.2</ele>
        <time>2023-11-29T10:00:07Z</time>
      </trkpt>
      <trkpt lat="49.12298" lon="1.88124">
        <ele>110.4</ele>
        <time>2023-11-29T10:00:13Z</time>
      </trkpt>
      <trkpt lat="49.12292" lon="1.88115">
        <ele>110.5</ele>
        <time>2023-11-29T10:00:19Z</time>
      </trkpt>
      <trkpt lat="49.12287" lon="1.88107">
        <ele>110.4</ele>
        <time>2023-11-29T10:00:24Z</time>
      </trkpt>
      <trkpt lat="49.12281" lon="1.88096">
        <ele>110.6</ele>
        <time>2023-11-29T10:00:30Z</time>
      </trkpt>
      <trkpt lat="49.12275" lon="1.88089">
        <ele>110.8</ele>
        <time>2023-11-29T10:00:35Z</time>
      </trkpt>
      <trkpt lat="49.12268" lon="1.88077">
        <ele>111.2</ele>
        <time>2023-11-29T10:00:41Z</time>
      </trkpt>
      <trkpt lat="49.12263" lon="1.88068">
        <ele>111.2</ele>
        <time>2023-11-29T10:00:46Z</time>
      </trkpt>
      <trkpt lat="49.12258" lon="1.88057">
        <ele>111.3</ele>
        <time>2023-11-29T10:00:52Z</time>
      </trkpt>
      <trkpt lat="49.12254" lon="1.88047">
        <ele>111.4</ele>
        <time>2023-11-29T10:00:58Z</time>
      </trkpt>
      <trkpt lat="49.12249" lon="1.88035">
        <ele>111.7</ele>
        <time>2023-11-29T10:01:04Z</time>
      </trkpt>
      <trkpt lat="49.12243" lon="1.88025">
        <ele>112.1</ele>
        <time>2023-11-29T10:01:10Z</time>
      </trkpt>
      <trkpt lat="49.12238" lon="1.88016">
        <ele>112.2</ele>
        <time>2023-11-29T10:01:16Z</time>
      </trkpt>
      <trkpt lat="49.12236" lon="1.88007">
        <ele>112.4</ele>
        <time>2023-11-29T10:01:21Z</time>
      </trkpt>
      <trkpt lat="49.12231" lon="1.87998">
        <ele>112.4</ele>
        <time>2023-11-29T10:01:26Z</time>
      </trkpt>
      <trkpt lat="49.12226" lon="1.87987">
        <ele>112.2</ele>
        <time>2023-11-29T10:01:32Z</time>
      </trkpt>
      <trkpt lat="49.12226" lon="1.87979">
        <ele>112.2</ele>
        <time>2023-11-29T10:01:37Z</time>
      </trkpt>
      <trkpt lat="49.12227" lon="1.87977">
        <ele>112.3</ele>
        <time>2023-11-29T10:01:43Z</time>
      </trkpt>
      <trkpt lat="49.12232" lon="1.87971">
        <ele>112.8</ele>
        <time>2023-11-29T10:01:49Z</time>
      </trkpt>
      <trkpt lat="49.12235" lon="1.87966">
        <ele>113.4</ele>
        <time>2023-11-29T10:01:54Z</time>
      </trkpt>
      <trkpt lat="49.12239" lon="1.8796">
        <ele>113.9</ele>
        <time>2023-11-29T10:02:00Z</time>
      </trkpt>
      <trkpt lat="49.12243" lon="1.87956">
        <ele>114.1</ele>
        <time>2023-11-29T10:02:05Z</time>
      </trkpt>
      <trkpt lat="49.12247" lon="1.87952">
        <ele>114.1</ele>
        <time>2023-11-29T10:02:10Z</time>
      </trkpt>
      <trkpt lat="49.12252" lon="1.87943">
        <ele>114.1</ele>
        <time>2023-11-29T10:02:16Z</time>
      </trkpt>
      <trkpt lat="49.12256" lon="1.87935">
        <ele>114.6</ele>
        <time>2023-11-29T10:02:21Z</time>
      </trkpt>
      <trkpt lat="49.12259" lon="1.87922">
        <ele>115.3</ele>
        <time>2023-11-29T10:02:27Z</time>
      </trkpt>
      <trkpt lat="49.12262" lon="1.87913">
        <ele>115.6</ele>
        <time>2023-11-29T10:02:32Z</time>
      </trkpt>
      <trkpt lat="49.12265" lon="1.87904">
        <ele>115.7</ele>
        <time>2023-11-29T10:02:37Z</time>
      </trkpt>
      <trkpt lat="49.12267" lon="1.87894">
        <ele>115.9</ele>
        <time>2023-11-29T10:02:43Z</time>
      </trkpt>
      <trkpt lat="49.12271" lon="1.87883">
        <ele>116.2</ele>
        <time>2023-11-29T10:02:49Z</time>
      </trkpt>
      <trkpt lat="49.12272" lon="1.87874">
        <ele>116.5</ele>
        <time>2023-11-29T10:02:54Z</time>
      </trkpt>
      <trkpt lat="49.12274" lon="1.87862">
        <ele>117</ele>
        <time>2023-11-29T10:03:00Z</time>
      </trkpt>
      <trkpt lat="49.12275" lon="1.87853">
        <ele>117.3</ele>
        <time>2023-11-29T10:03:05Z</time>
      </trkpt>
      <trkpt lat="49.12278" lon="1.87843">
        <ele>117.6</ele>
        <time>2023-11-29T10:03:10Z</time>
      </trkpt>
      <trkpt lat="49.1228" lon="1.87834">
        <ele>117.8</ele>
        <time>2023-11-29T10:03:15Z</time>
      </trkpt>
      <trkpt lat="49.12282" lon="1.87824">
        <ele>117.7</ele>
        <time>2023-11-29T10:03:21Z</time>
      </trkpt>
      <trkpt lat="49.12284" lon="1.87813">
        <ele>117.7</ele>
        <time>2023-11-29T10:03:26Z</time>
      </trkpt>
      <trkpt lat="49.12286" lon="1.87802">
        <ele>117.7</ele>
        <time>2023-11-29T10:03:32Z</time>
      </trkpt>
      <trkpt lat="49.12288" lon="1.87791">
        <ele>117.6</ele>
        <time>2023-11-29T10:03:38Z</time>
      </trkpt>
      <trkpt lat="49.12291" lon="1.87782">
        <ele>117.5</ele>
        <time>2023-11-29T10:03:43Z</time>
      </trkpt>
      <trkpt lat="49.12294" lon="1.87772">
        <ele>117.5</ele>
        <time>2023-11-29T10:03:48Z</time>
      </trkpt>
      <trkpt lat="49.12298" lon="1.87763">
        <ele>117.7</ele>
        <time>2023-11-29T10:03:53Z</time>
      </trkpt>
      <trkpt lat="49.12302" lon="1.87754">
        <ele>117.9</ele>
        <time>2023-11-29T10:03:59Z</time>
      </trkpt>
      <trkpt lat="49.12306" lon="1.87745">
        <ele>117.8</ele>
        <time>2023-11-29T10:04:04Z</time>
      </trkpt>
      <trkpt lat="49.1231" lon="1.87737">
        <ele>117.3</ele>
        <time>2023-11-29T10:04:10Z</time>
      </trkpt>
      <trkpt lat="49.12313" lon="1.87727">
        <ele>116.9</ele>
        <time>2023-11-29T10:04:15Z</time>
      </trkpt>
      <trkpt lat="49.12317" lon="1.87717">
        <ele>116.7</ele>
        <time>2023-11-29T10:04:20Z</time>
      </trkpt>
      <trkpt lat="49.12322" lon="1.87706">
        <ele>116.7</ele>
        <time>2023-11-29T10:04:26Z</time>
      </trkpt>
      <trkpt lat="49.12327" lon="1.87694">
        <ele>117</ele>
        <time>2023-11-29T10:04:32Z</time>
      </trkpt>
      <trkpt lat="49.12331" lon="1.87686">
        <ele>117</ele>
        <time>2023-11-29T10:04:37Z</time>
      </trkpt>
      <trkpt lat="49.12335" lon="1.87674">
        <ele>116.9</ele>
        <time>2023-11-29T10:04:43Z</time>
      </trkpt>
      <trkpt lat="49.12338" lon="1.87664">
        <ele>116.6</ele>
        <time>2023-11-29T10:04:48Z</time>
      </trkpt>
      <trkpt lat="49.12342" lon="1.87652">
        <ele>116</ele>
        <time>2023-11-29T10:04:54Z</time>
      </trkpt>
      <trkpt lat="49.12346" lon="1.87643">
        <ele>115.6</ele>
        <time>2023-11-29T10:04:59Z</time>
      </trkpt>
      <trkpt lat="49.12351" lon="1.87631">
        <ele>115.4</ele>
        <time>2023-11-29T10:05:05Z</time>
      </trkpt>
      <trkpt lat="49.12355" lon="1.87619">
        <ele>115.2</ele>
        <time>2023-11-29T10:05:11Z</time>
      </trkpt>
      <trkpt lat="49.12359" lon="1.8761">
        <ele>115.1</ele>
        <time>2023-11-29T10:05:16Z</time>
      </trkpt>
      <trkpt lat="49.12364" lon="1.876">
        <ele>114.8</ele>
        <time>2023-11-29T10:05:22Z</time>
      </trkpt>
      <trkpt lat="49.12368" lon="1.87589">
        <ele>114.7</ele>
        <time>2023-11-29T10:05:28Z</time>
      </trkpt>
      <trkpt lat="49.12371" lon="1.87581">
        <ele>114.7</ele>
        <time>2023-11-29T10:05:33Z</time>
      </trkpt>
      <trkpt lat="49.12376" lon="1.87569">
        <ele>114.7</ele>
        <time>2023-11-29T10:05:39Z</time>
      </trkpt>
      <trkpt lat="49.12378" lon="1.87561">
        <ele>114.9</ele>
        <time>2023-11-29T10:05:44Z</time>
      </trkpt>
      <trkpt lat="49.12382" lon="1.87553">
        <ele>115</ele>
        <time>2023-11-29T10:05:49Z</time>
      </trkpt>
      <trkpt lat="49.12387" lon="1.87544">
        <ele>115</ele>
        <time>2023-11-29T10:05:55Z</time>
      </trkpt>
      <trkpt lat="49.12393" lon="1.87534">
        <ele>115</ele>
        <time>2023-11-29T10:06:01Z</time>
      </trkpt>
      <trkpt lat="49.12396" lon="1.87527">
        <ele>115</ele>
        <time>2023-11-29T10:06:06Z</time>
      </trkpt>
      <trkpt lat="49.12401" lon="1.87519">
        <ele>115.1</ele>
        <time>2023-11-29T10:06:12Z</time>
      </trkpt>
      <trkpt lat="49.12407" lon="1.8751">
        <ele>115.4</ele>
        <time>2023-11-29T10:06:18Z</time>
      </trkpt>
      <trkpt lat="49.12412" lon="1.87502">
        <ele>115.8</ele>
        <time>2023-11-29T10:06:23Z</time>
      </trkpt>
      <trkpt lat="49.12417" lon="1.87492">
        <ele>116.3</ele>
        <time>2023-11-29T10:06:29Z</time>
      </trkpt>
      <trkpt lat="49.12421" lon="1.87483">
        <ele>116.5</ele>
        <time>2023-11-29T10:06:35Z</time>
      </trkpt>
      <trkpt lat="49.12424" lon="1.87475">
        <ele>116.7</ele>
        <time>2023-11-29T10:06:40Z</time>
      </trkpt>
      <trkpt lat="49.12428" lon="1.87467">
        <ele>116.7</ele>
        <time>2023-11-29T10:06:45Z</time>
      </trkpt>
      <trkpt lat="49.12432" lon="1.87456">
        <ele>116.8</ele>
        <time>2023-11-29T10:06:51Z</time>
      </trkpt>
      <trkpt lat="49.12436" lon="1.87449">
        <ele>116.9</ele>
        <time>2023-11-29T10:06:56Z</time>
      </trkpt>
      <trkpt lat="49.1244" lon="1.87439">
        <ele>117.2</ele>
        <time>2023-11-29T10:07:02Z</time>
      </trkpt>
      <trkpt lat="49.12444" lon="1.87431">
        <ele>117.5</ele>
        <time>2023-11-29T10:07:07Z</time>
      </trkpt>
      <trkpt lat="49.12448" lon="1.87423">
        <ele>117.7</ele>
        <time>2023-11-29T10:07:12Z</time>
      </trkpt>
      <trkpt lat="49.12452" lon="1.87418">
        <ele>117.7</ele>
        <time>2023-11-29T10:07:17Z</time>
      </trkpt>
      <trkpt lat="49.12457" lon="1.87408">
        <ele>117.7</ele>
        <time>2023-11-29T10:07:23Z</time>
      </trkpt>
      <trkpt lat="49.12461" lon="1.87399">
        <ele>117.8</ele>
        <time>2023-11-29T10:07:28Z</time>
      </trkpt>
      <trkpt lat="49.12466" lon="1.87389">
        <ele>118</ele>
        <time>2023-11-29T10:07:34Z</time>
      </trkpt>
      <trkpt lat="49.12469" lon="1.8738">
        <ele>118.3</ele>
        <time>2023-11-29T10:07:39Z</time>
      </trkpt>
      <trkpt lat="49.12474" lon="1.87367">
        <ele>118.7</ele>
        <time>2023-11-29T10:07:45Z</time>
      </trkpt>
      <trkpt lat="49.12478" lon="1.87358">
        <ele>118.8</ele>
        <time>2023-11-29T10:07:50Z</time>
      </trkpt>
      <trkpt lat="49.12481" lon="1.87348">
        <ele>118.8</ele>
        <time>2023-11-29T10:07:55Z</time>
      </trkpt>
      <trkpt lat="49.12485" lon="1.87338">
        <ele>118.9</ele>
        <time>2023-11-29T10:08:01Z</time>
      </trkpt>
      <trkpt lat="49.12489" lon="1.87332">
        <ele>119</ele>
        <time>2023-11-29T10:08:06Z</time>
      </trkpt>
      <trkpt lat="49.12493" lon="1.87324">
        <ele>119</ele>
        <time>2023-11-29T10:08:12Z</time>
      </trkpt>
      <trkpt lat="49.12497" lon="1.87315">
        <ele>119</ele>
        <time>2023-11-29T10:08:18Z</time>
      </trkpt>
      <trkpt lat="49.12502" lon="1.87305">
        <ele>118.9</ele>
        <time>2023-11-29T10:08:24Z</time>
      </trkpt>
      <trkpt lat="49.12505" lon="1.87298">
        <ele>119.1</ele>
        <time>2023-11-29T10:08:29Z</time>
      </trkpt>
      <trkpt lat="49.1251" lon="1.87288">
        <ele>119.3</ele>
        <time>2023-11-29T10:08:35Z</time>
      </trkpt>
      <trkpt lat="49.12514" lon="1.87277">
        <ele>119.5</ele>
        <time>2023-11-29T10:08:41Z</time>
      </trkpt>
      <trkpt lat="49.12517" lon="1.8727">
        <ele>119.5</ele>
        <time>2023-11-29T10:08:46Z</time>
      </trkpt>
      <trkpt lat="49.1252" lon="1.87264">
        <ele>119.6</ele>
        <time>2023-11-29T10:08:51Z</time>
      </trkpt>
      <trkpt lat="49.12524" lon="1.87255">
        <ele>119.8</ele>
        <time>2023-11-29T10:08:57Z</time>
      </trkpt>
      <trkpt lat="49.12529" lon="1.87243">
        <ele>120</ele>
        <time>2023-11-29T10:09:02Z</time>
      </trkpt>
      <trkpt lat="49.12534" lon="1.87234">
        <ele>119.9</ele>
        <time>2023-11-29T10:09:08Z</time>
      </trkpt>
      <trkpt lat="49.12538" lon="1.87227">
        <ele>119.9</ele>
        <time>2023-11-29T10:09:14Z</time>
      </trkpt>
      <trkpt lat="49.12542" lon="1.87217">
        <ele>120</ele>
        <time>2023-11-29T10:09:20Z</time>
      </trkpt>
      <trkpt lat="49.12546" lon="1.87208">
        <ele>120</ele>
        <time>2023-11-29T10:09:25Z</time>
      </trkpt>
      <trkpt lat="49.12551" lon="1.87199">
        <ele>120</ele>
        <time>2023-11-29T10:09:31Z</time>
      </trkpt>
      <trkpt lat="49.12556" lon="1.87188">
        <ele>120.2</ele>
        <time>2023-11-29T10:09:37Z</time>
      </trkpt>
      <trkpt lat="49.12558" lon="1.87179">
        <ele>120.6</ele>
        <time>2023-11-29T10:09:42Z</time>
      </trkpt>
      <trkpt lat="49.12562" lon="1.8717">
        <ele>120.9</ele>
        <time>2023-11-29T10:09:47Z</time>
      </trkpt>
      <trkpt lat="49.12565" lon="1.87161">
        <ele>121</ele>
        <time>2023-11-29T10:09:52Z</time>
      </trkpt>
      <trkpt lat="49.12568" lon="1.87152">
        <ele>121</ele>
        <time>2023-11-29T10:09:58Z</time>
      </trkpt>
      <trkpt lat="49.12572" lon="1.87143">
        <ele>121</ele>
        <time>2023-11-29T10:10:03Z</time>
      </trkpt>
      <trkpt lat="49.12575" lon="1.87134">
        <ele>121.1</ele>
        <time>2023-11-29T10:10:08Z</time>
      </trkpt>
      <trkpt lat="49.12578" lon="1.87126">
        <ele>121.4</ele>
        <time>2023-11-29T10:10:14Z</time>
      </trkpt>
      <trkpt lat="49.12581" lon="1.87116">
        <ele>121.8</ele>
        <time>2023-11-29T10:10:20Z</time>
      </trkpt>
      <trkpt lat="49.12583" lon="1.87108">
        <ele>122</ele>
        <time>2023-11-29T10:10:25Z</time>
      </trkpt>
      <trkpt lat="49.12587" lon="1.87098">
        <ele>122</ele>
        <time>2023-11-29T10:10:31Z</time>
      </trkpt>
      <trkpt lat="49.12591" lon="1.87086">
        <ele>122</ele>
        <time>2023-11-29T10:10:37Z</time>
      </trkpt>
      <trkpt lat="49.12594" lon="1.87079">
        <ele>122.2</ele>
        <time>2023-11-29T10:10:42Z</time>
      </trkpt>
      <trkpt lat="49.12597" lon="1.87072">
        <ele>122.4</ele>
        <time>2023-11-29T10:10:47Z</time>
      </trkpt>
      <trkpt lat="49.12601" lon="1.8706">
        <ele>122.8</ele>
        <time>2023-11-29T10:10:53Z</time>
      </trkpt>
      <trkpt lat="49.12605" lon="1.87049">
        <ele>123</ele>
        <time>2023-11-29T10:10:58Z</time>
      </trkpt>
      <trkpt lat="49.1261" lon="1.87038">
        <ele>123</ele>
        <time>2023-11-29T10:11:04Z</time>
      </trkpt>
      <trkpt lat="49.12615" lon="1.87028">
        <ele>123</ele>
        <time>2023-11-29T10:11:09Z</time>
      </trkpt>
      <trkpt lat="49.12619" lon="1.87016">
        <ele>123.4</ele>
        <time>2023-11-29T10:11:14Z</time>
      </trkpt>
      <trkpt lat="49.12625" lon="1.87006">
        <ele>123.8</ele>
        <time>2023-11-29T10:11:20Z</time>
      </trkpt>
      <trkpt lat="49.12628" lon="1.86997">
        <ele>124</ele>
        <time>2023-11-29T10:11:25Z</time>
      </trkpt>
      <trkpt lat="49.12632" lon="1.86986">
        <ele>124</ele>
        <time>2023-11-29T10:11:31Z</time>
      </trkpt>
      <trkpt lat="49.12635" lon="1.86977">
        <ele>124</ele>
        <time>2023-11-29T10:11:36Z</time>
      </trkpt>
      <trkpt lat="49.1264" lon="1.86967">
        <ele>124.2</ele>
        <time>2023-11-29T10:11:42Z</time>
      </trkpt>
      <trkpt lat="49.12645" lon="1.86956">
        <ele>124.4</ele>
        <time>2023-11-29T10:11:48Z</time>
      </trkpt>
      <trkpt lat="49.1265" lon="1.86945">
        <ele>124.6</ele>
        <time>2023-11-29T10:11:54Z</time>
      </trkpt>
      <trkpt lat="49.12655" lon="1.86932">
        <ele>124.4</ele>
        <time>2023-11-29T10:12:00Z</time>
      </trkpt>
      <trkpt lat="49.12657" lon="1.86923">
        <ele>124.3</ele>
        <time>2023-11-29T10:12:05Z</time>
      </trkpt>
      <trkpt lat="49.12661" lon="1.86913">
        <ele>124.3</ele>
        <time>2023-11-29T10:12:11Z</time>
      </trkpt>
      <trkpt lat="49.12664" lon="1.86905">
        <ele>124.5</ele>
        <time>2023-11-29T10:12:16Z</time>
      </trkpt>
      <trkpt lat="49.12671" lon="1.869">
        <ele>124.5</ele>
        <time>2023-11-29T10:12:22Z</time>
      </trkpt>
      <trkpt lat="49.12675" lon="1.86894">
        <ele>124.6</ele>
        <time>2023-11-29T10:12:28Z</time>
      </trkpt>
      <trkpt lat="49.12679" lon="1.86881">
        <ele>124.7</ele>
        <time>2023-11-29T10:12:34Z</time>
      </trkpt>
      <trkpt lat="49.12682" lon="1.86872">
        <ele>124.8</ele>
        <time>2023-11-29T10:12:39Z</time>
      </trkpt>
      <trkpt lat="49.12685" lon="1.86864">
        <ele>124.9</ele>
        <time>2023-11-29T10:12:44Z</time>
      </trkpt>
      <trkpt lat="49.12689" lon="1.86854">
        <ele>125.2</ele>
        <time>2023-11-29T10:12:49Z</time>
      </trkpt>
      <trkpt lat="49.12693" lon="1.86843">
        <ele>125.6</ele>
        <time>2023-11-29T10:12:55Z</time>
      </trkpt>
      <trkpt lat="49.12698" lon="1.86833">
        <ele>125.9</ele>
        <time>2023-11-29T10:13:01Z</time>
      </trkpt>
      <trkpt lat="49.12703" lon="1.86823">
        <ele>125.7</ele>
        <time>2023-11-29T10:13:07Z</time>
      </trkpt>
      <trkpt lat="49.12707" lon="1.86813">
        <ele>125.5</ele>
        <time>2023-11-29T10:13:13Z</time>
      </trkpt>
      <trkpt lat="49.12712" lon="1.86805">
        <ele>125.4</ele>
        <time>2023-11-29T10:13:19Z</time>
      </trkpt>
      <trkpt lat="49.12717" lon="1.86796">
        <ele>125.5</ele>
        <time>2023-11-29T10:13:25Z</time>
      </trkpt>
      <trkpt lat="49.12722" lon="1.86787">
        <ele>125.7</ele>
        <time>2023-11-29T10:13:30Z</time>
      </trkpt>
      <trkpt lat="49.12725" lon="1.86779">
        <ele>125.9</ele>
        <time>2023-11-29T10:13:36Z</time>
      </trkpt>
      <trkpt lat="49.12729" lon="1.86768">
        <ele>125.7</ele>
        <time>2023-11-29T10:13:42Z</time>
      </trkpt>
      <trkpt lat="49.12733" lon="1.86755">
        <ele>125.6</ele>
        <time>2023-11-29T10:13:48Z</time>
      </trkpt>
      <trkpt lat="49.12737" lon="1.86743">
        <ele>125.3</ele>
        <time>2023-11-29T10:13:54Z</time>
      </trkpt>
      <trkpt lat="49.12741" lon="1.86733">
        <ele>125.1</ele>
        <time>2023-11-29T10:14:00Z</time>
      </trkpt>
      <trkpt lat="49.12746" lon="1.86721">
        <ele>125</ele>
        <time>2023-11-29T10:14:06Z</time>
      </trkpt>
      <trkpt lat="49.12751" lon="1.8671">
        <ele>124.5</ele>
        <time>2023-11-29T10:14:12Z</time>
      </trkpt>
      <trkpt lat="49.12755" lon="1.86699">
        <ele>123.9</ele>
        <time>2023-11-29T10:14:18Z</time>
      </trkpt>
      <trkpt lat="49.12761" lon="1.86689">
        <ele>123.6</ele>
        <time>2023-11-29T10:14:24Z</time>
      </trkpt>
      <trkpt lat="49.12765" lon="1.86681">
        <ele>123.5</ele>
        <time>2023-11-29T10:14:29Z</time>
      </trkpt>
      <trkpt lat="49.1277" lon="1.86668">
        <ele>123.3</ele>
        <time>2023-11-29T10:14:35Z</time>
      </trkpt>
      <trkpt lat="49.12773" lon="1.86656">
        <ele>123.2</ele>
        <time>2023-11-29T10:14:40Z</time>
      </trkpt>
      <trkpt lat="49.12775" lon="1.86642">
        <ele>123.1</ele>
        <time>2023-11-29T10:14:46Z</time>
      </trkpt>
      <trkpt lat="49.12779" lon="1.8663">
        <ele>123</ele>
        <time>2023-11-29T10:14:52Z</time>
      </trkpt>
      <trkpt lat="49.12783" lon="1.86622">
        <ele>122.8</ele>
        <time>2023-11-29T10:14:57Z</time>
      </trkpt>
      <trkpt lat="49.12788" lon="1.86614">
        <ele>122.6</ele>
        <time>2023-11-29T10:15:03Z</time>
      </trkpt>
      <trkpt lat="49.12793" lon="1.86608">
        <ele>122.5</ele>
        <time>2023-11-29T10:15:08Z</time>
      </trkpt>
      <trkpt lat="49.12797" lon="1.866">
        <ele>122.6</ele>
        <time>2023-11-29T10:15:13Z</time>
      </trkpt>
      <trkpt lat="49.12802" lon="1.8659">
        <ele>122.8</ele>
        <time>2023-11-29T10:15:19Z</time>
      </trkpt>
      <trkpt lat="49.12806" lon="1.86578">
        <ele>123</ele>
        <time>2023-11-29T10:15:25Z</time>
      </trkpt>
      <trkpt lat="49.12809" lon="1.8657">
        <ele>122.9</ele>
        <time>2023-11-29T10:15:30Z</time>
      </trkpt>
      <trkpt lat="49.12814" lon="1.8656">
        <ele>123</ele>
        <time>2023-11-29T10:15:36Z</time>
      </trkpt>
      <trkpt lat="49.12817" lon="1.86553">
        <ele>123</ele>
        <time>2023-11-29T10:15:41Z</time>
      </trkpt>
      <trkpt lat="49.12819" lon="1.86547">
        <ele>123</ele>
        <time>2023-11-29T10:15:46Z</time>
      </trkpt>
      <trkpt lat="49.12823" lon="1.86536">
        <ele>123</ele>
        <time>2023-11-29T10:15:52Z</time>
      </trkpt>
      <trkpt lat="49.12825" lon="1.86528">
        <ele>123</ele>
        <time>2023-11-29T10:15:57Z</time>
      </trkpt>
      <trkpt lat="49.12828" lon="1.8652">
        <ele>123</ele>
        <time>2023-11-29T10:16:02Z</time>
      </trkpt>
      <trkpt lat="49.1283" lon="1.86511">
        <ele>123</ele>
        <time>2023-11-29T10:16:07Z</time>
      </trkpt>
      <trkpt lat="49.12838" lon="1.86499">
        <ele>123</ele>
        <time>2023-11-29T10:16:13Z</time>
      </trkpt>
      <trkpt lat="49.12844" lon="1.86487">
        <ele>123.2</ele>
        <time>2023-11-29T10:16:19Z</time>
      </trkpt>
      <trkpt lat="49.1285" lon="1.86477">
        <ele>123.5</ele>
        <time>2023-11-29T10:16:25Z</time>
      </trkpt>
      <trkpt lat="49.12853" lon="1.86466">
        <ele>123.8</ele>
        <time>2023-11-29T10:16:31Z</time>
      </trkpt>
      <trkpt lat="49.12856" lon="1.8646">
        <ele>123.9</ele>
        <time>2023-11-29T10:16:37Z</time>
      </trkpt>
      <trkpt lat="49.1286" lon="1.86448">
        <ele>124</ele>
        <time>2023-11-29T10:16:43Z</time>
      </trkpt>
      <trkpt lat="49.12865" lon="1.86441">
        <ele>124.1</ele>
        <time>2023-11-29T10:16:49Z</time>
      </trkpt>
      <trkpt lat="49.12868" lon="1.86434">
        <ele>124.2</ele>
        <time>2023-11-29T10:16:54Z</time>
      </trkpt>
      <trkpt lat="49.12872" lon="1.86426">
        <ele>124.4</ele>
        <time>2023-11-29T10:16:59Z</time>
      </trkpt>
      <trkpt lat="49.12877" lon="1.86416">
        <ele>124.6</ele>
        <time>2023-11-29T10:17:05Z</time>
      </trkpt>
      <trkpt lat="49.12882" lon="1.86405">
        <ele>124.8</ele>
        <time>2023-11-29T10:17:11Z</time>
      </trkpt>
      <trkpt lat="49.12888" lon="1.86395">
        <ele>125</ele>
        <time>2023-11-29T10:17:17Z</time>
      </trkpt>
      <trkpt lat="49.12896" lon="1.86382">
        <ele>125.3</ele>
        <time>2023-11-29T10:17:23Z</time>
      </trkpt>
      <trkpt lat="49.12901" lon="1.8637">
        <ele>125.5</ele>
        <time>2023-11-29T10:17:29Z</time>
      </trkpt>
      <trkpt lat="49.12905" lon="1.86359">
        <ele>125.6</ele>
        <time>2023-11-29T10:17:34Z</time>
      </trkpt>
      <trkpt lat="49.12909" lon="1.86348">
        <ele>126.1</ele>
        <time>2023-11-29T10:17:40Z</time>
      </trkpt>
      <trkpt lat="49.12912" lon="1.8634">
        <ele>126.4</ele>
        <time>2023-11-29T10:17:45Z</time>
      </trkpt>
      <trkpt lat="49.12915" lon="1.86331">
        <ele>126.8</ele>
        <time>2023-11-29T10:17:50Z</time>
      </trkpt>
      <trkpt lat="49.12917" lon="1.86321">
        <ele>126.6</ele>
        <time>2023-11-29T10:17:55Z</time>
      </trkpt>
      <trkpt lat="49.12921" lon="1.8631">
        <ele>126.5</ele>
        <time>2023-11-29T10:18:01Z</time>
      </trkpt>
      <trkpt lat="49.12923" lon="1.86299">
        <ele>126.5</ele>
        <time>2023-11-29T10:18:06Z</time>
      </trkpt>
      <trkpt lat="49.12927" lon="1.86288">
        <ele>127</ele>
        <time>2023-11-29T10:18:12Z</time>
      </trkpt>
      <trkpt lat="49.12933" lon="1.8628">
        <ele>127.7</ele>
        <time>2023-11-29T10:18:18Z</time>
      </trkpt>
      <trkpt lat="49.12935" lon="1.8627">
        <ele>127.8</ele>
        <time>2023-11-29T10:18:24Z</time>
      </trkpt>
      <trkpt lat="49.12938" lon="1.8626">
        <ele>127.8</ele>
        <time>2023-11-29T10:18:30Z</time>
      </trkpt>
      <trkpt lat="49.12942" lon="1.8625">
        <ele>127.8</ele>
        <time>2023-11-29T10:18:36Z</time>
      </trkpt>
      <trkpt lat="49.12947" lon="1.86239">
        <ele>128.2</ele>
        <time>2023-11-29T10:18:42Z</time>
      </trkpt>
      <trkpt lat="49.12949" lon="1.8623">
        <ele>128.4</ele>
        <time>2023-11-29T10:18:47Z</time>
      </trkpt>
      <trkpt lat="49.12953" lon="1.8622">
        <ele>128.6</ele>
        <time>2023-11-29T10:18:53Z</time>
      </trkpt>
      <trkpt lat="49.12957" lon="1.86212">
        <ele>129.1</ele>
        <time>2023-11-29T10:18:59Z</time>
      </trkpt>
      <trkpt lat="49.12961" lon="1.86205">
        <ele>129.6</ele>
        <time>2023-11-29T10:19:04Z</time>
      </trkpt>
      <trkpt lat="49.12965" lon="1.86195">
        <ele>130.2</ele>
        <time>2023-11-29T10:19:10Z</time>
      </trkpt>
      <trkpt lat="49.12969" lon="1.86185">
        <ele>130.3</ele>
        <time>2023-11-29T10:19:15Z</time>
      </trkpt>
      <trkpt lat="49.12972" lon="1.86175">
        <ele>130.3</ele>
        <time>2023-11-29T10:19:21Z</time>
      </trkpt>
      <trkpt lat="49.12975" lon="1.86165">
        <ele>130.2</ele>
        <time>2023-11-29T10:19:27Z</time>
      </trkpt>
      <trkpt lat="49.12978" lon="1.86154">
        <ele>130.4</ele>
        <time>2023-11-29T10:19:33Z</time>
      </trkpt>
      <trkpt lat="49.12982" lon="1.86143">
        <ele>130.7</ele>
        <time>2023-11-29T10:19:39Z</time>
      </trkpt>
      <trkpt lat="49.12985" lon="1.86133">
        <ele>130.9</ele>
        <time>2023-11-29T10:19:45Z</time>
      </trkpt>
      <trkpt lat="49.12988" lon="1.86126">
        <ele>131.2</ele>
        <time>2023-11-29T10:19:50Z</time>
      </trkpt>
      <trkpt lat="49.12993" lon="1.86119">
        <ele>131.5</ele>
        <time>2023-11-29T10:19:55Z</time>
      </trkpt>
      <trkpt lat="49.12995" lon="1.86111">
        <ele>131.7</ele>
        <time>2023-11-29T10:20:00Z</time>
      </trkpt>
      <trkpt lat="49.12999" lon="1.86101">
        <ele>132</ele>
        <time>2023-11-29T10:20:06Z</time>
      </trkpt>
      <trkpt lat="49.13003" lon="1.86092">
        <ele>132.2</ele>
        <time>2023-11-29T10:20:12Z</time>
      </trkpt>
      <trkpt lat="49.13007" lon="1.86085">
        <ele>132.5</ele>
        <time>2023-11-29T10:20:17Z</time>
      </trkpt>
      <trkpt lat="49.13012" lon="1.86077">
        <ele>132.9</ele>
        <time>2023-11-29T10:20:23Z</time>
      </trkpt>
      <trkpt lat="49.13017" lon="1.86069">
        <ele>133.2</ele>
        <time>2023-11-29T10:20:28Z</time>
      </trkpt>
      <trkpt lat="49.13022" lon="1.8606">
        <ele>133.6</ele>
        <time>2023-11-29T10:20:33Z</time>
      </trkpt>
      <trkpt lat="49.13028" lon="1.86048">
        <ele>134</ele>
        <time>2023-11-29T10:20:39Z</time>
      </trkpt>
      <trkpt lat="49.13033" lon="1.86036">
        <ele>134.2</ele>
        <time>2023-11-29T10:20:45Z</time>
      </trkpt>
      <trkpt lat="49.13038" lon="1.86029">
        <ele>134.4</ele>
        <time>2023-11-29T10:20:51Z</time>
      </trkpt>
      <trkpt lat="49.13042" lon="1.86023">
        <ele>134.4</ele>
        <time>2023-11-29T10:20:57Z</time>
      </trkpt>
      <trkpt lat="49.13047" lon="1.86015">
        <ele>134.4</ele>
        <time>2023-11-29T10:21:03Z</time>
      </trkpt>
      <trkpt lat="49.13054" lon="1.86009">
        <ele>134.3</ele>
        <time>2023-11-29T10:21:08Z</time>
      </trkpt>
      <trkpt lat="49.13059" lon="1.86005">
        <ele>134.4</ele>
        <time>2023-11-29T10:21:13Z</time>
      </trkpt>
      <trkpt lat="49.13064" lon="1.86004">
        <ele>134.7</ele>
        <time>2023-11-29T10:21:19Z</time>
      </trkpt>
      <trkpt lat="49.13065" lon="1.86004">
        <ele>134.7</ele>
        <time>2023-11-29T10:21:24Z</time>
      </trkpt>
      <trkpt lat="49.13065" lon="1.86002">
        <ele>134.7</ele>
        <time>2023-11-29T10:21:29Z</time>
      </trkpt>
      <trkpt lat="49.13065" lon="1.85998">
        <ele>134.7</ele>
        <time>2023-11-29T10:21:34Z</time>
      </trkpt>
      <trkpt lat="49.13065" lon="1.8599">
        <ele>134.7</ele>
        <time>2023-11-29T10:21:40Z</time>
      </trkpt>
      <trkpt lat="49.13064" lon="1.85981">
        <ele>134.6</ele>
        <time>2023-11-29T10:21:45Z</time>
      </trkpt>
      <trkpt lat="49.13065" lon="1.85978">
        <ele>134.7</ele>
        <time>2023-11-29T10:21:51Z</time>
      </trkpt>
      <trkpt lat="49.13065" lon="1.85977">
        <ele>134.7</ele>
        <time>2023-11-29T10:21:56Z</time>
      </trkpt>
      <trkpt lat="49.13064" lon="1.85977">
        <ele>134.6</ele>
        <time>2023-11-29T10:22:01Z</time>
      </trkpt>
      <trkpt lat="49.13064" lon="1.85978">
        <ele>134.6</ele>
        <time>2023-11-29T10:22:07Z</time>
      </trkpt>
      <trkpt lat="49.13064" lon="1.85981">
        <ele>134.6</ele>
        <time>2023-11-29T10:22:13Z</time>
      </trkpt>
      <trkpt lat="49.13064" lon="1.85982">
        <ele>134.6</ele>
        <time>2023-11-29T10:22:19Z</time>
      </trkpt>
      <trkpt lat="49.13062" lon="1.8598">
        <ele>134.5</ele>
        <time>2023-11-29T10:22:24Z</time>
      </trkpt>
      <trkpt lat="49.1306" lon="1.85984">
        <ele>134.3</ele>
        <time>2023-11-29T10:22:30Z</time>
      </trkpt>
      <trkpt lat="49.13061" lon="1.85988">
        <ele>134.4</ele>
        <time>2023-11-29T10:22:35Z</time>
      </trkpt>
      <trkpt lat="49.13063" lon="1.85996">
        <ele>134.5</ele>
        <time>2023-11-29T10:22:40Z</time>
      </trkpt>
      <trkpt lat="49.13064" lon="1.86001">
        <ele>134.6</ele>
        <time>2023-11-29T10:22:46Z</time>
      </trkpt>
      <trkpt lat="49.13064" lon="1.86002">
        <ele>134.6</ele>
        <time>2023-11-29T10:22:51Z</time>
      </trkpt>
      <trkpt lat="49.13064" lon="1.86001">
        <ele>134.6</ele>
        <time>2023-11-29T10:22:56Z</time>
      </trkpt>
      <trkpt lat="49.13064" lon="1.86001">
        <ele>134.6</ele>
        <time>2023-11-29T10:23:02Z</time>
      </trkpt>
      <trkpt lat="49.13064" lon="1.86001">
        <ele>134.6</ele>
        <time>2023-11-29T10:23:07Z</time>
      </trkpt>
      <trkpt lat="49.13064" lon="1.86001">
        <ele>134.6</ele>
        <time>2023-11-29T10:23:13Z</time>
      </trkpt>
      <trkpt lat="49.13064" lon="1.86001">
        <ele>134.6</ele>
        <time>2023-11-29T10:23:18Z</time>
      </trkpt>
      <trkpt lat="49.13064" lon="1.86001">
        <ele>134.6</ele>
        <time>2023-11-29T10:23:24Z</time>
      </trkpt>
      <trkpt lat="49.13064" lon="1.86002">
        <ele>134.6</ele>
        <time>2023-11-29T10:23:30Z</time>
      </trkpt>
      <trkpt lat="49.13064" lon="1.86003">
        <ele>134.6</ele>
        <time>2023-11-29T10:23:36Z</time>
      </trkpt>
      <trkpt lat="49.13064" lon="1.86002">
        <ele>134.6</ele>
        <time>2023-11-29T10:23:42Z</time>
      </trkpt>
      <trkpt lat="49.13064" lon="1.86002">
        <ele>134.6</ele>
        <time>2023-11-29T10:23:48Z</time>
      </trkpt>
      <trkpt lat="49.13064" lon="1.86002">
        <ele>134.6</ele>
        <time>2023-11-29T10:23:53Z</time>
      </trkpt>
      <trkpt lat="49.13064" lon="1.86002">
        <ele>134.6</ele>
        <time>2023-11-29T10:23:58Z</time>
      </trkpt>
      <trkpt lat="49.13064" lon="1.86002">
        <ele>134.7</ele>
        <time>2023-11-29T10:24:04Z</time>
      </trkpt>
      <trkpt lat="49.13065" lon="1.86003">
        <ele>134.7</ele>
        <time>2023-11-29T10:24:10Z</time>
      </trkpt>
      <trkpt lat="49.13065" lon="1.86003">
        <ele>134.7</ele>
        <time>2023-11-29T10:24:16Z</time>
      </trkpt>
      <trkpt lat="49.13065" lon="1.86003">
        <ele>134.7</ele>
        <time>2023-11-29T10:24:22Z</time>
      </trkpt>
      <trkpt lat="49.13065" lon="1.86003">
        <ele>134.7</ele>
        <time>2023-11-29T10:24:27Z</time>
      </trkpt>
      <trkpt lat="49.13068" lon="1.86002">
        <ele>134.9</ele>
        <time>2023-11-29T10:24:33Z</time>
      </trkpt>
      <trkpt lat="49.13073" lon="1.86004">
        <ele>135.2</ele>
        <time>2023-11-29T10:24:38Z</time>
      </trkpt>
      <trkpt lat="49.13077" lon="1.86003">
        <ele>135.5</ele>
        <time>2023-11-29T10:24:43Z</time>
      </trkpt>
      <trkpt lat="49.13081" lon="1.86">
        <ele>135.8</ele>
        <time>2023-11-29T10:24:49Z</time>
      </trkpt>
      <trkpt lat="49.13087" lon="1.85997">
        <ele>136</ele>
        <time>2023-11-29T10:24:55Z</time>
      </trkpt>
      <trkpt lat="49.13094" lon="1.85991">
        <ele>136</ele>
        <time>2023-11-29T10:25:01Z</time>
      </trkpt>
      <trkpt lat="49.13099" lon="1.85987">
        <ele>136</ele>
        <time>2023-11-29T10:25:06Z</time>
      </trkpt>
      <trkpt lat="49.13106" lon="1.85985">
        <ele>136</ele>
        <time>2023-11-29T10:25:12Z</time>
      </trkpt>
      <trkpt lat="49.13112" lon="1.85982">
        <ele>136</ele>
        <time>2023-11-29T10:25:18Z</time>
      </trkpt>
      <trkpt lat="49.13117" lon="1.85978">
        <ele>136</ele>
        <time>2023-11-29T10:25:23Z</time>
      </trkpt>
      <trkpt lat="49.13123" lon="1.85974">
        <ele>136</ele>
        <time>2023-11-29T10:25:28Z</time>
      </trkpt>
      <trkpt lat="49.13131" lon="1.85969">
        <ele>136</ele>
        <time>2023-11-29T10:25:34Z</time>
      </trkpt>
      <trkpt lat="49.13136" lon="1.85966">
        <ele>136</ele>
        <time>2023-11-29T10:25:40Z</time>
      </trkpt>
      <trkpt lat="49.13141" lon="1.85963">
        <ele>136</ele>
        <time>2023-11-29T10:25:45Z</time>
      </trkpt>
      <trkpt lat="49.13147" lon="1.85957">
        <ele>136</ele>
        <time>2023-11-29T10:25:51Z</time>
      </trkpt>
      <trkpt lat="49.13153" lon="1.8595">
        <ele>136</ele>
        <time>2023-11-29T10:25:56Z</time>
      </trkpt>
      <trkpt lat="49.13158" lon="1.8594">
        <ele>136</ele>
        <time>2023-11-29T10:26:02Z</time>
      </trkpt>
      <trkpt lat="49.13165" lon="1.85932">
        <ele>136</ele>
        <time>2023-11-29T10:26:07Z</time>
      </trkpt>
      <trkpt lat="49.13172" lon="1.85924">
        <ele>136</ele>
        <time>2023-11-29T10:26:12Z</time>
      </trkpt>
      <trkpt lat="49.13179" lon="1.85917">
        <ele>136</ele>
        <time>2023-11-29T10:26:18Z</time>
      </trkpt>
      <trkpt lat="49.13183" lon="1.85908">
        <ele>136.1</ele>
        <time>2023-11-29T10:26:24Z</time>
      </trkpt>
      <trkpt lat="49.13187" lon="1.85896">
        <ele>136.2</ele>
        <time>2023-11-29T10:26:30Z</time>
      </trkpt>
      <trkpt lat="49.13188" lon="1.85885">
        <ele>136.4</ele>
        <time>2023-11-29T10:26:35Z</time>
      </trkpt>
      <trkpt lat="49.1319" lon="1.85873">
        <ele>136.6</ele>
        <time>2023-11-29T10:26:41Z</time>
      </trkpt>
      <trkpt lat="49.13196" lon="1.85865">
        <ele>136.8</ele>
        <time>2023-11-29T10:26:47Z</time>
      </trkpt>
      <trkpt lat="49.13202" lon="1.85857">
        <ele>136.7</ele>
        <time>2023-11-29T10:26:53Z</time>
      </trkpt>
      <trkpt lat="49.13205" lon="1.85848">
        <ele>136.6</ele>
        <time>2023-11-29T10:26:59Z</time>
      </trkpt>
      <trkpt lat="49.1321" lon="1.85841">
        <ele>136.4</ele>
        <time>2023-11-29T10:27:04Z</time>
      </trkpt>
      <trkpt lat="49.13213" lon="1.85834">
        <ele>136.3</ele>
        <time>2023-11-29T10:27:10Z</time>
      </trkpt>
      <trkpt lat="49.13217" lon="1.85826">
        <ele>136.4</ele>
        <time>2023-11-29T10:27:15Z</time>
      </trkpt>
      <trkpt lat="49.13222" lon="1.85817">
        <ele>136.6</ele>
        <time>2023-11-29T10:27:21Z</time>
      </trkpt>
      <trkpt lat="49.13226" lon="1.85809">
        <ele>136.8</ele>
        <time>2023-11-29T10:27:27Z</time>
      </trkpt>
      <trkpt lat="49.1323" lon="1.858">
        <ele>136.7</ele>
        <time>2023-11-29T10:27:32Z</time>
      </trkpt>
      <trkpt lat="49.13235" lon="1.8579">
        <ele>136.6</ele>
        <time>2023-11-29T10:27:38Z</time>
      </trkpt>
      <trkpt lat="49.13239" lon="1.85779">
        <ele>136.4</ele>
        <time>2023-11-29T10:27:44Z</time>
      </trkpt>
      <trkpt lat="49.13241" lon="1.8577">
        <ele>136.3</ele>
        <time>2023-11-29T10:27:49Z</time>
      </trkpt>
      <trkpt lat="49.13244" lon="1.8576">
        <ele>136.2</ele>
        <time>2023-11-29T10:27:55Z</time>
      </trkpt>
      <trkpt lat="49.13246" lon="1.85747">
        <ele>136.2</ele>
        <time>2023-11-29T10:28:01Z</time>
      </trkpt>
      <trkpt lat="49.13247" lon="1.85738">
        <ele>136.1</ele>
        <time>2023-11-29T10:28:06Z</time>
      </trkpt>
      <trkpt lat="49.1325" lon="1.85728">
        <ele>136</ele>
        <time>2023-11-29T10:28:11Z</time>
      </trkpt>
      <trkpt lat="49.1325" lon="1.85719">
        <ele>136</ele>
        <time>2023-11-29T10:28:17Z</time>
      </trkpt>
      <trkpt lat="49.13244" lon="1.85711">
        <ele>136.2</ele>
        <time>2023-11-29T10:28:22Z</time>
      </trkpt>
      <trkpt lat="49.13235" lon="1.85708">
        <ele>136.5</ele>
        <time>2023-11-29T10:28:28Z</time>
      </trkpt>
      <trkpt lat="49.13227" lon="1.85706">
        <ele>136.8</ele>
        <time>2023-11-29T10:28:34Z</time>
      </trkpt>
      <trkpt lat="49.1322" lon="1.85703">
        <ele>137</ele>
        <time>2023-11-29T10:28:40Z</time>
      </trkpt>
      <trkpt lat="49.13214" lon="1.857">
        <ele>137</ele>
        <time>2023-11-29T10:28:46Z</time>
      </trkpt>
      <trkpt lat="49.13208" lon="1.85699">
        <ele>137</ele>
        <time>2023-11-29T10:28:52Z</time>
      </trkpt>
      <trkpt lat="49.13201" lon="1.85696">
        <ele>137</ele>
        <time>2023-11-29T10:28:58Z</time>
      </trkpt>
      <trkpt lat="49.13199" lon="1.85688">
        <ele>137</ele>
        <time>2023-11-29T10:29:03Z</time>
      </trkpt>
      <trkpt lat="49.13199" lon="1.85678">
        <ele>137</ele>
        <time>2023-11-29T10:29:08Z</time>
      </trkpt>
      <trkpt lat="49.13202" lon="1.85666">
        <ele>137</ele>
        <time>2023-11-29T10:29:14Z</time>
      </trkpt>
      <trkpt lat="49.13206" lon="1.85656">
        <ele>136.6</ele>
        <time>2023-11-29T10:29:19Z</time>
      </trkpt>
      <trkpt lat="49.1321" lon="1.85643">
        <ele>136.1</ele>
        <time>2023-11-29T10:29:25Z</time>
      </trkpt>
      <trkpt lat="49.13212" lon="1.85631">
        <ele>136</ele>
        <time>2023-11-29T10:29:30Z</time>
      </trkpt>
      <trkpt lat="49.13216" lon="1.85619">
        <ele>136</ele>
        <time>2023-11-29T10:29:37Z</time>
      </trkpt>
      <trkpt lat="49.1322" lon="1.85608">
        <ele>136</ele>
        <time>2023-11-29T10:29:42Z</time>
      </trkpt>
      <trkpt lat="49.13225" lon="1.856">
        <ele>136</ele>
        <time>2023-11-29T10:29:47Z</time>
      </trkpt>
      <trkpt lat="49.1323" lon="1.85592">
        <ele>135.8</ele>
        <time>2023-11-29T10:29:52Z</time>
      </trkpt>
      <trkpt lat="49.13232" lon="1.85582">
        <ele>135.6</ele>
        <time>2023-11-29T10:29:58Z</time>
      </trkpt>
      <trkpt lat="49.13237" lon="1.85572">
        <ele>135.3</ele>
        <time>2023-11-29T10:30:04Z</time>
      </trkpt>
      <trkpt lat="49.13242" lon="1.8556">
        <ele>135</ele>
        <time>2023-11-29T10:30:10Z</time>
      </trkpt>
      <trkpt lat="49.13246" lon="1.85552">
        <ele>135</ele>
        <time>2023-11-29T10:30:15Z</time>
      </trkpt>
      <trkpt lat="49.13252" lon="1.85541">
        <ele>134.8</ele>
        <time>2023-11-29T10:30:21Z</time>
      </trkpt>
      <trkpt lat="49.13256" lon="1.85531">
        <ele>134.4</ele>
        <time>2023-11-29T10:30:26Z</time>
      </trkpt>
      <trkpt lat="49.13259" lon="1.85522">
        <ele>134.1</ele>
        <time>2023-11-29T10:30:31Z</time>
      </trkpt>
      <trkpt lat="49.13262" lon="1.85511">
        <ele>134</ele>
        <time>2023-11-29T10:30:36Z</time>
      </trkpt>
      <trkpt lat="49.13265" lon="1.85501">
        <ele>133.9</ele>
        <time>2023-11-29T10:30:42Z</time>
      </trkpt>
      <trkpt lat="49.13269" lon="1.85493">
        <ele>133.8</ele>
        <time>2023-11-29T10:30:47Z</time>
      </trkpt>
      <trkpt lat="49.13271" lon="1.85482">
        <ele>134</ele>
        <time>2023-11-29T10:30:52Z</time>
      </trkpt>
      <trkpt lat="49.13275" lon="1.85472">
        <ele>134.1</ele>
        <time>2023-11-29T10:30:58Z</time>
      </trkpt>
      <trkpt lat="49.13278" lon="1.85463">
        <ele>134.3</ele>
        <time>2023-11-29T10:31:04Z</time>
      </trkpt>
      <trkpt lat="49.13282" lon="1.85451">
        <ele>134.6</ele>
        <time>2023-11-29T10:31:10Z</time>
      </trkpt>
      <trkpt lat="49.13286" lon="1.85442">
        <ele>134.8</ele>
        <time>2023-11-29T10:31:15Z</time>
      </trkpt>
      <trkpt lat="49.1329" lon="1.85433">
        <ele>135</ele>
        <time>2023-11-29T10:31:20Z</time>
      </trkpt>
      <trkpt lat="49.13294" lon="1.85423">
        <ele>135.2</ele>
        <time>2023-11-29T10:31:25Z</time>
      </trkpt>
      <trkpt lat="49.13298" lon="1.85414">
        <ele>135.4</ele>
        <time>2023-11-29T10:31:31Z</time>
      </trkpt>
      <trkpt lat="49.13301" lon="1.85402">
        <ele>135.6</ele>
        <time>2023-11-29T10:31:37Z</time>
      </trkpt>
      <trkpt lat="49.13305" lon="1.85392">
        <ele>135.9</ele>
        <time>2023-11-29T10:31:42Z</time>
      </trkpt>
      <trkpt lat="49.13309" lon="1.85381">
        <ele>136.1</ele>
        <time>2023-11-29T10:31:48Z</time>
      </trkpt>
      <trkpt lat="49.13313" lon="1.85371">
        <ele>136.4</ele>
        <time>2023-11-29T10:31:54Z</time>
      </trkpt>
      <trkpt lat="49.13318" lon="1.85358">
        <ele>136.6</ele>
        <time>2023-11-29T10:32:00Z</time>
      </trkpt>
      <trkpt lat="49.13321" lon="1.85347">
        <ele>136.7</ele>
        <time>2023-11-29T10:32:06Z</time>
      </trkpt>
      <trkpt lat="49.13325" lon="1.85339">
        <ele>136.9</ele>
        <time>2023-11-29T10:32:11Z</time>
      </trkpt>
      <trkpt lat="49.1333" lon="1.85329">
        <ele>137.1</ele>
        <time>2023-11-29T10:32:17Z</time>
      </trkpt>
      <trkpt lat="49.13334" lon="1.85319">
        <ele>137.5</ele>
        <time>2023-11-29T10:32:23Z</time>
      </trkpt>
      <trkpt lat="49.13338" lon="1.85308">
        <ele>137.6</ele>
        <time>2023-11-29T10:32:29Z</time>
      </trkpt>
      <trkpt lat="49.13344" lon="1.85295">
        <ele>137.4</ele>
        <time>2023-11-29T10:32:35Z</time>
      </trkpt>
      <trkpt lat="49.13349" lon="1.85286">
        <ele>137.3</ele>
        <time>2023-11-29T10:32:40Z</time>
      </trkpt>
      <trkpt lat="49.13354" lon="1.85277">
        <ele>137.3</ele>
        <time>2023-11-29T10:32:46Z</time>
      </trkpt>
      <trkpt lat="49.13359" lon="1.85267">
        <ele>137.4</ele>
        <time>2023-11-29T10:32:52Z</time>
      </trkpt>
      <trkpt lat="49.13363" lon="1.85258">
        <ele>137.6</ele>
        <time>2023-11-29T10:32:57Z</time>
      </trkpt>
      <trkpt lat="49.13368" lon="1.85248">
        <ele>137.5</ele>
        <time>2023-11-29T10:33:03Z</time>
      </trkpt>
      <trkpt lat="49.13373" lon="1.85237">
        <ele>137.4</ele>
        <time>2023-11-29T10:33:09Z</time>
      </trkpt>
      <trkpt lat="49.13378" lon="1.85226">
        <ele>137.3</ele>
        <time>2023-11-29T10:33:15Z</time>
      </trkpt>
      <trkpt lat="49.13382" lon="1.85214">
        <ele>137.3</ele>
        <time>2023-11-29T10:33:21Z</time>
      </trkpt>
      <trkpt lat="49.13384" lon="1.85204">
        <ele>137.2</ele>
        <time>2023-11-29T10:33:27Z</time>
      </trkpt>
      <trkpt lat="49.13389" lon="1.85193">
        <ele>137.1</ele>
        <time>2023-11-29T10:33:32Z</time>
      </trkpt>
      <trkpt lat="49.13394" lon="1.85183">
        <ele>137.2</ele>
        <time>2023-11-29T10:33:38Z</time>
      </trkpt>
      <trkpt lat="49.13398" lon="1.85173">
        <ele>137.2</ele>
        <time>2023-11-29T10:33:43Z</time>
      </trkpt>
      <trkpt lat="49.13401" lon="1.85166">
        <ele>137.1</ele>
        <time>2023-11-29T10:33:48Z</time>
      </trkpt>
      <trkpt lat="49.13406" lon="1.85154">
        <ele>136.8</ele>
        <time>2023-11-29T10:33:54Z</time>
      </trkpt>
      <trkpt lat="49.13409" lon="1.85144">
        <ele>136.5</ele>
        <time>2023-11-29T10:33:59Z</time>
      </trkpt>
      <trkpt lat="49.13413" lon="1.85134">
        <ele>136.4</ele>
        <time>2023-11-29T10:34:05Z</time>
      </trkpt>
      <trkpt lat="49.13418" lon="1.85123">
        <ele>136.5</ele>
        <time>2023-11-29T10:34:10Z</time>
      </trkpt>
      <trkpt lat="49.13421" lon="1.85114">
        <ele>136.6</ele>
        <time>2023-11-29T10:34:15Z</time>
      </trkpt>
      <trkpt lat="49.13425" lon="1.85103">
        <ele>136.4</ele>
        <time>2023-11-29T10:34:21Z</time>
      </trkpt>
      <trkpt lat="49.13429" lon="1.85093">
        <ele>136.1</ele>
        <time>2023-11-29T10:34:27Z</time>
      </trkpt>
      <trkpt lat="49.13434" lon="1.85084">
        <ele>135.7</ele>
        <time>2023-11-29T10:34:33Z</time>
      </trkpt>
      <trkpt lat="49.13439" lon="1.8508">
        <ele>135.5</ele>
        <time>2023-11-29T10:34:38Z</time>
      </trkpt>
      <trkpt lat="49.13446" lon="1.85083">
        <ele>135</ele>
        <time>2023-11-29T10:34:44Z</time>
      </trkpt>
      <trkpt lat="49.13452" lon="1.85088">
        <ele>134.7</ele>
        <time>2023-11-29T10:34:49Z</time>
      </trkpt>
      <trkpt lat="49.13458" lon="1.85094">
        <ele>134.5</ele>
        <time>2023-11-29T10:34:54Z</time>
      </trkpt>
      <trkpt lat="49.13466" lon="1.85101">
        <ele>134.2</ele>
        <time>2023-11-29T10:35:00Z</time>
      </trkpt>
      <trkpt lat="49.1347" lon="1.85107">
        <ele>134.1</ele>
        <time>2023-11-29T10:35:05Z</time>
      </trkpt>
      <trkpt lat="49.13476" lon="1.85112">
        <ele>133.9</ele>
        <time>2023-11-29T10:35:10Z</time>
      </trkpt>
      <trkpt lat="49.13484" lon="1.85116">
        <ele>133.6</ele>
        <time>2023-11-29T10:35:16Z</time>
      </trkpt>
      <trkpt lat="49.13493" lon="1.85121">
        <ele>133.2</ele>
        <time>2023-11-29T10:35:22Z</time>
      </trkpt>
      <trkpt lat="49.13501" lon="1.85126">
        <ele>133</ele>
        <time>2023-11-29T10:35:28Z</time>
      </trkpt>
      <trkpt lat="49.13508" lon="1.85133">
        <ele>132.7</ele>
        <time>2023-11-29T10:35:34Z</time>
      </trkpt>
      <trkpt lat="49.13516" lon="1.85138">
        <ele>132.4</ele>
        <time>2023-11-29T10:35:39Z</time>
      </trkpt>
      <trkpt lat="49.13525" lon="1.85144">
        <ele>132.1</ele>
        <time>2023-11-29T10:35:45Z</time>
      </trkpt>
      <trkpt lat="49.13535" lon="1.8515">
        <ele>131.7</ele>
        <time>2023-11-29T10:35:51Z</time>
      </trkpt>
      <trkpt lat="49.13545" lon="1.85153">
        <ele>131.4</ele>
        <time>2023-11-29T10:35:57Z</time>
      </trkpt>
      <trkpt lat="49.13553" lon="1.8516">
        <ele>131.1</ele>
        <time>2023-11-29T10:36:03Z</time>
      </trkpt>
      <trkpt lat="49.13556" lon="1.85165">
        <ele>130.9</ele>
        <time>2023-11-29T10:36:08Z</time>
      </trkpt>
      <trkpt lat="49.13562" lon="1.8517">
        <ele>130.4</ele>
        <time>2023-11-29T10:36:13Z</time>
      </trkpt>
      <trkpt lat="49.13571" lon="1.85176">
        <ele>129.7</ele>
        <time>2023-11-29T10:36:19Z</time>
      </trkpt>
      <trkpt lat="49.13579" lon="1.85181">
        <ele>129.2</ele>
        <time>2023-11-29T10:36:24Z</time>
      </trkpt>
      <trkpt lat="49.13587" lon="1.85188">
        <ele>129</ele>
        <time>2023-11-29T10:36:30Z</time>
      </trkpt>
      <trkpt lat="49.13596" lon="1.85192">
        <ele>129</ele>
        <time>2023-11-29T10:36:35Z</time>
      </trkpt>
      <trkpt lat="49.13607" lon="1.85198">
        <ele>128.9</ele>
        <time>2023-11-29T10:36:41Z</time>
      </trkpt>
      <trkpt lat="49.13612" lon="1.85207">
        <ele>128.6</ele>
        <time>2023-11-29T10:36:47Z</time>
      </trkpt>
      <trkpt lat="49.13618" lon="1.85214">
        <ele>128.5</ele>
        <time>2023-11-29T10:36:53Z</time>
      </trkpt>
      <trkpt lat="49.13624" lon="1.85219">
        <ele>128.5</ele>
        <time>2023-11-29T10:36:59Z</time>
      </trkpt>
      <trkpt lat="49.1363" lon="1.85223">
        <ele>128.6</ele>
        <time>2023-11-29T10:37:04Z</time>
      </trkpt>
      <trkpt lat="49.13635" lon="1.85228">
        <ele>128.7</ele>
        <time>2023-11-29T10:37:10Z</time>
      </trkpt>
      <trkpt lat="49.13642" lon="1.85233">
        <ele>128.7</ele>
        <time>2023-11-29T10:37:16Z</time>
      </trkpt>
      <trkpt lat="49.13646" lon="1.85234">
        <ele>128.7</ele>
        <time>2023-11-29T10:37:21Z</time>
      </trkpt>
      <trkpt lat="49.13652" lon="1.85239">
        <ele>128.7</ele>
        <time>2023-11-29T10:37:27Z</time>
      </trkpt>
      <trkpt lat="49.13659" lon="1.85245">
        <ele>128.8</ele>
        <time>2023-11-29T10:37:33Z</time>
      </trkpt>
      <trkpt lat="49.13665" lon="1.85251">
        <ele>128.9</ele>
        <time>2023-11-29T10:37:39Z</time>
      </trkpt>
      <trkpt lat="49.13672" lon="1.85255">
        <ele>129</ele>
        <time>2023-11-29T10:37:44Z</time>
      </trkpt>
      <trkpt lat="49.1368" lon="1.85259">
        <ele>129</ele>
        <time>2023-11-29T10:37:50Z</time>
      </trkpt>
      <trkpt lat="49.13687" lon="1.85264">
        <ele>129</ele>
        <time>2023-11-29T10:37:55Z</time>
      </trkpt>
      <trkpt lat="49.13696" lon="1.85269">
        <ele>129</ele>
        <time>2023-11-29T10:38:01Z</time>
      </trkpt>
      <trkpt lat="49.13702" lon="1.85273">
        <ele>129.3</ele>
        <time>2023-11-29T10:38:06Z</time>
      </trkpt>
      <trkpt lat="49.13709" lon="1.85278">
        <ele>129.5</ele>
        <time>2023-11-29T10:38:11Z</time>
      </trkpt>
      <trkpt lat="49.13718" lon="1.85286">
        <ele>129.6</ele>
        <time>2023-11-29T10:38:17Z</time>
      </trkpt>
      <trkpt lat="49.13726" lon="1.85293">
        <ele>129.5</ele>
        <time>2023-11-29T10:38:22Z</time>
      </trkpt>
      <trkpt lat="49.13733" lon="1.85299">
        <ele>129.5</ele>
        <time>2023-11-29T10:38:28Z</time>
      </trkpt>
      <trkpt lat="49.1374" lon="1.85304">
        <ele>129.7</ele>
        <time>2023-11-29T10:38:33Z</time>
      </trkpt>
      <trkpt lat="49.13748" lon="1.85309">
        <ele>129.8</ele>
        <time>2023-11-29T10:38:38Z</time>
      </trkpt>
      <trkpt lat="49.13756" lon="1.85314">
        <ele>129.8</ele>
        <time>2023-11-29T10:38:44Z</time>
      </trkpt>
      <trkpt lat="49.13761" lon="1.85319">
        <ele>129.7</ele>
        <time>2023-11-29T10:38:49Z</time>
      </trkpt>
      <trkpt lat="49.13768" lon="1.85323">
        <ele>129.8</ele>
        <time>2023-11-29T10:38:55Z</time>
      </trkpt>
      <trkpt lat="49.13776" lon="1.85329">
        <ele>129.9</ele>
        <time>2023-11-29T10:39:01Z</time>
      </trkpt>
      <trkpt lat="49.13782" lon="1.85333">
        <ele>130</ele>
        <time>2023-11-29T10:39:06Z</time>
      </trkpt>
      <trkpt lat="49.13789" lon="1.85338">
        <ele>129.9</ele>
        <time>2023-11-29T10:39:12Z</time>
      </trkpt>
      <trkpt lat="49.13796" lon="1.85343">
        <ele>129.9</ele>
        <time>2023-11-29T10:39:17Z</time>
      </trkpt>
      <trkpt lat="49.13805" lon="1.85348">
        <ele>130</ele>
        <time>2023-11-29T10:39:23Z</time>
      </trkpt>
      <trkpt lat="49.13813" lon="1.85352">
        <ele>130</ele>
        <time>2023-11-29T10:39:28Z</time>
      </trkpt>
      <trkpt lat="49.13821" lon="1.85357">
        <ele>130</ele>
        <time>2023-11-29T10:39:34Z</time>
      </trkpt>
      <trkpt lat="49.13828" lon="1.85363">
        <ele>130</ele>
        <time>2023-11-29T10:39:40Z</time>
      </trkpt>
      <trkpt lat="49.13833" lon="1.85368">
        <ele>130</ele>
        <time>2023-11-29T10:39:45Z</time>
      </trkpt>
      <trkpt lat="49.13839" lon="1.85373">
        <ele>130</ele>
        <time>2023-11-29T10:39:50Z</time>
      </trkpt>
      <trkpt lat="49.13847" lon="1.85379">
        <ele>130</ele>
        <time>2023-11-29T10:39:56Z</time>
      </trkpt>
      <trkpt lat="49.13853" lon="1.85384">
        <ele>130</ele>
        <time>2023-11-29T10:40:02Z</time>
      </trkpt>
      <trkpt lat="49.13859" lon="1.85388">
        <ele>130</ele>
        <time>2023-11-29T10:40:07Z</time>
      </trkpt>
      <trkpt lat="49.13865" lon="1.85393">
        <ele>130</ele>
        <time>2023-11-29T10:40:13Z</time>
      </trkpt>
      <trkpt lat="49.13873" lon="1.85398">
        <ele>130</ele>
        <time>2023-11-29T10:40:19Z</time>
      </trkpt>
      <trkpt lat="49.1388" lon="1.85403">
        <ele>130</ele>
        <time>2023-11-29T10:40:24Z</time>
      </trkpt>
      <trkpt lat="49.13888" lon="1.85409">
        <ele>130</ele>
        <time>2023-11-29T10:40:30Z</time>
      </trkpt>
      <trkpt lat="49.13895" lon="1.85413">
        <ele>130</ele>
        <time>2023-11-29T10:40:35Z</time>
      </trkpt>
      <trkpt lat="49.13904" lon="1.85418">
        <ele>130</ele>
        <time>2023-11-29T10:40:41Z</time>
      </trkpt>
      <trkpt lat="49.13912" lon="1.85423">
        <ele>130</ele>
        <time>2023-11-29T10:40:47Z</time>
      </trkpt>
      <trkpt lat="49.13919" lon="1.85429">
        <ele>130.1</ele>
        <time>2023-11-29T10:40:53Z</time>
      </trkpt>
      <trkpt lat="49.13923" lon="1.85433">
        <ele>130.2</ele>
        <time>2023-11-29T10:40:58Z</time>
      </trkpt>
      <trkpt lat="49.13928" lon="1.85437">
        <ele>130.4</ele>
        <time>2023-11-29T10:41:03Z</time>
      </trkpt>
      <trkpt lat="49.13934" lon="1.85442">
        <ele>130.6</ele>
        <time>2023-11-29T10:41:09Z</time>
      </trkpt>
      <trkpt lat="49.13936" lon="1.85446">
        <ele>130.7</ele>
        <time>2023-11-29T10:41:14Z</time>
      </trkpt>
      <trkpt lat="49.1394" lon="1.85451">
        <ele>130.6</ele>
        <time>2023-11-29T10:41:19Z</time>
      </trkpt>
      <trkpt lat="49.13945" lon="1.85457">
        <ele>130.5</ele>
        <time>2023-11-29T10:41:24Z</time>
      </trkpt>
      <trkpt lat="49.13951" lon="1.85464">
        <ele>130.5</ele>
        <time>2023-11-29T10:41:29Z</time>
      </trkpt>
      <trkpt lat="49.13958" lon="1.8547">
        <ele>130.5</ele>
        <time>2023-11-29T10:41:35Z</time>
      </trkpt>
      <trkpt lat="49.13966" lon="1.85476">
        <ele>130.8</ele>
        <time>2023-11-29T10:41:41Z</time>
      </trkpt>
      <trkpt lat="49.13972" lon="1.85481">
        <ele>131</ele>
        <time>2023-11-29T10:41:47Z</time>
      </trkpt>
      <trkpt lat="49.13978" lon="1.85485">
        <ele>131</ele>
        <time>2023-11-29T10:41:52Z</time>
      </trkpt>
      <trkpt lat="49.13985" lon="1.8549">
        <ele>131</ele>
        <time>2023-11-29T10:41:58Z</time>
      </trkpt>
      <trkpt lat="49.13991" lon="1.85495">
        <ele>131</ele>
        <time>2023-11-29T10:42:03Z</time>
      </trkpt>
      <trkpt lat="49.13996" lon="1.85499">
        <ele>131</ele>
        <time>2023-11-29T10:42:08Z</time>
      </trkpt>
      <trkpt lat="49.14002" lon="1.85503">
        <ele>131</ele>
        <time>2023-11-29T10:42:13Z</time>
      </trkpt>
      <trkpt lat="49.14009" lon="1.85509">
        <ele>131</ele>
        <time>2023-11-29T10:42:19Z</time>
      </trkpt>
      <trkpt lat="49.14015" lon="1.85514">
        <ele>131</ele>
        <time>2023-11-29T10:42:25Z</time>
      </trkpt>
      <trkpt lat="49.14021" lon="1.85519">
        <ele>131</ele>
        <time>2023-11-29T10:42:30Z</time>
      </trkpt>
      <trkpt lat="49.14027" lon="1.85522">
        <ele>131</ele>
        <time>2023-11-29T10:42:35Z</time>
      </trkpt>
      <trkpt lat="49.14035" lon="1.85527">
        <ele>130.8</ele>
        <time>2023-11-29T10:42:41Z</time>
      </trkpt>
      <trkpt lat="49.14042" lon="1.85533">
        <ele>130.5</ele>
        <time>2023-11-29T10:42:47Z</time>
      </trkpt>
      <trkpt lat="49.14049" lon="1.85539">
        <ele>130.2</ele>
        <time>2023-11-29T10:42:53Z</time>
      </trkpt>
      <trkpt lat="49.14055" lon="1.85544">
        <ele>130</ele>
        <time>2023-11-29T10:42:58Z</time>
      </trkpt>
      <trkpt lat="49.14062" lon="1.85551">
        <ele>130</ele>
        <time>2023-11-29T10:43:04Z</time>
      </trkpt>
      <trkpt lat="49.14069" lon="1.85556">
        <ele>130</ele>
        <time>2023-11-29T10:43:10Z</time>
      </trkpt>
      <trkpt lat="49.14077" lon="1.85562">
        <ele>130</ele>
        <time>2023-11-29T10:43:16Z</time>
      </trkpt>
      <trkpt lat="49.14083" lon="1.85567">
        <ele>130</ele>
        <time>2023-11-29T10:43:21Z</time>
      </trkpt>
      <trkpt lat="49.14088" lon="1.8557">
        <ele>129.8</ele>
        <time>2023-11-29T10:43:26Z</time>
      </trkpt>
      <trkpt lat="49.14097" lon="1.85576">
        <ele>129.5</ele>
        <time>2023-11-29T10:43:32Z</time>
      </trkpt>
      <trkpt lat="49.14105" lon="1.85581">
        <ele>129.2</ele>
        <time>2023-11-29T10:43:38Z</time>
      </trkpt>
      <trkpt lat="49.14112" lon="1.85585">
        <ele>129</ele>
        <time>2023-11-29T10:43:44Z</time>
      </trkpt>
      <trkpt lat="49.14118" lon="1.85588">
        <ele>128.8</ele>
        <time>2023-11-29T10:43:49Z</time>
      </trkpt>
      <trkpt lat="49.14124" lon="1.85593">
        <ele>128.5</ele>
        <time>2023-11-29T10:43:55Z</time>
      </trkpt>
      <trkpt lat="49.14131" lon="1.85599">
        <ele>128.3</ele>
        <time>2023-11-29T10:44:01Z</time>
      </trkpt>
      <trkpt lat="49.14137" lon="1.85602">
        <ele>128.1</ele>
        <time>2023-11-29T10:44:06Z</time>
      </trkpt>
      <trkpt lat="49.14143" lon="1.85607">
        <ele>127.7</ele>
        <time>2023-11-29T10:44:11Z</time>
      </trkpt>
      <trkpt lat="49.14149" lon="1.85613">
        <ele>127.2</ele>
        <time>2023-11-29T10:44:16Z</time>
      </trkpt>
      <trkpt lat="49.14156" lon="1.85619">
        <ele>126.6</ele>
        <time>2023-11-29T10:44:22Z</time>
      </trkpt>
      <trkpt lat="49.14164" lon="1.85625">
        <ele>126.1</ele>
        <time>2023-11-29T10:44:28Z</time>
      </trkpt>
      <trkpt lat="49.14171" lon="1.8563">
        <ele>125.8</ele>
        <time>2023-11-29T10:44:34Z</time>
      </trkpt>
      <trkpt lat="49.14178" lon="1.85636">
        <ele>125.6</ele>
        <time>2023-11-29T10:44:40Z</time>
      </trkpt>
      <trkpt lat="49.14184" lon="1.85641">
        <ele>125.4</ele>
        <time>2023-11-29T10:44:45Z</time>
      </trkpt>
      <trkpt lat="49.1419" lon="1.85646">
        <ele>125.1</ele>
        <time>2023-11-29T10:44:50Z</time>
      </trkpt>
      <trkpt lat="49.14199" lon="1.85651">
        <ele>125</ele>
        <time>2023-11-29T10:44:56Z</time>
      </trkpt>
      <trkpt lat="49.14205" lon="1.85656">
        <ele>125</ele>
        <time>2023-11-29T10:45:01Z</time>
      </trkpt>
      <trkpt lat="49.14212" lon="1.8566">
        <ele>125</ele>
        <time>2023-11-29T10:45:06Z</time>
      </trkpt>
      <trkpt lat="49.14219" lon="1.85665">
        <ele>125</ele>
        <time>2023-11-29T10:45:12Z</time>
      </trkpt>
      <trkpt lat="49.14224" lon="1.85669">
        <ele>125</ele>
        <time>2023-11-29T10:45:17Z</time>
      </trkpt>
      <trkpt lat="49.14229" lon="1.85673">
        <ele>125</ele>
        <time>2023-11-29T10:45:22Z</time>
      </trkpt>
      <trkpt lat="49.14236" lon="1.85678">
        <ele>125.1</ele>
        <time>2023-11-29T10:45:28Z</time>
      </trkpt>
      <trkpt lat="49.14243" lon="1.85682">
        <ele>125.2</ele>
        <time>2023-11-29T10:45:33Z</time>
      </trkpt>
      <trkpt lat="49.1425" lon="1.85687">
        <ele>125.3</ele>
        <time>2023-11-29T10:45:39Z</time>
      </trkpt>
      <trkpt lat="49.14256" lon="1.85692">
        <ele>125.3</ele>
        <time>2023-11-29T10:45:44Z</time>
      </trkpt>
      <trkpt lat="49.14265" lon="1.85697">
        <ele>125.5</ele>
        <time>2023-11-29T10:45:50Z</time>
      </trkpt>
      <trkpt lat="49.14272" lon="1.85704">
        <ele>125.8</ele>
        <time>2023-11-29T10:45:56Z</time>
      </trkpt>
      <trkpt lat="49.14279" lon="1.8571">
        <ele>126</ele>
        <time>2023-11-29T10:46:02Z</time>
      </trkpt>
      <trkpt lat="49.14284" lon="1.85713">
        <ele>126.1</ele>
        <time>2023-11-29T10:46:07Z</time>
      </trkpt>
      <trkpt lat="49.1429" lon="1.85717">
        <ele>126.1</ele>
        <time>2023-11-29T10:46:12Z</time>
      </trkpt>
      <trkpt lat="49.14298" lon="1.85723">
        <ele>126</ele>
        <time>2023-11-29T10:46:18Z</time>
      </trkpt>
      <trkpt lat="49.14305" lon="1.85729">
        <ele>125.8</ele>
        <time>2023-11-29T10:46:23Z</time>
      </trkpt>
      <trkpt lat="49.14311" lon="1.85735">
        <ele>125.6</ele>
        <time>2023-11-29T10:46:29Z</time>
      </trkpt>
      <trkpt lat="49.14318" lon="1.8574">
        <ele>125.6</ele>
        <time>2023-11-29T10:46:35Z</time>
      </trkpt>
      <trkpt lat="49.14323" lon="1.85744">
        <ele>125.7</ele>
        <time>2023-11-29T10:46:40Z</time>
      </trkpt>
      <trkpt lat="49.14328" lon="1.8575">
        <ele>125.8</ele>
        <time>2023-11-29T10:46:45Z</time>
      </trkpt>
      <trkpt lat="49.14334" lon="1.85756">
        <ele>125.8</ele>
        <time>2023-11-29T10:46:51Z</time>
      </trkpt>
      <trkpt lat="49.1434" lon="1.8576">
        <ele>125.7</ele>
        <time>2023-11-29T10:46:56Z</time>
      </trkpt>
      <trkpt lat="49.14347" lon="1.85765">
        <ele>125.5</ele>
        <time>2023-11-29T10:47:02Z</time>
      </trkpt>
      <trkpt lat="49.14354" lon="1.8577">
        <ele>125.3</ele>
        <time>2023-11-29T10:47:08Z</time>
      </trkpt>
      <trkpt lat="49.14361" lon="1.85776">
        <ele>125.1</ele>
        <time>2023-11-29T10:47:14Z</time>
      </trkpt>
      <trkpt lat="49.14367" lon="1.85779">
        <ele>125.2</ele>
        <time>2023-11-29T10:47:19Z</time>
      </trkpt>
      <trkpt lat="49.14373" lon="1.85783">
        <ele>125.2</ele>
        <time>2023-11-29T10:47:24Z</time>
      </trkpt>
      <trkpt lat="49.14381" lon="1.85789">
        <ele>125.3</ele>
        <time>2023-11-29T10:47:30Z</time>
      </trkpt>
      <trkpt lat="49.14387" lon="1.85792">
        <ele>125.4</ele>
        <time>2023-11-29T10:47:35Z</time>
      </trkpt>
      <trkpt lat="49.14394" lon="1.85795">
        <ele>125.4</ele>
        <time>2023-11-29T10:47:41Z</time>
      </trkpt>
      <trkpt lat="49.14401" lon="1.85795">
        <ele>125.4</ele>
        <time>2023-11-29T10:47:46Z</time>
      </trkpt>
      <trkpt lat="49.14409" lon="1.85795">
        <ele>125.4</ele>
        <time>2023-11-29T10:47:51Z</time>
      </trkpt>
      <trkpt lat="49.14415" lon="1.85795">
        <ele>125.4</ele>
        <time>2023-11-29T10:47:57Z</time>
      </trkpt>
      <trkpt lat="49.1442" lon="1.85794">
        <ele>125.4</ele>
        <time>2023-11-29T10:48:02Z</time>
      </trkpt>
      <trkpt lat="49.14427" lon="1.85793">
        <ele>125.4</ele>
        <time>2023-11-29T10:48:08Z</time>
      </trkpt>
      <trkpt lat="49.14433" lon="1.8579">
        <ele>125.6</ele>
        <time>2023-11-29T10:48:14Z</time>
      </trkpt>
      <trkpt lat="49.14439" lon="1.85788">
        <ele>125.6</ele>
        <time>2023-11-29T10:48:19Z</time>
      </trkpt>
      <trkpt lat="49.14447" lon="1.85786">
        <ele>125.7</ele>
        <time>2023-11-29T10:48:25Z</time>
      </trkpt>
      <trkpt lat="49.14453" lon="1.85785">
        <ele>125.7</ele>
        <time>2023-11-29T10:48:30Z</time>
      </trkpt>
      <trkpt lat="49.1446" lon="1.85783">
        <ele>125.8</ele>
        <time>2023-11-29T10:48:36Z</time>
      </trkpt>
      <trkpt lat="49.14464" lon="1.85777">
        <ele>126</ele>
        <time>2023-11-29T10:48:41Z</time>
      </trkpt>
      <trkpt lat="49.14472" lon="1.85775">
        <ele>126</ele>
        <time>2023-11-29T10:48:47Z</time>
      </trkpt>
      <trkpt lat="49.14479" lon="1.85774">
        <ele>126</ele>
        <time>2023-11-29T10:48:53Z</time>
      </trkpt>
      <trkpt lat="49.14485" lon="1.85772">
        <ele>126</ele>
        <time>2023-11-29T10:48:58Z</time>
      </trkpt>
      <trkpt lat="49.1449" lon="1.85773">
        <ele>126</ele>
        <time>2023-11-29T10:49:04Z</time>
      </trkpt>
      <trkpt lat="49.14495" lon="1.85771">
        <ele>126</ele>
        <time>2023-11-29T10:49:09Z</time>
      </trkpt>
      <trkpt lat="49.14501" lon="1.85769">
        <ele>126</ele>
        <time>2023-11-29T10:49:14Z</time>
      </trkpt>
      <trkpt lat="49.1451" lon="1.85767">
        <ele>126</ele>
        <time>2023-11-29T10:49:20Z</time>
      </trkpt>
      <trkpt lat="49.14518" lon="1.85762">
        <ele>126</ele>
        <time>2023-11-29T10:49:25Z</time>
      </trkpt>
      <trkpt lat="49.14526" lon="1.85759">
        <ele>126</ele>
        <time>2023-11-29T10:49:31Z</time>
      </trkpt>
      <trkpt lat="49.14536" lon="1.85757">
        <ele>126</ele>
        <time>2023-11-29T10:49:37Z</time>
      </trkpt>
      <trkpt lat="49.14543" lon="1.85756">
        <ele>126</ele>
        <time>2023-11-29T10:49:42Z</time>
      </trkpt>
      <trkpt lat="49.14551" lon="1.85752">
        <ele>126</ele>
        <time>2023-11-29T10:49:48Z</time>
      </trkpt>
      <trkpt lat="49.14557" lon="1.85747">
        <ele>125.9</ele>
        <time>2023-11-29T10:49:53Z</time>
      </trkpt>
      <trkpt lat="49.14564" lon="1.85745">
        <ele>125.7</ele>
        <time>2023-11-29T10:49:59Z</time>
      </trkpt>
      <trkpt lat="49.14572" lon="1.85741">
        <ele>125.4</ele>
        <time>2023-11-29T10:50:05Z</time>
      </trkpt>
      <trkpt lat="49.14579" lon="1.85737">
        <ele>125.2</ele>
        <time>2023-11-29T10:50:11Z</time>
      </trkpt>
      <trkpt lat="49.14588" lon="1.85735">
        <ele>125</ele>
        <time>2023-11-29T10:50:17Z</time>
      </trkpt>
      <trkpt lat="49.14596" lon="1.85733">
        <ele>125</ele>
        <time>2023-11-29T10:50:22Z</time>
      </trkpt>
      <trkpt lat="49.14606" lon="1.85729">
        <ele>125</ele>
        <time>2023-11-29T10:50:28Z</time>
      </trkpt>
      <trkpt lat="49.14611" lon="1.85726">
        <ele>125</ele>
        <time>2023-11-29T10:50:33Z</time>
      </trkpt>
      <trkpt lat="49.14618" lon="1.85723">
        <ele>125</ele>
        <time>2023-11-29T10:50:39Z</time>
      </trkpt>
      <trkpt lat="49.14625" lon="1.8572">
        <ele>125</ele>
        <time>2023-11-29T10:50:45Z</time>
      </trkpt>
      <trkpt lat="49.14631" lon="1.85719">
        <ele>125</ele>
        <time>2023-11-29T10:50:50Z</time>
      </trkpt>
      <trkpt lat="49.1464" lon="1.85715">
        <ele>124.9</ele>
        <time>2023-11-29T10:50:56Z</time>
      </trkpt>
      <trkpt lat="49.14648" lon="1.85711">
        <ele>124.7</ele>
        <time>2023-11-29T10:51:02Z</time>
      </trkpt>
      <trkpt lat="49.14654" lon="1.85708">
        <ele>124.4</ele>
        <time>2023-11-29T10:51:07Z</time>
      </trkpt>
      <trkpt lat="49.14661" lon="1.85706">
        <ele>124.2</ele>
        <time>2023-11-29T10:51:12Z</time>
      </trkpt>
      <trkpt lat="49.14669" lon="1.85703">
        <ele>124</ele>
        <time>2023-11-29T10:51:18Z</time>
      </trkpt>
      <trkpt lat="49.14678" lon="1.85701">
        <ele>124</ele>
        <time>2023-11-29T10:51:24Z</time>
      </trkpt>
      <trkpt lat="49.14684" lon="1.85699">
        <ele>124</ele>
        <time>2023-11-29T10:51:29Z</time>
      </trkpt>
      <trkpt lat="49.14689" lon="1.85697">
        <ele>124</ele>
        <time>2023-11-29T10:51:34Z</time>
      </trkpt>
      <trkpt lat="49.14696" lon="1.85694">
        <ele>124</ele>
        <time>2023-11-29T10:51:40Z</time>
      </trkpt>
      <trkpt lat="49.14703" lon="1.85693">
        <ele>124</ele>
        <time>2023-11-29T10:51:45Z</time>
      </trkpt>
      <trkpt lat="49.14711" lon="1.85692">
        <ele>124</ele>
        <time>2023-11-29T10:51:50Z</time>
      </trkpt>
      <trkpt lat="49.14719" lon="1.85689">
        <ele>124</ele>
        <time>2023-11-29T10:51:56Z</time>
      </trkpt>
      <trkpt lat="49.14728" lon="1.85686">
        <ele>123.9</ele>
        <time>2023-11-29T10:52:02Z</time>
      </trkpt>
      <trkpt lat="49.14736" lon="1.85683">
        <ele>123.7</ele>
        <time>2023-11-29T10:52:08Z</time>
      </trkpt>
      <trkpt lat="49.14743" lon="1.8568">
        <ele>123.6</ele>
        <time>2023-11-29T10:52:13Z</time>
      </trkpt>
      <trkpt lat="49.1475" lon="1.85676">
        <ele>123.6</ele>
        <time>2023-11-29T10:52:19Z</time>
      </trkpt>
      <trkpt lat="49.14756" lon="1.85674">
        <ele>123.6</ele>
        <time>2023-11-29T10:52:24Z</time>
      </trkpt>
      <trkpt lat="49.14762" lon="1.85671">
        <ele>123.5</ele>
        <time>2023-11-29T10:52:29Z</time>
      </trkpt>
      <trkpt lat="49.14769" lon="1.85669">
        <ele>123.3</ele>
        <time>2023-11-29T10:52:35Z</time>
      </trkpt>
      <trkpt lat="49.14776" lon="1.85668">
        <ele>123.1</ele>
        <time>2023-11-29T10:52:41Z</time>
      </trkpt>
      <trkpt lat="49.14784" lon="1.85665">
        <ele>123</ele>
        <time>2023-11-29T10:52:47Z</time>
      </trkpt>
      <trkpt lat="49.14792" lon="1.85662">
        <ele>123</ele>
        <time>2023-11-29T10:52:53Z</time>
      </trkpt>
      <trkpt lat="49.14799" lon="1.85659">
        <ele>123</ele>
        <time>2023-11-29T10:52:58Z</time>
      </trkpt>
      <trkpt lat="49.14807" lon="1.85656">
        <ele>123</ele>
        <time>2023-11-29T10:53:04Z</time>
      </trkpt>
      <trkpt lat="49.14816" lon="1.85653">
        <ele>123</ele>
        <time>2023-11-29T10:53:09Z</time>
      </trkpt>
      <trkpt lat="49.14824" lon="1.85651">
        <ele>123</ele>
        <time>2023-11-29T10:53:15Z</time>
      </trkpt>
      <trkpt lat="49.14833" lon="1.85649">
        <ele>123</ele>
        <time>2023-11-29T10:53:21Z</time>
      </trkpt>
      <trkpt lat="49.14841" lon="1.85647">
        <ele>123</ele>
        <time>2023-11-29T10:53:26Z</time>
      </trkpt>
      <trkpt lat="49.1485" lon="1.85644">
        <ele>123</ele>
        <time>2023-11-29T10:53:32Z</time>
      </trkpt>
      <trkpt lat="49.14856" lon="1.85641">
        <ele>123</ele>
        <time>2023-11-29T10:53:37Z</time>
      </trkpt>
      <trkpt lat="49.14864" lon="1.85638">
        <ele>123</ele>
        <time>2023-11-29T10:53:43Z</time>
      </trkpt>
      <trkpt lat="49.1487" lon="1.85636">
        <ele>123</ele>
        <time>2023-11-29T10:53:48Z</time>
      </trkpt>
      <trkpt lat="49.14876" lon="1.85635">
        <ele>123</ele>
        <time>2023-11-29T10:53:53Z</time>
      </trkpt>
      <trkpt lat="49.14884" lon="1.85633">
        <ele>123</ele>
        <time>2023-11-29T10:53:59Z</time>
      </trkpt>
      <trkpt lat="49.1489" lon="1.8563">
        <ele>123</ele>
        <time>2023-11-29T10:54:04Z</time>
      </trkpt>
      <trkpt lat="49.14897" lon="1.85627">
        <ele>123</ele>
        <time>2023-11-29T10:54:10Z</time>
      </trkpt>
      <trkpt lat="49.14903" lon="1.85626">
        <ele>123</ele>
        <time>2023-11-29T10:54:15Z</time>
      </trkpt>
      <trkpt lat="49.14912" lon="1.85622">
        <ele>123</ele>
        <time>2023-11-29T10:54:21Z</time>
      </trkpt>
      <trkpt lat="49.14918" lon="1.85619">
        <ele>123.1</ele>
        <time>2023-11-29T10:54:26Z</time>
      </trkpt>
      <trkpt lat="49.14929" lon="1.85616">
        <ele>123.4</ele>
        <time>2023-11-29T10:54:32Z</time>
      </trkpt>
      <trkpt lat="49.14938" lon="1.85615">
        <ele>123.8</ele>
        <time>2023-11-29T10:54:38Z</time>
      </trkpt>
      <trkpt lat="49.14945" lon="1.85613">
        <ele>124</ele>
        <time>2023-11-29T10:54:43Z</time>
      </trkpt>
      <trkpt lat="49.14952" lon="1.8561">
        <ele>124</ele>
        <time>2023-11-29T10:54:49Z</time>
      </trkpt>
      <trkpt lat="49.1496" lon="1.85608">
        <ele>124</ele>
        <time>2023-11-29T10:54:54Z</time>
      </trkpt>
      <trkpt lat="49.14971" lon="1.85604">
        <ele>124</ele>
        <time>2023-11-29T10:55:00Z</time>
      </trkpt>
      <trkpt lat="49.14977" lon="1.85601">
        <ele>124</ele>
        <time>2023-11-29T10:55:05Z</time>
      </trkpt>
      <trkpt lat="49.14982" lon="1.85599">
        <ele>124</ele>
        <time>2023-11-29T10:55:10Z</time>
      </trkpt>
      <trkpt lat="49.14988" lon="1.85596">
        <ele>124</ele>
        <time>2023-11-29T10:55:15Z</time>
      </trkpt>
      <trkpt lat="49.14995" lon="1.85593">
        <ele>124</ele>
        <time>2023-11-29T10:55:21Z</time>
      </trkpt>
      <trkpt lat="49.15001" lon="1.85592">
        <ele>124</ele>
        <time>2023-11-29T10:55:26Z</time>
      </trkpt>
      <trkpt lat="49.15009" lon="1.85589">
        <ele>124.3</ele>
        <time>2023-11-29T10:55:32Z</time>
      </trkpt>
      <trkpt lat="49.15016" lon="1.85586">
        <ele>124.6</ele>
        <time>2023-11-29T10:55:38Z</time>
      </trkpt>
      <trkpt lat="49.15023" lon="1.85584">
        <ele>124.8</ele>
        <time>2023-11-29T10:55:43Z</time>
      </trkpt>
      <trkpt lat="49.15032" lon="1.85581">
        <ele>125</ele>
        <time>2023-11-29T10:55:49Z</time>
      </trkpt>
      <trkpt lat="49.15039" lon="1.85578">
        <ele>125</ele>
        <time>2023-11-29T10:55:54Z</time>
      </trkpt>
      <trkpt lat="49.15047" lon="1.85574">
        <ele>125</ele>
        <time>2023-11-29T10:56:00Z</time>
      </trkpt>
      <trkpt lat="49.15055" lon="1.85572">
        <ele>125</ele>
        <time>2023-11-29T10:56:06Z</time>
      </trkpt>
      <trkpt lat="49.15064" lon="1.8557">
        <ele>125</ele>
        <time>2023-11-29T10:56:11Z</time>
      </trkpt>
      <trkpt lat="49.15071" lon="1.85566">
        <ele>125</ele>
        <time>2023-11-29T10:56:17Z</time>
      </trkpt>
      <trkpt lat="49.15077" lon="1.85563">
        <ele>125</ele>
        <time>2023-11-29T10:56:22Z</time>
      </trkpt>
      <trkpt lat="49.15086" lon="1.85562">
        <ele>125</ele>
        <time>2023-11-29T10:56:28Z</time>
      </trkpt>
      <trkpt lat="49.15094" lon="1.8556">
        <ele>125</ele>
        <time>2023-11-29T10:56:33Z</time>
      </trkpt>
      <trkpt lat="49.15103" lon="1.85557">
        <ele>125</ele>
        <time>2023-11-29T10:56:39Z</time>
      </trkpt>
      <trkpt lat="49.15111" lon="1.85553">
        <ele>125</ele>
        <time>2023-11-29T10:56:45Z</time>
      </trkpt>
      <trkpt lat="49.1512" lon="1.8555">
        <ele>125</ele>
        <time>2023-11-29T10:56:51Z</time>
      </trkpt>
      <trkpt lat="49.15129" lon="1.85547">
        <ele>125</ele>
        <time>2023-11-29T10:56:57Z</time>
      </trkpt>
      <trkpt lat="49.15135" lon="1.85546">
        <ele>125</ele>
        <time>2023-11-29T10:57:02Z</time>
      </trkpt>
      <trkpt lat="49.15141" lon="1.85543">
        <ele>125</ele>
        <time>2023-11-29T10:57:07Z</time>
      </trkpt>
      <trkpt lat="49.15148" lon="1.8554">
        <ele>125</ele>
        <time>2023-11-29T10:57:12Z</time>
      </trkpt>
      <trkpt lat="49.15155" lon="1.85537">
        <ele>125</ele>
        <time>2023-11-29T10:57:17Z</time>
      </trkpt>
      <trkpt lat="49.15162" lon="1.85534">
        <ele>125</ele>
        <time>2023-11-29T10:57:23Z</time>
      </trkpt>
      <trkpt lat="49.1517" lon="1.8553">
        <ele>125</ele>
        <time>2023-11-29T10:57:29Z</time>
      </trkpt>
      <trkpt lat="49.15177" lon="1.85527">
        <ele>125</ele>
        <time>2023-11-29T10:57:35Z</time>
      </trkpt>
      <trkpt lat="49.15186" lon="1.85525">
        <ele>125</ele>
        <time>2023-11-29T10:57:41Z</time>
      </trkpt>
      <trkpt lat="49.15194" lon="1.85525">
        <ele>125</ele>
        <time>2023-11-29T10:57:46Z</time>
      </trkpt>
      <trkpt lat="49.15201" lon="1.85523">
        <ele>125</ele>
        <time>2023-11-29T10:57:51Z</time>
      </trkpt>
      <trkpt lat="49.15208" lon="1.85521">
        <ele>125</ele>
        <time>2023-11-29T10:57:56Z</time>
      </trkpt>
      <trkpt lat="49.15216" lon="1.8552">
        <ele>125</ele>
        <time>2023-11-29T10:58:02Z</time>
      </trkpt>
      <trkpt lat="49.15224" lon="1.85518">
        <ele>125</ele>
        <time>2023-11-29T10:58:07Z</time>
      </trkpt>
      <trkpt lat="49.15233" lon="1.85517">
        <ele>125</ele>
        <time>2023-11-29T10:58:13Z</time>
      </trkpt>
      <trkpt lat="49.15241" lon="1.85515">
        <ele>125</ele>
        <time>2023-11-29T10:58:19Z</time>
      </trkpt>
      <trkpt lat="49.15249" lon="1.85514">
        <ele>125</ele>
        <time>2023-11-29T10:58:24Z</time>
      </trkpt>
      <trkpt lat="49.15258" lon="1.85514">
        <ele>124.9</ele>
        <time>2023-11-29T10:58:30Z</time>
      </trkpt>
      <trkpt lat="49.15264" lon="1.85513">
        <ele>124.8</ele>
        <time>2023-11-29T10:58:35Z</time>
      </trkpt>
      <trkpt lat="49.15272" lon="1.85511">
        <ele>124.7</ele>
        <time>2023-11-29T10:58:40Z</time>
      </trkpt>
      <trkpt lat="49.15277" lon="1.8551">
        <ele>124.6</ele>
        <time>2023-11-29T10:58:45Z</time>
      </trkpt>
      <trkpt lat="49.15285" lon="1.8551">
        <ele>124.6</ele>
        <time>2023-11-29T10:58:51Z</time>
      </trkpt>
      <trkpt lat="49.15292" lon="1.85509">
        <ele>124.7</ele>
        <time>2023-11-29T10:58:57Z</time>
      </trkpt>
      <trkpt lat="49.153" lon="1.8551">
        <ele>124.6</ele>
        <time>2023-11-29T10:59:03Z</time>
      </trkpt>
      <trkpt lat="49.15309" lon="1.8551">
        <ele>124.6</ele>
        <time>2023-11-29T10:59:09Z</time>
      </trkpt>
      <trkpt lat="49.15315" lon="1.85511">
        <ele>124.6</ele>
        <time>2023-11-29T10:59:15Z</time>
      </trkpt>
      <trkpt lat="49.15318" lon="1.85507">
        <ele>124.8</ele>
        <time>2023-11-29T10:59:20Z</time>
      </trkpt>
      <trkpt lat="49.15317" lon="1.85504">
        <ele>124.8</ele>
        <time>2023-11-29T10:59:26Z</time>
      </trkpt>
      <trkpt lat="49.15316" lon="1.85505">
        <ele>124.8</ele>
        <time>2023-11-29T10:59:31Z</time>
      </trkpt>
      <trkpt lat="49.15315" lon="1.85504">
        <ele>124.8</ele>
        <time>2023-11-29T10:59:37Z</time>
      </trkpt>
      <trkpt lat="49.15315" lon="1.85504">
        <ele>124.9</ele>
        <time>2023-11-29T10:59:42Z</time>
      </trkpt>
      <trkpt lat="49.15316" lon="1.85504">
        <ele>124.9</ele>
        <time>2023-11-29T10:59:48Z</time>
      </trkpt>
      <trkpt lat="49.15315" lon="1.85503">
        <ele>124.9</ele>
        <time>2023-11-29T10:59:53Z</time>
      </trkpt>
      <trkpt lat="49.15316" lon="1.85503">
        <ele>124.9</ele>
        <time>2023-11-29T10:59:59Z</time>
      </trkpt>
      <trkpt lat="49.15316" lon="1.85505">
        <ele>124.8</ele>
        <time>2023-11-29T11:00:04Z</time>
      </trkpt>
      <trkpt lat="49.15316" lon="1.85504">
        <ele>124.9</ele>
        <time>2023-11-29T11:00:10Z</time>
      </trkpt>
      <trkpt lat="49.15316" lon="1.85502">
        <ele>124.9</ele>
        <time>2023-11-29T11:00:15Z</time>
      </trkpt>
      <trkpt lat="49.15315" lon="1.85502">
        <ele>124.9</ele>
        <time>2023-11-29T11:00:21Z</time>
      </trkpt>
      <trkpt lat="49.15315" lon="1.85502">
        <ele>124.9</ele>
        <time>2023-11-29T11:00:27Z</time>
      </trkpt>
      <trkpt lat="49.15315" lon="1.85503">
        <ele>124.9</ele>
        <time>2023-11-29T11:00:32Z</time>
      </trkpt>
      <trkpt lat="49.15315" lon="1.85502">
        <ele>124.9</ele>
        <time>2023-11-29T11:00:38Z</time>
      </trkpt>
      <trkpt lat="49.15315" lon="1.85502">
        <ele>124.9</ele>
        <time>2023-11-29T11:00:44Z</time>
      </trkpt>
      <trkpt lat="49.15315" lon="1.85502">
        <ele>124.9</ele>
        <time>2023-11-29T11:00:49Z</time>
      </trkpt>
      <trkpt lat="49.15315" lon="1.85502">
        <ele>124.9</ele>
        <time>2023-11-29T11:00:54Z</time>
      </trkpt>
      <trkpt lat="49.15315" lon="1.85503">
        <ele>124.9</ele>
        <time>2023-11-29T11:01:00Z</time>
      </trkpt>
      <trkpt lat="49.15315" lon="1.85503">
        <ele>124.9</ele>
        <time>2023-11-29T11:01:05Z</time>
      </trkpt>
      <trkpt lat="49.15315" lon="1.85503">
        <ele>124.9</ele>
        <time>2023-11-29T11:01:11Z</time>
      </trkpt>
      <trkpt lat="49.15315" lon="1.85503">
        <ele>124.9</ele>
        <time>2023-11-29T11:01:17Z</time>
      </trkpt>
      <trkpt lat="49.15315" lon="1.85503">
        <ele>124.9</ele>
        <time>2023-11-29T11:01:22Z</time>
      </trkpt>
      <trkpt lat="49.15314" lon="1.85502">
        <ele>124.9</ele>
        <time>2023-11-29T11:01:28Z</time>
      </trkpt>
      <trkpt lat="49.15314" lon="1.85503">
        <ele>124.9</ele>
        <time>2023-11-29T11:01:33Z</time>
      </trkpt>
      <trkpt lat="49.15314" lon="1.85503">
        <ele>124.9</ele>
        <time>2023-11-29T11:01:39Z</time>
      </trkpt>
      <trkpt lat="49.15314" lon="1.85503">
        <ele>124.9</ele>
        <time>2023-11-29T11:01:45Z</time>
      </trkpt>
      <trkpt lat="49.15314" lon="1.85502">
        <ele>124.9</ele>
        <time>2023-11-29T11:01:51Z</time>
      </trkpt>
      <trkpt lat="49.15314" lon="1.85501">
        <ele>125</ele>
        <time>2023-11-29T11:01:57Z</time>
      </trkpt>
      <trkpt lat="49.15314" lon="1.855">
        <ele>125</ele>
        <time>2023-11-29T11:02:03Z</time>
      </trkpt>
      <trkpt lat="49.15314" lon="1.855">
        <ele>125</ele>
        <time>2023-11-29T11:02:09Z</time>
      </trkpt>
      <trkpt lat="49.15316" lon="1.85502">
        <ele>124.9</ele>
        <time>2023-11-29T11:02:15Z</time>
      </trkpt>
      <trkpt lat="49.15318" lon="1.85505">
        <ele>124.8</ele>
        <time>2023-11-29T11:02:21Z</time>
      </trkpt>
      <trkpt lat="49.15318" lon="1.85505">
        <ele>124.8</ele>
        <time>2023-11-29T11:02:27Z</time>
      </trkpt>
      <trkpt lat="49.15318" lon="1.85505">
        <ele>124.8</ele>
        <time>2023-11-29T11:02:32Z</time>
      </trkpt>
      <trkpt lat="49.15317" lon="1.85505">
        <ele>124.8</ele>
        <time>2023-11-29T11:02:38Z</time>
      </trkpt>
      <trkpt lat="49.15317" lon="1.85504">
        <ele>124.8</ele>
        <time>2023-11-29T11:02:44Z</time>
      </trkpt>
      <trkpt lat="49.15317" lon="1.85504">
        <ele>124.9</ele>
        <time>2023-11-29T11:02:50Z</time>
      </trkpt>
      <trkpt lat="49.15317" lon="1.85503">
        <ele>124.9</ele>
        <time>2023-11-29T11:02:55Z</time>
      </trkpt>
      <trkpt lat="49.15317" lon="1.85503">
        <ele>124.9</ele>
        <time>2023-11-29T11:03:00Z</time>
      </trkpt>
      <trkpt lat="49.15317" lon="1.85503">
        <ele>124.9</ele>
        <time>2023-11-29T11:03:06Z</time>
      </trkpt>
      <trkpt lat="49.15317" lon="1.85503">
        <ele>124.9</ele>
        <time>2023-11-29T11:03:12Z</time>
      </trkpt>
      <trkpt lat="49.15319" lon="1.85506">
        <ele>124.8</ele>
        <time>2023-11-29T11:03:19Z</time>
      </trkpt>
      <trkpt lat="49.15319" lon="1.85507">
        <ele>124.8</ele>
        <time>2023-11-29T11:03:24Z</time>
      </trkpt>
      <trkpt lat="49.15318" lon="1.85507">
        <ele>124.7</ele>
        <time>2023-11-29T11:03:29Z</time>
      </trkpt>
      <trkpt lat="49.15318" lon="1.85506">
        <ele>124.8</ele>
        <time>2023-11-29T11:03:34Z</time>
      </trkpt>
      <trkpt lat="49.15323" lon="1.85502">
        <ele>124.9</ele>
        <time>2023-11-29T11:03:40Z</time>
      </trkpt>
      <trkpt lat="49.1533" lon="1.85503">
        <ele>124.9</ele>
        <time>2023-11-29T11:03:45Z</time>
      </trkpt>
      <trkpt lat="49.1534" lon="1.85507">
        <ele>124.7</ele>
        <time>2023-11-29T11:03:51Z</time>
      </trkpt>
      <trkpt lat="49.15346" lon="1.85506">
        <ele>124.8</ele>
        <time>2023-11-29T11:03:56Z</time>
      </trkpt>
      <trkpt lat="49.15354" lon="1.85502">
        <ele>124.9</ele>
        <time>2023-11-29T11:04:02Z</time>
      </trkpt>
      <trkpt lat="49.15361" lon="1.85501">
        <ele>125</ele>
        <time>2023-11-29T11:04:07Z</time>
      </trkpt>
      <trkpt lat="49.15368" lon="1.85494">
        <ele>125</ele>
        <time>2023-11-29T11:04:13Z</time>
      </trkpt>
      <trkpt lat="49.15377" lon="1.85485">
        <ele>125</ele>
        <time>2023-11-29T11:04:19Z</time>
      </trkpt>
      <trkpt lat="49.15385" lon="1.85478">
        <ele>125</ele>
        <time>2023-11-29T11:04:24Z</time>
      </trkpt>
      <trkpt lat="49.15392" lon="1.85472">
        <ele>125</ele>
        <time>2023-11-29T11:04:30Z</time>
      </trkpt>
      <trkpt lat="49.15399" lon="1.85472">
        <ele>125</ele>
        <time>2023-11-29T11:04:36Z</time>
      </trkpt>
      <trkpt lat="49.15403" lon="1.85472">
        <ele>125</ele>
        <time>2023-11-29T11:04:41Z</time>
      </trkpt>
      <trkpt lat="49.1541" lon="1.85473">
        <ele>125</ele>
        <time>2023-11-29T11:04:47Z</time>
      </trkpt>
      <trkpt lat="49.15417" lon="1.8547">
        <ele>125</ele>
        <time>2023-11-29T11:04:53Z</time>
      </trkpt>
      <trkpt lat="49.15426" lon="1.8547">
        <ele>125</ele>
        <time>2023-11-29T11:04:59Z</time>
      </trkpt>
      <trkpt lat="49.15434" lon="1.85471">
        <ele>125</ele>
        <time>2023-11-29T11:05:05Z</time>
      </trkpt>
      <trkpt lat="49.15438" lon="1.85474">
        <ele>125</ele>
        <time>2023-11-29T11:05:11Z</time>
      </trkpt>
      <trkpt lat="49.15444" lon="1.85478">
        <ele>125</ele>
        <time>2023-11-29T11:05:17Z</time>
      </trkpt>
      <trkpt lat="49.15451" lon="1.85485">
        <ele>124.9</ele>
        <time>2023-11-29T11:05:23Z</time>
      </trkpt>
      <trkpt lat="49.15459" lon="1.85494">
        <ele>124.9</ele>
        <time>2023-11-29T11:05:29Z</time>
      </trkpt>
      <trkpt lat="49.15466" lon="1.85501">
        <ele>125</ele>
        <time>2023-11-29T11:05:34Z</time>
      </trkpt>
      <trkpt lat="49.15475" lon="1.85508">
        <ele>124.9</ele>
        <time>2023-11-29T11:05:40Z</time>
      </trkpt>
      <trkpt lat="49.15483" lon="1.85513">
        <ele>124.8</ele>
        <time>2023-11-29T11:05:45Z</time>
      </trkpt>
      <trkpt lat="49.1549" lon="1.85515">
        <ele>124.7</ele>
        <time>2023-11-29T11:05:51Z</time>
      </trkpt>
      <trkpt lat="49.15497" lon="1.85518">
        <ele>124.7</ele>
        <time>2023-11-29T11:05:57Z</time>
      </trkpt>
      <trkpt lat="49.15503" lon="1.85518">
        <ele>124.6</ele>
        <time>2023-11-29T11:06:02Z</time>
      </trkpt>
      <trkpt lat="49.1551" lon="1.85517">
        <ele>124.4</ele>
        <time>2023-11-29T11:06:08Z</time>
      </trkpt>
      <trkpt lat="49.15517" lon="1.85518">
        <ele>124.2</ele>
        <time>2023-11-29T11:06:13Z</time>
      </trkpt>
      <trkpt lat="49.15525" lon="1.8552">
        <ele>124.1</ele>
        <time>2023-11-29T11:06:19Z</time>
      </trkpt>
      <trkpt lat="49.15533" lon="1.85522">
        <ele>124</ele>
        <time>2023-11-29T11:06:25Z</time>
      </trkpt>
      <trkpt lat="49.15539" lon="1.85524">
        <ele>124</ele>
        <time>2023-11-29T11:06:30Z</time>
      </trkpt>
      <trkpt lat="49.15545" lon="1.85526">
        <ele>124</ele>
        <time>2023-11-29T11:06:35Z</time>
      </trkpt>
      <trkpt lat="49.15553" lon="1.85531">
        <ele>124</ele>
        <time>2023-11-29T11:06:41Z</time>
      </trkpt>
      <trkpt lat="49.15561" lon="1.85539">
        <ele>124</ele>
        <time>2023-11-29T11:06:47Z</time>
      </trkpt>
      <trkpt lat="49.15568" lon="1.85545">
        <ele>124</ele>
        <time>2023-11-29T11:06:52Z</time>
      </trkpt>
      <trkpt lat="49.15576" lon="1.85552">
        <ele>124</ele>
        <time>2023-11-29T11:06:58Z</time>
      </trkpt>
      <trkpt lat="49.15585" lon="1.85559">
        <ele>124</ele>
        <time>2023-11-29T11:07:04Z</time>
      </trkpt>
      <trkpt lat="49.15589" lon="1.85562">
        <ele>124</ele>
        <time>2023-11-29T11:07:10Z</time>
      </trkpt>
      <trkpt lat="49.15589" lon="1.85562">
        <ele>124</ele>
        <time>2023-11-29T11:07:16Z</time>
      </trkpt>
      <trkpt lat="49.15594" lon="1.85565">
        <ele>124</ele>
        <time>2023-11-29T11:07:21Z</time>
      </trkpt>
      <trkpt lat="49.15599" lon="1.8557">
        <ele>124</ele>
        <time>2023-11-29T11:07:26Z</time>
      </trkpt>
      <trkpt lat="49.15599" lon="1.85579">
        <ele>124</ele>
        <time>2023-11-29T11:07:32Z</time>
      </trkpt>
      <trkpt lat="49.15599" lon="1.85587">
        <ele>124</ele>
        <time>2023-11-29T11:07:37Z</time>
      </trkpt>
      <trkpt lat="49.156" lon="1.85594">
        <ele>124</ele>
        <time>2023-11-29T11:07:43Z</time>
      </trkpt>
      <trkpt lat="49.15599" lon="1.85599">
        <ele>124</ele>
        <time>2023-11-29T11:07:48Z</time>
      </trkpt>
      <trkpt lat="49.15597" lon="1.85607">
        <ele>124</ele>
        <time>2023-11-29T11:07:54Z</time>
      </trkpt>
      <trkpt lat="49.15594" lon="1.85615">
        <ele>124</ele>
        <time>2023-11-29T11:08:00Z</time>
      </trkpt>
      <trkpt lat="49.15589" lon="1.85622">
        <ele>124</ele>
        <time>2023-11-29T11:08:05Z</time>
      </trkpt>
      <trkpt lat="49.15585" lon="1.8563">
        <ele>124</ele>
        <time>2023-11-29T11:08:10Z</time>
      </trkpt>
      <trkpt lat="49.15579" lon="1.85636">
        <ele>124</ele>
        <time>2023-11-29T11:08:16Z</time>
      </trkpt>
      <trkpt lat="49.15572" lon="1.85644">
        <ele>123.9</ele>
        <time>2023-11-29T11:08:21Z</time>
      </trkpt>
      <trkpt lat="49.15568" lon="1.85649">
        <ele>123.8</ele>
        <time>2023-11-29T11:08:26Z</time>
      </trkpt>
      <trkpt lat="49.15563" lon="1.85659">
        <ele>123.8</ele>
        <time>2023-11-29T11:08:32Z</time>
      </trkpt>
      <trkpt lat="49.15557" lon="1.85666">
        <ele>124</ele>
        <time>2023-11-29T11:08:37Z</time>
      </trkpt>
      <trkpt lat="49.1555" lon="1.85673">
        <ele>123.8</ele>
        <time>2023-11-29T11:08:43Z</time>
      </trkpt>
      <trkpt lat="49.15544" lon="1.85679">
        <ele>123.7</ele>
        <time>2023-11-29T11:08:49Z</time>
      </trkpt>
      <trkpt lat="49.1554" lon="1.85686">
        <ele>123.7</ele>
        <time>2023-11-29T11:08:54Z</time>
      </trkpt>
      <trkpt lat="49.15535" lon="1.85696">
        <ele>123.7</ele>
        <time>2023-11-29T11:09:00Z</time>
      </trkpt>
      <trkpt lat="49.15529" lon="1.85705">
        <ele>123.6</ele>
        <time>2023-11-29T11:09:06Z</time>
      </trkpt>
      <trkpt lat="49.15521" lon="1.85713">
        <ele>123.3</ele>
        <time>2023-11-29T11:09:12Z</time>
      </trkpt>
      <trkpt lat="49.15516" lon="1.8572">
        <ele>123.1</ele>
        <time>2023-11-29T11:09:17Z</time>
      </trkpt>
      <trkpt lat="49.15511" lon="1.85728">
        <ele>123</ele>
        <time>2023-11-29T11:09:22Z</time>
      </trkpt>
      <trkpt lat="49.15505" lon="1.85733">
        <ele>123</ele>
        <time>2023-11-29T11:09:27Z</time>
      </trkpt>
      <trkpt lat="49.15498" lon="1.85741">
        <ele>123</ele>
        <time>2023-11-29T11:09:33Z</time>
      </trkpt>
      <trkpt lat="49.15493" lon="1.85748">
        <ele>123</ele>
        <time>2023-11-29T11:09:38Z</time>
      </trkpt>
      <trkpt lat="49.15485" lon="1.85756">
        <ele>123</ele>
        <time>2023-11-29T11:09:44Z</time>
      </trkpt>
      <trkpt lat="49.15479" lon="1.85762">
        <ele>123</ele>
        <time>2023-11-29T11:09:49Z</time>
      </trkpt>
      <trkpt lat="49.15472" lon="1.85768">
        <ele>123</ele>
        <time>2023-11-29T11:09:55Z</time>
      </trkpt>
      <trkpt lat="49.15467" lon="1.85777">
        <ele>123</ele>
        <time>2023-11-29T11:10:01Z</time>
      </trkpt>
      <trkpt lat="49.15463" lon="1.85783">
        <ele>123</ele>
        <time>2023-11-29T11:10:06Z</time>
      </trkpt>
      <trkpt lat="49.15457" lon="1.85788">
        <ele>123</ele>
        <time>2023-11-29T11:10:11Z</time>
      </trkpt>
      <trkpt lat="49.15451" lon="1.85794">
        <ele>123</ele>
        <time>2023-11-29T11:10:17Z</time>
      </trkpt>
      <trkpt lat="49.15446" lon="1.85799">
        <ele>123</ele>
        <time>2023-11-29T11:10:22Z</time>
      </trkpt>
      <trkpt lat="49.15441" lon="1.85806">
        <ele>123</ele>
        <time>2023-11-29T11:10:28Z</time>
      </trkpt>
      <trkpt lat="49.15436" lon="1.85813">
        <ele>122.9</ele>
        <time>2023-11-29T11:10:34Z</time>
      </trkpt>
      <trkpt lat="49.15432" lon="1.85816">
        <ele>122.8</ele>
        <time>2023-11-29T11:10:39Z</time>
      </trkpt>
      <trkpt lat="49.15426" lon="1.85823">
        <ele>122.6</ele>
        <time>2023-11-29T11:10:45Z</time>
      </trkpt>
      <trkpt lat="49.15421" lon="1.85829">
        <ele>122.3</ele>
        <time>2023-11-29T11:10:50Z</time>
      </trkpt>
      <trkpt lat="49.15416" lon="1.85834">
        <ele>122</ele>
        <time>2023-11-29T11:10:55Z</time>
      </trkpt>
      <trkpt lat="49.15409" lon="1.85842">
        <ele>121.9</ele>
        <time>2023-11-29T11:11:01Z</time>
      </trkpt>
      <trkpt lat="49.15402" lon="1.85851">
        <ele>121.7</ele>
        <time>2023-11-29T11:11:06Z</time>
      </trkpt>
      <trkpt lat="49.15395" lon="1.8586">
        <ele>121.3</ele>
        <time>2023-11-29T11:11:12Z</time>
      </trkpt>
      <trkpt lat="49.1539" lon="1.85866">
        <ele>121.2</ele>
        <time>2023-11-29T11:11:17Z</time>
      </trkpt>
      <trkpt lat="49.15383" lon="1.85873">
        <ele>121.5</ele>
        <time>2023-11-29T11:11:23Z</time>
      </trkpt>
      <trkpt lat="49.15378" lon="1.85879">
        <ele>121.5</ele>
        <time>2023-11-29T11:11:28Z</time>
      </trkpt>
      <trkpt lat="49.15373" lon="1.85887">
        <ele>121.4</ele>
        <time>2023-11-29T11:11:33Z</time>
      </trkpt>
      <trkpt lat="49.15365" lon="1.85896">
        <ele>121.1</ele>
        <time>2023-11-29T11:11:39Z</time>
      </trkpt>
      <trkpt lat="49.15358" lon="1.85903">
        <ele>121</ele>
        <time>2023-11-29T11:11:45Z</time>
      </trkpt>
      <trkpt lat="49.15352" lon="1.8591">
        <ele>120.7</ele>
        <time>2023-11-29T11:11:50Z</time>
      </trkpt>
      <trkpt lat="49.15344" lon="1.85918">
        <ele>120.4</ele>
        <time>2023-11-29T11:11:56Z</time>
      </trkpt>
      <trkpt lat="49.15339" lon="1.85924">
        <ele>120.4</ele>
        <time>2023-11-29T11:12:02Z</time>
      </trkpt>
      <trkpt lat="49.15334" lon="1.85929">
        <ele>120.4</ele>
        <time>2023-11-29T11:12:07Z</time>
      </trkpt>
      <trkpt lat="49.15329" lon="1.85934">
        <ele>120.6</ele>
        <time>2023-11-29T11:12:13Z</time>
      </trkpt>
      <trkpt lat="49.15323" lon="1.8594">
        <ele>120.6</ele>
        <time>2023-11-29T11:12:18Z</time>
      </trkpt>
      <trkpt lat="49.15317" lon="1.85948">
        <ele>120.4</ele>
        <time>2023-11-29T11:12:24Z</time>
      </trkpt>
      <trkpt lat="49.1531" lon="1.85955">
        <ele>120.1</ele>
        <time>2023-11-29T11:12:30Z</time>
      </trkpt>
      <trkpt lat="49.15303" lon="1.85963">
        <ele>120</ele>
        <time>2023-11-29T11:12:36Z</time>
      </trkpt>
      <trkpt lat="49.15297" lon="1.85969">
        <ele>120</ele>
        <time>2023-11-29T11:12:41Z</time>
      </trkpt>
      <trkpt lat="49.15291" lon="1.85971">
        <ele>120</ele>
        <time>2023-11-29T11:12:47Z</time>
      </trkpt>
      <trkpt lat="49.15286" lon="1.85977">
        <ele>119.9</ele>
        <time>2023-11-29T11:12:53Z</time>
      </trkpt>
      <trkpt lat="49.15281" lon="1.85983">
        <ele>119.6</ele>
        <time>2023-11-29T11:12:58Z</time>
      </trkpt>
      <trkpt lat="49.15274" lon="1.85992">
        <ele>119.3</ele>
        <time>2023-11-29T11:13:04Z</time>
      </trkpt>
      <trkpt lat="49.15269" lon="1.85996">
        <ele>119.2</ele>
        <time>2023-11-29T11:13:09Z</time>
      </trkpt>
      <trkpt lat="49.15263" lon="1.86002">
        <ele>119</ele>
        <time>2023-11-29T11:13:15Z</time>
      </trkpt>
      <trkpt lat="49.15257" lon="1.86009">
        <ele>119</ele>
        <time>2023-11-29T11:13:21Z</time>
      </trkpt>
      <trkpt lat="49.15251" lon="1.86015">
        <ele>119</ele>
        <time>2023-11-29T11:13:26Z</time>
      </trkpt>
      <trkpt lat="49.15243" lon="1.86024">
        <ele>119</ele>
        <time>2023-11-29T11:13:32Z</time>
      </trkpt>
      <trkpt lat="49.15238" lon="1.8603">
        <ele>119</ele>
        <time>2023-11-29T11:13:37Z</time>
      </trkpt>
      <trkpt lat="49.15231" lon="1.86037">
        <ele>119</ele>
        <time>2023-11-29T11:13:43Z</time>
      </trkpt>
      <trkpt lat="49.15224" lon="1.86044">
        <ele>119</ele>
        <time>2023-11-29T11:13:49Z</time>
      </trkpt>
      <trkpt lat="49.15218" lon="1.86052">
        <ele>119</ele>
        <time>2023-11-29T11:13:55Z</time>
      </trkpt>
      <trkpt lat="49.15211" lon="1.8606">
        <ele>119</ele>
        <time>2023-11-29T11:14:01Z</time>
      </trkpt>
      <trkpt lat="49.15203" lon="1.86069">
        <ele>119</ele>
        <time>2023-11-29T11:14:07Z</time>
      </trkpt>
      <trkpt lat="49.15197" lon="1.86076">
        <ele>119</ele>
        <time>2023-11-29T11:14:12Z</time>
      </trkpt>
      <trkpt lat="49.15191" lon="1.86085">
        <ele>119</ele>
        <time>2023-11-29T11:14:18Z</time>
      </trkpt>
      <trkpt lat="49.15186" lon="1.86091">
        <ele>119</ele>
        <time>2023-11-29T11:14:23Z</time>
      </trkpt>
      <trkpt lat="49.1518" lon="1.86098">
        <ele>119</ele>
        <time>2023-11-29T11:14:29Z</time>
      </trkpt>
      <trkpt lat="49.15174" lon="1.86105">
        <ele>119</ele>
        <time>2023-11-29T11:14:34Z</time>
      </trkpt>
      <trkpt lat="49.15167" lon="1.86114">
        <ele>119</ele>
        <time>2023-11-29T11:14:40Z</time>
      </trkpt>
      <trkpt lat="49.15161" lon="1.86119">
        <ele>118.8</ele>
        <time>2023-11-29T11:14:45Z</time>
      </trkpt>
      <trkpt lat="49.15152" lon="1.86129">
        <ele>118.5</ele>
        <time>2023-11-29T11:14:51Z</time>
      </trkpt>
      <trkpt lat="49.15144" lon="1.86137">
        <ele>118.2</ele>
        <time>2023-11-29T11:14:57Z</time>
      </trkpt>
      <trkpt lat="49.15137" lon="1.86145">
        <ele>118</ele>
        <time>2023-11-29T11:15:03Z</time>
      </trkpt>
      <trkpt lat="49.1513" lon="1.86153">
        <ele>118</ele>
        <time>2023-11-29T11:15:09Z</time>
      </trkpt>
      <trkpt lat="49.15124" lon="1.86159">
        <ele>118</ele>
        <time>2023-11-29T11:15:14Z</time>
      </trkpt>
      <trkpt lat="49.15119" lon="1.86166">
        <ele>118</ele>
        <time>2023-11-29T11:15:20Z</time>
      </trkpt>
      <trkpt lat="49.15116" lon="1.86174">
        <ele>118</ele>
        <time>2023-11-29T11:15:25Z</time>
      </trkpt>
      <trkpt lat="49.15111" lon="1.86179">
        <ele>118</ele>
        <time>2023-11-29T11:15:30Z</time>
      </trkpt>
      <trkpt lat="49.15104" lon="1.86185">
        <ele>118</ele>
        <time>2023-11-29T11:15:36Z</time>
      </trkpt>
      <trkpt lat="49.15099" lon="1.86191">
        <ele>118</ele>
        <time>2023-11-29T11:15:41Z</time>
      </trkpt>
      <trkpt lat="49.15093" lon="1.86199">
        <ele>118</ele>
        <time>2023-11-29T11:15:47Z</time>
      </trkpt>
      <trkpt lat="49.15087" lon="1.86204">
        <ele>118</ele>
        <time>2023-11-29T11:15:53Z</time>
      </trkpt>
      <trkpt lat="49.1508" lon="1.8621">
        <ele>118</ele>
        <time>2023-11-29T11:15:58Z</time>
      </trkpt>
      <trkpt lat="49.15073" lon="1.86214">
        <ele>118</ele>
        <time>2023-11-29T11:16:04Z</time>
      </trkpt>
      <trkpt lat="49.15067" lon="1.86221">
        <ele>118</ele>
        <time>2023-11-29T11:16:10Z</time>
      </trkpt>
      <trkpt lat="49.15062" lon="1.86228">
        <ele>118</ele>
        <time>2023-11-29T11:16:15Z</time>
      </trkpt>
      <trkpt lat="49.15054" lon="1.86236">
        <ele>118</ele>
        <time>2023-11-29T11:16:21Z</time>
      </trkpt>
      <trkpt lat="49.15048" lon="1.86243">
        <ele>118</ele>
        <time>2023-11-29T11:16:26Z</time>
      </trkpt>
      <trkpt lat="49.15042" lon="1.8625">
        <ele>118</ele>
        <time>2023-11-29T11:16:32Z</time>
      </trkpt>
      <trkpt lat="49.15035" lon="1.86256">
        <ele>118</ele>
        <time>2023-11-29T11:16:38Z</time>
      </trkpt>
      <trkpt lat="49.1503" lon="1.8626">
        <ele>118</ele>
        <time>2023-11-29T11:16:43Z</time>
      </trkpt>
      <trkpt lat="49.15023" lon="1.86268">
        <ele>118</ele>
        <time>2023-11-29T11:16:49Z</time>
      </trkpt>
      <trkpt lat="49.15017" lon="1.86275">
        <ele>118</ele>
        <time>2023-11-29T11:16:55Z</time>
      </trkpt>
      <trkpt lat="49.15013" lon="1.86282">
        <ele>118</ele>
        <time>2023-11-29T11:17:00Z</time>
      </trkpt>
      <trkpt lat="49.15007" lon="1.8629">
        <ele>118</ele>
        <time>2023-11-29T11:17:06Z</time>
      </trkpt>
      <trkpt lat="49.15001" lon="1.86299">
        <ele>118</ele>
        <time>2023-11-29T11:17:11Z</time>
      </trkpt>
      <trkpt lat="49.14996" lon="1.86309">
        <ele>118.3</ele>
        <time>2023-11-29T11:17:17Z</time>
      </trkpt>
      <trkpt lat="49.14991" lon="1.86314">
        <ele>118.5</ele>
        <time>2023-11-29T11:17:22Z</time>
      </trkpt>
      <trkpt lat="49.14985" lon="1.86321">
        <ele>118.8</ele>
        <time>2023-11-29T11:17:27Z</time>
      </trkpt>
      <trkpt lat="49.14979" lon="1.86329">
        <ele>119</ele>
        <time>2023-11-29T11:17:33Z</time>
      </trkpt>
      <trkpt lat="49.14975" lon="1.86335">
        <ele>119</ele>
        <time>2023-11-29T11:17:38Z</time>
      </trkpt>
      <trkpt lat="49.14967" lon="1.86344">
        <ele>119</ele>
        <time>2023-11-29T11:17:44Z</time>
      </trkpt>
      <trkpt lat="49.14962" lon="1.86351">
        <ele>119</ele>
        <time>2023-11-29T11:17:49Z</time>
      </trkpt>
      <trkpt lat="49.14955" lon="1.8636">
        <ele>119</ele>
        <time>2023-11-29T11:17:55Z</time>
      </trkpt>
      <trkpt lat="49.14949" lon="1.86366">
        <ele>119.1</ele>
        <time>2023-11-29T11:18:00Z</time>
      </trkpt>
      <trkpt lat="49.14944" lon="1.86371">
        <ele>119.4</ele>
        <time>2023-11-29T11:18:05Z</time>
      </trkpt>
      <trkpt lat="49.14939" lon="1.86378">
        <ele>119.7</ele>
        <time>2023-11-29T11:18:10Z</time>
      </trkpt>
      <trkpt lat="49.14934" lon="1.86385">
        <ele>119.9</ele>
        <time>2023-11-29T11:18:15Z</time>
      </trkpt>
      <trkpt lat="49.14928" lon="1.86391">
        <ele>120</ele>
        <time>2023-11-29T11:18:21Z</time>
      </trkpt>
      <trkpt lat="49.14922" lon="1.86397">
        <ele>120</ele>
        <time>2023-11-29T11:18:26Z</time>
      </trkpt>
      <trkpt lat="49.14915" lon="1.86405">
        <ele>120.1</ele>
        <time>2023-11-29T11:18:32Z</time>
      </trkpt>
      <trkpt lat="49.14909" lon="1.86411">
        <ele>120.3</ele>
        <time>2023-11-29T11:18:37Z</time>
      </trkpt>
      <trkpt lat="49.14904" lon="1.86418">
        <ele>120.5</ele>
        <time>2023-11-29T11:18:43Z</time>
      </trkpt>
      <trkpt lat="49.14899" lon="1.86424">
        <ele>120.7</ele>
        <time>2023-11-29T11:18:49Z</time>
      </trkpt>
      <trkpt lat="49.14892" lon="1.86431">
        <ele>121</ele>
        <time>2023-11-29T11:18:55Z</time>
      </trkpt>
      <trkpt lat="49.14885" lon="1.86441">
        <ele>121</ele>
        <time>2023-11-29T11:19:01Z</time>
      </trkpt>
      <trkpt lat="49.1488" lon="1.86449">
        <ele>121</ele>
        <time>2023-11-29T11:19:06Z</time>
      </trkpt>
      <trkpt lat="49.14873" lon="1.86456">
        <ele>121</ele>
        <time>2023-11-29T11:19:11Z</time>
      </trkpt>
      <trkpt lat="49.14866" lon="1.86464">
        <ele>121</ele>
        <time>2023-11-29T11:19:17Z</time>
      </trkpt>
      <trkpt lat="49.14859" lon="1.86472">
        <ele>121</ele>
        <time>2023-11-29T11:19:23Z</time>
      </trkpt>
      <trkpt lat="49.14854" lon="1.86478">
        <ele>121</ele>
        <time>2023-11-29T11:19:28Z</time>
      </trkpt>
      <trkpt lat="49.14847" lon="1.86485">
        <ele>121</ele>
        <time>2023-11-29T11:19:34Z</time>
      </trkpt>
      <trkpt lat="49.14841" lon="1.86493">
        <ele>121</ele>
        <time>2023-11-29T11:19:39Z</time>
      </trkpt>
      <trkpt lat="49.14834" lon="1.86501">
        <ele>121</ele>
        <time>2023-11-29T11:19:45Z</time>
      </trkpt>
      <trkpt lat="49.14829" lon="1.86508">
        <ele>121</ele>
        <time>2023-11-29T11:19:51Z</time>
      </trkpt>
      <trkpt lat="49.14822" lon="1.86516">
        <ele>121</ele>
        <time>2023-11-29T11:19:57Z</time>
      </trkpt>
      <trkpt lat="49.14816" lon="1.86523">
        <ele>121</ele>
        <time>2023-11-29T11:20:02Z</time>
      </trkpt>
      <trkpt lat="49.14811" lon="1.8653">
        <ele>120.9</ele>
        <time>2023-11-29T11:20:07Z</time>
      </trkpt>
      <trkpt lat="49.14802" lon="1.86539">
        <ele>120.5</ele>
        <time>2023-11-29T11:20:13Z</time>
      </trkpt>
      <trkpt lat="49.14795" lon="1.86545">
        <ele>120.2</ele>
        <time>2023-11-29T11:20:19Z</time>
      </trkpt>
      <trkpt lat="49.14789" lon="1.86551">
        <ele>120.1</ele>
        <time>2023-11-29T11:20:24Z</time>
      </trkpt>
      <trkpt lat="49.14782" lon="1.86556">
        <ele>120</ele>
        <time>2023-11-29T11:20:30Z</time>
      </trkpt>
      <trkpt lat="49.14777" lon="1.86561">
        <ele>120</ele>
        <time>2023-11-29T11:20:35Z</time>
      </trkpt>
      <trkpt lat="49.1477" lon="1.8657">
        <ele>119.7</ele>
        <time>2023-11-29T11:20:41Z</time>
      </trkpt>
      <trkpt lat="49.14761" lon="1.86579">
        <ele>119.4</ele>
        <time>2023-11-29T11:20:47Z</time>
      </trkpt>
      <trkpt lat="49.14755" lon="1.86583">
        <ele>119.2</ele>
        <time>2023-11-29T11:20:52Z</time>
      </trkpt>
      <trkpt lat="49.1475" lon="1.86589">
        <ele>119</ele>
        <time>2023-11-29T11:20:57Z</time>
      </trkpt>
      <trkpt lat="49.14743" lon="1.86596">
        <ele>118.9</ele>
        <time>2023-11-29T11:21:03Z</time>
      </trkpt>
      <trkpt lat="49.14737" lon="1.86601">
        <ele>118.8</ele>
        <time>2023-11-29T11:21:08Z</time>
      </trkpt>
      <trkpt lat="49.1473" lon="1.86607">
        <ele>118.9</ele>
        <time>2023-11-29T11:21:14Z</time>
      </trkpt>
      <trkpt lat="49.14724" lon="1.86611">
        <ele>119</ele>
        <time>2023-11-29T11:21:19Z</time>
      </trkpt>
      <trkpt lat="49.14717" lon="1.86618">
        <ele>118.8</ele>
        <time>2023-11-29T11:21:25Z</time>
      </trkpt>
      <trkpt lat="49.14711" lon="1.86624">
        <ele>118.6</ele>
        <time>2023-11-29T11:21:30Z</time>
      </trkpt>
      <trkpt lat="49.14703" lon="1.86631">
        <ele>118.3</ele>
        <time>2023-11-29T11:21:36Z</time>
      </trkpt>
      <trkpt lat="49.14697" lon="1.86637">
        <ele>118.1</ele>
        <time>2023-11-29T11:21:41Z</time>
      </trkpt>
      <trkpt lat="49.14691" lon="1.86644">
        <ele>118</ele>
        <time>2023-11-29T11:21:47Z</time>
      </trkpt>
      <trkpt lat="49.14683" lon="1.86651">
        <ele>118</ele>
        <time>2023-11-29T11:21:53Z</time>
      </trkpt>
      <trkpt lat="49.14677" lon="1.86655">
        <ele>118</ele>
        <time>2023-11-29T11:21:58Z</time>
      </trkpt>
      <trkpt lat="49.14672" lon="1.8666">
        <ele>118</ele>
        <time>2023-11-29T11:22:03Z</time>
      </trkpt>
      <trkpt lat="49.14665" lon="1.86664">
        <ele>118</ele>
        <time>2023-11-29T11:22:09Z</time>
      </trkpt>
      <trkpt lat="49.14659" lon="1.86671">
        <ele>118</ele>
        <time>2023-11-29T11:22:15Z</time>
      </trkpt>
      <trkpt lat="49.14653" lon="1.86675">
        <ele>118</ele>
        <time>2023-11-29T11:22:20Z</time>
      </trkpt>
      <trkpt lat="49.14646" lon="1.86682">
        <ele>118</ele>
        <time>2023-11-29T11:22:26Z</time>
      </trkpt>
      <trkpt lat="49.14641" lon="1.86686">
        <ele>118</ele>
        <time>2023-11-29T11:22:31Z</time>
      </trkpt>
      <trkpt lat="49.14633" lon="1.86694">
        <ele>118</ele>
        <time>2023-11-29T11:22:37Z</time>
      </trkpt>
      <trkpt lat="49.14625" lon="1.867">
        <ele>118.1</ele>
        <time>2023-11-29T11:22:43Z</time>
      </trkpt>
      <trkpt lat="49.1462" lon="1.86706">
        <ele>118.1</ele>
        <time>2023-11-29T11:22:49Z</time>
      </trkpt>
      <trkpt lat="49.14614" lon="1.8671">
        <ele>118.1</ele>
        <time>2023-11-29T11:22:54Z</time>
      </trkpt>
      <trkpt lat="49.14607" lon="1.86717">
        <ele>118</ele>
        <time>2023-11-29T11:23:00Z</time>
      </trkpt>
      <trkpt lat="49.14601" lon="1.86723">
        <ele>118</ele>
        <time>2023-11-29T11:23:05Z</time>
      </trkpt>
      <trkpt lat="49.14593" lon="1.86729">
        <ele>118</ele>
        <time>2023-11-29T11:23:11Z</time>
      </trkpt>
      <trkpt lat="49.14586" lon="1.86734">
        <ele>118</ele>
        <time>2023-11-29T11:23:17Z</time>
      </trkpt>
      <trkpt lat="49.1458" lon="1.8674">
        <ele>117.9</ele>
        <time>2023-11-29T11:23:22Z</time>
      </trkpt>
      <trkpt lat="49.14574" lon="1.86747">
        <ele>117.7</ele>
        <time>2023-11-29T11:23:27Z</time>
      </trkpt>
      <trkpt lat="49.14566" lon="1.86755">
        <ele>117.5</ele>
        <time>2023-11-29T11:23:33Z</time>
      </trkpt>
      <trkpt lat="49.14559" lon="1.86761">
        <ele>117.5</ele>
        <time>2023-11-29T11:23:39Z</time>
      </trkpt>
      <trkpt lat="49.14551" lon="1.8677">
        <ele>117.6</ele>
        <time>2023-11-29T11:23:45Z</time>
      </trkpt>
      <trkpt lat="49.14544" lon="1.86779">
        <ele>117.6</ele>
        <time>2023-11-29T11:23:51Z</time>
      </trkpt>
      <trkpt lat="49.14537" lon="1.86786">
        <ele>117.2</ele>
        <time>2023-11-29T11:23:57Z</time>
      </trkpt>
      <trkpt lat="49.14528" lon="1.86792">
        <ele>117</ele>
        <time>2023-11-29T11:24:03Z</time>
      </trkpt>
      <trkpt lat="49.14522" lon="1.86796">
        <ele>117</ele>
        <time>2023-11-29T11:24:08Z</time>
      </trkpt>
      <trkpt lat="49.14514" lon="1.86802">
        <ele>117</ele>
        <time>2023-11-29T11:24:14Z</time>
      </trkpt>
      <trkpt lat="49.14508" lon="1.86807">
        <ele>117</ele>
        <time>2023-11-29T11:24:20Z</time>
      </trkpt>
      <trkpt lat="49.145" lon="1.86812">
        <ele>117</ele>
        <time>2023-11-29T11:24:26Z</time>
      </trkpt>
      <trkpt lat="49.14492" lon="1.86817">
        <ele>117</ele>
        <time>2023-11-29T11:24:32Z</time>
      </trkpt>
      <trkpt lat="49.14485" lon="1.86824">
        <ele>117</ele>
        <time>2023-11-29T11:24:38Z</time>
      </trkpt>
      <trkpt lat="49.14478" lon="1.86829">
        <ele>117</ele>
        <time>2023-11-29T11:24:43Z</time>
      </trkpt>
      <trkpt lat="49.14471" lon="1.86834">
        <ele>117</ele>
        <time>2023-11-29T11:24:49Z</time>
      </trkpt>
      <trkpt lat="49.14464" lon="1.86839">
        <ele>117.2</ele>
        <time>2023-11-29T11:24:54Z</time>
      </trkpt>
      <trkpt lat="49.14457" lon="1.86846">
        <ele>117.5</ele>
        <time>2023-11-29T11:25:00Z</time>
      </trkpt>
      <trkpt lat="49.14451" lon="1.86849">
        <ele>117.6</ele>
        <time>2023-11-29T11:25:05Z</time>
      </trkpt>
      <trkpt lat="49.14445" lon="1.86854">
        <ele>117.8</ele>
        <time>2023-11-29T11:25:11Z</time>
      </trkpt>
      <trkpt lat="49.1444" lon="1.86861">
        <ele>118</ele>
        <time>2023-11-29T11:25:16Z</time>
      </trkpt>
      <trkpt lat="49.14437" lon="1.86867">
        <ele>118</ele>
        <time>2023-11-29T11:25:21Z</time>
      </trkpt>
      <trkpt lat="49.14433" lon="1.86876">
        <ele>118</ele>
        <time>2023-11-29T11:25:27Z</time>
      </trkpt>
      <trkpt lat="49.14429" lon="1.86885">
        <ele>118</ele>
        <time>2023-11-29T11:25:32Z</time>
      </trkpt>
      <trkpt lat="49.14423" lon="1.86897">
        <ele>118.1</ele>
        <time>2023-11-29T11:25:38Z</time>
      </trkpt>
      <trkpt lat="49.1442" lon="1.86905">
        <ele>118.1</ele>
        <time>2023-11-29T11:25:43Z</time>
      </trkpt>
      <trkpt lat="49.14417" lon="1.86915">
        <ele>118</ele>
        <time>2023-11-29T11:25:49Z</time>
      </trkpt>
      <trkpt lat="49.14412" lon="1.86926">
        <ele>118.3</ele>
        <time>2023-11-29T11:25:55Z</time>
      </trkpt>
      <trkpt lat="49.14407" lon="1.86939">
        <ele>118.5</ele>
        <time>2023-11-29T11:26:01Z</time>
      </trkpt>
      <trkpt lat="49.14402" lon="1.86947">
        <ele>118.5</ele>
        <time>2023-11-29T11:26:06Z</time>
      </trkpt>
      <trkpt lat="49.14398" lon="1.86956">
        <ele>118.3</ele>
        <time>2023-11-29T11:26:12Z</time>
      </trkpt>
      <trkpt lat="49.14395" lon="1.86965">
        <ele>118.2</ele>
        <time>2023-11-29T11:26:17Z</time>
      </trkpt>
      <trkpt lat="49.14391" lon="1.86974">
        <ele>118.1</ele>
        <time>2023-11-29T11:26:22Z</time>
      </trkpt>
      <trkpt lat="49.14387" lon="1.86986">
        <ele>117.9</ele>
        <time>2023-11-29T11:26:28Z</time>
      </trkpt>
      <trkpt lat="49.14382" lon="1.86997">
        <ele>117.8</ele>
        <time>2023-11-29T11:26:34Z</time>
      </trkpt>
      <trkpt lat="49.14379" lon="1.87008">
        <ele>117.6</ele>
        <time>2023-11-29T11:26:40Z</time>
      </trkpt>
      <trkpt lat="49.14375" lon="1.87017">
        <ele>117.5</ele>
        <time>2023-11-29T11:26:45Z</time>
      </trkpt>
      <trkpt lat="49.1437" lon="1.87028">
        <ele>117.3</ele>
        <time>2023-11-29T11:26:51Z</time>
      </trkpt>
      <trkpt lat="49.14364" lon="1.87038">
        <ele>117.1</ele>
        <time>2023-11-29T11:26:57Z</time>
      </trkpt>
      <trkpt lat="49.14359" lon="1.87045">
        <ele>116.9</ele>
        <time>2023-11-29T11:27:02Z</time>
      </trkpt>
      <trkpt lat="49.14355" lon="1.87055">
        <ele>116.8</ele>
        <time>2023-11-29T11:27:08Z</time>
      </trkpt>
      <trkpt lat="49.14352" lon="1.87066">
        <ele>116.3</ele>
        <time>2023-11-29T11:27:13Z</time>
      </trkpt>
      <trkpt lat="49.14347" lon="1.87079">
        <ele>115.7</ele>
        <time>2023-11-29T11:27:19Z</time>
      </trkpt>
      <trkpt lat="49.14343" lon="1.8709">
        <ele>115.3</ele>
        <time>2023-11-29T11:27:24Z</time>
      </trkpt>
      <trkpt lat="49.14339" lon="1.87099">
        <ele>115.2</ele>
        <time>2023-11-29T11:27:30Z</time>
      </trkpt>
      <trkpt lat="49.14335" lon="1.87108">
        <ele>115.1</ele>
        <time>2023-11-29T11:27:35Z</time>
      </trkpt>
      <trkpt lat="49.14332" lon="1.87116">
        <ele>115</ele>
        <time>2023-11-29T11:27:40Z</time>
      </trkpt>
      <trkpt lat="49.14328" lon="1.87127">
        <ele>114.9</ele>
        <time>2023-11-29T11:27:46Z</time>
      </trkpt>
      <trkpt lat="49.14323" lon="1.87135">
        <ele>114.7</ele>
        <time>2023-11-29T11:27:51Z</time>
      </trkpt>
      <trkpt lat="49.14317" lon="1.87146">
        <ele>114.4</ele>
        <time>2023-11-29T11:27:57Z</time>
      </trkpt>
      <trkpt lat="49.14312" lon="1.87155">
        <ele>114.2</ele>
        <time>2023-11-29T11:28:03Z</time>
      </trkpt>
      <trkpt lat="49.14309" lon="1.87164">
        <ele>114.1</ele>
        <time>2023-11-29T11:28:08Z</time>
      </trkpt>
      <trkpt lat="49.14306" lon="1.87174">
        <ele>114</ele>
        <time>2023-11-29T11:28:14Z</time>
      </trkpt>
      <trkpt lat="49.14302" lon="1.87185">
        <ele>113.9</ele>
        <time>2023-11-29T11:28:20Z</time>
      </trkpt>
      <trkpt lat="49.14299" lon="1.87192">
        <ele>113.8</ele>
        <time>2023-11-29T11:28:25Z</time>
      </trkpt>
      <trkpt lat="49.14294" lon="1.872">
        <ele>113.6</ele>
        <time>2023-11-29T11:28:30Z</time>
      </trkpt>
      <trkpt lat="49.14287" lon="1.8721">
        <ele>113.3</ele>
        <time>2023-11-29T11:28:36Z</time>
      </trkpt>
      <trkpt lat="49.14285" lon="1.87217">
        <ele>113.3</ele>
        <time>2023-11-29T11:28:41Z</time>
      </trkpt>
      <trkpt lat="49.14282" lon="1.87226">
        <ele>113.2</ele>
        <time>2023-11-29T11:28:47Z</time>
      </trkpt>
      <trkpt lat="49.14279" lon="1.87232">
        <ele>113.1</ele>
        <time>2023-11-29T11:28:53Z</time>
      </trkpt>
      <trkpt lat="49.14279" lon="1.87235">
        <ele>113.1</ele>
        <time>2023-11-29T11:28:59Z</time>
      </trkpt>
      <trkpt lat="49.14279" lon="1.87234">
        <ele>113.1</ele>
        <time>2023-11-29T11:29:05Z</time>
      </trkpt>
      <trkpt lat="49.14279" lon="1.87234">
        <ele>113.1</ele>
        <time>2023-11-29T11:29:11Z</time>
      </trkpt>
      <trkpt lat="49.14279" lon="1.87234">
        <ele>113.1</ele>
        <time>2023-11-29T11:29:17Z</time>
      </trkpt>
      <trkpt lat="49.14279" lon="1.87234">
        <ele>113.1</ele>
        <time>2023-11-29T11:29:23Z</time>
      </trkpt>
      <trkpt lat="49.14279" lon="1.87234">
        <ele>113.1</ele>
        <time>2023-11-29T11:29:28Z</time>
      </trkpt>
      <trkpt lat="49.14279" lon="1.87234">
        <ele>113.1</ele>
        <time>2023-11-29T11:29:33Z</time>
      </trkpt>
      <trkpt lat="49.14279" lon="1.87234">
        <ele>113.1</ele>
        <time>2023-11-29T11:29:39Z</time>
      </trkpt>
      <trkpt lat="49.14279" lon="1.87234">
        <ele>113.1</ele>
        <time>2023-11-29T11:29:45Z</time>
      </trkpt>
      <trkpt lat="49.14279" lon="1.87233">
        <ele>113</ele>
        <time>2023-11-29T11:29:50Z</time>
      </trkpt>
      <trkpt lat="49.14279" lon="1.87233">
        <ele>113</ele>
        <time>2023-11-29T11:29:56Z</time>
      </trkpt>
      <trkpt lat="49.14279" lon="1.87233">
        <ele>113</ele>
        <time>2023-11-29T11:30:01Z</time>
      </trkpt>
      <trkpt lat="49.14279" lon="1.87233">
        <ele>113</ele>
        <time>2023-11-29T11:30:07Z</time>
      </trkpt>
      <trkpt lat="49.14279" lon="1.87233">
        <ele>113</ele>
        <time>2023-11-29T11:30:13Z</time>
      </trkpt>
      <trkpt lat="49.14279" lon="1.87232">
        <ele>113</ele>
        <time>2023-11-29T11:30:19Z</time>
      </trkpt>
      <trkpt lat="49.14278" lon="1.87231">
        <ele>113</ele>
        <time>2023-11-29T11:30:26Z</time>
      </trkpt>
      <trkpt lat="49.14278" lon="1.87231">
        <ele>113</ele>
        <time>2023-11-29T11:30:32Z</time>
      </trkpt>
      <trkpt lat="49.14278" lon="1.87231">
        <ele>113</ele>
        <time>2023-11-29T11:30:39Z</time>
      </trkpt>
      <trkpt lat="49.14278" lon="1.87231">
        <ele>113</ele>
        <time>2023-11-29T11:30:44Z</time>
      </trkpt>
      <trkpt lat="49.14279" lon="1.87231">
        <ele>113</ele>
        <time>2023-11-29T11:30:49Z</time>
      </trkpt>
      <trkpt lat="49.14279" lon="1.87233">
        <ele>113</ele>
        <time>2023-11-29T11:30:55Z</time>
      </trkpt>
      <trkpt lat="49.14279" lon="1.87234">
        <ele>113</ele>
        <time>2023-11-29T11:31:01Z</time>
      </trkpt>
      <trkpt lat="49.14279" lon="1.87234">
        <ele>113</ele>
        <time>2023-11-29T11:31:07Z</time>
      </trkpt>
      <trkpt lat="49.14279" lon="1.87234">
        <ele>113</ele>
        <time>2023-11-29T11:31:12Z</time>
      </trkpt>
      <trkpt lat="49.14279" lon="1.87235">
        <ele>113</ele>
        <time>2023-11-29T11:31:18Z</time>
      </trkpt>
      <trkpt lat="49.14279" lon="1.87235">
        <ele>113</ele>
        <time>2023-11-29T11:31:24Z</time>
      </trkpt>
      <trkpt lat="49.1428" lon="1.87239">
        <ele>113.1</ele>
        <time>2023-11-29T11:31:29Z</time>
      </trkpt>
      <trkpt lat="49.14285" lon="1.87246">
        <ele>113.3</ele>
        <time>2023-11-29T11:31:35Z</time>
      </trkpt>
      <trkpt lat="49.14289" lon="1.87256">
        <ele>113.4</ele>
        <time>2023-11-29T11:31:41Z</time>
      </trkpt>
      <trkpt lat="49.14293" lon="1.87264">
        <ele>113.6</ele>
        <time>2023-11-29T11:31:46Z</time>
      </trkpt>
      <trkpt lat="49.14297" lon="1.8727">
        <ele>113.7</ele>
        <time>2023-11-29T11:31:51Z</time>
      </trkpt>
      <trkpt lat="49.14301" lon="1.87279">
        <ele>113.8</ele>
        <time>2023-11-29T11:31:56Z</time>
      </trkpt>
      <trkpt lat="49.14305" lon="1.87289">
        <ele>114</ele>
        <time>2023-11-29T11:32:02Z</time>
      </trkpt>
      <trkpt lat="49.14307" lon="1.87299">
        <ele>114</ele>
        <time>2023-11-29T11:32:07Z</time>
      </trkpt>
      <trkpt lat="49.14312" lon="1.87308">
        <ele>113.9</ele>
        <time>2023-11-29T11:32:13Z</time>
      </trkpt>
      <trkpt lat="49.14317" lon="1.87318">
        <ele>113.7</ele>
        <time>2023-11-29T11:32:19Z</time>
      </trkpt>
      <trkpt lat="49.14321" lon="1.87327">
        <ele>113.7</ele>
        <time>2023-11-29T11:32:24Z</time>
      </trkpt>
      <trkpt lat="49.14325" lon="1.87334">
        <ele>113.7</ele>
        <time>2023-11-29T11:32:29Z</time>
      </trkpt>
      <trkpt lat="49.14329" lon="1.87344">
        <ele>113.9</ele>
        <time>2023-11-29T11:32:35Z</time>
      </trkpt>
      <trkpt lat="49.14332" lon="1.87352">
        <ele>114</ele>
        <time>2023-11-29T11:32:40Z</time>
      </trkpt>
      <trkpt lat="49.14337" lon="1.87362">
        <ele>114.1</ele>
        <time>2023-11-29T11:32:46Z</time>
      </trkpt>
      <trkpt lat="49.14341" lon="1.87372">
        <ele>114.2</ele>
        <time>2023-11-29T11:32:52Z</time>
      </trkpt>
      <trkpt lat="49.14345" lon="1.87383">
        <ele>114.1</ele>
        <time>2023-11-29T11:32:58Z</time>
      </trkpt>
      <trkpt lat="49.14348" lon="1.87391">
        <ele>114</ele>
        <time>2023-11-29T11:33:03Z</time>
      </trkpt>
      <trkpt lat="49.14352" lon="1.87401">
        <ele>114</ele>
        <time>2023-11-29T11:33:09Z</time>
      </trkpt>
      <trkpt lat="49.14357" lon="1.8741">
        <ele>114</ele>
        <time>2023-11-29T11:33:14Z</time>
      </trkpt>
      <trkpt lat="49.14363" lon="1.87422">
        <ele>114</ele>
        <time>2023-11-29T11:33:20Z</time>
      </trkpt>
      <trkpt lat="49.14368" lon="1.87432">
        <ele>114.1</ele>
        <time>2023-11-29T11:33:26Z</time>
      </trkpt>
      <trkpt lat="49.14372" lon="1.87443">
        <ele>114</ele>
        <time>2023-11-29T11:33:32Z</time>
      </trkpt>
      <trkpt lat="49.14374" lon="1.87454">
        <ele>114</ele>
        <time>2023-11-29T11:33:38Z</time>
      </trkpt>
      <trkpt lat="49.14378" lon="1.87463">
        <ele>114</ele>
        <time>2023-11-29T11:33:43Z</time>
      </trkpt>
      <trkpt lat="49.14381" lon="1.87472">
        <ele>114</ele>
        <time>2023-11-29T11:33:49Z</time>
      </trkpt>
      <trkpt lat="49.14386" lon="1.8748">
        <ele>114</ele>
        <time>2023-11-29T11:33:54Z</time>
      </trkpt>
      <trkpt lat="49.14391" lon="1.87491">
        <ele>114</ele>
        <time>2023-11-29T11:34:00Z</time>
      </trkpt>
      <trkpt lat="49.14395" lon="1.87498">
        <ele>114</ele>
        <time>2023-11-29T11:34:05Z</time>
      </trkpt>
      <trkpt lat="49.144" lon="1.8751">
        <ele>113.8</ele>
        <time>2023-11-29T11:34:11Z</time>
      </trkpt>
      <trkpt lat="49.14406" lon="1.87523">
        <ele>113.7</ele>
        <time>2023-11-29T11:34:17Z</time>
      </trkpt>
      <trkpt lat="49.14411" lon="1.87531">
        <ele>113.7</ele>
        <time>2023-11-29T11:34:22Z</time>
      </trkpt>
      <trkpt lat="49.14414" lon="1.8754">
        <ele>113.5</ele>
        <time>2023-11-29T11:34:27Z</time>
      </trkpt>
      <trkpt lat="49.14418" lon="1.87553">
        <ele>113.1</ele>
        <time>2023-11-29T11:34:33Z</time>
      </trkpt>
      <trkpt lat="49.14422" lon="1.87565">
        <ele>113.1</ele>
        <time>2023-11-29T11:34:40Z</time>
      </trkpt>
      <trkpt lat="49.14426" lon="1.87579">
        <ele>113.1</ele>
        <time>2023-11-29T11:34:47Z</time>
      </trkpt>
      <trkpt lat="49.14429" lon="1.8759">
        <ele>113</ele>
        <time>2023-11-29T11:34:53Z</time>
      </trkpt>
      <trkpt lat="49.14435" lon="1.876">
        <ele>113</ele>
        <time>2023-11-29T11:34:59Z</time>
      </trkpt>
      <trkpt lat="49.14439" lon="1.8761">
        <ele>113</ele>
        <time>2023-11-29T11:35:05Z</time>
      </trkpt>
      <trkpt lat="49.14441" lon="1.8762">
        <ele>113</ele>
        <time>2023-11-29T11:35:10Z</time>
      </trkpt>
      <trkpt lat="49.14444" lon="1.87631">
        <ele>113</ele>
        <time>2023-11-29T11:35:16Z</time>
      </trkpt>
      <trkpt lat="49.14446" lon="1.8764">
        <ele>113</ele>
        <time>2023-11-29T11:35:21Z</time>
      </trkpt>
      <trkpt lat="49.14449" lon="1.87651">
        <ele>112.6</ele>
        <time>2023-11-29T11:35:27Z</time>
      </trkpt>
      <trkpt lat="49.14452" lon="1.87666">
        <ele>112.3</ele>
        <time>2023-11-29T11:35:33Z</time>
      </trkpt>
      <trkpt lat="49.14456" lon="1.87679">
        <ele>112.2</ele>
        <time>2023-11-29T11:35:39Z</time>
      </trkpt>
      <trkpt lat="49.14459" lon="1.87689">
        <ele>112.1</ele>
        <time>2023-11-29T11:35:44Z</time>
      </trkpt>
      <trkpt lat="49.14462" lon="1.87699">
        <ele>112</ele>
        <time>2023-11-29T11:35:49Z</time>
      </trkpt>
      <trkpt lat="49.14465" lon="1.87711">
        <ele>112</ele>
        <time>2023-11-29T11:35:55Z</time>
      </trkpt>
      <trkpt lat="49.14468" lon="1.87723">
        <ele>112</ele>
        <time>2023-11-29T11:36:01Z</time>
      </trkpt>
      <trkpt lat="49.14471" lon="1.87735">
        <ele>112</ele>
        <time>2023-11-29T11:36:07Z</time>
      </trkpt>
      <trkpt lat="49.14475" lon="1.87747">
        <ele>112</ele>
        <time>2023-11-29T11:36:13Z</time>
      </trkpt>
      <trkpt lat="49.14479" lon="1.87759">
        <ele>112</ele>
        <time>2023-11-29T11:36:19Z</time>
      </trkpt>
      <trkpt lat="49.14482" lon="1.8777">
        <ele>112</ele>
        <time>2023-11-29T11:36:24Z</time>
      </trkpt>
      <trkpt lat="49.14485" lon="1.87782">
        <ele>111.9</ele>
        <time>2023-11-29T11:36:30Z</time>
      </trkpt>
      <trkpt lat="49.14487" lon="1.87791">
        <ele>111.8</ele>
        <time>2023-11-29T11:36:35Z</time>
      </trkpt>
      <trkpt lat="49.14489" lon="1.878">
        <ele>111.7</ele>
        <time>2023-11-29T11:36:40Z</time>
      </trkpt>
      <trkpt lat="49.14492" lon="1.87813">
        <ele>111.5</ele>
        <time>2023-11-29T11:36:46Z</time>
      </trkpt>
      <trkpt lat="49.14496" lon="1.87824">
        <ele>111.3</ele>
        <time>2023-11-29T11:36:52Z</time>
      </trkpt>
      <trkpt lat="49.14499" lon="1.87836">
        <ele>111</ele>
        <time>2023-11-29T11:36:58Z</time>
      </trkpt>
      <trkpt lat="49.14502" lon="1.87845">
        <ele>111</ele>
        <time>2023-11-29T11:37:03Z</time>
      </trkpt>
      <trkpt lat="49.14505" lon="1.87855">
        <ele>111</ele>
        <time>2023-11-29T11:37:08Z</time>
      </trkpt>
      <trkpt lat="49.14508" lon="1.87868">
        <ele>111</ele>
        <time>2023-11-29T11:37:14Z</time>
      </trkpt>
      <trkpt lat="49.14511" lon="1.87881">
        <ele>111</ele>
        <time>2023-11-29T11:37:20Z</time>
      </trkpt>
      <trkpt lat="49.14514" lon="1.87891">
        <ele>111</ele>
        <time>2023-11-29T11:37:25Z</time>
      </trkpt>
      <trkpt lat="49.14518" lon="1.87899">
        <ele>110.8</ele>
        <time>2023-11-29T11:37:30Z</time>
      </trkpt>
      <trkpt lat="49.14524" lon="1.87913">
        <ele>110.3</ele>
        <time>2023-11-29T11:37:36Z</time>
      </trkpt>
      <trkpt lat="49.14527" lon="1.87924">
        <ele>110</ele>
        <time>2023-11-29T11:37:41Z</time>
      </trkpt>
      <trkpt lat="49.14532" lon="1.87935">
        <ele>110</ele>
        <time>2023-11-29T11:37:46Z</time>
      </trkpt>
      <trkpt lat="49.14536" lon="1.87947">
        <ele>110</ele>
        <time>2023-11-29T11:37:52Z</time>
      </trkpt>
      <trkpt lat="49.1454" lon="1.87956">
        <ele>110</ele>
        <time>2023-11-29T11:37:57Z</time>
      </trkpt>
      <trkpt lat="49.14545" lon="1.87967">
        <ele>110</ele>
        <time>2023-11-29T11:38:03Z</time>
      </trkpt>
      <trkpt lat="49.1455" lon="1.87978">
        <ele>109.8</ele>
        <time>2023-11-29T11:38:08Z</time>
      </trkpt>
      <trkpt lat="49.14555" lon="1.87991">
        <ele>109.3</ele>
        <time>2023-11-29T11:38:14Z</time>
      </trkpt>
      <trkpt lat="49.14557" lon="1.88">
        <ele>109.1</ele>
        <time>2023-11-29T11:38:19Z</time>
      </trkpt>
      <trkpt lat="49.14561" lon="1.8801">
        <ele>109.1</ele>
        <time>2023-11-29T11:38:25Z</time>
      </trkpt>
      <trkpt lat="49.14565" lon="1.88021">
        <ele>109.1</ele>
        <time>2023-11-29T11:38:31Z</time>
      </trkpt>
      <trkpt lat="49.14572" lon="1.88032">
        <ele>109</ele>
        <time>2023-11-29T11:38:37Z</time>
      </trkpt>
      <trkpt lat="49.14578" lon="1.88043">
        <ele>109</ele>
        <time>2023-11-29T11:38:43Z</time>
      </trkpt>
      <trkpt lat="49.14583" lon="1.88052">
        <ele>109</ele>
        <time>2023-11-29T11:38:48Z</time>
      </trkpt>
      <trkpt lat="49.1459" lon="1.88061">
        <ele>108.9</ele>
        <time>2023-11-29T11:38:54Z</time>
      </trkpt>
      <trkpt lat="49.14594" lon="1.8807">
        <ele>108.8</ele>
        <time>2023-11-29T11:38:59Z</time>
      </trkpt>
      <trkpt lat="49.146" lon="1.8808">
        <ele>108.5</ele>
        <time>2023-11-29T11:39:05Z</time>
      </trkpt>
      <trkpt lat="49.14604" lon="1.88089">
        <ele>108.2</ele>
        <time>2023-11-29T11:39:11Z</time>
      </trkpt>
      <trkpt lat="49.1461" lon="1.88097">
        <ele>108</ele>
        <time>2023-11-29T11:39:16Z</time>
      </trkpt>
      <trkpt lat="49.14616" lon="1.88106">
        <ele>108</ele>
        <time>2023-11-29T11:39:22Z</time>
      </trkpt>
      <trkpt lat="49.14621" lon="1.88114">
        <ele>108</ele>
        <time>2023-11-29T11:39:27Z</time>
      </trkpt>
      <trkpt lat="49.14626" lon="1.88121">
        <ele>108</ele>
        <time>2023-11-29T11:39:33Z</time>
      </trkpt>
      <trkpt lat="49.14632" lon="1.88129">
        <ele>108</ele>
        <time>2023-11-29T11:39:38Z</time>
      </trkpt>
      <trkpt lat="49.14638" lon="1.88137">
        <ele>108</ele>
        <time>2023-11-29T11:39:43Z</time>
      </trkpt>
      <trkpt lat="49.14645" lon="1.88146">
        <ele>107.8</ele>
        <time>2023-11-29T11:39:49Z</time>
      </trkpt>
      <trkpt lat="49.14653" lon="1.88156">
        <ele>107.8</ele>
        <time>2023-11-29T11:39:55Z</time>
      </trkpt>
      <trkpt lat="49.14661" lon="1.88165">
        <ele>107.9</ele>
        <time>2023-11-29T11:40:01Z</time>
      </trkpt>
      <trkpt lat="49.14666" lon="1.8817">
        <ele>108</ele>
        <time>2023-11-29T11:40:06Z</time>
      </trkpt>
      <trkpt lat="49.14672" lon="1.88176">
        <ele>107.8</ele>
        <time>2023-11-29T11:40:11Z</time>
      </trkpt>
      <trkpt lat="49.14678" lon="1.88184">
        <ele>107.6</ele>
        <time>2023-11-29T11:40:17Z</time>
      </trkpt>
      <trkpt lat="49.14684" lon="1.88194">
        <ele>107.4</ele>
        <time>2023-11-29T11:40:23Z</time>
      </trkpt>
      <trkpt lat="49.14692" lon="1.88202">
        <ele>107.3</ele>
        <time>2023-11-29T11:40:28Z</time>
      </trkpt>
      <trkpt lat="49.14698" lon="1.88209">
        <ele>107.5</ele>
        <time>2023-11-29T11:40:34Z</time>
      </trkpt>
      <trkpt lat="49.14704" lon="1.88214">
        <ele>107.5</ele>
        <time>2023-11-29T11:40:39Z</time>
      </trkpt>
      <trkpt lat="49.14711" lon="1.88223">
        <ele>107.4</ele>
        <time>2023-11-29T11:40:45Z</time>
      </trkpt>
      <trkpt lat="49.14717" lon="1.8823">
        <ele>107.1</ele>
        <time>2023-11-29T11:40:51Z</time>
      </trkpt>
      <trkpt lat="49.14724" lon="1.88237">
        <ele>107</ele>
        <time>2023-11-29T11:40:56Z</time>
      </trkpt>
      <trkpt lat="49.1473" lon="1.88244">
        <ele>107</ele>
        <time>2023-11-29T11:41:02Z</time>
      </trkpt>
      <trkpt lat="49.14737" lon="1.88252">
        <ele>107</ele>
        <time>2023-11-29T11:41:08Z</time>
      </trkpt>
      <trkpt lat="49.14745" lon="1.8826">
        <ele>107</ele>
        <time>2023-11-29T11:41:14Z</time>
      </trkpt>
      <trkpt lat="49.14751" lon="1.88267">
        <ele>107</ele>
        <time>2023-11-29T11:41:19Z</time>
      </trkpt>
      <trkpt lat="49.1476" lon="1.88275">
        <ele>107</ele>
        <time>2023-11-29T11:41:25Z</time>
      </trkpt>
      <trkpt lat="49.14768" lon="1.88283">
        <ele>107</ele>
        <time>2023-11-29T11:41:31Z</time>
      </trkpt>
      <trkpt lat="49.14775" lon="1.88289">
        <ele>107</ele>
        <time>2023-11-29T11:41:36Z</time>
      </trkpt>
      <trkpt lat="49.14782" lon="1.88297">
        <ele>107</ele>
        <time>2023-11-29T11:41:42Z</time>
      </trkpt>
      <trkpt lat="49.14787" lon="1.88305">
        <ele>107</ele>
        <time>2023-11-29T11:41:48Z</time>
      </trkpt>
      <trkpt lat="49.14791" lon="1.88309">
        <ele>107</ele>
        <time>2023-11-29T11:41:53Z</time>
      </trkpt>
      <trkpt lat="49.14796" lon="1.88314">
        <ele>107</ele>
        <time>2023-11-29T11:41:58Z</time>
      </trkpt>
      <trkpt lat="49.14802" lon="1.88321">
        <ele>107</ele>
        <time>2023-11-29T11:42:03Z</time>
      </trkpt>
      <trkpt lat="49.14808" lon="1.88328">
        <ele>107</ele>
        <time>2023-11-29T11:42:08Z</time>
      </trkpt>
      <trkpt lat="49.14816" lon="1.88336">
        <ele>107</ele>
        <time>2023-11-29T11:42:14Z</time>
      </trkpt>
      <trkpt lat="49.14822" lon="1.88342">
        <ele>107</ele>
        <time>2023-11-29T11:42:19Z</time>
      </trkpt>
      <trkpt lat="49.14828" lon="1.88349">
        <ele>107</ele>
        <time>2023-11-29T11:42:25Z</time>
      </trkpt>
      <trkpt lat="49.14832" lon="1.88354">
        <ele>107</ele>
        <time>2023-11-29T11:42:30Z</time>
      </trkpt>
      <trkpt lat="49.14837" lon="1.88361">
        <ele>107</ele>
        <time>2023-11-29T11:42:36Z</time>
      </trkpt>
      <trkpt lat="49.14842" lon="1.88366">
        <ele>107.2</ele>
        <time>2023-11-29T11:42:41Z</time>
      </trkpt>
      <trkpt lat="49.14848" lon="1.88373">
        <ele>107.4</ele>
        <time>2023-11-29T11:42:47Z</time>
      </trkpt>
      <trkpt lat="49.14854" lon="1.8838">
        <ele>107.7</ele>
        <time>2023-11-29T11:42:53Z</time>
      </trkpt>
      <trkpt lat="49.14859" lon="1.88386">
        <ele>107.9</ele>
        <time>2023-11-29T11:42:59Z</time>
      </trkpt>
      <trkpt lat="49.14866" lon="1.88389">
        <ele>108</ele>
        <time>2023-11-29T11:43:04Z</time>
      </trkpt>
      <trkpt lat="49.14872" lon="1.88393">
        <ele>108.2</ele>
        <time>2023-11-29T11:43:10Z</time>
      </trkpt>
      <trkpt lat="49.14876" lon="1.88394">
        <ele>108.2</ele>
        <time>2023-11-29T11:43:15Z</time>
      </trkpt>
      <trkpt lat="49.14883" lon="1.88398">
        <ele>108.3</ele>
        <time>2023-11-29T11:43:21Z</time>
      </trkpt>
      <trkpt lat="49.14889" lon="1.88398">
        <ele>108.3</ele>
        <time>2023-11-29T11:43:27Z</time>
      </trkpt>
      <trkpt lat="49.14896" lon="1.88399">
        <ele>108.4</ele>
        <time>2023-11-29T11:43:32Z</time>
      </trkpt>
      <trkpt lat="49.14902" lon="1.88401">
        <ele>108.4</ele>
        <time>2023-11-29T11:43:37Z</time>
      </trkpt>
      <trkpt lat="49.14908" lon="1.88402">
        <ele>108.5</ele>
        <time>2023-11-29T11:43:42Z</time>
      </trkpt>
      <trkpt lat="49.14918" lon="1.88406">
        <ele>108.6</ele>
        <time>2023-11-29T11:43:48Z</time>
      </trkpt>
      <trkpt lat="49.14926" lon="1.88414">
        <ele>108.9</ele>
        <time>2023-11-29T11:43:54Z</time>
      </trkpt>
      <trkpt lat="49.14934" lon="1.88418">
        <ele>109</ele>
        <time>2023-11-29T11:44:00Z</time>
      </trkpt>
      <trkpt lat="49.14942" lon="1.88426">
        <ele>109</ele>
        <time>2023-11-29T11:44:06Z</time>
      </trkpt>
      <trkpt lat="49.14948" lon="1.88435">
        <ele>109</ele>
        <time>2023-11-29T11:44:12Z</time>
      </trkpt>
      <trkpt lat="49.14952" lon="1.88443">
        <ele>109</ele>
        <time>2023-11-29T11:44:17Z</time>
      </trkpt>
      <trkpt lat="49.14957" lon="1.88451">
        <ele>109.5</ele>
        <time>2023-11-29T11:44:22Z</time>
      </trkpt>
      <trkpt lat="49.14963" lon="1.88458">
        <ele>109.8</ele>
        <time>2023-11-29T11:44:27Z</time>
      </trkpt>
      <trkpt lat="49.14969" lon="1.88467">
        <ele>110</ele>
        <time>2023-11-29T11:44:33Z</time>
      </trkpt>
      <trkpt lat="49.14972" lon="1.88475">
        <ele>109.9</ele>
        <time>2023-11-29T11:44:38Z</time>
      </trkpt>
      <trkpt lat="49.14975" lon="1.88482">
        <ele>109.7</ele>
        <time>2023-11-29T11:44:43Z</time>
      </trkpt>
      <trkpt lat="49.14979" lon="1.8849">
        <ele>109.5</ele>
        <time>2023-11-29T11:44:49Z</time>
      </trkpt>
      <trkpt lat="49.14983" lon="1.88498">
        <ele>109.4</ele>
        <time>2023-11-29T11:44:54Z</time>
      </trkpt>
      <trkpt lat="49.14987" lon="1.88507">
        <ele>109.7</ele>
        <time>2023-11-29T11:45:00Z</time>
      </trkpt>
      <trkpt lat="49.14989" lon="1.88513">
        <ele>109.8</ele>
        <time>2023-11-29T11:45:05Z</time>
      </trkpt>
      <trkpt lat="49.14993" lon="1.88521">
        <ele>109.9</ele>
        <time>2023-11-29T11:45:10Z</time>
      </trkpt>
      <trkpt lat="49.14998" lon="1.88529">
        <ele>110.1</ele>
        <time>2023-11-29T11:45:16Z</time>
      </trkpt>
      <trkpt lat="49.15003" lon="1.88537">
        <ele>110.8</ele>
        <time>2023-11-29T11:45:21Z</time>
      </trkpt>
      <trkpt lat="49.15015" lon="1.88552">
        <ele>111.9</ele>
        <time>2023-11-29T11:45:36Z</time>
      </trkpt>
      <trkpt lat="49.15013" lon="1.88566">
        <ele>111.8</ele>
        <time>2023-11-29T11:45:42Z</time>
      </trkpt>
      <trkpt lat="49.15016" lon="1.88575">
        <ele>111.7</ele>
        <time>2023-11-29T11:45:47Z</time>
      </trkpt>
      <trkpt lat="49.15023" lon="1.88585">
        <ele>111.8</ele>
        <time>2023-11-29T11:45:52Z</time>
      </trkpt>
      <trkpt lat="49.15032" lon="1.88594">
        <ele>112</ele>
        <time>2023-11-29T11:45:58Z</time>
      </trkpt>
      <trkpt lat="49.15036" lon="1.886">
        <ele>112</ele>
        <time>2023-11-29T11:46:04Z</time>
      </trkpt>
      <trkpt lat="49.15035" lon="1.886">
        <ele>112</ele>
        <time>2023-11-29T11:46:10Z</time>
      </trkpt>
      <trkpt lat="49.15035" lon="1.88597">
        <ele>112</ele>
        <time>2023-11-29T11:46:15Z</time>
      </trkpt>
      <trkpt lat="49.15035" lon="1.88586">
        <ele>112</ele>
        <time>2023-11-29T11:46:21Z</time>
      </trkpt>
      <trkpt lat="49.15038" lon="1.88579">
        <ele>112</ele>
        <time>2023-11-29T11:46:27Z</time>
      </trkpt>
      <trkpt lat="49.15043" lon="1.88578">
        <ele>112</ele>
        <time>2023-11-29T11:46:32Z</time>
      </trkpt>
      <trkpt lat="49.15049" lon="1.88577">
        <ele>112</ele>
        <time>2023-11-29T11:46:37Z</time>
      </trkpt>
      <trkpt lat="49.15052" lon="1.88577">
        <ele>112</ele>
        <time>2023-11-29T11:46:42Z</time>
      </trkpt>
      <trkpt lat="49.15053" lon="1.88575">
        <ele>112</ele>
        <time>2023-11-29T11:46:48Z</time>
      </trkpt>
      <trkpt lat="49.15054" lon="1.88574">
        <ele>112</ele>
        <time>2023-11-29T11:46:54Z</time>
      </trkpt>
      <trkpt lat="49.15052" lon="1.88578">
        <ele>112</ele>
        <time>2023-11-29T11:47:00Z</time>
      </trkpt>
      <trkpt lat="49.1505" lon="1.88579">
        <ele>112</ele>
        <time>2023-11-29T11:47:05Z</time>
      </trkpt>
      <trkpt lat="49.15049" lon="1.88579">
        <ele>112</ele>
        <time>2023-11-29T11:47:11Z</time>
      </trkpt>
      <trkpt lat="49.15045" lon="1.88579">
        <ele>112</ele>
        <time>2023-11-29T11:47:16Z</time>
      </trkpt>
      <trkpt lat="49.1504" lon="1.88584">
        <ele>112</ele>
        <time>2023-11-29T11:47:22Z</time>
      </trkpt>
      <trkpt lat="49.15037" lon="1.88592">
        <ele>112</ele>
        <time>2023-11-29T11:47:28Z</time>
      </trkpt>
      <trkpt lat="49.15039" lon="1.88599">
        <ele>112</ele>
        <time>2023-11-29T11:47:34Z</time>
      </trkpt>
      <trkpt lat="49.15042" lon="1.88607">
        <ele>112</ele>
        <time>2023-11-29T11:47:39Z</time>
      </trkpt>
      <trkpt lat="49.15047" lon="1.88616">
        <ele>112</ele>
        <time>2023-11-29T11:47:45Z</time>
      </trkpt>
      <trkpt lat="49.15053" lon="1.88622">
        <ele>112</ele>
        <time>2023-11-29T11:47:50Z</time>
      </trkpt>
      <trkpt lat="49.15059" lon="1.88627">
        <ele>112</ele>
        <time>2023-11-29T11:47:55Z</time>
      </trkpt>
      <trkpt lat="49.15067" lon="1.88633">
        <ele>112</ele>
        <time>2023-11-29T11:48:01Z</time>
      </trkpt>
      <trkpt lat="49.15073" lon="1.88639">
        <ele>112</ele>
        <time>2023-11-29T11:48:06Z</time>
      </trkpt>
      <trkpt lat="49.1508" lon="1.88645">
        <ele>112</ele>
        <time>2023-11-29T11:48:11Z</time>
      </trkpt>
      <trkpt lat="49.15085" lon="1.88651">
        <ele>112</ele>
        <time>2023-11-29T11:48:16Z</time>
      </trkpt>
      <trkpt lat="49.15093" lon="1.88657">
        <ele>112</ele>
        <time>2023-11-29T11:48:22Z</time>
      </trkpt>
      <trkpt lat="49.151" lon="1.88663">
        <ele>112</ele>
        <time>2023-11-29T11:48:28Z</time>
      </trkpt>
      <trkpt lat="49.15106" lon="1.88667">
        <ele>112</ele>
        <time>2023-11-29T11:48:33Z</time>
      </trkpt>
      <trkpt lat="49.15113" lon="1.88672">
        <ele>112</ele>
        <time>2023-11-29T11:48:39Z</time>
      </trkpt>
      <trkpt lat="49.15119" lon="1.88676">
        <ele>112</ele>
        <time>2023-11-29T11:48:44Z</time>
      </trkpt>
      <trkpt lat="49.15125" lon="1.88681">
        <ele>112</ele>
        <time>2023-11-29T11:48:50Z</time>
      </trkpt>
      <trkpt lat="49.15129" lon="1.88691">
        <ele>112</ele>
        <time>2023-11-29T11:48:56Z</time>
      </trkpt>
      <trkpt lat="49.15132" lon="1.887">
        <ele>112.2</ele>
        <time>2023-11-29T11:49:01Z</time>
      </trkpt>
      <trkpt lat="49.15132" lon="1.8871">
        <ele>112.5</ele>
        <time>2023-11-29T11:49:06Z</time>
      </trkpt>
      <trkpt lat="49.15131" lon="1.88719">
        <ele>112.9</ele>
        <time>2023-11-29T11:49:12Z</time>
      </trkpt>
      <trkpt lat="49.15131" lon="1.88722">
        <ele>113</ele>
        <time>2023-11-29T11:49:18Z</time>
      </trkpt>
      <trkpt lat="49.15134" lon="1.88721">
        <ele>112.9</ele>
        <time>2023-11-29T11:49:24Z</time>
      </trkpt>
      <trkpt lat="49.15135" lon="1.88719">
        <ele>112.9</ele>
        <time>2023-11-29T11:49:30Z</time>
      </trkpt>
      <trkpt lat="49.15136" lon="1.88717">
        <ele>112.8</ele>
        <time>2023-11-29T11:49:36Z</time>
      </trkpt>
      <trkpt lat="49.15136" lon="1.88717">
        <ele>112.8</ele>
        <time>2023-11-29T11:49:42Z</time>
      </trkpt>
      <trkpt lat="49.15136" lon="1.88717">
        <ele>112.8</ele>
        <time>2023-11-29T11:49:48Z</time>
      </trkpt>
      <trkpt lat="49.15136" lon="1.88716">
        <ele>112.8</ele>
        <time>2023-11-29T11:49:53Z</time>
      </trkpt>
      <trkpt lat="49.15136" lon="1.88717">
        <ele>112.8</ele>
        <time>2023-11-29T11:49:59Z</time>
      </trkpt>
      <trkpt lat="49.15135" lon="1.88717">
        <ele>112.8</ele>
        <time>2023-11-29T11:50:04Z</time>
      </trkpt>
      <trkpt lat="49.15135" lon="1.88718">
        <ele>112.8</ele>
        <time>2023-11-29T11:50:10Z</time>
      </trkpt>
      <trkpt lat="49.15134" lon="1.88719">
        <ele>112.9</ele>
        <time>2023-11-29T11:50:16Z</time>
      </trkpt>
      <trkpt lat="49.15134" lon="1.8872">
        <ele>112.9</ele>
        <time>2023-11-29T11:50:28Z</time>
      </trkpt>
      <trkpt lat="49.15133" lon="1.8872">
        <ele>112.9</ele>
        <time>2023-11-29T11:50:34Z</time>
      </trkpt>
      <trkpt lat="49.15132" lon="1.8872">
        <ele>112.9</ele>
        <time>2023-11-29T11:50:39Z</time>
      </trkpt>
      <trkpt lat="49.15132" lon="1.88719">
        <ele>112.9</ele>
        <time>2023-11-29T11:50:45Z</time>
      </trkpt>
      <trkpt lat="49.15134" lon="1.88716">
        <ele>112.8</ele>
        <time>2023-11-29T11:50:51Z</time>
      </trkpt>
      <trkpt lat="49.15134" lon="1.88716">
        <ele>112.8</ele>
        <time>2023-11-29T11:50:56Z</time>
      </trkpt>
      <trkpt lat="49.15134" lon="1.88716">
        <ele>112.8</ele>
        <time>2023-11-29T11:51:02Z</time>
      </trkpt>
      <trkpt lat="49.15134" lon="1.88717">
        <ele>112.8</ele>
        <time>2023-11-29T11:51:07Z</time>
      </trkpt>
      <trkpt lat="49.15134" lon="1.88716">
        <ele>112.8</ele>
        <time>2023-11-29T11:51:12Z</time>
      </trkpt>
      <trkpt lat="49.15134" lon="1.88716">
        <ele>112.8</ele>
        <time>2023-11-29T11:51:18Z</time>
      </trkpt>
      <trkpt lat="49.15134" lon="1.88716">
        <ele>112.8</ele>
        <time>2023-11-29T11:51:23Z</time>
      </trkpt>
      <trkpt lat="49.15133" lon="1.88716">
        <ele>112.8</ele>
        <time>2023-11-29T11:51:29Z</time>
      </trkpt>
      <trkpt lat="49.15134" lon="1.88716">
        <ele>112.8</ele>
        <time>2023-11-29T11:51:34Z</time>
      </trkpt>
      <trkpt lat="49.15134" lon="1.88716">
        <ele>112.8</ele>
        <time>2023-11-29T11:51:40Z</time>
      </trkpt>
      <trkpt lat="49.15133" lon="1.88717">
        <ele>112.8</ele>
        <time>2023-11-29T11:51:45Z</time>
      </trkpt>
      <trkpt lat="49.15133" lon="1.88717">
        <ele>112.8</ele>
        <time>2023-11-29T11:51:51Z</time>
      </trkpt>
      <trkpt lat="49.15133" lon="1.88717">
        <ele>112.8</ele>
        <time>2023-11-29T11:51:56Z</time>
      </trkpt>
      <trkpt lat="49.15133" lon="1.88715">
        <ele>112.7</ele>
        <time>2023-11-29T11:52:02Z</time>
      </trkpt>
      <trkpt lat="49.15134" lon="1.88715">
        <ele>112.7</ele>
        <time>2023-11-29T11:52:07Z</time>
      </trkpt>
      <trkpt lat="49.15134" lon="1.88715">
        <ele>112.7</ele>
        <time>2023-11-29T11:52:12Z</time>
      </trkpt>
      <trkpt lat="49.15134" lon="1.88715">
        <ele>112.7</ele>
        <time>2023-11-29T11:52:18Z</time>
      </trkpt>
      <trkpt lat="49.15134" lon="1.88715">
        <ele>112.7</ele>
        <time>2023-11-29T11:52:24Z</time>
      </trkpt>
      <trkpt lat="49.15132" lon="1.88715">
        <ele>112.8</ele>
        <time>2023-11-29T11:52:29Z</time>
      </trkpt>
      <trkpt lat="49.15132" lon="1.88716">
        <ele>112.8</ele>
        <time>2023-11-29T11:52:35Z</time>
      </trkpt>
      <trkpt lat="49.15131" lon="1.88716">
        <ele>112.8</ele>
        <time>2023-11-29T11:52:40Z</time>
      </trkpt>
      <trkpt lat="49.15131" lon="1.88716">
        <ele>112.8</ele>
        <time>2023-11-29T11:52:46Z</time>
      </trkpt>
      <trkpt lat="49.1513" lon="1.88716">
        <ele>112.8</ele>
        <time>2023-11-29T11:52:51Z</time>
      </trkpt>
      <trkpt lat="49.1513" lon="1.88716">
        <ele>112.8</ele>
        <time>2023-11-29T11:52:56Z</time>
      </trkpt>
      <trkpt lat="49.1513" lon="1.88716">
        <ele>112.8</ele>
        <time>2023-11-29T11:53:02Z</time>
      </trkpt>
      <trkpt lat="49.15131" lon="1.88716">
        <ele>112.8</ele>
        <time>2023-11-29T11:53:08Z</time>
      </trkpt>
      <trkpt lat="49.15131" lon="1.88716">
        <ele>112.8</ele>
        <time>2023-11-29T11:53:14Z</time>
      </trkpt>
      <trkpt lat="49.15131" lon="1.88717">
        <ele>112.8</ele>
        <time>2023-11-29T11:53:20Z</time>
      </trkpt>
      <trkpt lat="49.15131" lon="1.88717">
        <ele>112.8</ele>
        <time>2023-11-29T11:53:25Z</time>
      </trkpt>
      <trkpt lat="49.15131" lon="1.88717">
        <ele>112.8</ele>
        <time>2023-11-29T11:53:30Z</time>
      </trkpt>
      <trkpt lat="49.15131" lon="1.88717">
        <ele>112.8</ele>
        <time>2023-11-29T11:53:35Z</time>
      </trkpt>
      <trkpt lat="49.15132" lon="1.88717">
        <ele>112.8</ele>
        <time>2023-11-29T11:53:41Z</time>
      </trkpt>
      <trkpt lat="49.15132" lon="1.88717">
        <ele>112.8</ele>
        <time>2023-11-29T11:53:46Z</time>
      </trkpt>
      <trkpt lat="49.15132" lon="1.88718">
        <ele>112.8</ele>
        <time>2023-11-29T11:53:51Z</time>
      </trkpt>
      <trkpt lat="49.15132" lon="1.88718">
        <ele>112.8</ele>
        <time>2023-11-29T11:53:57Z</time>
      </trkpt>
      <trkpt lat="49.15132" lon="1.88718">
        <ele>112.9</ele>
        <time>2023-11-29T11:54:02Z</time>
      </trkpt>
      <trkpt lat="49.15132" lon="1.88718">
        <ele>112.9</ele>
        <time>2023-11-29T11:54:08Z</time>
      </trkpt>
      <trkpt lat="49.15132" lon="1.88718">
        <ele>112.8</ele>
        <time>2023-11-29T11:54:14Z</time>
      </trkpt>
      <trkpt lat="49.15133" lon="1.88717">
        <ele>112.8</ele>
        <time>2023-11-29T11:54:20Z</time>
      </trkpt>
      <trkpt lat="49.15134" lon="1.88717">
        <ele>112.8</ele>
        <time>2023-11-29T11:54:25Z</time>
      </trkpt>
      <trkpt lat="49.15135" lon="1.88717">
        <ele>112.8</ele>
        <time>2023-11-29T11:54:31Z</time>
      </trkpt>
      <trkpt lat="49.15134" lon="1.88717">
        <ele>112.8</ele>
        <time>2023-11-29T11:54:37Z</time>
      </trkpt>
      <trkpt lat="49.15134" lon="1.88718">
        <ele>112.8</ele>
        <time>2023-11-29T11:54:42Z</time>
      </trkpt>
      <trkpt lat="49.15133" lon="1.88717">
        <ele>112.8</ele>
        <time>2023-11-29T11:54:48Z</time>
      </trkpt>
      <trkpt lat="49.15133" lon="1.88717">
        <ele>112.8</ele>
        <time>2023-11-29T11:54:53Z</time>
      </trkpt>
      <trkpt lat="49.15133" lon="1.88717">
        <ele>112.8</ele>
        <time>2023-11-29T11:54:59Z</time>
      </trkpt>
      <trkpt lat="49.15132" lon="1.88717">
        <ele>112.8</ele>
        <time>2023-11-29T11:55:05Z</time>
      </trkpt>
      <trkpt lat="49.15132" lon="1.88717">
        <ele>112.8</ele>
        <time>2023-11-29T11:55:10Z</time>
      </trkpt>
      <trkpt lat="49.15131" lon="1.88716">
        <ele>112.8</ele>
        <time>2023-11-29T11:55:15Z</time>
      </trkpt>
      <trkpt lat="49.1513" lon="1.88715">
        <ele>112.8</ele>
        <time>2023-11-29T11:55:21Z</time>
      </trkpt>
      <trkpt lat="49.15129" lon="1.88715">
        <ele>112.8</ele>
        <time>2023-11-29T11:55:27Z</time>
      </trkpt>
      <trkpt lat="49.15129" lon="1.88715">
        <ele>112.8</ele>
        <time>2023-11-29T11:55:33Z</time>
      </trkpt>
      <trkpt lat="49.15129" lon="1.88715">
        <ele>112.7</ele>
        <time>2023-11-29T11:55:38Z</time>
      </trkpt>
      <trkpt lat="49.15129" lon="1.88715">
        <ele>112.8</ele>
        <time>2023-11-29T11:55:44Z</time>
      </trkpt>
      <trkpt lat="49.15129" lon="1.88716">
        <ele>112.8</ele>
        <time>2023-11-29T11:55:50Z</time>
      </trkpt>
      <trkpt lat="49.15129" lon="1.88716">
        <ele>112.8</ele>
        <time>2023-11-29T11:55:56Z</time>
      </trkpt>
      <trkpt lat="49.15129" lon="1.88716">
        <ele>112.8</ele>
        <time>2023-11-29T11:56:01Z</time>
      </trkpt>
      <trkpt lat="49.15129" lon="1.88717">
        <ele>112.8</ele>
        <time>2023-11-29T11:56:07Z</time>
      </trkpt>
      <trkpt lat="49.15129" lon="1.88717">
        <ele>112.8</ele>
        <time>2023-11-29T11:56:13Z</time>
      </trkpt>
      <trkpt lat="49.15129" lon="1.88717">
        <ele>112.8</ele>
        <time>2023-11-29T11:56:19Z</time>
      </trkpt>
      <trkpt lat="49.15129" lon="1.88717">
        <ele>112.8</ele>
        <time>2023-11-29T11:56:25Z</time>
      </trkpt>
      <trkpt lat="49.15129" lon="1.88717">
        <ele>112.8</ele>
        <time>2023-11-29T11:56:30Z</time>
      </trkpt>
      <trkpt lat="49.15129" lon="1.88717">
        <ele>112.8</ele>
        <time>2023-11-29T11:56:36Z</time>
      </trkpt>
      <trkpt lat="49.15129" lon="1.88717">
        <ele>112.8</ele>
        <time>2023-11-29T11:56:41Z</time>
      </trkpt>
      <trkpt lat="49.15129" lon="1.88717">
        <ele>112.8</ele>
        <time>2023-11-29T11:56:47Z</time>
      </trkpt>
      <trkpt lat="49.15129" lon="1.88716">
        <ele>112.8</ele>
        <time>2023-11-29T11:56:52Z</time>
      </trkpt>
      <trkpt lat="49.15129" lon="1.88716">
        <ele>112.8</ele>
        <time>2023-11-29T11:56:57Z</time>
      </trkpt>
      <trkpt lat="49.15129" lon="1.88716">
        <ele>112.8</ele>
        <time>2023-11-29T11:57:03Z</time>
      </trkpt>
      <trkpt lat="49.15129" lon="1.88716">
        <ele>112.8</ele>
        <time>2023-11-29T11:57:08Z</time>
      </trkpt>
      <trkpt lat="49.15129" lon="1.88716">
        <ele>112.8</ele>
        <time>2023-11-29T11:57:14Z</time>
      </trkpt>
      <trkpt lat="49.15129" lon="1.88716">
        <ele>112.8</ele>
        <time>2023-11-29T11:57:19Z</time>
      </trkpt>
      <trkpt lat="49.15129" lon="1.88716">
        <ele>112.8</ele>
        <time>2023-11-29T11:57:25Z</time>
      </trkpt>
      <trkpt lat="49.15129" lon="1.88716">
        <ele>112.8</ele>
        <time>2023-11-29T11:57:30Z</time>
      </trkpt>
      <trkpt lat="49.15129" lon="1.88716">
        <ele>112.8</ele>
        <time>2023-11-29T11:57:35Z</time>
      </trkpt>
      <trkpt lat="49.15129" lon="1.88716">
        <ele>112.8</ele>
        <time>2023-11-29T11:57:40Z</time>
      </trkpt>
      <trkpt lat="49.15129" lon="1.88715">
        <ele>112.8</ele>
        <time>2023-11-29T11:57:46Z</time>
      </trkpt>
      <trkpt lat="49.15129" lon="1.88715">
        <ele>112.7</ele>
        <time>2023-11-29T11:57:52Z</time>
      </trkpt>
      <trkpt lat="49.15129" lon="1.88715">
        <ele>112.7</ele>
        <time>2023-11-29T11:57:57Z</time>
      </trkpt>
      <trkpt lat="49.15129" lon="1.88715">
        <ele>112.7</ele>
        <time>2023-11-29T11:58:03Z</time>
      </trkpt>
      <trkpt lat="49.15129" lon="1.88715">
        <ele>112.7</ele>
        <time>2023-11-29T11:58:08Z</time>
      </trkpt>
      <trkpt lat="49.15129" lon="1.88714">
        <ele>112.7</ele>
        <time>2023-11-29T11:58:14Z</time>
      </trkpt>
      <trkpt lat="49.15129" lon="1.88714">
        <ele>112.7</ele>
        <time>2023-11-29T11:58:20Z</time>
      </trkpt>
      <trkpt lat="49.15129" lon="1.88714">
        <ele>112.7</ele>
        <time>2023-11-29T11:58:25Z</time>
      </trkpt>
      <trkpt lat="49.15129" lon="1.88714">
        <ele>112.7</ele>
        <time>2023-11-29T11:58:31Z</time>
      </trkpt>
      <trkpt lat="49.15129" lon="1.88714">
        <ele>112.7</ele>
        <time>2023-11-29T11:58:36Z</time>
      </trkpt>
      <trkpt lat="49.15129" lon="1.88714">
        <ele>112.7</ele>
        <time>2023-11-29T11:58:42Z</time>
      </trkpt>
      <trkpt lat="49.15129" lon="1.88714">
        <ele>112.7</ele>
        <time>2023-11-29T11:58:48Z</time>
      </trkpt>
      <trkpt lat="49.15129" lon="1.88714">
        <ele>112.7</ele>
        <time>2023-11-29T11:58:54Z</time>
      </trkpt>
      <trkpt lat="49.15129" lon="1.88714">
        <ele>112.7</ele>
        <time>2023-11-29T11:59:00Z</time>
      </trkpt>
      <trkpt lat="49.15129" lon="1.88714">
        <ele>112.7</ele>
        <time>2023-11-29T11:59:06Z</time>
      </trkpt>
      <trkpt lat="49.15129" lon="1.88714">
        <ele>112.7</ele>
        <time>2023-11-29T11:59:11Z</time>
      </trkpt>
      <trkpt lat="49.15129" lon="1.88714">
        <ele>112.7</ele>
        <time>2023-11-29T11:59:17Z</time>
      </trkpt>
      <trkpt lat="49.15129" lon="1.88714">
        <ele>112.7</ele>
        <time>2023-11-29T11:59:22Z</time>
      </trkpt>
      <trkpt lat="49.15129" lon="1.88714">
        <ele>112.7</ele>
        <time>2023-11-29T11:59:27Z</time>
      </trkpt>
      <trkpt lat="49.15129" lon="1.88714">
        <ele>112.7</ele>
        <time>2023-11-29T11:59:33Z</time>
      </trkpt>
      <trkpt lat="49.15129" lon="1.88714">
        <ele>112.7</ele>
        <time>2023-11-29T11:59:39Z</time>
      </trkpt>
      <trkpt lat="49.15129" lon="1.88714">
        <ele>112.7</ele>
        <time>2023-11-29T11:59:45Z</time>
      </trkpt>
      <trkpt lat="49.15129" lon="1.88714">
        <ele>112.7</ele>
        <time>2023-11-29T11:59:50Z</time>
      </trkpt>
      <trkpt lat="49.15129" lon="1.88714">
        <ele>112.7</ele>
        <time>2023-11-29T11:59:55Z</time>
      </trkpt>
      <trkpt lat="49.15129" lon="1.88714">
        <ele>112.7</ele>
        <time>2023-11-29T12:00:01Z</time>
      </trkpt>
      <trkpt lat="49.15129" lon="1.88714">
        <ele>112.7</ele>
        <time>2023-11-29T12:00:07Z</time>
      </trkpt>
      <trkpt lat="49.15129" lon="1.88714">
        <ele>112.7</ele>
        <time>2023-11-29T12:00:12Z</time>
      </trkpt>
      <trkpt lat="49.15129" lon="1.88714">
        <ele>112.7</ele>
        <time>2023-11-29T12:00:18Z</time>
      </trkpt>
      <trkpt lat="49.15128" lon="1.88714">
        <ele>112.7</ele>
        <time>2023-11-29T12:00:23Z</time>
      </trkpt>
      <trkpt lat="49.15128" lon="1.88714">
        <ele>112.7</ele>
        <time>2023-11-29T12:00:29Z</time>
      </trkpt>
      <trkpt lat="49.15128" lon="1.88714">
        <ele>112.7</ele>
        <time>2023-11-29T12:00:34Z</time>
      </trkpt>
      <trkpt lat="49.15128" lon="1.88714">
        <ele>112.7</ele>
        <time>2023-11-29T12:00:40Z</time>
      </trkpt>
      <trkpt lat="49.15128" lon="1.88714">
        <ele>112.7</ele>
        <time>2023-11-29T12:00:45Z</time>
      </trkpt>
      <trkpt lat="49.15128" lon="1.88714">
        <ele>112.7</ele>
        <time>2023-11-29T12:00:51Z</time>
      </trkpt>
      <trkpt lat="49.15128" lon="1.88714">
        <ele>112.7</ele>
        <time>2023-11-29T12:00:56Z</time>
      </trkpt>
      <trkpt lat="49.15128" lon="1.88714">
        <ele>112.7</ele>
        <time>2023-11-29T12:01:02Z</time>
      </trkpt>
      <trkpt lat="49.15128" lon="1.88715">
        <ele>112.7</ele>
        <time>2023-11-29T12:01:07Z</time>
      </trkpt>
      <trkpt lat="49.15128" lon="1.88715">
        <ele>112.7</ele>
        <time>2023-11-29T12:01:13Z</time>
      </trkpt>
      <trkpt lat="49.15128" lon="1.88715">
        <ele>112.7</ele>
        <time>2023-11-29T12:01:19Z</time>
      </trkpt>
      <trkpt lat="49.15128" lon="1.88715">
        <ele>112.7</ele>
        <time>2023-11-29T12:01:24Z</time>
      </trkpt>
      <trkpt lat="49.15128" lon="1.88715">
        <ele>112.8</ele>
        <time>2023-11-29T12:01:29Z</time>
      </trkpt>
      <trkpt lat="49.15128" lon="1.88716">
        <ele>112.8</ele>
        <time>2023-11-29T12:01:35Z</time>
      </trkpt>
      <trkpt lat="49.15128" lon="1.88716">
        <ele>112.8</ele>
        <time>2023-11-29T12:01:40Z</time>
      </trkpt>
      <trkpt lat="49.15128" lon="1.88716">
        <ele>112.8</ele>
        <time>2023-11-29T12:01:46Z</time>
      </trkpt>
      <trkpt lat="49.15128" lon="1.88717">
        <ele>112.8</ele>
        <time>2023-11-29T12:01:51Z</time>
      </trkpt>
      <trkpt lat="49.15128" lon="1.88717">
        <ele>112.8</ele>
        <time>2023-11-29T12:01:57Z</time>
      </trkpt>
      <trkpt lat="49.15128" lon="1.88717">
        <ele>112.8</ele>
        <time>2023-11-29T12:02:02Z</time>
      </trkpt>
      <trkpt lat="49.15128" lon="1.88718">
        <ele>112.8</ele>
        <time>2023-11-29T12:02:07Z</time>
      </trkpt>
      <trkpt lat="49.15128" lon="1.88718">
        <ele>112.9</ele>
        <time>2023-11-29T12:02:13Z</time>
      </trkpt>
      <trkpt lat="49.15128" lon="1.88719">
        <ele>112.9</ele>
        <time>2023-11-29T12:02:19Z</time>
      </trkpt>
      <trkpt lat="49.15127" lon="1.88719">
        <ele>112.9</ele>
        <time>2023-11-29T12:02:24Z</time>
      </trkpt>
      <trkpt lat="49.15128" lon="1.88719">
        <ele>112.9</ele>
        <time>2023-11-29T12:02:30Z</time>
      </trkpt>
      <trkpt lat="49.15128" lon="1.88719">
        <ele>112.9</ele>
        <time>2023-11-29T12:02:35Z</time>
      </trkpt>
      <trkpt lat="49.15128" lon="1.8872">
        <ele>112.9</ele>
        <time>2023-11-29T12:02:41Z</time>
      </trkpt>
      <trkpt lat="49.15128" lon="1.8872">
        <ele>112.9</ele>
        <time>2023-11-29T12:02:47Z</time>
      </trkpt>
      <trkpt lat="49.15128" lon="1.8872">
        <ele>112.9</ele>
        <time>2023-11-29T12:02:53Z</time>
      </trkpt>
      <trkpt lat="49.15129" lon="1.8872">
        <ele>112.9</ele>
        <time>2023-11-29T12:02:58Z</time>
      </trkpt>
      <trkpt lat="49.15129" lon="1.8872">
        <ele>112.9</ele>
        <time>2023-11-29T12:03:04Z</time>
      </trkpt>
      <trkpt lat="49.15129" lon="1.8872">
        <ele>112.9</ele>
        <time>2023-11-29T12:03:09Z</time>
      </trkpt>
      <trkpt lat="49.15129" lon="1.8872">
        <ele>112.9</ele>
        <time>2023-11-29T12:03:15Z</time>
      </trkpt>
      <trkpt lat="49.15129" lon="1.8872">
        <ele>112.9</ele>
        <time>2023-11-29T12:03:20Z</time>
      </trkpt>
      <trkpt lat="49.15129" lon="1.8872">
        <ele>112.9</ele>
        <time>2023-11-29T12:03:26Z</time>
      </trkpt>
      <trkpt lat="49.15129" lon="1.88719">
        <ele>112.9</ele>
        <time>2023-11-29T12:03:32Z</time>
      </trkpt>
      <trkpt lat="49.1513" lon="1.88719">
        <ele>112.9</ele>
        <time>2023-11-29T12:03:37Z</time>
      </trkpt>
      <trkpt lat="49.1513" lon="1.88719">
        <ele>112.9</ele>
        <time>2023-11-29T12:03:43Z</time>
      </trkpt>
      <trkpt lat="49.1513" lon="1.88719">
        <ele>112.9</ele>
        <time>2023-11-29T12:03:48Z</time>
      </trkpt>
      <trkpt lat="49.1513" lon="1.88718">
        <ele>112.9</ele>
        <time>2023-11-29T12:03:53Z</time>
      </trkpt>
      <trkpt lat="49.1513" lon="1.88718">
        <ele>112.8</ele>
        <time>2023-11-29T12:03:59Z</time>
      </trkpt>
      <trkpt lat="49.1513" lon="1.88718">
        <ele>112.8</ele>
        <time>2023-11-29T12:04:04Z</time>
      </trkpt>
      <trkpt lat="49.1513" lon="1.88717">
        <ele>112.8</ele>
        <time>2023-11-29T12:04:10Z</time>
      </trkpt>
      <trkpt lat="49.1513" lon="1.88717">
        <ele>112.8</ele>
        <time>2023-11-29T12:04:15Z</time>
      </trkpt>
      <trkpt lat="49.1513" lon="1.88716">
        <ele>112.8</ele>
        <time>2023-11-29T12:04:21Z</time>
      </trkpt>
      <trkpt lat="49.1513" lon="1.88718">
        <ele>112.8</ele>
        <time>2023-11-29T12:04:26Z</time>
      </trkpt>
      <trkpt lat="49.1513" lon="1.88719">
        <ele>112.9</ele>
        <time>2023-11-29T12:04:31Z</time>
      </trkpt>
      <trkpt lat="49.1513" lon="1.88724">
        <ele>113</ele>
        <time>2023-11-29T12:04:37Z</time>
      </trkpt>
      <trkpt lat="49.15132" lon="1.88729">
        <ele>113</ele>
        <time>2023-11-29T12:04:42Z</time>
      </trkpt>
      <trkpt lat="49.15132" lon="1.88731">
        <ele>113</ele>
        <time>2023-11-29T12:04:47Z</time>
      </trkpt>
      <trkpt lat="49.15132" lon="1.88731">
        <ele>113</ele>
        <time>2023-11-29T12:04:53Z</time>
      </trkpt>
      <trkpt lat="49.15131" lon="1.88729">
        <ele>113</ele>
        <time>2023-11-29T12:04:58Z</time>
      </trkpt>
      <trkpt lat="49.15131" lon="1.88726">
        <ele>113</ele>
        <time>2023-11-29T12:05:04Z</time>
      </trkpt>
      <trkpt lat="49.15131" lon="1.88721">
        <ele>113</ele>
        <time>2023-11-29T12:05:09Z</time>
      </trkpt>
      <trkpt lat="49.15131" lon="1.8872">
        <ele>112.9</ele>
        <time>2023-11-29T12:05:15Z</time>
      </trkpt>
      <trkpt lat="49.15131" lon="1.88719">
        <ele>112.9</ele>
        <time>2023-11-29T12:05:21Z</time>
      </trkpt>
      <trkpt lat="49.15131" lon="1.88721">
        <ele>112.9</ele>
        <time>2023-11-29T12:05:26Z</time>
      </trkpt>
      <trkpt lat="49.15131" lon="1.88727">
        <ele>113</ele>
        <time>2023-11-29T12:05:32Z</time>
      </trkpt>
      <trkpt lat="49.15132" lon="1.88737">
        <ele>113</ele>
        <time>2023-11-29T12:05:38Z</time>
      </trkpt>
      <trkpt lat="49.1513" lon="1.88745">
        <ele>113</ele>
        <time>2023-11-29T12:05:43Z</time>
      </trkpt>
      <trkpt lat="49.15129" lon="1.88756">
        <ele>113.1</ele>
        <time>2023-11-29T12:05:48Z</time>
      </trkpt>
      <trkpt lat="49.15128" lon="1.88765">
        <ele>113.2</ele>
        <time>2023-11-29T12:05:54Z</time>
      </trkpt>
      <trkpt lat="49.15128" lon="1.88768">
        <ele>113.3</ele>
        <time>2023-11-29T12:06:00Z</time>
      </trkpt>
      <trkpt lat="49.15128" lon="1.8877">
        <ele>113.3</ele>
        <time>2023-11-29T12:06:06Z</time>
      </trkpt>
      <trkpt lat="49.15127" lon="1.88771">
        <ele>113.3</ele>
        <time>2023-11-29T12:06:11Z</time>
      </trkpt>
      <trkpt lat="49.15127" lon="1.88771">
        <ele>113.3</ele>
        <time>2023-11-29T12:06:16Z</time>
      </trkpt>
      <trkpt lat="49.15127" lon="1.88771">
        <ele>113.3</ele>
        <time>2023-11-29T12:06:22Z</time>
      </trkpt>
      <trkpt lat="49.15127" lon="1.88769">
        <ele>113.3</ele>
        <time>2023-11-29T12:06:28Z</time>
      </trkpt>
      <trkpt lat="49.15129" lon="1.88767">
        <ele>113.2</ele>
        <time>2023-11-29T12:06:33Z</time>
      </trkpt>
      <trkpt lat="49.1513" lon="1.88767">
        <ele>113.2</ele>
        <time>2023-11-29T12:06:39Z</time>
      </trkpt>
      <trkpt lat="49.1513" lon="1.88765">
        <ele>113.2</ele>
        <time>2023-11-29T12:06:45Z</time>
      </trkpt>
      <trkpt lat="49.15131" lon="1.88761">
        <ele>113.1</ele>
        <time>2023-11-29T12:06:50Z</time>
      </trkpt>
      <trkpt lat="49.15132" lon="1.88755">
        <ele>113.1</ele>
        <time>2023-11-29T12:06:56Z</time>
      </trkpt>
      <trkpt lat="49.15132" lon="1.88752">
        <ele>113</ele>
        <time>2023-11-29T12:07:01Z</time>
      </trkpt>
      <trkpt lat="49.15132" lon="1.88747">
        <ele>113</ele>
        <time>2023-11-29T12:07:07Z</time>
      </trkpt>
      <trkpt lat="49.15132" lon="1.88742">
        <ele>113</ele>
        <time>2023-11-29T12:07:12Z</time>
      </trkpt>
      <trkpt lat="49.15133" lon="1.88734">
        <ele>113</ele>
        <time>2023-11-29T12:07:18Z</time>
      </trkpt>
      <trkpt lat="49.15133" lon="1.8873">
        <ele>113</ele>
        <time>2023-11-29T12:07:23Z</time>
      </trkpt>
      <trkpt lat="49.15133" lon="1.88724">
        <ele>113</ele>
        <time>2023-11-29T12:07:29Z</time>
      </trkpt>
      <trkpt lat="49.15133" lon="1.88722">
        <ele>113</ele>
        <time>2023-11-29T12:07:35Z</time>
      </trkpt>
      <trkpt lat="49.15134" lon="1.88722">
        <ele>113</ele>
        <time>2023-11-29T12:07:41Z</time>
      </trkpt>
      <trkpt lat="49.15134" lon="1.88721">
        <ele>113</ele>
        <time>2023-11-29T12:07:47Z</time>
      </trkpt>
      <trkpt lat="49.15134" lon="1.88721">
        <ele>113</ele>
        <time>2023-11-29T12:07:52Z</time>
      </trkpt>
      <trkpt lat="49.15134" lon="1.88721">
        <ele>113</ele>
        <time>2023-11-29T12:07:57Z</time>
      </trkpt>
      <trkpt lat="49.15134" lon="1.8872">
        <ele>112.9</ele>
        <time>2023-11-29T12:08:03Z</time>
      </trkpt>
      <trkpt lat="49.15133" lon="1.8872">
        <ele>112.9</ele>
        <time>2023-11-29T12:08:08Z</time>
      </trkpt>
      <trkpt lat="49.15133" lon="1.8872">
        <ele>112.9</ele>
        <time>2023-11-29T12:08:14Z</time>
      </trkpt>
      <trkpt lat="49.15133" lon="1.88719">
        <ele>112.9</ele>
        <time>2023-11-29T12:08:20Z</time>
      </trkpt>
      <trkpt lat="49.15134" lon="1.88719">
        <ele>112.9</ele>
        <time>2023-11-29T12:08:26Z</time>
      </trkpt>
      <trkpt lat="49.15134" lon="1.88719">
        <ele>112.9</ele>
        <time>2023-11-29T12:08:31Z</time>
      </trkpt>
      <trkpt lat="49.15134" lon="1.88718">
        <ele>112.9</ele>
        <time>2023-11-29T12:08:37Z</time>
      </trkpt>
      <trkpt lat="49.15134" lon="1.88718">
        <ele>112.9</ele>
        <time>2023-11-29T12:08:43Z</time>
      </trkpt>
      <trkpt lat="49.15134" lon="1.88718">
        <ele>112.8</ele>
        <time>2023-11-29T12:08:48Z</time>
      </trkpt>
      <trkpt lat="49.15134" lon="1.88718">
        <ele>112.8</ele>
        <time>2023-11-29T12:08:54Z</time>
      </trkpt>
      <trkpt lat="49.15134" lon="1.88717">
        <ele>112.8</ele>
        <time>2023-11-29T12:08:59Z</time>
      </trkpt>
      <trkpt lat="49.15133" lon="1.88715">
        <ele>112.7</ele>
        <time>2023-11-29T12:09:05Z</time>
      </trkpt>
      <trkpt lat="49.15133" lon="1.88714">
        <ele>112.7</ele>
        <time>2023-11-29T12:09:10Z</time>
      </trkpt>
      <trkpt lat="49.15133" lon="1.88715">
        <ele>112.7</ele>
        <time>2023-11-29T12:09:16Z</time>
      </trkpt>
      <trkpt lat="49.15133" lon="1.88715">
        <ele>112.8</ele>
        <time>2023-11-29T12:09:21Z</time>
      </trkpt>
      <trkpt lat="49.15133" lon="1.88716">
        <ele>112.8</ele>
        <time>2023-11-29T12:09:26Z</time>
      </trkpt>
      <trkpt lat="49.15133" lon="1.88717">
        <ele>112.8</ele>
        <time>2023-11-29T12:09:32Z</time>
      </trkpt>
      <trkpt lat="49.15133" lon="1.88718">
        <ele>112.8</ele>
        <time>2023-11-29T12:09:38Z</time>
      </trkpt>
      <trkpt lat="49.15132" lon="1.88718">
        <ele>112.8</ele>
        <time>2023-11-29T12:09:44Z</time>
      </trkpt>
      <trkpt lat="49.15132" lon="1.88718">
        <ele>112.8</ele>
        <time>2023-11-29T12:09:50Z</time>
      </trkpt>
      <trkpt lat="49.15132" lon="1.88718">
        <ele>112.8</ele>
        <time>2023-11-29T12:09:55Z</time>
      </trkpt>
      <trkpt lat="49.15132" lon="1.88718">
        <ele>112.9</ele>
        <time>2023-11-29T12:10:01Z</time>
      </trkpt>
      <trkpt lat="49.15131" lon="1.88718">
        <ele>112.9</ele>
        <time>2023-11-29T12:10:06Z</time>
      </trkpt>
      <trkpt lat="49.15131" lon="1.88718">
        <ele>112.9</ele>
        <time>2023-11-29T12:10:11Z</time>
      </trkpt>
      <trkpt lat="49.15131" lon="1.88718">
        <ele>112.9</ele>
        <time>2023-11-29T12:10:17Z</time>
      </trkpt>
      <trkpt lat="49.15131" lon="1.88718">
        <ele>112.9</ele>
        <time>2023-11-29T12:10:23Z</time>
      </trkpt>
      <trkpt lat="49.15131" lon="1.88718">
        <ele>112.9</ele>
        <time>2023-11-29T12:10:29Z</time>
      </trkpt>
      <trkpt lat="49.15131" lon="1.88718">
        <ele>112.8</ele>
        <time>2023-11-29T12:10:35Z</time>
      </trkpt>
      <trkpt lat="49.15131" lon="1.88718">
        <ele>112.8</ele>
        <time>2023-11-29T12:10:41Z</time>
      </trkpt>
      <trkpt lat="49.15131" lon="1.88718">
        <ele>112.8</ele>
        <time>2023-11-29T12:10:46Z</time>
      </trkpt>
      <trkpt lat="49.15132" lon="1.88718">
        <ele>112.8</ele>
        <time>2023-11-29T12:10:51Z</time>
      </trkpt>
      <trkpt lat="49.15132" lon="1.88718">
        <ele>112.8</ele>
        <time>2023-11-29T12:10:57Z</time>
      </trkpt>
      <trkpt lat="49.15132" lon="1.88718">
        <ele>112.8</ele>
        <time>2023-11-29T12:11:03Z</time>
      </trkpt>
      <trkpt lat="49.15132" lon="1.88718">
        <ele>112.8</ele>
        <time>2023-11-29T12:11:09Z</time>
      </trkpt>
      <trkpt lat="49.15132" lon="1.88718">
        <ele>112.8</ele>
        <time>2023-11-29T12:11:15Z</time>
      </trkpt>
      <trkpt lat="49.15132" lon="1.88718">
        <ele>112.8</ele>
        <time>2023-11-29T12:11:20Z</time>
      </trkpt>
      <trkpt lat="49.15132" lon="1.88718">
        <ele>112.9</ele>
        <time>2023-11-29T12:11:26Z</time>
      </trkpt>
      <trkpt lat="49.15132" lon="1.88718">
        <ele>112.9</ele>
        <time>2023-11-29T12:11:31Z</time>
      </trkpt>
      <trkpt lat="49.15132" lon="1.88718">
        <ele>112.9</ele>
        <time>2023-11-29T12:11:37Z</time>
      </trkpt>
      <trkpt lat="49.15132" lon="1.88719">
        <ele>112.9</ele>
        <time>2023-11-29T12:11:43Z</time>
      </trkpt>
      <trkpt lat="49.15132" lon="1.88719">
        <ele>112.9</ele>
        <time>2023-11-29T12:11:48Z</time>
      </trkpt>
      <trkpt lat="49.15132" lon="1.88719">
        <ele>112.9</ele>
        <time>2023-11-29T12:11:54Z</time>
      </trkpt>
      <trkpt lat="49.15132" lon="1.88719">
        <ele>112.9</ele>
        <time>2023-11-29T12:12:00Z</time>
      </trkpt>
      <trkpt lat="49.15132" lon="1.88719">
        <ele>112.9</ele>
        <time>2023-11-29T12:12:06Z</time>
      </trkpt>
      <trkpt lat="49.15132" lon="1.88719">
        <ele>112.9</ele>
        <time>2023-11-29T12:12:11Z</time>
      </trkpt>
      <trkpt lat="49.15132" lon="1.88719">
        <ele>112.9</ele>
        <time>2023-11-29T12:12:16Z</time>
      </trkpt>
      <trkpt lat="49.15132" lon="1.88719">
        <ele>112.9</ele>
        <time>2023-11-29T12:12:22Z</time>
      </trkpt>
      <trkpt lat="49.15132" lon="1.88719">
        <ele>112.9</ele>
        <time>2023-11-29T12:12:27Z</time>
      </trkpt>
      <trkpt lat="49.15132" lon="1.88719">
        <ele>112.9</ele>
        <time>2023-11-29T12:12:32Z</time>
      </trkpt>
      <trkpt lat="49.15132" lon="1.88719">
        <ele>112.9</ele>
        <time>2023-11-29T12:12:38Z</time>
      </trkpt>
      <trkpt lat="49.15132" lon="1.88718">
        <ele>112.9</ele>
        <time>2023-11-29T12:12:43Z</time>
      </trkpt>
      <trkpt lat="49.15132" lon="1.88718">
        <ele>112.9</ele>
        <time>2023-11-29T12:12:48Z</time>
      </trkpt>
      <trkpt lat="49.15132" lon="1.88719">
        <ele>112.9</ele>
        <time>2023-11-29T12:12:54Z</time>
      </trkpt>
      <trkpt lat="49.15131" lon="1.88719">
        <ele>112.9</ele>
        <time>2023-11-29T12:12:59Z</time>
      </trkpt>
      <trkpt lat="49.15131" lon="1.88719">
        <ele>112.9</ele>
        <time>2023-11-29T12:13:05Z</time>
      </trkpt>
      <trkpt lat="49.15131" lon="1.8872">
        <ele>112.9</ele>
        <time>2023-11-29T12:13:11Z</time>
      </trkpt>
      <trkpt lat="49.15131" lon="1.8872">
        <ele>112.9</ele>
        <time>2023-11-29T12:13:17Z</time>
      </trkpt>
      <trkpt lat="49.15131" lon="1.8872">
        <ele>112.9</ele>
        <time>2023-11-29T12:13:23Z</time>
      </trkpt>
      <trkpt lat="49.15131" lon="1.8872">
        <ele>112.9</ele>
        <time>2023-11-29T12:13:28Z</time>
      </trkpt>
      <trkpt lat="49.15131" lon="1.8872">
        <ele>112.9</ele>
        <time>2023-11-29T12:13:34Z</time>
      </trkpt>
      <trkpt lat="49.15132" lon="1.88719">
        <ele>112.9</ele>
        <time>2023-11-29T12:13:39Z</time>
      </trkpt>
      <trkpt lat="49.15132" lon="1.88719">
        <ele>112.9</ele>
        <time>2023-11-29T12:13:45Z</time>
      </trkpt>
      <trkpt lat="49.15132" lon="1.88719">
        <ele>112.9</ele>
        <time>2023-11-29T12:13:51Z</time>
      </trkpt>
      <trkpt lat="49.15132" lon="1.8872">
        <ele>112.9</ele>
        <time>2023-11-29T12:13:57Z</time>
      </trkpt>
      <trkpt lat="49.15132" lon="1.8872">
        <ele>112.9</ele>
        <time>2023-11-29T12:14:03Z</time>
      </trkpt>
      <trkpt lat="49.15132" lon="1.8872">
        <ele>112.9</ele>
        <time>2023-11-29T12:14:09Z</time>
      </trkpt>
      <trkpt lat="49.15132" lon="1.8872">
        <ele>112.9</ele>
        <time>2023-11-29T12:14:15Z</time>
      </trkpt>
      <trkpt lat="49.15132" lon="1.8872">
        <ele>112.9</ele>
        <time>2023-11-29T12:14:21Z</time>
      </trkpt>
      <trkpt lat="49.15132" lon="1.8872">
        <ele>112.9</ele>
        <time>2023-11-29T12:14:27Z</time>
      </trkpt>
      <trkpt lat="49.15132" lon="1.8872">
        <ele>112.9</ele>
        <time>2023-11-29T12:14:33Z</time>
      </trkpt>
      <trkpt lat="49.15132" lon="1.8872">
        <ele>112.9</ele>
        <time>2023-11-29T12:14:38Z</time>
      </trkpt>
      <trkpt lat="49.15132" lon="1.8872">
        <ele>112.9</ele>
        <time>2023-11-29T12:14:43Z</time>
      </trkpt>
      <trkpt lat="49.15132" lon="1.8872">
        <ele>112.9</ele>
        <time>2023-11-29T12:14:48Z</time>
      </trkpt>
      <trkpt lat="49.15132" lon="1.8872">
        <ele>112.9</ele>
        <time>2023-11-29T12:14:54Z</time>
      </trkpt>
      <trkpt lat="49.15132" lon="1.8872">
        <ele>112.9</ele>
        <time>2023-11-29T12:14:59Z</time>
      </trkpt>
      <trkpt lat="49.15132" lon="1.8872">
        <ele>112.9</ele>
        <time>2023-11-29T12:15:05Z</time>
      </trkpt>
      <trkpt lat="49.15132" lon="1.8872">
        <ele>112.9</ele>
        <time>2023-11-29T12:15:11Z</time>
      </trkpt>
      <trkpt lat="49.15132" lon="1.8872">
        <ele>112.9</ele>
        <time>2023-11-29T12:15:17Z</time>
      </trkpt>
      <trkpt lat="49.15132" lon="1.8872">
        <ele>112.9</ele>
        <time>2023-11-29T12:15:23Z</time>
      </trkpt>
      <trkpt lat="49.15132" lon="1.8872">
        <ele>112.9</ele>
        <time>2023-11-29T12:15:28Z</time>
      </trkpt>
      <trkpt lat="49.15132" lon="1.88719">
        <ele>112.9</ele>
        <time>2023-11-29T12:15:34Z</time>
      </trkpt>
      <trkpt lat="49.15132" lon="1.88719">
        <ele>112.9</ele>
        <time>2023-11-29T12:15:40Z</time>
      </trkpt>
      <trkpt lat="49.15132" lon="1.88719">
        <ele>112.9</ele>
        <time>2023-11-29T12:15:45Z</time>
      </trkpt>
      <trkpt lat="49.15132" lon="1.88719">
        <ele>112.9</ele>
        <time>2023-11-29T12:15:51Z</time>
      </trkpt>
      <trkpt lat="49.15132" lon="1.88719">
        <ele>112.9</ele>
        <time>2023-11-29T12:15:57Z</time>
      </trkpt>
      <trkpt lat="49.15131" lon="1.8872">
        <ele>112.9</ele>
        <time>2023-11-29T12:16:02Z</time>
      </trkpt>
      <trkpt lat="49.15131" lon="1.8872">
        <ele>112.9</ele>
        <time>2023-11-29T12:16:08Z</time>
      </trkpt>
      <trkpt lat="49.15131" lon="1.8872">
        <ele>112.9</ele>
        <time>2023-11-29T12:16:13Z</time>
      </trkpt>
      <trkpt lat="49.15131" lon="1.8872">
        <ele>112.9</ele>
        <time>2023-11-29T12:16:19Z</time>
      </trkpt>
      <trkpt lat="49.15131" lon="1.88719">
        <ele>112.9</ele>
        <time>2023-11-29T12:16:25Z</time>
      </trkpt>
      <trkpt lat="49.15131" lon="1.88719">
        <ele>112.9</ele>
        <time>2023-11-29T12:16:30Z</time>
      </trkpt>
      <trkpt lat="49.15132" lon="1.88719">
        <ele>112.9</ele>
        <time>2023-11-29T12:16:35Z</time>
      </trkpt>
      <trkpt lat="49.15132" lon="1.88718">
        <ele>112.8</ele>
        <time>2023-11-29T12:16:41Z</time>
      </trkpt>
      <trkpt lat="49.15132" lon="1.88718">
        <ele>112.8</ele>
        <time>2023-11-29T12:16:47Z</time>
      </trkpt>
      <trkpt lat="49.15132" lon="1.88718">
        <ele>112.8</ele>
        <time>2023-11-29T12:16:53Z</time>
      </trkpt>
      <trkpt lat="49.15132" lon="1.88718">
        <ele>112.9</ele>
        <time>2023-11-29T12:16:58Z</time>
      </trkpt>
      <trkpt lat="49.15132" lon="1.88719">
        <ele>112.9</ele>
        <time>2023-11-29T12:17:04Z</time>
      </trkpt>
      <trkpt lat="49.15132" lon="1.88723">
        <ele>113</ele>
        <time>2023-11-29T12:17:09Z</time>
      </trkpt>
      <trkpt lat="49.1513" lon="1.88732">
        <ele>113</ele>
        <time>2023-11-29T12:17:15Z</time>
      </trkpt>
      <trkpt lat="49.1513" lon="1.8874">
        <ele>113</ele>
        <time>2023-11-29T12:17:21Z</time>
      </trkpt>
      <trkpt lat="49.15128" lon="1.88747">
        <ele>113</ele>
        <time>2023-11-29T12:17:27Z</time>
      </trkpt>
      <trkpt lat="49.15126" lon="1.88753">
        <ele>113</ele>
        <time>2023-11-29T12:17:32Z</time>
      </trkpt>
      <trkpt lat="49.15126" lon="1.88758">
        <ele>113.1</ele>
        <time>2023-11-29T12:17:38Z</time>
      </trkpt>
      <trkpt lat="49.15126" lon="1.8876">
        <ele>113.2</ele>
        <time>2023-11-29T12:17:43Z</time>
      </trkpt>
      <trkpt lat="49.15127" lon="1.88761">
        <ele>113.2</ele>
        <time>2023-11-29T12:17:49Z</time>
      </trkpt>
      <trkpt lat="49.15127" lon="1.88762">
        <ele>113.2</ele>
        <time>2023-11-29T12:17:54Z</time>
      </trkpt>
      <trkpt lat="49.15127" lon="1.88762">
        <ele>113.2</ele>
        <time>2023-11-29T12:18:00Z</time>
      </trkpt>
      <trkpt lat="49.15127" lon="1.88762">
        <ele>113.2</ele>
        <time>2023-11-29T12:18:05Z</time>
      </trkpt>
      <trkpt lat="49.15127" lon="1.88763">
        <ele>113.2</ele>
        <time>2023-11-29T12:18:11Z</time>
      </trkpt>
      <trkpt lat="49.15127" lon="1.88764">
        <ele>113.2</ele>
        <time>2023-11-29T12:18:17Z</time>
      </trkpt>
      <trkpt lat="49.15128" lon="1.88765">
        <ele>113.2</ele>
        <time>2023-11-29T12:18:23Z</time>
      </trkpt>
      <trkpt lat="49.15128" lon="1.88765">
        <ele>113.2</ele>
        <time>2023-11-29T12:18:28Z</time>
      </trkpt>
      <trkpt lat="49.15128" lon="1.88766">
        <ele>113.2</ele>
        <time>2023-11-29T12:18:33Z</time>
      </trkpt>
      <trkpt lat="49.15128" lon="1.88766">
        <ele>113.2</ele>
        <time>2023-11-29T12:18:38Z</time>
      </trkpt>
      <trkpt lat="49.15128" lon="1.88766">
        <ele>113.2</ele>
        <time>2023-11-29T12:18:44Z</time>
      </trkpt>
      <trkpt lat="49.15128" lon="1.88766">
        <ele>113.2</ele>
        <time>2023-11-29T12:18:49Z</time>
      </trkpt>
      <trkpt lat="49.15129" lon="1.88766">
        <ele>113.2</ele>
        <time>2023-11-29T12:18:55Z</time>
      </trkpt>
      <trkpt lat="49.1513" lon="1.88762">
        <ele>113.1</ele>
        <time>2023-11-29T12:19:01Z</time>
      </trkpt>
      <trkpt lat="49.1513" lon="1.88759">
        <ele>113.1</ele>
        <time>2023-11-29T12:19:06Z</time>
      </trkpt>
      <trkpt lat="49.1513" lon="1.88753">
        <ele>113</ele>
        <time>2023-11-29T12:19:11Z</time>
      </trkpt>
      <trkpt lat="49.15129" lon="1.8874">
        <ele>113</ele>
        <time>2023-11-29T12:19:17Z</time>
      </trkpt>
      <trkpt lat="49.15127" lon="1.88732">
        <ele>113</ele>
        <time>2023-11-29T12:19:22Z</time>
      </trkpt>
      <trkpt lat="49.15126" lon="1.88722">
        <ele>113</ele>
        <time>2023-11-29T12:19:28Z</time>
      </trkpt>
      <trkpt lat="49.15124" lon="1.88714">
        <ele>112.7</ele>
        <time>2023-11-29T12:19:33Z</time>
      </trkpt>
      <trkpt lat="49.15122" lon="1.88704">
        <ele>112.3</ele>
        <time>2023-11-29T12:19:39Z</time>
      </trkpt>
      <trkpt lat="49.15121" lon="1.88697">
        <ele>112.1</ele>
        <time>2023-11-29T12:19:44Z</time>
      </trkpt>
      <trkpt lat="49.15121" lon="1.88691">
        <ele>112</ele>
        <time>2023-11-29T12:19:50Z</time>
      </trkpt>
      <trkpt lat="49.15121" lon="1.88687">
        <ele>112</ele>
        <time>2023-11-29T12:19:55Z</time>
      </trkpt>
      <trkpt lat="49.15121" lon="1.88683">
        <ele>112</ele>
        <time>2023-11-29T12:20:00Z</time>
      </trkpt>
      <trkpt lat="49.15118" lon="1.88678">
        <ele>112</ele>
        <time>2023-11-29T12:20:06Z</time>
      </trkpt>
      <trkpt lat="49.15111" lon="1.88674">
        <ele>112</ele>
        <time>2023-11-29T12:20:12Z</time>
      </trkpt>
      <trkpt lat="49.15105" lon="1.88673">
        <ele>112</ele>
        <time>2023-11-29T12:20:17Z</time>
      </trkpt>
      <trkpt lat="49.15099" lon="1.88673">
        <ele>112.1</ele>
        <time>2023-11-29T12:20:23Z</time>
      </trkpt>
      <trkpt lat="49.15094" lon="1.88673">
        <ele>112.1</ele>
        <time>2023-11-29T12:20:28Z</time>
      </trkpt>
      <trkpt lat="49.15088" lon="1.88675">
        <ele>112.2</ele>
        <time>2023-11-29T12:20:34Z</time>
      </trkpt>
      <trkpt lat="49.15081" lon="1.88677">
        <ele>112.4</ele>
        <time>2023-11-29T12:20:40Z</time>
      </trkpt>
      <trkpt lat="49.15076" lon="1.88672">
        <ele>112.4</ele>
        <time>2023-11-29T12:20:46Z</time>
      </trkpt>
      <trkpt lat="49.15071" lon="1.88664">
        <ele>112.4</ele>
        <time>2023-11-29T12:20:51Z</time>
      </trkpt>
      <trkpt lat="49.15063" lon="1.88657">
        <ele>112.5</ele>
        <time>2023-11-29T12:20:57Z</time>
      </trkpt>
      <trkpt lat="49.15055" lon="1.8865">
        <ele>112.4</ele>
        <time>2023-11-29T12:21:03Z</time>
      </trkpt>
      <trkpt lat="49.15048" lon="1.88646">
        <ele>112.2</ele>
        <time>2023-11-29T12:21:08Z</time>
      </trkpt>
      <trkpt lat="49.15042" lon="1.88643">
        <ele>112.1</ele>
        <time>2023-11-29T12:21:13Z</time>
      </trkpt>
      <trkpt lat="49.15035" lon="1.88639">
        <ele>112</ele>
        <time>2023-11-29T12:21:19Z</time>
      </trkpt>
      <trkpt lat="49.15031" lon="1.8863">
        <ele>112</ele>
        <time>2023-11-29T12:21:25Z</time>
      </trkpt>
      <trkpt lat="49.15027" lon="1.88618">
        <ele>112</ele>
        <time>2023-11-29T12:21:30Z</time>
      </trkpt>
      <trkpt lat="49.15022" lon="1.88609">
        <ele>112</ele>
        <time>2023-11-29T12:21:35Z</time>
      </trkpt>
      <trkpt lat="49.15014" lon="1.88604">
        <ele>111.9</ele>
        <time>2023-11-29T12:21:41Z</time>
      </trkpt>
      <trkpt lat="49.15008" lon="1.88601">
        <ele>111.7</ele>
        <time>2023-11-29T12:21:46Z</time>
      </trkpt>
      <trkpt lat="49.15" lon="1.886">
        <ele>111.6</ele>
        <time>2023-11-29T12:21:52Z</time>
      </trkpt>
      <trkpt lat="49.14993" lon="1.88604">
        <ele>111.8</ele>
        <time>2023-11-29T12:21:58Z</time>
      </trkpt>
      <trkpt lat="49.14987" lon="1.88609">
        <ele>112</ele>
        <time>2023-11-29T12:22:03Z</time>
      </trkpt>
      <trkpt lat="49.14983" lon="1.88613">
        <ele>112</ele>
        <time>2023-11-29T12:22:08Z</time>
      </trkpt>
      <trkpt lat="49.1498" lon="1.88618">
        <ele>112.1</ele>
        <time>2023-11-29T12:22:13Z</time>
      </trkpt>
      <trkpt lat="49.14976" lon="1.88628">
        <ele>112.1</ele>
        <time>2023-11-29T12:22:19Z</time>
      </trkpt>
      <trkpt lat="49.14972" lon="1.88637">
        <ele>112</ele>
        <time>2023-11-29T12:22:24Z</time>
      </trkpt>
      <trkpt lat="49.1497" lon="1.8865">
        <ele>112.4</ele>
        <time>2023-11-29T12:22:30Z</time>
      </trkpt>
      <trkpt lat="49.14969" lon="1.88661">
        <ele>112.8</ele>
        <time>2023-11-29T12:22:35Z</time>
      </trkpt>
      <trkpt lat="49.14969" lon="1.88673">
        <ele>113</ele>
        <time>2023-11-29T12:22:40Z</time>
      </trkpt>
      <trkpt lat="49.14969" lon="1.88688">
        <ele>113</ele>
        <time>2023-11-29T12:22:46Z</time>
      </trkpt>
      <trkpt lat="49.14971" lon="1.887">
        <ele>113</ele>
        <time>2023-11-29T12:22:51Z</time>
      </trkpt>
      <trkpt lat="49.14972" lon="1.8871">
        <ele>113</ele>
        <time>2023-11-29T12:22:56Z</time>
      </trkpt>
      <trkpt lat="49.14972" lon="1.88722">
        <ele>113</ele>
        <time>2023-11-29T12:23:02Z</time>
      </trkpt>
      <trkpt lat="49.14972" lon="1.88735">
        <ele>113.5</ele>
        <time>2023-11-29T12:23:08Z</time>
      </trkpt>
      <trkpt lat="49.1497" lon="1.8875">
        <ele>114</ele>
        <time>2023-11-29T12:23:14Z</time>
      </trkpt>
      <trkpt lat="49.14971" lon="1.88762">
        <ele>114</ele>
        <time>2023-11-29T12:23:20Z</time>
      </trkpt>
      <trkpt lat="49.1497" lon="1.88776">
        <ele>114</ele>
        <time>2023-11-29T12:23:26Z</time>
      </trkpt>
      <trkpt lat="49.1497" lon="1.88787">
        <ele>113.7</ele>
        <time>2023-11-29T12:23:31Z</time>
      </trkpt>
      <trkpt lat="49.1497" lon="1.88797">
        <ele>113.4</ele>
        <time>2023-11-29T12:23:36Z</time>
      </trkpt>
      <trkpt lat="49.1497" lon="1.88809">
        <ele>113.1</ele>
        <time>2023-11-29T12:23:42Z</time>
      </trkpt>
      <trkpt lat="49.14971" lon="1.88822">
        <ele>113</ele>
        <time>2023-11-29T12:23:48Z</time>
      </trkpt>
      <trkpt lat="49.14971" lon="1.88832">
        <ele>113</ele>
        <time>2023-11-29T12:23:53Z</time>
      </trkpt>
      <trkpt lat="49.14971" lon="1.88849">
        <ele>112.5</ele>
        <time>2023-11-29T12:23:59Z</time>
      </trkpt>
      <trkpt lat="49.14971" lon="1.8886">
        <ele>112.1</ele>
        <time>2023-11-29T12:24:05Z</time>
      </trkpt>
      <trkpt lat="49.1497" lon="1.88874">
        <ele>112</ele>
        <time>2023-11-29T12:24:11Z</time>
      </trkpt>
      <trkpt lat="49.1497" lon="1.88886">
        <ele>112</ele>
        <time>2023-11-29T12:24:16Z</time>
      </trkpt>
      <trkpt lat="49.1497" lon="1.889">
        <ele>112</ele>
        <time>2023-11-29T12:24:22Z</time>
      </trkpt>
      <trkpt lat="49.14969" lon="1.88909">
        <ele>112</ele>
        <time>2023-11-29T12:24:27Z</time>
      </trkpt>
      <trkpt lat="49.14968" lon="1.88917">
        <ele>112</ele>
        <time>2023-11-29T12:24:32Z</time>
      </trkpt>
      <trkpt lat="49.14967" lon="1.88928">
        <ele>112</ele>
        <time>2023-11-29T12:24:37Z</time>
      </trkpt>
      <trkpt lat="49.14966" lon="1.88939">
        <ele>112</ele>
        <time>2023-11-29T12:24:42Z</time>
      </trkpt>
      <trkpt lat="49.14964" lon="1.88953">
        <ele>111.7</ele>
        <time>2023-11-29T12:24:48Z</time>
      </trkpt>
      <trkpt lat="49.14963" lon="1.88967">
        <ele>111.2</ele>
        <time>2023-11-29T12:24:54Z</time>
      </trkpt>
      <trkpt lat="49.14962" lon="1.88979">
        <ele>111</ele>
        <time>2023-11-29T12:24:59Z</time>
      </trkpt>
      <trkpt lat="49.1496" lon="1.88992">
        <ele>111</ele>
        <time>2023-11-29T12:25:05Z</time>
      </trkpt>
      <trkpt lat="49.14959" lon="1.89007">
        <ele>110.9</ele>
        <time>2023-11-29T12:25:11Z</time>
      </trkpt>
      <trkpt lat="49.14958" lon="1.89017">
        <ele>110.7</ele>
        <time>2023-11-29T12:25:16Z</time>
      </trkpt>
      <trkpt lat="49.14955" lon="1.89027">
        <ele>110.4</ele>
        <time>2023-11-29T12:25:21Z</time>
      </trkpt>
      <trkpt lat="49.14953" lon="1.89037">
        <ele>110.3</ele>
        <time>2023-11-29T12:25:26Z</time>
      </trkpt>
      <trkpt lat="49.14951" lon="1.8905">
        <ele>110.2</ele>
        <time>2023-11-29T12:25:32Z</time>
      </trkpt>
      <trkpt lat="49.14949" lon="1.89059">
        <ele>110.2</ele>
        <time>2023-11-29T12:25:38Z</time>
      </trkpt>
      <trkpt lat="49.14948" lon="1.89071">
        <ele>110.1</ele>
        <time>2023-11-29T12:25:44Z</time>
      </trkpt>
      <trkpt lat="49.14947" lon="1.89079">
        <ele>110.1</ele>
        <time>2023-11-29T12:25:49Z</time>
      </trkpt>
      <trkpt lat="49.14943" lon="1.89091">
        <ele>110</ele>
        <time>2023-11-29T12:25:55Z</time>
      </trkpt>
      <trkpt lat="49.1494" lon="1.89105">
        <ele>109.9</ele>
        <time>2023-11-29T12:26:01Z</time>
      </trkpt>
      <trkpt lat="49.14939" lon="1.89118">
        <ele>109.8</ele>
        <time>2023-11-29T12:26:06Z</time>
      </trkpt>
      <trkpt lat="49.14937" lon="1.89132">
        <ele>109.7</ele>
        <time>2023-11-29T12:26:12Z</time>
      </trkpt>
      <trkpt lat="49.14935" lon="1.89144">
        <ele>109.7</ele>
        <time>2023-11-29T12:26:17Z</time>
      </trkpt>
      <trkpt lat="49.14932" lon="1.89154">
        <ele>109.6</ele>
        <time>2023-11-29T12:26:22Z</time>
      </trkpt>
      <trkpt lat="49.14931" lon="1.89168">
        <ele>109.6</ele>
        <time>2023-11-29T12:26:28Z</time>
      </trkpt>
      <trkpt lat="49.1493" lon="1.89177">
        <ele>109.7</ele>
        <time>2023-11-29T12:26:33Z</time>
      </trkpt>
      <trkpt lat="49.14927" lon="1.89189">
        <ele>109.9</ele>
        <time>2023-11-29T12:26:39Z</time>
      </trkpt>
      <trkpt lat="49.14922" lon="1.89204">
        <ele>110</ele>
        <time>2023-11-29T12:26:45Z</time>
      </trkpt>
      <trkpt lat="49.14919" lon="1.89215">
        <ele>110</ele>
        <time>2023-11-29T12:26:51Z</time>
      </trkpt>
      <trkpt lat="49.14917" lon="1.89226">
        <ele>110</ele>
        <time>2023-11-29T12:26:56Z</time>
      </trkpt>
      <trkpt lat="49.14914" lon="1.89238">
        <ele>110</ele>
        <time>2023-11-29T12:27:02Z</time>
      </trkpt>
      <trkpt lat="49.14913" lon="1.89248">
        <ele>110</ele>
        <time>2023-11-29T12:27:07Z</time>
      </trkpt>
      <trkpt lat="49.14909" lon="1.89264">
        <ele>110</ele>
        <time>2023-11-29T12:27:13Z</time>
      </trkpt>
      <trkpt lat="49.14908" lon="1.89275">
        <ele>110</ele>
        <time>2023-11-29T12:27:18Z</time>
      </trkpt>
      <trkpt lat="49.14907" lon="1.89284">
        <ele>110</ele>
        <time>2023-11-29T12:27:23Z</time>
      </trkpt>
      <trkpt lat="49.14906" lon="1.89295">
        <ele>110</ele>
        <time>2023-11-29T12:27:29Z</time>
      </trkpt>
      <trkpt lat="49.14903" lon="1.89303">
        <ele>110</ele>
        <time>2023-11-29T12:27:34Z</time>
      </trkpt>
      <trkpt lat="49.149" lon="1.89314">
        <ele>109.8</ele>
        <time>2023-11-29T12:27:39Z</time>
      </trkpt>
      <trkpt lat="49.14898" lon="1.89326">
        <ele>109.5</ele>
        <time>2023-11-29T12:27:44Z</time>
      </trkpt>
      <trkpt lat="49.14895" lon="1.89336">
        <ele>109.2</ele>
        <time>2023-11-29T12:27:49Z</time>
      </trkpt>
      <trkpt lat="49.14892" lon="1.89345">
        <ele>109.1</ele>
        <time>2023-11-29T12:27:54Z</time>
      </trkpt>
      <trkpt lat="49.14888" lon="1.89357">
        <ele>109</ele>
        <time>2023-11-29T12:28:00Z</time>
      </trkpt>
      <trkpt lat="49.14886" lon="1.89368">
        <ele>109</ele>
        <time>2023-11-29T12:28:06Z</time>
      </trkpt>
      <trkpt lat="49.14883" lon="1.89378">
        <ele>109</ele>
        <time>2023-11-29T12:28:11Z</time>
      </trkpt>
      <trkpt lat="49.14878" lon="1.89389">
        <ele>109</ele>
        <time>2023-11-29T12:28:17Z</time>
      </trkpt>
      <trkpt lat="49.14874" lon="1.89402">
        <ele>108.7</ele>
        <time>2023-11-29T12:28:23Z</time>
      </trkpt>
      <trkpt lat="49.14869" lon="1.89413">
        <ele>108.4</ele>
        <time>2023-11-29T12:28:29Z</time>
      </trkpt>
      <trkpt lat="49.14865" lon="1.89422">
        <ele>108.1</ele>
        <time>2023-11-29T12:28:34Z</time>
      </trkpt>
      <trkpt lat="49.14862" lon="1.89431">
        <ele>108</ele>
        <time>2023-11-29T12:28:39Z</time>
      </trkpt>
      <trkpt lat="49.14859" lon="1.89438">
        <ele>108</ele>
        <time>2023-11-29T12:28:44Z</time>
      </trkpt>
      <trkpt lat="49.14855" lon="1.8945">
        <ele>108</ele>
        <time>2023-11-29T12:28:50Z</time>
      </trkpt>
      <trkpt lat="49.14851" lon="1.89463">
        <ele>107.8</ele>
        <time>2023-11-29T12:28:55Z</time>
      </trkpt>
      <trkpt lat="49.14848" lon="1.89476">
        <ele>107.5</ele>
        <time>2023-11-29T12:29:01Z</time>
      </trkpt>
      <trkpt lat="49.14848" lon="1.89489">
        <ele>107.2</ele>
        <time>2023-11-29T12:29:06Z</time>
      </trkpt>
      <trkpt lat="49.14847" lon="1.89502">
        <ele>107</ele>
        <time>2023-11-29T12:29:12Z</time>
      </trkpt>
      <trkpt lat="49.14846" lon="1.89513">
        <ele>106.8</ele>
        <time>2023-11-29T12:29:17Z</time>
      </trkpt>
      <trkpt lat="49.14846" lon="1.89526">
        <ele>106.5</ele>
        <time>2023-11-29T12:29:23Z</time>
      </trkpt>
      <trkpt lat="49.14846" lon="1.89538">
        <ele>106.3</ele>
        <time>2023-11-29T12:29:28Z</time>
      </trkpt>
      <trkpt lat="49.14846" lon="1.89552">
        <ele>106.1</ele>
        <time>2023-11-29T12:29:34Z</time>
      </trkpt>
      <trkpt lat="49.14848" lon="1.89567">
        <ele>105.6</ele>
        <time>2023-11-29T12:29:40Z</time>
      </trkpt>
      <trkpt lat="49.14849" lon="1.89581">
        <ele>105.1</ele>
        <time>2023-11-29T12:29:46Z</time>
      </trkpt>
      <trkpt lat="49.1485" lon="1.89591">
        <ele>105</ele>
        <time>2023-11-29T12:29:51Z</time>
      </trkpt>
      <trkpt lat="49.14849" lon="1.89604">
        <ele>105</ele>
        <time>2023-11-29T12:29:57Z</time>
      </trkpt>
      <trkpt lat="49.14847" lon="1.89618">
        <ele>105</ele>
        <time>2023-11-29T12:30:03Z</time>
      </trkpt>
      <trkpt lat="49.14846" lon="1.89628">
        <ele>105</ele>
        <time>2023-11-29T12:30:08Z</time>
      </trkpt>
      <trkpt lat="49.14846" lon="1.89638">
        <ele>105</ele>
        <time>2023-11-29T12:30:13Z</time>
      </trkpt>
      <trkpt lat="49.14844" lon="1.89649">
        <ele>105</ele>
        <time>2023-11-29T12:30:19Z</time>
      </trkpt>
      <trkpt lat="49.14841" lon="1.89661">
        <ele>105</ele>
        <time>2023-11-29T12:30:24Z</time>
      </trkpt>
      <trkpt lat="49.14837" lon="1.89674">
        <ele>105</ele>
        <time>2023-11-29T12:30:30Z</time>
      </trkpt>
      <trkpt lat="49.14834" lon="1.89684">
        <ele>105</ele>
        <time>2023-11-29T12:30:35Z</time>
      </trkpt>
      <trkpt lat="49.14831" lon="1.89692">
        <ele>105</ele>
        <time>2023-11-29T12:30:40Z</time>
      </trkpt>
      <trkpt lat="49.14827" lon="1.89706">
        <ele>105</ele>
        <time>2023-11-29T12:30:46Z</time>
      </trkpt>
      <trkpt lat="49.14824" lon="1.89715">
        <ele>105</ele>
        <time>2023-11-29T12:30:51Z</time>
      </trkpt>
      <trkpt lat="49.14821" lon="1.89724">
        <ele>105</ele>
        <time>2023-11-29T12:30:56Z</time>
      </trkpt>
      <trkpt lat="49.14816" lon="1.89736">
        <ele>105.2</ele>
        <time>2023-11-29T12:31:02Z</time>
      </trkpt>
      <trkpt lat="49.14809" lon="1.89748">
        <ele>105.1</ele>
        <time>2023-11-29T12:31:08Z</time>
      </trkpt>
      <trkpt lat="49.14805" lon="1.89758">
        <ele>105</ele>
        <time>2023-11-29T12:31:14Z</time>
      </trkpt>
      <trkpt lat="49.14801" lon="1.89769">
        <ele>105</ele>
        <time>2023-11-29T12:31:20Z</time>
      </trkpt>
      <trkpt lat="49.14797" lon="1.89778">
        <ele>105</ele>
        <time>2023-11-29T12:31:25Z</time>
      </trkpt>
      <trkpt lat="49.14793" lon="1.89787">
        <ele>105.2</ele>
        <time>2023-11-29T12:31:31Z</time>
      </trkpt>
      <trkpt lat="49.14789" lon="1.89797">
        <ele>105.3</ele>
        <time>2023-11-29T12:31:36Z</time>
      </trkpt>
      <trkpt lat="49.14784" lon="1.89807">
        <ele>105.3</ele>
        <time>2023-11-29T12:31:41Z</time>
      </trkpt>
      <trkpt lat="49.1478" lon="1.89817">
        <ele>105.5</ele>
        <time>2023-11-29T12:31:47Z</time>
      </trkpt>
      <trkpt lat="49.14776" lon="1.89827">
        <ele>105.7</ele>
        <time>2023-11-29T12:31:52Z</time>
      </trkpt>
      <trkpt lat="49.14769" lon="1.89838">
        <ele>105.7</ele>
        <time>2023-11-29T12:31:57Z</time>
      </trkpt>
      <trkpt lat="49.14764" lon="1.89847">
        <ele>105.8</ele>
        <time>2023-11-29T12:32:03Z</time>
      </trkpt>
      <trkpt lat="49.1476" lon="1.89856">
        <ele>105.9</ele>
        <time>2023-11-29T12:32:08Z</time>
      </trkpt>
      <trkpt lat="49.14755" lon="1.89868">
        <ele>106</ele>
        <time>2023-11-29T12:32:14Z</time>
      </trkpt>
      <trkpt lat="49.1475" lon="1.89878">
        <ele>106</ele>
        <time>2023-11-29T12:32:19Z</time>
      </trkpt>
      <trkpt lat="49.14745" lon="1.89889">
        <ele>106</ele>
        <time>2023-11-29T12:32:25Z</time>
      </trkpt>
      <trkpt lat="49.14739" lon="1.899">
        <ele>106.2</ele>
        <time>2023-11-29T12:32:31Z</time>
      </trkpt>
      <trkpt lat="49.14735" lon="1.89909">
        <ele>106.3</ele>
        <time>2023-11-29T12:32:36Z</time>
      </trkpt>
      <trkpt lat="49.1473" lon="1.89918">
        <ele>106.2</ele>
        <time>2023-11-29T12:32:42Z</time>
      </trkpt>
      <trkpt lat="49.14726" lon="1.89929">
        <ele>105.7</ele>
        <time>2023-11-29T12:32:47Z</time>
      </trkpt>
      <trkpt lat="49.1472" lon="1.89942">
        <ele>105.1</ele>
        <time>2023-11-29T12:32:53Z</time>
      </trkpt>
      <trkpt lat="49.14716" lon="1.89949">
        <ele>105</ele>
        <time>2023-11-29T12:32:58Z</time>
      </trkpt>
      <trkpt lat="49.14712" lon="1.89959">
        <ele>105</ele>
        <time>2023-11-29T12:33:03Z</time>
      </trkpt>
      <trkpt lat="49.14709" lon="1.89968">
        <ele>105</ele>
        <time>2023-11-29T12:33:08Z</time>
      </trkpt>
      <trkpt lat="49.14706" lon="1.8998">
        <ele>104.8</ele>
        <time>2023-11-29T12:33:14Z</time>
      </trkpt>
      <trkpt lat="49.14701" lon="1.89991">
        <ele>104.5</ele>
        <time>2023-11-29T12:33:20Z</time>
      </trkpt>
      <trkpt lat="49.147" lon="1.9">
        <ele>104.2</ele>
        <time>2023-11-29T12:33:25Z</time>
      </trkpt>
      <trkpt lat="49.14696" lon="1.90012">
        <ele>104.5</ele>
        <time>2023-11-29T12:33:31Z</time>
      </trkpt>
      <trkpt lat="49.14693" lon="1.90021">
        <ele>104.8</ele>
        <time>2023-11-29T12:33:36Z</time>
      </trkpt>
      <trkpt lat="49.14687" lon="1.9003">
        <ele>105</ele>
        <time>2023-11-29T12:33:42Z</time>
      </trkpt>
      <trkpt lat="49.14682" lon="1.90037">
        <ele>105</ele>
        <time>2023-11-29T12:33:48Z</time>
      </trkpt>
      <trkpt lat="49.14676" lon="1.90043">
        <ele>105</ele>
        <time>2023-11-29T12:33:54Z</time>
      </trkpt>
      <trkpt lat="49.14669" lon="1.90046">
        <ele>105</ele>
        <time>2023-11-29T12:33:59Z</time>
      </trkpt>
      <trkpt lat="49.1466" lon="1.90051">
        <ele>105</ele>
        <time>2023-11-29T12:34:05Z</time>
      </trkpt>
      <trkpt lat="49.14651" lon="1.90057">
        <ele>105</ele>
        <time>2023-11-29T12:34:11Z</time>
      </trkpt>
      <trkpt lat="49.14642" lon="1.90061">
        <ele>105</ele>
        <time>2023-11-29T12:34:17Z</time>
      </trkpt>
      <trkpt lat="49.14634" lon="1.90064">
        <ele>105</ele>
        <time>2023-11-29T12:34:22Z</time>
      </trkpt>
      <trkpt lat="49.14624" lon="1.90069">
        <ele>105</ele>
        <time>2023-11-29T12:34:28Z</time>
      </trkpt>
      <trkpt lat="49.14617" lon="1.90073">
        <ele>105</ele>
        <time>2023-11-29T12:34:33Z</time>
      </trkpt>
      <trkpt lat="49.1461" lon="1.90076">
        <ele>105</ele>
        <time>2023-11-29T12:34:39Z</time>
      </trkpt>
      <trkpt lat="49.14605" lon="1.9008">
        <ele>105</ele>
        <time>2023-11-29T12:34:44Z</time>
      </trkpt>
      <trkpt lat="49.14599" lon="1.90086">
        <ele>105.1</ele>
        <time>2023-11-29T12:34:50Z</time>
      </trkpt>
      <trkpt lat="49.14591" lon="1.90093">
        <ele>105.1</ele>
        <time>2023-11-29T12:34:56Z</time>
      </trkpt>
      <trkpt lat="49.14586" lon="1.90102">
        <ele>105.1</ele>
        <time>2023-11-29T12:35:02Z</time>
      </trkpt>
      <trkpt lat="49.14582" lon="1.90107">
        <ele>105</ele>
        <time>2023-11-29T12:35:08Z</time>
      </trkpt>
      <trkpt lat="49.14575" lon="1.90116">
        <ele>105.2</ele>
        <time>2023-11-29T12:35:14Z</time>
      </trkpt>
      <trkpt lat="49.14571" lon="1.90126">
        <ele>105.5</ele>
        <time>2023-11-29T12:35:19Z</time>
      </trkpt>
      <trkpt lat="49.14565" lon="1.90133">
        <ele>105.8</ele>
        <time>2023-11-29T12:35:25Z</time>
      </trkpt>
      <trkpt lat="49.1456" lon="1.90138">
        <ele>106</ele>
        <time>2023-11-29T12:35:30Z</time>
      </trkpt>
      <trkpt lat="49.14555" lon="1.90138">
        <ele>106</ele>
        <time>2023-11-29T12:35:36Z</time>
      </trkpt>
      <trkpt lat="49.14548" lon="1.9014">
        <ele>105.7</ele>
        <time>2023-11-29T12:35:42Z</time>
      </trkpt>
      <trkpt lat="49.14543" lon="1.9014">
        <ele>105.6</ele>
        <time>2023-11-29T12:35:47Z</time>
      </trkpt>
      <trkpt lat="49.14538" lon="1.90142">
        <ele>105.4</ele>
        <time>2023-11-29T12:35:53Z</time>
      </trkpt>
      <trkpt lat="49.14536" lon="1.90142">
        <ele>105.3</ele>
        <time>2023-11-29T12:35:59Z</time>
      </trkpt>
      <trkpt lat="49.14536" lon="1.90144">
        <ele>105.4</ele>
        <time>2023-11-29T12:36:05Z</time>
      </trkpt>
      <trkpt lat="49.14537" lon="1.90145">
        <ele>105.4</ele>
        <time>2023-11-29T12:36:11Z</time>
      </trkpt>
      <trkpt lat="49.14536" lon="1.90144">
        <ele>105.4</ele>
        <time>2023-11-29T12:36:16Z</time>
      </trkpt>
      <trkpt lat="49.14537" lon="1.90142">
        <ele>105.4</ele>
        <time>2023-11-29T12:36:21Z</time>
      </trkpt>
      <trkpt lat="49.1454" lon="1.90144">
        <ele>105.5</ele>
        <time>2023-11-29T12:36:26Z</time>
      </trkpt>
      <trkpt lat="49.14544" lon="1.90144">
        <ele>105.6</ele>
        <time>2023-11-29T12:36:32Z</time>
      </trkpt>
      <trkpt lat="49.14546" lon="1.90144">
        <ele>105.6</ele>
        <time>2023-11-29T12:36:38Z</time>
      </trkpt>
      <trkpt lat="49.14548" lon="1.90146">
        <ele>105.6</ele>
        <time>2023-11-29T12:36:44Z</time>
      </trkpt>
      <trkpt lat="49.14548" lon="1.9015">
        <ele>105.6</ele>
        <time>2023-11-29T12:36:51Z</time>
      </trkpt>
      <trkpt lat="49.14548" lon="1.90152">
        <ele>105.5</ele>
        <time>2023-11-29T12:36:56Z</time>
      </trkpt>
      <trkpt lat="49.1455" lon="1.90152">
        <ele>105.5</ele>
        <time>2023-11-29T12:37:02Z</time>
      </trkpt>
      <trkpt lat="49.14551" lon="1.90147">
        <ele>105.6</ele>
        <time>2023-11-29T12:37:08Z</time>
      </trkpt>
      <trkpt lat="49.14552" lon="1.90146">
        <ele>105.7</ele>
        <time>2023-11-29T12:37:14Z</time>
      </trkpt>
      <trkpt lat="49.14557" lon="1.90146">
        <ele>105.8</ele>
        <time>2023-11-29T12:37:19Z</time>
      </trkpt>
      <trkpt lat="49.1456" lon="1.90142">
        <ele>105.9</ele>
        <time>2023-11-29T12:37:25Z</time>
      </trkpt>
      <trkpt lat="49.14561" lon="1.9014">
        <ele>106</ele>
        <time>2023-11-29T12:37:31Z</time>
      </trkpt>
      <trkpt lat="49.1456" lon="1.90144">
        <ele>105.8</ele>
        <time>2023-11-29T12:37:36Z</time>
      </trkpt>
      <trkpt lat="49.14555" lon="1.90155">
        <ele>105.4</ele>
        <time>2023-11-29T12:37:42Z</time>
      </trkpt>
      <trkpt lat="49.14552" lon="1.90164">
        <ele>105.2</ele>
        <time>2023-11-29T12:37:47Z</time>
      </trkpt>
      <trkpt lat="49.14548" lon="1.90174">
        <ele>105.2</ele>
        <time>2023-11-29T12:37:53Z</time>
      </trkpt>
      <trkpt lat="49.14544" lon="1.90182">
        <ele>105.2</ele>
        <time>2023-11-29T12:37:58Z</time>
      </trkpt>
      <trkpt lat="49.14539" lon="1.90191">
        <ele>105.1</ele>
        <time>2023-11-29T12:38:04Z</time>
      </trkpt>
      <trkpt lat="49.14536" lon="1.90205">
        <ele>104.7</ele>
        <time>2023-11-29T12:38:09Z</time>
      </trkpt>
      <trkpt lat="49.14533" lon="1.90213">
        <ele>104.5</ele>
        <time>2023-11-29T12:38:14Z</time>
      </trkpt>
      <trkpt lat="49.14532" lon="1.9022">
        <ele>104.2</ele>
        <time>2023-11-29T12:38:20Z</time>
      </trkpt>
      <trkpt lat="49.1453" lon="1.90229">
        <ele>104.1</ele>
        <time>2023-11-29T12:38:25Z</time>
      </trkpt>
      <trkpt lat="49.14529" lon="1.90244">
        <ele>104.1</ele>
        <time>2023-11-29T12:38:31Z</time>
      </trkpt>
      <trkpt lat="49.14528" lon="1.90254">
        <ele>103.9</ele>
        <time>2023-11-29T12:38:37Z</time>
      </trkpt>
      <trkpt lat="49.14529" lon="1.90265">
        <ele>103.5</ele>
        <time>2023-11-29T12:38:43Z</time>
      </trkpt>
      <trkpt lat="49.14532" lon="1.90282">
        <ele>103.3</ele>
        <time>2023-11-29T12:38:49Z</time>
      </trkpt>
      <trkpt lat="49.14536" lon="1.90294">
        <ele>103.4</ele>
        <time>2023-11-29T12:38:54Z</time>
      </trkpt>
      <trkpt lat="49.14537" lon="1.90304">
        <ele>103.4</ele>
        <time>2023-11-29T12:39:00Z</time>
      </trkpt>
      <trkpt lat="49.14536" lon="1.90321">
        <ele>103.3</ele>
        <time>2023-11-29T12:39:06Z</time>
      </trkpt>
      <trkpt lat="49.14534" lon="1.90333">
        <ele>103.2</ele>
        <time>2023-11-29T12:39:12Z</time>
      </trkpt>
      <trkpt lat="49.14532" lon="1.90347">
        <ele>102.7</ele>
        <time>2023-11-29T12:39:18Z</time>
      </trkpt>
      <trkpt lat="49.14531" lon="1.90362">
        <ele>102.1</ele>
        <time>2023-11-29T12:39:24Z</time>
      </trkpt>
      <trkpt lat="49.14529" lon="1.90372">
        <ele>102</ele>
        <time>2023-11-29T12:39:30Z</time>
      </trkpt>
      <trkpt lat="49.14527" lon="1.90381">
        <ele>102</ele>
        <time>2023-11-29T12:39:36Z</time>
      </trkpt>
      <trkpt lat="49.14523" lon="1.90393">
        <ele>102</ele>
        <time>2023-11-29T12:39:41Z</time>
      </trkpt>
      <trkpt lat="49.1452" lon="1.90407">
        <ele>102</ele>
        <time>2023-11-29T12:39:47Z</time>
      </trkpt>
      <trkpt lat="49.14516" lon="1.90421">
        <ele>102</ele>
        <time>2023-11-29T12:39:53Z</time>
      </trkpt>
      <trkpt lat="49.1451" lon="1.90436">
        <ele>102</ele>
        <time>2023-11-29T12:39:59Z</time>
      </trkpt>
      <trkpt lat="49.14505" lon="1.90449">
        <ele>101.8</ele>
        <time>2023-11-29T12:40:05Z</time>
      </trkpt>
      <trkpt lat="49.14502" lon="1.90459">
        <ele>101.5</ele>
        <time>2023-11-29T12:40:11Z</time>
      </trkpt>
      <trkpt lat="49.145" lon="1.90468">
        <ele>101.2</ele>
        <time>2023-11-29T12:40:16Z</time>
      </trkpt>
      <trkpt lat="49.14498" lon="1.9048">
        <ele>101</ele>
        <time>2023-11-29T12:40:22Z</time>
      </trkpt>
      <trkpt lat="49.14495" lon="1.9049">
        <ele>101</ele>
        <time>2023-11-29T12:40:28Z</time>
      </trkpt>
      <trkpt lat="49.14492" lon="1.90497">
        <ele>101</ele>
        <time>2023-11-29T12:40:33Z</time>
      </trkpt>
      <trkpt lat="49.14489" lon="1.90505">
        <ele>100.9</ele>
        <time>2023-11-29T12:40:38Z</time>
      </trkpt>
      <trkpt lat="49.14484" lon="1.90517">
        <ele>100.6</ele>
        <time>2023-11-29T12:40:44Z</time>
      </trkpt>
      <trkpt lat="49.14481" lon="1.90529">
        <ele>100.3</ele>
        <time>2023-11-29T12:40:50Z</time>
      </trkpt>
      <trkpt lat="49.14477" lon="1.9054">
        <ele>100.1</ele>
        <time>2023-11-29T12:40:55Z</time>
      </trkpt>
      <trkpt lat="49.14472" lon="1.90552">
        <ele>100</ele>
        <time>2023-11-29T12:41:01Z</time>
      </trkpt>
      <trkpt lat="49.14469" lon="1.90561">
        <ele>100</ele>
        <time>2023-11-29T12:41:06Z</time>
      </trkpt>
      <trkpt lat="49.14465" lon="1.90572">
        <ele>100</ele>
        <time>2023-11-29T12:41:12Z</time>
      </trkpt>
      <trkpt lat="49.14462" lon="1.90581">
        <ele>100</ele>
        <time>2023-11-29T12:41:18Z</time>
      </trkpt>
      <trkpt lat="49.1446" lon="1.9059">
        <ele>100</ele>
        <time>2023-11-29T12:41:23Z</time>
      </trkpt>
      <trkpt lat="49.14457" lon="1.90598">
        <ele>100</ele>
        <time>2023-11-29T12:41:28Z</time>
      </trkpt>
      <trkpt lat="49.14454" lon="1.90609">
        <ele>100</ele>
        <time>2023-11-29T12:41:33Z</time>
      </trkpt>
      <trkpt lat="49.1445" lon="1.90622">
        <ele>99.7</ele>
        <time>2023-11-29T12:41:39Z</time>
      </trkpt>
      <trkpt lat="49.14446" lon="1.90632">
        <ele>99.3</ele>
        <time>2023-11-29T12:41:44Z</time>
      </trkpt>
      <trkpt lat="49.14444" lon="1.90643">
        <ele>99</ele>
        <time>2023-11-29T12:41:49Z</time>
      </trkpt>
      <trkpt lat="49.1444" lon="1.90655">
        <ele>99</ele>
        <time>2023-11-29T12:41:54Z</time>
      </trkpt>
      <trkpt lat="49.14437" lon="1.90666">
        <ele>99</ele>
        <time>2023-11-29T12:42:00Z</time>
      </trkpt>
      <trkpt lat="49.14434" lon="1.90677">
        <ele>99</ele>
        <time>2023-11-29T12:42:05Z</time>
      </trkpt>
      <trkpt lat="49.14431" lon="1.90686">
        <ele>99</ele>
        <time>2023-11-29T12:42:10Z</time>
      </trkpt>
      <trkpt lat="49.14429" lon="1.90696">
        <ele>99</ele>
        <time>2023-11-29T12:42:15Z</time>
      </trkpt>
      <trkpt lat="49.14424" lon="1.90709">
        <ele>99</ele>
        <time>2023-11-29T12:42:21Z</time>
      </trkpt>
      <trkpt lat="49.14421" lon="1.90719">
        <ele>99</ele>
        <time>2023-11-29T12:42:26Z</time>
      </trkpt>
      <trkpt lat="49.14417" lon="1.90732">
        <ele>98.7</ele>
        <time>2023-11-29T12:42:32Z</time>
      </trkpt>
      <trkpt lat="49.14415" lon="1.90743">
        <ele>98.2</ele>
        <time>2023-11-29T12:42:37Z</time>
      </trkpt>
      <trkpt lat="49.14412" lon="1.90753">
        <ele>98</ele>
        <time>2023-11-29T12:42:42Z</time>
      </trkpt>
      <trkpt lat="49.1441" lon="1.90763">
        <ele>98</ele>
        <time>2023-11-29T12:42:47Z</time>
      </trkpt>
      <trkpt lat="49.14407" lon="1.90776">
        <ele>98</ele>
        <time>2023-11-29T12:42:53Z</time>
      </trkpt>
      <trkpt lat="49.14404" lon="1.90785">
        <ele>98</ele>
        <time>2023-11-29T12:42:59Z</time>
      </trkpt>
      <trkpt lat="49.14403" lon="1.90798">
        <ele>98</ele>
        <time>2023-11-29T12:43:05Z</time>
      </trkpt>
      <trkpt lat="49.14401" lon="1.90812">
        <ele>97.9</ele>
        <time>2023-11-29T12:43:11Z</time>
      </trkpt>
      <trkpt lat="49.14398" lon="1.90822">
        <ele>97.6</ele>
        <time>2023-11-29T12:43:16Z</time>
      </trkpt>
      <trkpt lat="49.14394" lon="1.90831">
        <ele>97.2</ele>
        <time>2023-11-29T12:43:21Z</time>
      </trkpt>
      <trkpt lat="49.14391" lon="1.9084">
        <ele>97.1</ele>
        <time>2023-11-29T12:43:26Z</time>
      </trkpt>
      <trkpt lat="49.14389" lon="1.9085">
        <ele>97</ele>
        <time>2023-11-29T12:43:32Z</time>
      </trkpt>
      <trkpt lat="49.14388" lon="1.90866">
        <ele>97</ele>
        <time>2023-11-29T12:43:38Z</time>
      </trkpt>
      <trkpt lat="49.14385" lon="1.90877">
        <ele>97</ele>
        <time>2023-11-29T12:43:44Z</time>
      </trkpt>
      <trkpt lat="49.14384" lon="1.90889">
        <ele>97</ele>
        <time>2023-11-29T12:43:50Z</time>
      </trkpt>
      <trkpt lat="49.14382" lon="1.90898">
        <ele>97</ele>
        <time>2023-11-29T12:43:56Z</time>
      </trkpt>
      <trkpt lat="49.14379" lon="1.90907">
        <ele>97</ele>
        <time>2023-11-29T12:44:01Z</time>
      </trkpt>
      <trkpt lat="49.14376" lon="1.9092">
        <ele>96.9</ele>
        <time>2023-11-29T12:44:07Z</time>
      </trkpt>
      <trkpt lat="49.14375" lon="1.9093">
        <ele>96.8</ele>
        <time>2023-11-29T12:44:12Z</time>
      </trkpt>
      <trkpt lat="49.14373" lon="1.90939">
        <ele>96.5</ele>
        <time>2023-11-29T12:44:17Z</time>
      </trkpt>
      <trkpt lat="49.14371" lon="1.9095">
        <ele>96.3</ele>
        <time>2023-11-29T12:44:23Z</time>
      </trkpt>
      <trkpt lat="49.14369" lon="1.90964">
        <ele>96.1</ele>
        <time>2023-11-29T12:44:29Z</time>
      </trkpt>
      <trkpt lat="49.14366" lon="1.90974">
        <ele>95.9</ele>
        <time>2023-11-29T12:44:34Z</time>
      </trkpt>
      <trkpt lat="49.14363" lon="1.90986">
        <ele>95.5</ele>
        <time>2023-11-29T12:44:40Z</time>
      </trkpt>
      <trkpt lat="49.14361" lon="1.90997">
        <ele>95.1</ele>
        <time>2023-11-29T12:44:45Z</time>
      </trkpt>
      <trkpt lat="49.14358" lon="1.91009">
        <ele>95</ele>
        <time>2023-11-29T12:44:51Z</time>
      </trkpt>
      <trkpt lat="49.14356" lon="1.9102">
        <ele>95</ele>
        <time>2023-11-29T12:44:57Z</time>
      </trkpt>
      <trkpt lat="49.14354" lon="1.9103">
        <ele>95</ele>
        <time>2023-11-29T12:45:02Z</time>
      </trkpt>
      <trkpt lat="49.14352" lon="1.91041">
        <ele>94.8</ele>
        <time>2023-11-29T12:45:08Z</time>
      </trkpt>
      <trkpt lat="49.1435" lon="1.9105">
        <ele>94.7</ele>
        <time>2023-11-29T12:45:13Z</time>
      </trkpt>
      <trkpt lat="49.14347" lon="1.91062">
        <ele>94.5</ele>
        <time>2023-11-29T12:45:19Z</time>
      </trkpt>
      <trkpt lat="49.14344" lon="1.91074">
        <ele>94.4</ele>
        <time>2023-11-29T12:45:24Z</time>
      </trkpt>
      <trkpt lat="49.14342" lon="1.91083">
        <ele>94.3</ele>
        <time>2023-11-29T12:45:29Z</time>
      </trkpt>
      <trkpt lat="49.14338" lon="1.91093">
        <ele>94.2</ele>
        <time>2023-11-29T12:45:35Z</time>
      </trkpt>
      <trkpt lat="49.14335" lon="1.91104">
        <ele>94</ele>
        <time>2023-11-29T12:45:41Z</time>
      </trkpt>
      <trkpt lat="49.14331" lon="1.91114">
        <ele>93.9</ele>
        <time>2023-11-29T12:45:47Z</time>
      </trkpt>
      <trkpt lat="49.14328" lon="1.91123">
        <ele>93.8</ele>
        <time>2023-11-29T12:45:53Z</time>
      </trkpt>
      <trkpt lat="49.14325" lon="1.9113">
        <ele>93.7</ele>
        <time>2023-11-29T12:45:58Z</time>
      </trkpt>
      <trkpt lat="49.14322" lon="1.91137">
        <ele>93.6</ele>
        <time>2023-11-29T12:46:04Z</time>
      </trkpt>
      <trkpt lat="49.14317" lon="1.91143">
        <ele>93.4</ele>
        <time>2023-11-29T12:46:09Z</time>
      </trkpt>
      <trkpt lat="49.1431" lon="1.9115">
        <ele>93.2</ele>
        <time>2023-11-29T12:46:15Z</time>
      </trkpt>
      <trkpt lat="49.14305" lon="1.91157">
        <ele>93</ele>
        <time>2023-11-29T12:46:20Z</time>
      </trkpt>
      <trkpt lat="49.14299" lon="1.91165">
        <ele>92.8</ele>
        <time>2023-11-29T12:46:25Z</time>
      </trkpt>
      <trkpt lat="49.14294" lon="1.91171">
        <ele>92.7</ele>
        <time>2023-11-29T12:46:31Z</time>
      </trkpt>
      <trkpt lat="49.14291" lon="1.91176">
        <ele>92.6</ele>
        <time>2023-11-29T12:46:36Z</time>
      </trkpt>
      <trkpt lat="49.1429" lon="1.91182">
        <ele>92.7</ele>
        <time>2023-11-29T12:46:41Z</time>
      </trkpt>
      <trkpt lat="49.14293" lon="1.91182">
        <ele>92.9</ele>
        <time>2023-11-29T12:46:47Z</time>
      </trkpt>
      <trkpt lat="49.14294" lon="1.91182">
        <ele>92.9</ele>
        <time>2023-11-29T12:46:53Z</time>
      </trkpt>
      <trkpt lat="49.14294" lon="1.91182">
        <ele>92.9</ele>
        <time>2023-11-29T12:46:58Z</time>
      </trkpt>
      <trkpt lat="49.14294" lon="1.91184">
        <ele>92.9</ele>
        <time>2023-11-29T12:47:03Z</time>
      </trkpt>
      <trkpt lat="49.14298" lon="1.9119">
        <ele>93.3</ele>
        <time>2023-11-29T12:47:09Z</time>
      </trkpt>
      <trkpt lat="49.14305" lon="1.91192">
        <ele>93.8</ele>
        <time>2023-11-29T12:47:14Z</time>
      </trkpt>
      <trkpt lat="49.14312" lon="1.91196">
        <ele>94</ele>
        <time>2023-11-29T12:47:20Z</time>
      </trkpt>
      <trkpt lat="49.14318" lon="1.91201">
        <ele>94.1</ele>
        <time>2023-11-29T12:47:26Z</time>
      </trkpt>
      <trkpt lat="49.14326" lon="1.91203">
        <ele>94.2</ele>
        <time>2023-11-29T12:47:31Z</time>
      </trkpt>
      <trkpt lat="49.14333" lon="1.91209">
        <ele>94.5</ele>
        <time>2023-11-29T12:47:37Z</time>
      </trkpt>
      <trkpt lat="49.14341" lon="1.91216">
        <ele>95</ele>
        <time>2023-11-29T12:47:43Z</time>
      </trkpt>
      <trkpt lat="49.14348" lon="1.91222">
        <ele>95.5</ele>
        <time>2023-11-29T12:47:49Z</time>
      </trkpt>
      <trkpt lat="49.14353" lon="1.91227">
        <ele>95.6</ele>
        <time>2023-11-29T12:47:54Z</time>
      </trkpt>
      <trkpt lat="49.14359" lon="1.91235">
        <ele>95.5</ele>
        <time>2023-11-29T12:48:00Z</time>
      </trkpt>
      <trkpt lat="49.14364" lon="1.91243">
        <ele>95.3</ele>
        <time>2023-11-29T12:48:05Z</time>
      </trkpt>
      <trkpt lat="49.14369" lon="1.91249">
        <ele>95.3</ele>
        <time>2023-11-29T12:48:10Z</time>
      </trkpt>
      <trkpt lat="49.14374" lon="1.91258">
        <ele>95.5</ele>
        <time>2023-11-29T12:48:16Z</time>
      </trkpt>
      <trkpt lat="49.14379" lon="1.91266">
        <ele>95.7</ele>
        <time>2023-11-29T12:48:22Z</time>
      </trkpt>
      <trkpt lat="49.14385" lon="1.91274">
        <ele>95.9</ele>
        <time>2023-11-29T12:48:28Z</time>
      </trkpt>
      <trkpt lat="49.14389" lon="1.9128">
        <ele>96</ele>
        <time>2023-11-29T12:48:33Z</time>
      </trkpt>
      <trkpt lat="49.14394" lon="1.91286">
        <ele>96</ele>
        <time>2023-11-29T12:48:38Z</time>
      </trkpt>
      <trkpt lat="49.144" lon="1.91296">
        <ele>96</ele>
        <time>2023-11-29T12:48:44Z</time>
      </trkpt>
      <trkpt lat="49.14406" lon="1.91303">
        <ele>96</ele>
        <time>2023-11-29T12:48:50Z</time>
      </trkpt>
      <trkpt lat="49.1441" lon="1.91312">
        <ele>96</ele>
        <time>2023-11-29T12:48:56Z</time>
      </trkpt>
      <trkpt lat="49.14417" lon="1.9132">
        <ele>96</ele>
        <time>2023-11-29T12:49:02Z</time>
      </trkpt>
      <trkpt lat="49.14422" lon="1.91328">
        <ele>96</ele>
        <time>2023-11-29T12:49:07Z</time>
      </trkpt>
      <trkpt lat="49.14427" lon="1.91337">
        <ele>96</ele>
        <time>2023-11-29T12:49:12Z</time>
      </trkpt>
      <trkpt lat="49.14433" lon="1.91346">
        <ele>96</ele>
        <time>2023-11-29T12:49:18Z</time>
      </trkpt>
      <trkpt lat="49.14437" lon="1.91353">
        <ele>96</ele>
        <time>2023-11-29T12:49:24Z</time>
      </trkpt>
      <trkpt lat="49.14442" lon="1.9136">
        <ele>96</ele>
        <time>2023-11-29T12:49:30Z</time>
      </trkpt>
      <trkpt lat="49.14446" lon="1.91367">
        <ele>96</ele>
        <time>2023-11-29T12:49:35Z</time>
      </trkpt>
      <trkpt lat="49.14452" lon="1.91375">
        <ele>96.3</ele>
        <time>2023-11-29T12:49:41Z</time>
      </trkpt>
      <trkpt lat="49.14457" lon="1.91382">
        <ele>96.5</ele>
        <time>2023-11-29T12:49:46Z</time>
      </trkpt>
      <trkpt lat="49.14464" lon="1.91391">
        <ele>96.7</ele>
        <time>2023-11-29T12:49:52Z</time>
      </trkpt>
      <trkpt lat="49.14468" lon="1.91398">
        <ele>96.9</ele>
        <time>2023-11-29T12:49:57Z</time>
      </trkpt>
      <trkpt lat="49.14474" lon="1.91405">
        <ele>97</ele>
        <time>2023-11-29T12:50:03Z</time>
      </trkpt>
      <trkpt lat="49.1448" lon="1.91413">
        <ele>97</ele>
        <time>2023-11-29T12:50:09Z</time>
      </trkpt>
      <trkpt lat="49.14487" lon="1.91424">
        <ele>96.9</ele>
        <time>2023-11-29T12:50:15Z</time>
      </trkpt>
      <trkpt lat="49.14493" lon="1.91431">
        <ele>96.9</ele>
        <time>2023-11-29T12:50:20Z</time>
      </trkpt>
      <trkpt lat="49.14499" lon="1.9144">
        <ele>97</ele>
        <time>2023-11-29T12:50:25Z</time>
      </trkpt>
      <trkpt lat="49.14505" lon="1.9145">
        <ele>96.8</ele>
        <time>2023-11-29T12:50:31Z</time>
      </trkpt>
      <trkpt lat="49.14509" lon="1.91459">
        <ele>96.7</ele>
        <time>2023-11-29T12:50:36Z</time>
      </trkpt>
      <trkpt lat="49.14514" lon="1.91465">
        <ele>96.6</ele>
        <time>2023-11-29T12:50:41Z</time>
      </trkpt>
      <trkpt lat="49.14518" lon="1.91473">
        <ele>96.7</ele>
        <time>2023-11-29T12:50:46Z</time>
      </trkpt>
      <trkpt lat="49.14524" lon="1.91482">
        <ele>96.6</ele>
        <time>2023-11-29T12:50:51Z</time>
      </trkpt>
      <trkpt lat="49.1453" lon="1.91491">
        <ele>96.3</ele>
        <time>2023-11-29T12:50:57Z</time>
      </trkpt>
      <trkpt lat="49.14535" lon="1.91502">
        <ele>96</ele>
        <time>2023-11-29T12:51:03Z</time>
      </trkpt>
      <trkpt lat="49.1454" lon="1.91509">
        <ele>96.1</ele>
        <time>2023-11-29T12:51:08Z</time>
      </trkpt>
      <trkpt lat="49.14546" lon="1.91519">
        <ele>96.4</ele>
        <time>2023-11-29T12:51:14Z</time>
      </trkpt>
      <trkpt lat="49.14551" lon="1.91527">
        <ele>96.8</ele>
        <time>2023-11-29T12:51:19Z</time>
      </trkpt>
      <trkpt lat="49.14555" lon="1.91535">
        <ele>96.7</ele>
        <time>2023-11-29T12:51:24Z</time>
      </trkpt>
      <trkpt lat="49.14559" lon="1.91546">
        <ele>96.3</ele>
        <time>2023-11-29T12:51:30Z</time>
      </trkpt>
      <trkpt lat="49.14564" lon="1.91555">
        <ele>96</ele>
        <time>2023-11-29T12:51:35Z</time>
      </trkpt>
      <trkpt lat="49.14569" lon="1.91563">
        <ele>96</ele>
        <time>2023-11-29T12:51:40Z</time>
      </trkpt>
      <trkpt lat="49.14573" lon="1.91574">
        <ele>96</ele>
        <time>2023-11-29T12:51:46Z</time>
      </trkpt>
      <trkpt lat="49.14577" lon="1.91583">
        <ele>96</ele>
        <time>2023-11-29T12:51:52Z</time>
      </trkpt>
      <trkpt lat="49.14581" lon="1.91591">
        <ele>96</ele>
        <time>2023-11-29T12:51:57Z</time>
      </trkpt>
      <trkpt lat="49.14586" lon="1.91601">
        <ele>96</ele>
        <time>2023-11-29T12:52:03Z</time>
      </trkpt>
      <trkpt lat="49.14592" lon="1.91611">
        <ele>96</ele>
        <time>2023-11-29T12:52:09Z</time>
      </trkpt>
      <trkpt lat="49.14597" lon="1.91622">
        <ele>96</ele>
        <time>2023-11-29T12:52:15Z</time>
      </trkpt>
      <trkpt lat="49.14601" lon="1.9163">
        <ele>96</ele>
        <time>2023-11-29T12:52:20Z</time>
      </trkpt>
      <trkpt lat="49.14606" lon="1.91641">
        <ele>96</ele>
        <time>2023-11-29T12:52:26Z</time>
      </trkpt>
      <trkpt lat="49.14611" lon="1.91649">
        <ele>96</ele>
        <time>2023-11-29T12:52:31Z</time>
      </trkpt>
      <trkpt lat="49.14617" lon="1.9166">
        <ele>96</ele>
        <time>2023-11-29T12:52:37Z</time>
      </trkpt>
      <trkpt lat="49.14623" lon="1.91669">
        <ele>96</ele>
        <time>2023-11-29T12:52:43Z</time>
      </trkpt>
      <trkpt lat="49.14628" lon="1.91678">
        <ele>96</ele>
        <time>2023-11-29T12:52:49Z</time>
      </trkpt>
      <trkpt lat="49.14633" lon="1.91685">
        <ele>96</ele>
        <time>2023-11-29T12:52:54Z</time>
      </trkpt>
      <trkpt lat="49.14637" lon="1.91695">
        <ele>96</ele>
        <time>2023-11-29T12:53:00Z</time>
      </trkpt>
      <trkpt lat="49.14642" lon="1.91706">
        <ele>95.5</ele>
        <time>2023-11-29T12:53:06Z</time>
      </trkpt>
      <trkpt lat="49.14646" lon="1.91715">
        <ele>95.2</ele>
        <time>2023-11-29T12:53:11Z</time>
      </trkpt>
      <trkpt lat="49.14649" lon="1.91722">
        <ele>95</ele>
        <time>2023-11-29T12:53:16Z</time>
      </trkpt>
      <trkpt lat="49.14654" lon="1.91732">
        <ele>95</ele>
        <time>2023-11-29T12:53:22Z</time>
      </trkpt>
      <trkpt lat="49.14658" lon="1.9174">
        <ele>95</ele>
        <time>2023-11-29T12:53:27Z</time>
      </trkpt>
      <trkpt lat="49.14663" lon="1.91749">
        <ele>95</ele>
        <time>2023-11-29T12:53:33Z</time>
      </trkpt>
      <trkpt lat="49.14666" lon="1.91756">
        <ele>95</ele>
        <time>2023-11-29T12:53:39Z</time>
      </trkpt>
      <trkpt lat="49.14665" lon="1.91763">
        <ele>95</ele>
        <time>2023-11-29T12:53:45Z</time>
      </trkpt>
      <trkpt lat="49.14663" lon="1.91767">
        <ele>95</ele>
        <time>2023-11-29T12:53:50Z</time>
      </trkpt>
      <trkpt lat="49.14662" lon="1.91769">
        <ele>95</ele>
        <time>2023-11-29T12:53:56Z</time>
      </trkpt>
      <trkpt lat="49.1466" lon="1.91772">
        <ele>95</ele>
        <time>2023-11-29T12:54:01Z</time>
      </trkpt>
      <trkpt lat="49.14658" lon="1.91778">
        <ele>95</ele>
        <time>2023-11-29T12:54:07Z</time>
      </trkpt>
      <trkpt lat="49.14657" lon="1.91777">
        <ele>95</ele>
        <time>2023-11-29T12:54:12Z</time>
      </trkpt>
      <trkpt lat="49.14658" lon="1.91777">
        <ele>95</ele>
        <time>2023-11-29T12:54:18Z</time>
      </trkpt>
      <trkpt lat="49.14658" lon="1.91777">
        <ele>95</ele>
        <time>2023-11-29T12:54:24Z</time>
      </trkpt>
      <trkpt lat="49.14659" lon="1.91776">
        <ele>95</ele>
        <time>2023-11-29T12:54:30Z</time>
      </trkpt>
      <trkpt lat="49.14659" lon="1.91776">
        <ele>95</ele>
        <time>2023-11-29T12:54:36Z</time>
      </trkpt>
      <trkpt lat="49.14659" lon="1.91776">
        <ele>95</ele>
        <time>2023-11-29T12:54:41Z</time>
      </trkpt>
      <trkpt lat="49.14659" lon="1.91776">
        <ele>95</ele>
        <time>2023-11-29T12:54:47Z</time>
      </trkpt>
      <trkpt lat="49.14659" lon="1.91776">
        <ele>95</ele>
        <time>2023-11-29T12:54:52Z</time>
      </trkpt>
      <trkpt lat="49.14659" lon="1.91776">
        <ele>95</ele>
        <time>2023-11-29T12:54:58Z</time>
      </trkpt>
      <trkpt lat="49.14659" lon="1.91777">
        <ele>95</ele>
        <time>2023-11-29T12:55:03Z</time>
      </trkpt>
      <trkpt lat="49.14659" lon="1.91777">
        <ele>95</ele>
        <time>2023-11-29T12:55:09Z</time>
      </trkpt>
      <trkpt lat="49.14659" lon="1.91777">
        <ele>95</ele>
        <time>2023-11-29T12:55:14Z</time>
      </trkpt>
      <trkpt lat="49.14659" lon="1.91777">
        <ele>95</ele>
        <time>2023-11-29T12:55:20Z</time>
      </trkpt>
      <trkpt lat="49.14659" lon="1.91776">
        <ele>95</ele>
        <time>2023-11-29T12:55:25Z</time>
      </trkpt>
      <trkpt lat="49.14658" lon="1.91776">
        <ele>95</ele>
        <time>2023-11-29T12:55:31Z</time>
      </trkpt>
      <trkpt lat="49.14658" lon="1.91776">
        <ele>95</ele>
        <time>2023-11-29T12:55:36Z</time>
      </trkpt>
      <trkpt lat="49.14658" lon="1.91776">
        <ele>95</ele>
        <time>2023-11-29T12:55:41Z</time>
      </trkpt>
      <trkpt lat="49.14658" lon="1.91776">
        <ele>95</ele>
        <time>2023-11-29T12:55:47Z</time>
      </trkpt>
      <trkpt lat="49.14658" lon="1.91776">
        <ele>95</ele>
        <time>2023-11-29T12:55:52Z</time>
      </trkpt>
      <trkpt lat="49.14658" lon="1.91776">
        <ele>95</ele>
        <time>2023-11-29T12:55:58Z</time>
      </trkpt>
      <trkpt lat="49.14658" lon="1.91776">
        <ele>95</ele>
        <time>2023-11-29T12:56:03Z</time>
      </trkpt>
      <trkpt lat="49.14658" lon="1.91776">
        <ele>95</ele>
        <time>2023-11-29T12:56:09Z</time>
      </trkpt>
      <trkpt lat="49.14658" lon="1.91776">
        <ele>95</ele>
        <time>2023-11-29T12:56:14Z</time>
      </trkpt>
      <trkpt lat="49.14658" lon="1.9178">
        <ele>94.9</ele>
        <time>2023-11-29T12:56:20Z</time>
      </trkpt>
      <trkpt lat="49.14655" lon="1.91788">
        <ele>94.8</ele>
        <time>2023-11-29T12:56:25Z</time>
      </trkpt>
      <trkpt lat="49.14651" lon="1.91798">
        <ele>94.7</ele>
        <time>2023-11-29T12:56:30Z</time>
      </trkpt>
      <trkpt lat="49.14648" lon="1.91807">
        <ele>94.6</ele>
        <time>2023-11-29T12:56:36Z</time>
      </trkpt>
      <trkpt lat="49.14644" lon="1.91815">
        <ele>94.5</ele>
        <time>2023-11-29T12:56:41Z</time>
      </trkpt>
      <trkpt lat="49.1464" lon="1.91825">
        <ele>94.3</ele>
        <time>2023-11-29T12:56:47Z</time>
      </trkpt>
      <trkpt lat="49.14637" lon="1.91834">
        <ele>94</ele>
        <time>2023-11-29T12:56:53Z</time>
      </trkpt>
      <trkpt lat="49.14633" lon="1.91842">
        <ele>94</ele>
        <time>2023-11-29T12:56:59Z</time>
      </trkpt>
      <trkpt lat="49.14629" lon="1.91854">
        <ele>94</ele>
        <time>2023-11-29T12:57:05Z</time>
      </trkpt>
      <trkpt lat="49.14624" lon="1.91864">
        <ele>94</ele>
        <time>2023-11-29T12:57:10Z</time>
      </trkpt>
      <trkpt lat="49.14622" lon="1.91873">
        <ele>93.8</ele>
        <time>2023-11-29T12:57:15Z</time>
      </trkpt>
      <trkpt lat="49.14619" lon="1.91881">
        <ele>93.8</ele>
        <time>2023-11-29T12:57:20Z</time>
      </trkpt>
      <trkpt lat="49.14614" lon="1.91893">
        <ele>93.9</ele>
        <time>2023-11-29T12:57:26Z</time>
      </trkpt>
      <trkpt lat="49.14611" lon="1.91901">
        <ele>94</ele>
        <time>2023-11-29T12:57:31Z</time>
      </trkpt>
      <trkpt lat="49.14607" lon="1.9191">
        <ele>94</ele>
        <time>2023-11-29T12:57:37Z</time>
      </trkpt>
      <trkpt lat="49.14602" lon="1.91919">
        <ele>93.9</ele>
        <time>2023-11-29T12:57:42Z</time>
      </trkpt>
      <trkpt lat="49.14599" lon="1.91928">
        <ele>93.8</ele>
        <time>2023-11-29T12:57:47Z</time>
      </trkpt>
      <trkpt lat="49.14594" lon="1.9194">
        <ele>93.7</ele>
        <time>2023-11-29T12:57:53Z</time>
      </trkpt>
      <trkpt lat="49.14591" lon="1.91949">
        <ele>93.7</ele>
        <time>2023-11-29T12:57:58Z</time>
      </trkpt>
      <trkpt lat="49.14586" lon="1.91961">
        <ele>93.9</ele>
        <time>2023-11-29T12:58:04Z</time>
      </trkpt>
      <trkpt lat="49.14582" lon="1.91972">
        <ele>94.1</ele>
        <time>2023-11-29T12:58:09Z</time>
      </trkpt>
      <trkpt lat="49.14577" lon="1.91984">
        <ele>94.2</ele>
        <time>2023-11-29T12:58:15Z</time>
      </trkpt>
      <trkpt lat="49.14574" lon="1.91993">
        <ele>94.4</ele>
        <time>2023-11-29T12:58:20Z</time>
      </trkpt>
      <trkpt lat="49.14569" lon="1.92005">
        <ele>94.5</ele>
        <time>2023-11-29T12:58:26Z</time>
      </trkpt>
      <trkpt lat="49.14567" lon="1.92014">
        <ele>94.6</ele>
        <time>2023-11-29T12:58:31Z</time>
      </trkpt>
      <trkpt lat="49.14563" lon="1.92026">
        <ele>94.7</ele>
        <time>2023-11-29T12:58:37Z</time>
      </trkpt>
      <trkpt lat="49.14559" lon="1.92037">
        <ele>94.9</ele>
        <time>2023-11-29T12:58:42Z</time>
      </trkpt>
      <trkpt lat="49.14554" lon="1.92047">
        <ele>95</ele>
        <time>2023-11-29T12:58:47Z</time>
      </trkpt>
      <trkpt lat="49.14549" lon="1.92058">
        <ele>95</ele>
        <time>2023-11-29T12:58:53Z</time>
      </trkpt>
      <trkpt lat="49.14546" lon="1.92066">
        <ele>95</ele>
        <time>2023-11-29T12:58:58Z</time>
      </trkpt>
      <trkpt lat="49.14542" lon="1.92077">
        <ele>95</ele>
        <time>2023-11-29T12:59:04Z</time>
      </trkpt>
      <trkpt lat="49.14538" lon="1.92085">
        <ele>95</ele>
        <time>2023-11-29T12:59:09Z</time>
      </trkpt>
      <trkpt lat="49.14532" lon="1.92096">
        <ele>95</ele>
        <time>2023-11-29T12:59:15Z</time>
      </trkpt>
      <trkpt lat="49.14526" lon="1.9211">
        <ele>95</ele>
        <time>2023-11-29T12:59:21Z</time>
      </trkpt>
      <trkpt lat="49.14522" lon="1.92119">
        <ele>95</ele>
        <time>2023-11-29T12:59:26Z</time>
      </trkpt>
      <trkpt lat="49.14517" lon="1.92126">
        <ele>95</ele>
        <time>2023-11-29T12:59:31Z</time>
      </trkpt>
      <trkpt lat="49.14511" lon="1.92136">
        <ele>95</ele>
        <time>2023-11-29T12:59:37Z</time>
      </trkpt>
      <trkpt lat="49.14506" lon="1.92143">
        <ele>95</ele>
        <time>2023-11-29T12:59:42Z</time>
      </trkpt>
      <trkpt lat="49.14503" lon="1.9215">
        <ele>95</ele>
        <time>2023-11-29T12:59:47Z</time>
      </trkpt>
      <trkpt lat="49.145" lon="1.92158">
        <ele>95</ele>
        <time>2023-11-29T12:59:53Z</time>
      </trkpt>
      <trkpt lat="49.14495" lon="1.92165">
        <ele>95</ele>
        <time>2023-11-29T12:59:58Z</time>
      </trkpt>
      <trkpt lat="49.1449" lon="1.92175">
        <ele>95</ele>
        <time>2023-11-29T13:00:04Z</time>
      </trkpt>
      <trkpt lat="49.14486" lon="1.92182">
        <ele>95</ele>
        <time>2023-11-29T13:00:09Z</time>
      </trkpt>
      <trkpt lat="49.1448" lon="1.92189">
        <ele>95</ele>
        <time>2023-11-29T13:00:15Z</time>
      </trkpt>
      <trkpt lat="49.14476" lon="1.92196">
        <ele>95</ele>
        <time>2023-11-29T13:00:20Z</time>
      </trkpt>
      <trkpt lat="49.1447" lon="1.92205">
        <ele>95</ele>
        <time>2023-11-29T13:00:26Z</time>
      </trkpt>
      <trkpt lat="49.14465" lon="1.92214">
        <ele>95</ele>
        <time>2023-11-29T13:00:32Z</time>
      </trkpt>
      <trkpt lat="49.14461" lon="1.9222">
        <ele>95</ele>
        <time>2023-11-29T13:00:37Z</time>
      </trkpt>
      <trkpt lat="49.14456" lon="1.92228">
        <ele>95</ele>
        <time>2023-11-29T13:00:42Z</time>
      </trkpt>
      <trkpt lat="49.1445" lon="1.92237">
        <ele>95</ele>
        <time>2023-11-29T13:00:47Z</time>
      </trkpt>
      <trkpt lat="49.14444" lon="1.92246">
        <ele>95</ele>
        <time>2023-11-29T13:00:53Z</time>
      </trkpt>
      <trkpt lat="49.14439" lon="1.92256">
        <ele>95</ele>
        <time>2023-11-29T13:00:59Z</time>
      </trkpt>
      <trkpt lat="49.14435" lon="1.92263">
        <ele>95.2</ele>
        <time>2023-11-29T13:01:04Z</time>
      </trkpt>
      <trkpt lat="49.14428" lon="1.92272">
        <ele>95.5</ele>
        <time>2023-11-29T13:01:10Z</time>
      </trkpt>
      <trkpt lat="49.14423" lon="1.92281">
        <ele>95.7</ele>
        <time>2023-11-29T13:01:15Z</time>
      </trkpt>
      <trkpt lat="49.14416" lon="1.92291">
        <ele>95.5</ele>
        <time>2023-11-29T13:01:21Z</time>
      </trkpt>
      <trkpt lat="49.1441" lon="1.923">
        <ele>95.4</ele>
        <time>2023-11-29T13:01:26Z</time>
      </trkpt>
      <trkpt lat="49.14404" lon="1.9231">
        <ele>95.5</ele>
        <time>2023-11-29T13:01:32Z</time>
      </trkpt>
      <trkpt lat="49.144" lon="1.92318">
        <ele>95.6</ele>
        <time>2023-11-29T13:01:37Z</time>
      </trkpt>
      <trkpt lat="49.14395" lon="1.92326">
        <ele>95.8</ele>
        <time>2023-11-29T13:01:43Z</time>
      </trkpt>
      <trkpt lat="49.14389" lon="1.92335">
        <ele>95.9</ele>
        <time>2023-11-29T13:01:49Z</time>
      </trkpt>
      <trkpt lat="49.14384" lon="1.92344">
        <ele>95.7</ele>
        <time>2023-11-29T13:01:55Z</time>
      </trkpt>
      <trkpt lat="49.14381" lon="1.92352">
        <ele>95.5</ele>
        <time>2023-11-29T13:02:01Z</time>
      </trkpt>
      <trkpt lat="49.14377" lon="1.92359">
        <ele>95.5</ele>
        <time>2023-11-29T13:02:06Z</time>
      </trkpt>
      <trkpt lat="49.1437" lon="1.9237">
        <ele>95.7</ele>
        <time>2023-11-29T13:02:12Z</time>
      </trkpt>
      <trkpt lat="49.14365" lon="1.92379">
        <ele>95.8</ele>
        <time>2023-11-29T13:02:17Z</time>
      </trkpt>
      <trkpt lat="49.14361" lon="1.92388">
        <ele>96</ele>
        <time>2023-11-29T13:02:22Z</time>
      </trkpt>
      <trkpt lat="49.14356" lon="1.92398">
        <ele>95.7</ele>
        <time>2023-11-29T13:02:28Z</time>
      </trkpt>
      <trkpt lat="49.14352" lon="1.92406">
        <ele>95.6</ele>
        <time>2023-11-29T13:02:34Z</time>
      </trkpt>
      <trkpt lat="49.14348" lon="1.92413">
        <ele>95.5</ele>
        <time>2023-11-29T13:02:39Z</time>
      </trkpt>
      <trkpt lat="49.14344" lon="1.92422">
        <ele>95.6</ele>
        <time>2023-11-29T13:02:45Z</time>
      </trkpt>
      <trkpt lat="49.1434" lon="1.92434">
        <ele>95.8</ele>
        <time>2023-11-29T13:02:51Z</time>
      </trkpt>
      <trkpt lat="49.14335" lon="1.92443">
        <ele>96</ele>
        <time>2023-11-29T13:02:57Z</time>
      </trkpt>
      <trkpt lat="49.1433" lon="1.92451">
        <ele>95.8</ele>
        <time>2023-11-29T13:03:02Z</time>
      </trkpt>
      <trkpt lat="49.14325" lon="1.92462">
        <ele>95.6</ele>
        <time>2023-11-29T13:03:08Z</time>
      </trkpt>
      <trkpt lat="49.14321" lon="1.92469">
        <ele>95.5</ele>
        <time>2023-11-29T13:03:13Z</time>
      </trkpt>
      <trkpt lat="49.14317" lon="1.92477">
        <ele>95.5</ele>
        <time>2023-11-29T13:03:18Z</time>
      </trkpt>
      <trkpt lat="49.14311" lon="1.92488">
        <ele>95.4</ele>
        <time>2023-11-29T13:03:24Z</time>
      </trkpt>
      <trkpt lat="49.14307" lon="1.92496">
        <ele>95.1</ele>
        <time>2023-11-29T13:03:29Z</time>
      </trkpt>
      <trkpt lat="49.14301" lon="1.92507">
        <ele>95.2</ele>
        <time>2023-11-29T13:03:35Z</time>
      </trkpt>
      <trkpt lat="49.14295" lon="1.92518">
        <ele>95.4</ele>
        <time>2023-11-29T13:03:41Z</time>
      </trkpt>
      <trkpt lat="49.1429" lon="1.92526">
        <ele>95.6</ele>
        <time>2023-11-29T13:03:46Z</time>
      </trkpt>
      <trkpt lat="49.14284" lon="1.92535">
        <ele>95.8</ele>
        <time>2023-11-29T13:03:52Z</time>
      </trkpt>
      <trkpt lat="49.1428" lon="1.92543">
        <ele>95.9</ele>
        <time>2023-11-29T13:03:58Z</time>
      </trkpt>
      <trkpt lat="49.14274" lon="1.92553">
        <ele>96</ele>
        <time>2023-11-29T13:04:04Z</time>
      </trkpt>
      <trkpt lat="49.1427" lon="1.92562">
        <ele>95.8</ele>
        <time>2023-11-29T13:04:10Z</time>
      </trkpt>
      <trkpt lat="49.14265" lon="1.92574">
        <ele>95.6</ele>
        <time>2023-11-29T13:04:16Z</time>
      </trkpt>
      <trkpt lat="49.14261" lon="1.92583">
        <ele>95.6</ele>
        <time>2023-11-29T13:04:21Z</time>
      </trkpt>
      <trkpt lat="49.14257" lon="1.92594">
        <ele>95.7</ele>
        <time>2023-11-29T13:04:27Z</time>
      </trkpt>
      <trkpt lat="49.14254" lon="1.92603">
        <ele>95.9</ele>
        <time>2023-11-29T13:04:33Z</time>
      </trkpt>
      <trkpt lat="49.14249" lon="1.9261">
        <ele>96</ele>
        <time>2023-11-29T13:04:38Z</time>
      </trkpt>
      <trkpt lat="49.14246" lon="1.92619">
        <ele>95.8</ele>
        <time>2023-11-29T13:04:44Z</time>
      </trkpt>
      <trkpt lat="49.14241" lon="1.9263">
        <ele>95.5</ele>
        <time>2023-11-29T13:04:50Z</time>
      </trkpt>
      <trkpt lat="49.14235" lon="1.92641">
        <ele>95.5</ele>
        <time>2023-11-29T13:04:56Z</time>
      </trkpt>
      <trkpt lat="49.1423" lon="1.92648">
        <ele>95.7</ele>
        <time>2023-11-29T13:05:01Z</time>
      </trkpt>
      <trkpt lat="49.14224" lon="1.92659">
        <ele>95.9</ele>
        <time>2023-11-29T13:05:07Z</time>
      </trkpt>
      <trkpt lat="49.1422" lon="1.92665">
        <ele>96</ele>
        <time>2023-11-29T13:05:12Z</time>
      </trkpt>
      <trkpt lat="49.14213" lon="1.92677">
        <ele>95.7</ele>
        <time>2023-11-29T13:05:18Z</time>
      </trkpt>
      <trkpt lat="49.1421" lon="1.92687">
        <ele>95.6</ele>
        <time>2023-11-29T13:05:23Z</time>
      </trkpt>
      <trkpt lat="49.14204" lon="1.92698">
        <ele>95.7</ele>
        <time>2023-11-29T13:05:29Z</time>
      </trkpt>
      <trkpt lat="49.14199" lon="1.92708">
        <ele>95.8</ele>
        <time>2023-11-29T13:05:35Z</time>
      </trkpt>
      <trkpt lat="49.14194" lon="1.92716">
        <ele>96</ele>
        <time>2023-11-29T13:05:40Z</time>
      </trkpt>
      <trkpt lat="49.14191" lon="1.92724">
        <ele>95.9</ele>
        <time>2023-11-29T13:05:45Z</time>
      </trkpt>
      <trkpt lat="49.14187" lon="1.92733">
        <ele>95.6</ele>
        <time>2023-11-29T13:05:51Z</time>
      </trkpt>
      <trkpt lat="49.14183" lon="1.92742">
        <ele>95.3</ele>
        <time>2023-11-29T13:05:56Z</time>
      </trkpt>
      <trkpt lat="49.14178" lon="1.92753">
        <ele>95</ele>
        <time>2023-11-29T13:06:02Z</time>
      </trkpt>
      <trkpt lat="49.14174" lon="1.92764">
        <ele>95</ele>
        <time>2023-11-29T13:06:07Z</time>
      </trkpt>
      <trkpt lat="49.14169" lon="1.92773">
        <ele>95</ele>
        <time>2023-11-29T13:06:13Z</time>
      </trkpt>
      <trkpt lat="49.14166" lon="1.9278">
        <ele>94.9</ele>
        <time>2023-11-29T13:06:18Z</time>
      </trkpt>
      <trkpt lat="49.14163" lon="1.92788">
        <ele>94.7</ele>
        <time>2023-11-29T13:06:23Z</time>
      </trkpt>
      <trkpt lat="49.14157" lon="1.928">
        <ele>94.5</ele>
        <time>2023-11-29T13:06:29Z</time>
      </trkpt>
      <trkpt lat="49.14151" lon="1.92809">
        <ele>94.5</ele>
        <time>2023-11-29T13:06:35Z</time>
      </trkpt>
      <trkpt lat="49.14147" lon="1.92817">
        <ele>94.4</ele>
        <time>2023-11-29T13:06:40Z</time>
      </trkpt>
      <trkpt lat="49.14143" lon="1.92825">
        <ele>94.3</ele>
        <time>2023-11-29T13:06:45Z</time>
      </trkpt>
      <trkpt lat="49.14137" lon="1.92834">
        <ele>94</ele>
        <time>2023-11-29T13:06:51Z</time>
      </trkpt>
      <trkpt lat="49.14132" lon="1.92841">
        <ele>94</ele>
        <time>2023-11-29T13:06:56Z</time>
      </trkpt>
      <trkpt lat="49.14126" lon="1.92851">
        <ele>94</ele>
        <time>2023-11-29T13:07:02Z</time>
      </trkpt>
      <trkpt lat="49.14121" lon="1.92858">
        <ele>94</ele>
        <time>2023-11-29T13:07:07Z</time>
      </trkpt>
      <trkpt lat="49.14114" lon="1.9287">
        <ele>93.7</ele>
        <time>2023-11-29T13:07:13Z</time>
      </trkpt>
      <trkpt lat="49.1411" lon="1.92878">
        <ele>93.4</ele>
        <time>2023-11-29T13:07:18Z</time>
      </trkpt>
      <trkpt lat="49.14104" lon="1.92886">
        <ele>93.3</ele>
        <time>2023-11-29T13:07:24Z</time>
      </trkpt>
      <trkpt lat="49.14098" lon="1.92894">
        <ele>93.4</ele>
        <time>2023-11-29T13:07:29Z</time>
      </trkpt>
      <trkpt lat="49.14092" lon="1.92901">
        <ele>93.4</ele>
        <time>2023-11-29T13:07:35Z</time>
      </trkpt>
      <trkpt lat="49.14086" lon="1.92909">
        <ele>93.3</ele>
        <time>2023-11-29T13:07:40Z</time>
      </trkpt>
      <trkpt lat="49.14078" lon="1.92918">
        <ele>93</ele>
        <time>2023-11-29T13:07:46Z</time>
      </trkpt>
      <trkpt lat="49.14072" lon="1.92928">
        <ele>92.8</ele>
        <time>2023-11-29T13:07:52Z</time>
      </trkpt>
      <trkpt lat="49.14067" lon="1.92936">
        <ele>92.7</ele>
        <time>2023-11-29T13:07:57Z</time>
      </trkpt>
      <trkpt lat="49.14061" lon="1.92944">
        <ele>92.8</ele>
        <time>2023-11-29T13:08:03Z</time>
      </trkpt>
      <trkpt lat="49.14055" lon="1.92953">
        <ele>92.7</ele>
        <time>2023-11-29T13:08:08Z</time>
      </trkpt>
      <trkpt lat="49.1405" lon="1.92962">
        <ele>92.4</ele>
        <time>2023-11-29T13:08:13Z</time>
      </trkpt>
      <trkpt lat="49.14044" lon="1.92972">
        <ele>92</ele>
        <time>2023-11-29T13:08:19Z</time>
      </trkpt>
      <trkpt lat="49.14039" lon="1.92981">
        <ele>91.9</ele>
        <time>2023-11-29T13:08:24Z</time>
      </trkpt>
      <trkpt lat="49.14033" lon="1.92988">
        <ele>91.9</ele>
        <time>2023-11-29T13:08:30Z</time>
      </trkpt>
      <trkpt lat="49.14028" lon="1.92996">
        <ele>92</ele>
        <time>2023-11-29T13:08:35Z</time>
      </trkpt>
      <trkpt lat="49.14023" lon="1.93004">
        <ele>91.9</ele>
        <time>2023-11-29T13:08:41Z</time>
      </trkpt>
      <trkpt lat="49.14017" lon="1.93012">
        <ele>91.7</ele>
        <time>2023-11-29T13:08:46Z</time>
      </trkpt>
      <trkpt lat="49.1401" lon="1.93023">
        <ele>91.7</ele>
        <time>2023-11-29T13:08:52Z</time>
      </trkpt>
      <trkpt lat="49.14006" lon="1.93034">
        <ele>91.6</ele>
        <time>2023-11-29T13:08:57Z</time>
      </trkpt>
      <trkpt lat="49.14002" lon="1.93044">
        <ele>91.4</ele>
        <time>2023-11-29T13:09:03Z</time>
      </trkpt>
      <trkpt lat="49.13998" lon="1.93052">
        <ele>91.1</ele>
        <time>2023-11-29T13:09:08Z</time>
      </trkpt>
      <trkpt lat="49.13994" lon="1.93063">
        <ele>90.8</ele>
        <time>2023-11-29T13:09:14Z</time>
      </trkpt>
      <trkpt lat="49.13991" lon="1.93071">
        <ele>90.6</ele>
        <time>2023-11-29T13:09:19Z</time>
      </trkpt>
      <trkpt lat="49.13985" lon="1.93084">
        <ele>90.5</ele>
        <time>2023-11-29T13:09:25Z</time>
      </trkpt>
      <trkpt lat="49.13981" lon="1.93094">
        <ele>90.3</ele>
        <time>2023-11-29T13:09:30Z</time>
      </trkpt>
      <trkpt lat="49.13976" lon="1.93105">
        <ele>90.1</ele>
        <time>2023-11-29T13:09:36Z</time>
      </trkpt>
      <trkpt lat="49.13972" lon="1.93115">
        <ele>89.7</ele>
        <time>2023-11-29T13:09:41Z</time>
      </trkpt>
      <trkpt lat="49.13966" lon="1.93126">
        <ele>89.1</ele>
        <time>2023-11-29T13:09:47Z</time>
      </trkpt>
      <trkpt lat="49.13962" lon="1.93135">
        <ele>88.6</ele>
        <time>2023-11-29T13:09:52Z</time>
      </trkpt>
      <trkpt lat="49.13957" lon="1.93144">
        <ele>88.5</ele>
        <time>2023-11-29T13:09:58Z</time>
      </trkpt>
      <trkpt lat="49.13952" lon="1.93152">
        <ele>88.4</ele>
        <time>2023-11-29T13:10:03Z</time>
      </trkpt>
      <trkpt lat="49.13947" lon="1.93161">
        <ele>88.2</ele>
        <time>2023-11-29T13:10:08Z</time>
      </trkpt>
      <trkpt lat="49.13942" lon="1.93168">
        <ele>88.1</ele>
        <time>2023-11-29T13:10:14Z</time>
      </trkpt>
      <trkpt lat="49.13938" lon="1.93174">
        <ele>87.9</ele>
        <time>2023-11-29T13:10:19Z</time>
      </trkpt>
      <trkpt lat="49.13933" lon="1.93185">
        <ele>87.8</ele>
        <time>2023-11-29T13:10:25Z</time>
      </trkpt>
      <trkpt lat="49.13928" lon="1.93195">
        <ele>87.5</ele>
        <time>2023-11-29T13:10:30Z</time>
      </trkpt>
      <trkpt lat="49.13924" lon="1.93205">
        <ele>87.3</ele>
        <time>2023-11-29T13:10:36Z</time>
      </trkpt>
      <trkpt lat="49.13919" lon="1.93211">
        <ele>87.3</ele>
        <time>2023-11-29T13:10:41Z</time>
      </trkpt>
      <trkpt lat="49.13914" lon="1.93219">
        <ele>87.2</ele>
        <time>2023-11-29T13:10:47Z</time>
      </trkpt>
      <trkpt lat="49.1391" lon="1.93228">
        <ele>86.8</ele>
        <time>2023-11-29T13:10:52Z</time>
      </trkpt>
      <trkpt lat="49.13908" lon="1.93239">
        <ele>86.3</ele>
        <time>2023-11-29T13:10:57Z</time>
      </trkpt>
      <trkpt lat="49.13903" lon="1.93249">
        <ele>86</ele>
        <time>2023-11-29T13:11:03Z</time>
      </trkpt>
      <trkpt lat="49.139" lon="1.93258">
        <ele>85.9</ele>
        <time>2023-11-29T13:11:08Z</time>
      </trkpt>
      <trkpt lat="49.13895" lon="1.93268">
        <ele>85.9</ele>
        <time>2023-11-29T13:11:13Z</time>
      </trkpt>
      <trkpt lat="49.13889" lon="1.93278">
        <ele>86</ele>
        <time>2023-11-29T13:11:19Z</time>
      </trkpt>
      <trkpt lat="49.13886" lon="1.93288">
        <ele>85.4</ele>
        <time>2023-11-29T13:11:24Z</time>
      </trkpt>
      <trkpt lat="49.13882" lon="1.93297">
        <ele>85</ele>
        <time>2023-11-29T13:11:29Z</time>
      </trkpt>
      <trkpt lat="49.1388" lon="1.93307">
        <ele>84.6</ele>
        <time>2023-11-29T13:11:35Z</time>
      </trkpt>
      <trkpt lat="49.13877" lon="1.93316">
        <ele>84.5</ele>
        <time>2023-11-29T13:11:40Z</time>
      </trkpt>
      <trkpt lat="49.13873" lon="1.93328">
        <ele>84.3</ele>
        <time>2023-11-29T13:11:46Z</time>
      </trkpt>
      <trkpt lat="49.1387" lon="1.9334">
        <ele>83.9</ele>
        <time>2023-11-29T13:11:52Z</time>
      </trkpt>
      <trkpt lat="49.13866" lon="1.93347">
        <ele>83.7</ele>
        <time>2023-11-29T13:11:58Z</time>
      </trkpt>
      <trkpt lat="49.13863" lon="1.93348">
        <ele>83.8</ele>
        <time>2023-11-29T13:12:04Z</time>
      </trkpt>
      <trkpt lat="49.13863" lon="1.93347">
        <ele>83.9</ele>
        <time>2023-11-29T13:12:09Z</time>
      </trkpt>
      <trkpt lat="49.13863" lon="1.93347">
        <ele>83.9</ele>
        <time>2023-11-29T13:12:14Z</time>
      </trkpt>
      <trkpt lat="49.13863" lon="1.93346">
        <ele>84</ele>
        <time>2023-11-29T13:12:19Z</time>
      </trkpt>
      <trkpt lat="49.13863" lon="1.93346">
        <ele>84</ele>
        <time>2023-11-29T13:12:25Z</time>
      </trkpt>
      <trkpt lat="49.13862" lon="1.93346">
        <ele>84</ele>
        <time>2023-11-29T13:12:30Z</time>
      </trkpt>
      <trkpt lat="49.13862" lon="1.93346">
        <ele>84</ele>
        <time>2023-11-29T13:12:36Z</time>
      </trkpt>
      <trkpt lat="49.13862" lon="1.93346">
        <ele>84</ele>
        <time>2023-11-29T13:12:41Z</time>
      </trkpt>
      <trkpt lat="49.13862" lon="1.93345">
        <ele>84.1</ele>
        <time>2023-11-29T13:12:47Z</time>
      </trkpt>
      <trkpt lat="49.13862" lon="1.93346">
        <ele>84</ele>
        <time>2023-11-29T13:12:53Z</time>
      </trkpt>
      <trkpt lat="49.13862" lon="1.93346">
        <ele>84</ele>
        <time>2023-11-29T13:12:59Z</time>
      </trkpt>
      <trkpt lat="49.13862" lon="1.93346">
        <ele>84</ele>
        <time>2023-11-29T13:13:04Z</time>
      </trkpt>
      <trkpt lat="49.13861" lon="1.93347">
        <ele>84</ele>
        <time>2023-11-29T13:13:09Z</time>
      </trkpt>
      <trkpt lat="49.13861" lon="1.93347">
        <ele>84</ele>
        <time>2023-11-29T13:13:15Z</time>
      </trkpt>
      <trkpt lat="49.13861" lon="1.93347">
        <ele>84</ele>
        <time>2023-11-29T13:13:21Z</time>
      </trkpt>
      <trkpt lat="49.13861" lon="1.93347">
        <ele>84</ele>
        <time>2023-11-29T13:13:26Z</time>
      </trkpt>
      <trkpt lat="49.13859" lon="1.93347">
        <ele>84.2</ele>
        <time>2023-11-29T13:13:31Z</time>
      </trkpt>
      <trkpt lat="49.13859" lon="1.93347">
        <ele>84.2</ele>
        <time>2023-11-29T13:13:37Z</time>
      </trkpt>
      <trkpt lat="49.13859" lon="1.93347">
        <ele>84.2</ele>
        <time>2023-11-29T13:13:43Z</time>
      </trkpt>
      <trkpt lat="49.13859" lon="1.93347">
        <ele>84.2</ele>
        <time>2023-11-29T13:13:49Z</time>
      </trkpt>
      <trkpt lat="49.13859" lon="1.93347">
        <ele>84.2</ele>
        <time>2023-11-29T13:13:55Z</time>
      </trkpt>
      <trkpt lat="49.13859" lon="1.93347">
        <ele>84.2</ele>
        <time>2023-11-29T13:14:00Z</time>
      </trkpt>
      <trkpt lat="49.13859" lon="1.93347">
        <ele>84.2</ele>
        <time>2023-11-29T13:14:05Z</time>
      </trkpt>
      <trkpt lat="49.13859" lon="1.93347">
        <ele>84.2</ele>
        <time>2023-11-29T13:14:11Z</time>
      </trkpt>
      <trkpt lat="49.13859" lon="1.93347">
        <ele>84.2</ele>
        <time>2023-11-29T13:14:16Z</time>
      </trkpt>
      <trkpt lat="49.13859" lon="1.93347">
        <ele>84.2</ele>
        <time>2023-11-29T13:14:22Z</time>
      </trkpt>
      <trkpt lat="49.13859" lon="1.93347">
        <ele>84.2</ele>
        <time>2023-11-29T13:14:28Z</time>
      </trkpt>
      <trkpt lat="49.13859" lon="1.93347">
        <ele>84.2</ele>
        <time>2023-11-29T13:14:33Z</time>
      </trkpt>
      <trkpt lat="49.1386" lon="1.93346">
        <ele>84.2</ele>
        <time>2023-11-29T13:14:39Z</time>
      </trkpt>
      <trkpt lat="49.1386" lon="1.93346">
        <ele>84.2</ele>
        <time>2023-11-29T13:14:44Z</time>
      </trkpt>
      <trkpt lat="49.1386" lon="1.93346">
        <ele>84.2</ele>
        <time>2023-11-29T13:14:50Z</time>
      </trkpt>
      <trkpt lat="49.1386" lon="1.93351">
        <ele>83.8</ele>
        <time>2023-11-29T13:14:55Z</time>
      </trkpt>
      <trkpt lat="49.13858" lon="1.93358">
        <ele>83.5</ele>
        <time>2023-11-29T13:15:01Z</time>
      </trkpt>
      <trkpt lat="49.13857" lon="1.93362">
        <ele>83.5</ele>
        <time>2023-11-29T13:15:06Z</time>
      </trkpt>
      <trkpt lat="49.13853" lon="1.93367">
        <ele>83.7</ele>
        <time>2023-11-29T13:15:12Z</time>
      </trkpt>
      <trkpt lat="49.13849" lon="1.93376">
        <ele>83.8</ele>
        <time>2023-11-29T13:15:18Z</time>
      </trkpt>
      <trkpt lat="49.13848" lon="1.93382">
        <ele>83.7</ele>
        <time>2023-11-29T13:15:23Z</time>
      </trkpt>
      <trkpt lat="49.13846" lon="1.93387">
        <ele>83.7</ele>
        <time>2023-11-29T13:15:28Z</time>
      </trkpt>
      <trkpt lat="49.13842" lon="1.93396">
        <ele>83.4</ele>
        <time>2023-11-29T13:15:33Z</time>
      </trkpt>
      <trkpt lat="49.13837" lon="1.93404">
        <ele>83.4</ele>
        <time>2023-11-29T13:15:38Z</time>
      </trkpt>
      <trkpt lat="49.13834" lon="1.93413">
        <ele>83.3</ele>
        <time>2023-11-29T13:15:44Z</time>
      </trkpt>
      <trkpt lat="49.13829" lon="1.93423">
        <ele>82.7</ele>
        <time>2023-11-29T13:15:50Z</time>
      </trkpt>
      <trkpt lat="49.13825" lon="1.93431">
        <ele>82.2</ele>
        <time>2023-11-29T13:15:55Z</time>
      </trkpt>
      <trkpt lat="49.13821" lon="1.93442">
        <ele>81.6</ele>
        <time>2023-11-29T13:16:01Z</time>
      </trkpt>
      <trkpt lat="49.13818" lon="1.93449">
        <ele>81.3</ele>
        <time>2023-11-29T13:16:06Z</time>
      </trkpt>
      <trkpt lat="49.13813" lon="1.93457">
        <ele>81.1</ele>
        <time>2023-11-29T13:16:11Z</time>
      </trkpt>
      <trkpt lat="49.13806" lon="1.93467">
        <ele>81.3</ele>
        <time>2023-11-29T13:16:17Z</time>
      </trkpt>
      <trkpt lat="49.13803" lon="1.93473">
        <ele>81.3</ele>
        <time>2023-11-29T13:16:22Z</time>
      </trkpt>
      <trkpt lat="49.13799" lon="1.9348">
        <ele>80.7</ele>
        <time>2023-11-29T13:16:27Z</time>
      </trkpt>
      <trkpt lat="49.13792" lon="1.9349">
        <ele>80.3</ele>
        <time>2023-11-29T13:16:33Z</time>
      </trkpt>
      <trkpt lat="49.13787" lon="1.93497">
        <ele>80</ele>
        <time>2023-11-29T13:16:39Z</time>
      </trkpt>
      <trkpt lat="49.13781" lon="1.93507">
        <ele>79.7</ele>
        <time>2023-11-29T13:16:45Z</time>
      </trkpt>
      <trkpt lat="49.13778" lon="1.93513">
        <ele>79.6</ele>
        <time>2023-11-29T13:16:50Z</time>
      </trkpt>
      <trkpt lat="49.13774" lon="1.93523">
        <ele>79.1</ele>
        <time>2023-11-29T13:16:56Z</time>
      </trkpt>
      <trkpt lat="49.13768" lon="1.93533">
        <ele>78.9</ele>
        <time>2023-11-29T13:17:02Z</time>
      </trkpt>
      <trkpt lat="49.13761" lon="1.93541">
        <ele>79.1</ele>
        <time>2023-11-29T13:17:07Z</time>
      </trkpt>
      <trkpt lat="49.13754" lon="1.93553">
        <ele>79.4</ele>
        <time>2023-11-29T13:17:13Z</time>
      </trkpt>
      <trkpt lat="49.13748" lon="1.93563">
        <ele>79.2</ele>
        <time>2023-11-29T13:17:19Z</time>
      </trkpt>
      <trkpt lat="49.13742" lon="1.93573">
        <ele>78.7</ele>
        <time>2023-11-29T13:17:24Z</time>
      </trkpt>
      <trkpt lat="49.13739" lon="1.93582">
        <ele>78.2</ele>
        <time>2023-11-29T13:17:30Z</time>
      </trkpt>
      <trkpt lat="49.13736" lon="1.93589">
        <ele>77.7</ele>
        <time>2023-11-29T13:17:35Z</time>
      </trkpt>
      <trkpt lat="49.1373" lon="1.93597">
        <ele>77.8</ele>
        <time>2023-11-29T13:17:41Z</time>
      </trkpt>
      <trkpt lat="49.13726" lon="1.93608">
        <ele>77.6</ele>
        <time>2023-11-29T13:17:46Z</time>
      </trkpt>
      <trkpt lat="49.13721" lon="1.93619">
        <ele>77.2</ele>
        <time>2023-11-29T13:17:52Z</time>
      </trkpt>
      <trkpt lat="49.13717" lon="1.93628">
        <ele>76.5</ele>
        <time>2023-11-29T13:17:58Z</time>
      </trkpt>
      <trkpt lat="49.13714" lon="1.93634">
        <ele>76.3</ele>
        <time>2023-11-29T13:18:04Z</time>
      </trkpt>
      <trkpt lat="49.13708" lon="1.93644">
        <ele>76.3</ele>
        <time>2023-11-29T13:18:10Z</time>
      </trkpt>
      <trkpt lat="49.13702" lon="1.93654">
        <ele>75.9</ele>
        <time>2023-11-29T13:18:16Z</time>
      </trkpt>
      <trkpt lat="49.13696" lon="1.93666">
        <ele>75.8</ele>
        <time>2023-11-29T13:18:21Z</time>
      </trkpt>
      <trkpt lat="49.13689" lon="1.93677">
        <ele>75.3</ele>
        <time>2023-11-29T13:18:27Z</time>
      </trkpt>
      <trkpt lat="49.13685" lon="1.93683">
        <ele>75.2</ele>
        <time>2023-11-29T13:18:32Z</time>
      </trkpt>
      <trkpt lat="49.13679" lon="1.93691">
        <ele>75.5</ele>
        <time>2023-11-29T13:18:38Z</time>
      </trkpt>
      <trkpt lat="49.13672" lon="1.93701">
        <ele>76.4</ele>
        <time>2023-11-29T13:18:43Z</time>
      </trkpt>
      <trkpt lat="49.13668" lon="1.93714">
        <ele>77</ele>
        <time>2023-11-29T13:18:49Z</time>
      </trkpt>
      <trkpt lat="49.13668" lon="1.93725">
        <ele>76.5</ele>
        <time>2023-11-29T13:18:54Z</time>
      </trkpt>
      <trkpt lat="49.13669" lon="1.93736">
        <ele>75.4</ele>
        <time>2023-11-29T13:18:59Z</time>
      </trkpt>
      <trkpt lat="49.13667" lon="1.9375">
        <ele>75</ele>
        <time>2023-11-29T13:19:05Z</time>
      </trkpt>
      <trkpt lat="49.13665" lon="1.93761">
        <ele>74.4</ele>
        <time>2023-11-29T13:19:10Z</time>
      </trkpt>
      <trkpt lat="49.13661" lon="1.93773">
        <ele>74</ele>
        <time>2023-11-29T13:19:16Z</time>
      </trkpt>
      <trkpt lat="49.13658" lon="1.93784">
        <ele>73.3</ele>
        <time>2023-11-29T13:19:21Z</time>
      </trkpt>
      <trkpt lat="49.13655" lon="1.93795">
        <ele>72.7</ele>
        <time>2023-11-29T13:19:27Z</time>
      </trkpt>
      <trkpt lat="49.13652" lon="1.93807">
        <ele>72</ele>
        <time>2023-11-29T13:19:32Z</time>
      </trkpt>
      <trkpt lat="49.13651" lon="1.9382">
        <ele>71.5</ele>
        <time>2023-11-29T13:19:38Z</time>
      </trkpt>
      <trkpt lat="49.13649" lon="1.93832">
        <ele>71.2</ele>
        <time>2023-11-29T13:19:44Z</time>
      </trkpt>
      <trkpt lat="49.13646" lon="1.93843">
        <ele>71.1</ele>
        <time>2023-11-29T13:19:50Z</time>
      </trkpt>
      <trkpt lat="49.13643" lon="1.93854">
        <ele>70.8</ele>
        <time>2023-11-29T13:19:55Z</time>
      </trkpt>
      <trkpt lat="49.1364" lon="1.93867">
        <ele>70.3</ele>
        <time>2023-11-29T13:20:01Z</time>
      </trkpt>
      <trkpt lat="49.13639" lon="1.93878">
        <ele>69.8</ele>
        <time>2023-11-29T13:20:06Z</time>
      </trkpt>
      <trkpt lat="49.13637" lon="1.93887">
        <ele>69.3</ele>
        <time>2023-11-29T13:20:11Z</time>
      </trkpt>
      <trkpt lat="49.13635" lon="1.93901">
        <ele>68.2</ele>
        <time>2023-11-29T13:20:17Z</time>
      </trkpt>
      <trkpt lat="49.13632" lon="1.93913">
        <ele>67.5</ele>
        <time>2023-11-29T13:20:23Z</time>
      </trkpt>
      <trkpt lat="49.13629" lon="1.93926">
        <ele>67</ele>
        <time>2023-11-29T13:20:29Z</time>
      </trkpt>
      <trkpt lat="49.13626" lon="1.93941">
        <ele>66.2</ele>
        <time>2023-11-29T13:20:35Z</time>
      </trkpt>
      <trkpt lat="49.13624" lon="1.93952">
        <ele>65.6</ele>
        <time>2023-11-29T13:20:40Z</time>
      </trkpt>
      <trkpt lat="49.13622" lon="1.93965">
        <ele>65</ele>
        <time>2023-11-29T13:20:46Z</time>
      </trkpt>
      <trkpt lat="49.1362" lon="1.93975">
        <ele>64.5</ele>
        <time>2023-11-29T13:20:51Z</time>
      </trkpt>
      <trkpt lat="49.13615" lon="1.93987">
        <ele>64.2</ele>
        <time>2023-11-29T13:20:57Z</time>
      </trkpt>
      <trkpt lat="49.13611" lon="1.93995">
        <ele>64.4</ele>
        <time>2023-11-29T13:21:02Z</time>
      </trkpt>
      <trkpt lat="49.13605" lon="1.94004">
        <ele>63.4</ele>
        <time>2023-11-29T13:21:08Z</time>
      </trkpt>
      <trkpt lat="49.13599" lon="1.94011">
        <ele>62.5</ele>
        <time>2023-11-29T13:21:13Z</time>
      </trkpt>
      <trkpt lat="49.13593" lon="1.94019">
        <ele>61.7</ele>
        <time>2023-11-29T13:21:18Z</time>
      </trkpt>
      <trkpt lat="49.13586" lon="1.94024">
        <ele>61.3</ele>
        <time>2023-11-29T13:21:23Z</time>
      </trkpt>
      <trkpt lat="49.13579" lon="1.9403">
        <ele>60.8</ele>
        <time>2023-11-29T13:21:29Z</time>
      </trkpt>
      <trkpt lat="49.1357" lon="1.94029">
        <ele>60.9</ele>
        <time>2023-11-29T13:21:35Z</time>
      </trkpt>
      <trkpt lat="49.13562" lon="1.9403">
        <ele>60.7</ele>
        <time>2023-11-29T13:21:41Z</time>
      </trkpt>
      <trkpt lat="49.13555" lon="1.94033">
        <ele>60.5</ele>
        <time>2023-11-29T13:21:47Z</time>
      </trkpt>
      <trkpt lat="49.13548" lon="1.94035">
        <ele>60.9</ele>
        <time>2023-11-29T13:21:52Z</time>
      </trkpt>
      <trkpt lat="49.13544" lon="1.94045">
        <ele>60.1</ele>
        <time>2023-11-29T13:21:57Z</time>
      </trkpt>
      <trkpt lat="49.13546" lon="1.94061">
        <ele>58.6</ele>
        <time>2023-11-29T13:22:03Z</time>
      </trkpt>
      <trkpt lat="49.13549" lon="1.94075">
        <ele>58.1</ele>
        <time>2023-11-29T13:22:08Z</time>
      </trkpt>
      <trkpt lat="49.13552" lon="1.94088">
        <ele>57.8</ele>
        <time>2023-11-29T13:22:13Z</time>
      </trkpt>
      <trkpt lat="49.13556" lon="1.94097">
        <ele>57.5</ele>
        <time>2023-11-29T13:22:18Z</time>
      </trkpt>
      <trkpt lat="49.1356" lon="1.94105">
        <ele>57</ele>
        <time>2023-11-29T13:22:24Z</time>
      </trkpt>
      <trkpt lat="49.13565" lon="1.94116">
        <ele>56.5</ele>
        <time>2023-11-29T13:22:30Z</time>
      </trkpt>
      <trkpt lat="49.13569" lon="1.94126">
        <ele>56.2</ele>
        <time>2023-11-29T13:22:35Z</time>
      </trkpt>
      <trkpt lat="49.13573" lon="1.9414">
        <ele>56</ele>
        <time>2023-11-29T13:22:41Z</time>
      </trkpt>
      <trkpt lat="49.13579" lon="1.94151">
        <ele>56</ele>
        <time>2023-11-29T13:22:47Z</time>
      </trkpt>
      <trkpt lat="49.13584" lon="1.94164">
        <ele>56</ele>
        <time>2023-11-29T13:22:52Z</time>
      </trkpt>
      <trkpt lat="49.13588" lon="1.94172">
        <ele>55.7</ele>
        <time>2023-11-29T13:22:57Z</time>
      </trkpt>
      <trkpt lat="49.13595" lon="1.94181">
        <ele>55.3</ele>
        <time>2023-11-29T13:23:03Z</time>
      </trkpt>
      <trkpt lat="49.136" lon="1.9419">
        <ele>55.1</ele>
        <time>2023-11-29T13:23:08Z</time>
      </trkpt>
      <trkpt lat="49.13606" lon="1.94196">
        <ele>55</ele>
        <time>2023-11-29T13:23:14Z</time>
      </trkpt>
      <trkpt lat="49.13613" lon="1.94204">
        <ele>55</ele>
        <time>2023-11-29T13:23:19Z</time>
      </trkpt>
      <trkpt lat="49.13619" lon="1.94216">
        <ele>55</ele>
        <time>2023-11-29T13:23:25Z</time>
      </trkpt>
      <trkpt lat="49.13625" lon="1.94224">
        <ele>55</ele>
        <time>2023-11-29T13:23:31Z</time>
      </trkpt>
      <trkpt lat="49.13631" lon="1.9423">
        <ele>55</ele>
        <time>2023-11-29T13:23:37Z</time>
      </trkpt>
      <trkpt lat="49.13636" lon="1.94235">
        <ele>55</ele>
        <time>2023-11-29T13:23:42Z</time>
      </trkpt>
      <trkpt lat="49.13642" lon="1.94248">
        <ele>55.1</ele>
        <time>2023-11-29T13:23:48Z</time>
      </trkpt>
      <trkpt lat="49.13647" lon="1.94259">
        <ele>55.4</ele>
        <time>2023-11-29T13:23:53Z</time>
      </trkpt>
      <trkpt lat="49.13653" lon="1.94268">
        <ele>55.8</ele>
        <time>2023-11-29T13:23:59Z</time>
      </trkpt>
      <trkpt lat="49.13657" lon="1.94272">
        <ele>56.2</ele>
        <time>2023-11-29T13:24:04Z</time>
      </trkpt>
      <trkpt lat="49.1366" lon="1.94275">
        <ele>56.4</ele>
        <time>2023-11-29T13:24:10Z</time>
      </trkpt>
      <trkpt lat="49.13661" lon="1.94276">
        <ele>56.5</ele>
        <time>2023-11-29T13:24:15Z</time>
      </trkpt>
      <trkpt lat="49.13661" lon="1.94279">
        <ele>56.6</ele>
        <time>2023-11-29T13:24:21Z</time>
      </trkpt>
      <trkpt lat="49.13664" lon="1.94283">
        <ele>56.8</ele>
        <time>2023-11-29T13:24:26Z</time>
      </trkpt>
      <trkpt lat="49.13669" lon="1.94288">
        <ele>57.1</ele>
        <time>2023-11-29T13:24:31Z</time>
      </trkpt>
      <trkpt lat="49.13676" lon="1.94292">
        <ele>57.5</ele>
        <time>2023-11-29T13:24:37Z</time>
      </trkpt>
      <trkpt lat="49.1368" lon="1.94299">
        <ele>57.9</ele>
        <time>2023-11-29T13:24:43Z</time>
      </trkpt>
      <trkpt lat="49.13684" lon="1.9431">
        <ele>58.4</ele>
        <time>2023-11-29T13:24:49Z</time>
      </trkpt>
      <trkpt lat="49.13687" lon="1.94318">
        <ele>59.2</ele>
        <time>2023-11-29T13:24:54Z</time>
      </trkpt>
      <trkpt lat="49.13692" lon="1.94328">
        <ele>60.2</ele>
        <time>2023-11-29T13:25:00Z</time>
      </trkpt>
      <trkpt lat="49.13696" lon="1.94337">
        <ele>61.2</ele>
        <time>2023-11-29T13:25:05Z</time>
      </trkpt>
      <trkpt lat="49.137" lon="1.94343">
        <ele>61.6</ele>
        <time>2023-11-29T13:25:11Z</time>
      </trkpt>
      <trkpt lat="49.13702" lon="1.94346">
        <ele>61.9</ele>
        <time>2023-11-29T13:25:17Z</time>
      </trkpt>
      <trkpt lat="49.13708" lon="1.94345">
        <ele>62.1</ele>
        <time>2023-11-29T13:25:23Z</time>
      </trkpt>
      <trkpt lat="49.13714" lon="1.94345">
        <ele>62.4</ele>
        <time>2023-11-29T13:25:28Z</time>
      </trkpt>
      <trkpt lat="49.13719" lon="1.94343">
        <ele>62.6</ele>
        <time>2023-11-29T13:25:33Z</time>
      </trkpt>
      <trkpt lat="49.13725" lon="1.94341">
        <ele>62.6</ele>
        <time>2023-11-29T13:25:38Z</time>
      </trkpt>
      <trkpt lat="49.13734" lon="1.94338">
        <ele>62.7</ele>
        <time>2023-11-29T13:25:44Z</time>
      </trkpt>
      <trkpt lat="49.1374" lon="1.94337">
        <ele>62.9</ele>
        <time>2023-11-29T13:25:49Z</time>
      </trkpt>
      <trkpt lat="49.13751" lon="1.94339">
        <ele>63.4</ele>
        <time>2023-11-29T13:25:55Z</time>
      </trkpt>
      <trkpt lat="49.13757" lon="1.94349">
        <ele>64.5</ele>
        <time>2023-11-29T13:26:00Z</time>
      </trkpt>
      <trkpt lat="49.1376" lon="1.94358">
        <ele>65.2</ele>
        <time>2023-11-29T13:26:05Z</time>
      </trkpt>
      <trkpt lat="49.13764" lon="1.9437">
        <ele>66.1</ele>
        <time>2023-11-29T13:26:11Z</time>
      </trkpt>
      <trkpt lat="49.13767" lon="1.9438">
        <ele>67</ele>
        <time>2023-11-29T13:26:17Z</time>
      </trkpt>
      <trkpt lat="49.13769" lon="1.94392">
        <ele>67.9</ele>
        <time>2023-11-29T13:26:23Z</time>
      </trkpt>
      <trkpt lat="49.13771" lon="1.94404">
        <ele>68.6</ele>
        <time>2023-11-29T13:26:29Z</time>
      </trkpt>
      <trkpt lat="49.13771" lon="1.94413">
        <ele>69.1</ele>
        <time>2023-11-29T13:26:34Z</time>
      </trkpt>
      <trkpt lat="49.13771" lon="1.94427">
        <ele>69.6</ele>
        <time>2023-11-29T13:26:40Z</time>
      </trkpt>
      <trkpt lat="49.13773" lon="1.94439">
        <ele>70</ele>
        <time>2023-11-29T13:26:46Z</time>
      </trkpt>
      <trkpt lat="49.13773" lon="1.94449">
        <ele>70.5</ele>
        <time>2023-11-29T13:26:51Z</time>
      </trkpt>
      <trkpt lat="49.13773" lon="1.94463">
        <ele>71.3</ele>
        <time>2023-11-29T13:26:57Z</time>
      </trkpt>
      <trkpt lat="49.13772" lon="1.94475">
        <ele>71.9</ele>
        <time>2023-11-29T13:27:03Z</time>
      </trkpt>
      <trkpt lat="49.1377" lon="1.94485">
        <ele>72.6</ele>
        <time>2023-11-29T13:27:08Z</time>
      </trkpt>
      <trkpt lat="49.13767" lon="1.94494">
        <ele>72.9</ele>
        <time>2023-11-29T13:27:14Z</time>
      </trkpt>
      <trkpt lat="49.13763" lon="1.94501">
        <ele>73</ele>
        <time>2023-11-29T13:27:19Z</time>
      </trkpt>
      <trkpt lat="49.13761" lon="1.94513">
        <ele>74.2</ele>
        <time>2023-11-29T13:27:25Z</time>
      </trkpt>
      <trkpt lat="49.13758" lon="1.94519">
        <ele>74.6</ele>
        <time>2023-11-29T13:27:31Z</time>
      </trkpt>
      <trkpt lat="49.13758" lon="1.94518">
        <ele>74.6</ele>
        <time>2023-11-29T13:27:37Z</time>
      </trkpt>
      <trkpt lat="49.13755" lon="1.94524">
        <ele>74.9</ele>
        <time>2023-11-29T13:27:43Z</time>
      </trkpt>
      <trkpt lat="49.13755" lon="1.94523">
        <ele>74.9</ele>
        <time>2023-11-29T13:27:48Z</time>
      </trkpt>
      <trkpt lat="49.13755" lon="1.94525">
        <ele>75</ele>
        <time>2023-11-29T13:27:53Z</time>
      </trkpt>
      <trkpt lat="49.13753" lon="1.94534">
        <ele>75.7</ele>
        <time>2023-11-29T13:27:59Z</time>
      </trkpt>
      <trkpt lat="49.1375" lon="1.94541">
        <ele>76</ele>
        <time>2023-11-29T13:28:04Z</time>
      </trkpt>
      <trkpt lat="49.13747" lon="1.94552">
        <ele>76.5</ele>
        <time>2023-11-29T13:28:10Z</time>
      </trkpt>
      <trkpt lat="49.13742" lon="1.94561">
        <ele>77</ele>
        <time>2023-11-29T13:28:16Z</time>
      </trkpt>
      <trkpt lat="49.13738" lon="1.94572">
        <ele>77.6</ele>
        <time>2023-11-29T13:28:21Z</time>
      </trkpt>
      <trkpt lat="49.13731" lon="1.94582">
        <ele>77.8</ele>
        <time>2023-11-29T13:28:27Z</time>
      </trkpt>
      <trkpt lat="49.13729" lon="1.94587">
        <ele>78</ele>
        <time>2023-11-29T13:28:32Z</time>
      </trkpt>
      <trkpt lat="49.13724" lon="1.94595">
        <ele>78</ele>
        <time>2023-11-29T13:28:38Z</time>
      </trkpt>
      <trkpt lat="49.13722" lon="1.946">
        <ele>78.2</ele>
        <time>2023-11-29T13:28:44Z</time>
      </trkpt>
      <trkpt lat="49.13723" lon="1.946">
        <ele>78.3</ele>
        <time>2023-11-29T13:28:49Z</time>
      </trkpt>
      <trkpt lat="49.13723" lon="1.94596">
        <ele>78</ele>
        <time>2023-11-29T13:28:55Z</time>
      </trkpt>
      <trkpt lat="49.13725" lon="1.9459">
        <ele>77.8</ele>
        <time>2023-11-29T13:29:00Z</time>
      </trkpt>
      <trkpt lat="49.13726" lon="1.94585">
        <ele>77.5</ele>
        <time>2023-11-29T13:29:05Z</time>
      </trkpt>
      <trkpt lat="49.13729" lon="1.94578">
        <ele>77.3</ele>
        <time>2023-11-29T13:29:10Z</time>
      </trkpt>
      <trkpt lat="49.13733" lon="1.94568">
        <ele>76.9</ele>
        <time>2023-11-29T13:29:16Z</time>
      </trkpt>
      <trkpt lat="49.13735" lon="1.94562">
        <ele>76.5</ele>
        <time>2023-11-29T13:29:21Z</time>
      </trkpt>
      <trkpt lat="49.13737" lon="1.94552">
        <ele>75.8</ele>
        <time>2023-11-29T13:29:26Z</time>
      </trkpt>
      <trkpt lat="49.1374" lon="1.94543">
        <ele>75.3</ele>
        <time>2023-11-29T13:29:32Z</time>
      </trkpt>
      <trkpt lat="49.13742" lon="1.94536">
        <ele>75</ele>
        <time>2023-11-29T13:29:37Z</time>
      </trkpt>
      <trkpt lat="49.13743" lon="1.94528">
        <ele>74.5</ele>
        <time>2023-11-29T13:29:42Z</time>
      </trkpt>
      <trkpt lat="49.13749" lon="1.94517">
        <ele>73.8</ele>
        <time>2023-11-29T13:29:48Z</time>
      </trkpt>
      <trkpt lat="49.13756" lon="1.94507">
        <ele>73.1</ele>
        <time>2023-11-29T13:29:54Z</time>
      </trkpt>
      <trkpt lat="49.1376" lon="1.94499">
        <ele>72.6</ele>
        <time>2023-11-29T13:29:59Z</time>
      </trkpt>
      <trkpt lat="49.13763" lon="1.94491">
        <ele>72.5</ele>
        <time>2023-11-29T13:30:05Z</time>
      </trkpt>
      <trkpt lat="49.13765" lon="1.94493">
        <ele>72.7</ele>
        <time>2023-11-29T13:30:10Z</time>
      </trkpt>
      <trkpt lat="49.13767" lon="1.94507">
        <ele>74</ele>
        <time>2023-11-29T13:30:16Z</time>
      </trkpt>
      <trkpt lat="49.13767" lon="1.94518">
        <ele>75.2</ele>
        <time>2023-11-29T13:30:21Z</time>
      </trkpt>
      <trkpt lat="49.13768" lon="1.94527">
        <ele>76.2</ele>
        <time>2023-11-29T13:30:27Z</time>
      </trkpt>
      <trkpt lat="49.13768" lon="1.94535">
        <ele>77</ele>
        <time>2023-11-29T13:30:32Z</time>
      </trkpt>
      <trkpt lat="49.13767" lon="1.94543">
        <ele>77.7</ele>
        <time>2023-11-29T13:30:38Z</time>
      </trkpt>
      <trkpt lat="49.13765" lon="1.94551">
        <ele>78.2</ele>
        <time>2023-11-29T13:30:43Z</time>
      </trkpt>
      <trkpt lat="49.13765" lon="1.94563">
        <ele>79.5</ele>
        <time>2023-11-29T13:30:49Z</time>
      </trkpt>
      <trkpt lat="49.13764" lon="1.94572">
        <ele>80.3</ele>
        <time>2023-11-29T13:30:54Z</time>
      </trkpt>
      <trkpt lat="49.13767" lon="1.94577">
        <ele>81.1</ele>
        <time>2023-11-29T13:31:00Z</time>
      </trkpt>
      <trkpt lat="49.13771" lon="1.94578">
        <ele>81.6</ele>
        <time>2023-11-29T13:31:05Z</time>
      </trkpt>
      <trkpt lat="49.13776" lon="1.94578">
        <ele>82.2</ele>
        <time>2023-11-29T13:31:10Z</time>
      </trkpt>
      <trkpt lat="49.1378" lon="1.94581">
        <ele>83.1</ele>
        <time>2023-11-29T13:31:16Z</time>
      </trkpt>
      <trkpt lat="49.13788" lon="1.94581">
        <ele>83.8</ele>
        <time>2023-11-29T13:31:22Z</time>
      </trkpt>
      <trkpt lat="49.13795" lon="1.94579">
        <ele>84.3</ele>
        <time>2023-11-29T13:31:27Z</time>
      </trkpt>
      <trkpt lat="49.13801" lon="1.94579">
        <ele>85</ele>
        <time>2023-11-29T13:31:32Z</time>
      </trkpt>
      <trkpt lat="49.13807" lon="1.94581">
        <ele>85.9</ele>
        <time>2023-11-29T13:31:38Z</time>
      </trkpt>
      <trkpt lat="49.13808" lon="1.94589">
        <ele>87</ele>
        <time>2023-11-29T13:31:44Z</time>
      </trkpt>
      <trkpt lat="49.13807" lon="1.94599">
        <ele>87.9</ele>
        <time>2023-11-29T13:31:49Z</time>
      </trkpt>
      <trkpt lat="49.13804" lon="1.94612">
        <ele>89</ele>
        <time>2023-11-29T13:31:55Z</time>
      </trkpt>
      <trkpt lat="49.13801" lon="1.94623">
        <ele>90</ele>
        <time>2023-11-29T13:32:01Z</time>
      </trkpt>
      <trkpt lat="49.13797" lon="1.94629">
        <ele>90.2</ele>
        <time>2023-11-29T13:32:06Z</time>
      </trkpt>
      <trkpt lat="49.13793" lon="1.94638">
        <ele>90.7</ele>
        <time>2023-11-29T13:32:11Z</time>
      </trkpt>
      <trkpt lat="49.1379" lon="1.94646">
        <ele>91</ele>
        <time>2023-11-29T13:32:17Z</time>
      </trkpt>
      <trkpt lat="49.13786" lon="1.94653">
        <ele>91.3</ele>
        <time>2023-11-29T13:32:23Z</time>
      </trkpt>
      <trkpt lat="49.13782" lon="1.94662">
        <ele>92</ele>
        <time>2023-11-29T13:32:29Z</time>
      </trkpt>
      <trkpt lat="49.13778" lon="1.94673">
        <ele>92.8</ele>
        <time>2023-11-29T13:32:35Z</time>
      </trkpt>
      <trkpt lat="49.13776" lon="1.9468">
        <ele>93.1</ele>
        <time>2023-11-29T13:32:40Z</time>
      </trkpt>
      <trkpt lat="49.13774" lon="1.9469">
        <ele>93.9</ele>
        <time>2023-11-29T13:32:46Z</time>
      </trkpt>
      <trkpt lat="49.13774" lon="1.94699">
        <ele>94.8</ele>
        <time>2023-11-29T13:32:51Z</time>
      </trkpt>
      <trkpt lat="49.13774" lon="1.9471">
        <ele>95.6</ele>
        <time>2023-11-29T13:32:56Z</time>
      </trkpt>
      <trkpt lat="49.13774" lon="1.94719">
        <ele>96.3</ele>
        <time>2023-11-29T13:33:02Z</time>
      </trkpt>
      <trkpt lat="49.13774" lon="1.94727">
        <ele>96.9</ele>
        <time>2023-11-29T13:33:07Z</time>
      </trkpt>
      <trkpt lat="49.13774" lon="1.94738">
        <ele>97.7</ele>
        <time>2023-11-29T13:33:13Z</time>
      </trkpt>
      <trkpt lat="49.13776" lon="1.94745">
        <ele>98.4</ele>
        <time>2023-11-29T13:33:19Z</time>
      </trkpt>
      <trkpt lat="49.13777" lon="1.94755">
        <ele>99.1</ele>
        <time>2023-11-29T13:33:25Z</time>
      </trkpt>
      <trkpt lat="49.1378" lon="1.94764">
        <ele>99.7</ele>
        <time>2023-11-29T13:33:31Z</time>
      </trkpt>
      <trkpt lat="49.13783" lon="1.94776">
        <ele>100.3</ele>
        <time>2023-11-29T13:33:37Z</time>
      </trkpt>
      <trkpt lat="49.13784" lon="1.94784">
        <ele>100.5</ele>
        <time>2023-11-29T13:33:42Z</time>
      </trkpt>
      <trkpt lat="49.13787" lon="1.94792">
        <ele>100.7</ele>
        <time>2023-11-29T13:33:48Z</time>
      </trkpt>
      <trkpt lat="49.13788" lon="1.94803">
        <ele>100.7</ele>
        <time>2023-11-29T13:33:53Z</time>
      </trkpt>
      <trkpt lat="49.13785" lon="1.94811">
        <ele>100.7</ele>
        <time>2023-11-29T13:33:58Z</time>
      </trkpt>
      <trkpt lat="49.13786" lon="1.9482">
        <ele>101.1</ele>
        <time>2023-11-29T13:34:04Z</time>
      </trkpt>
      <trkpt lat="49.13786" lon="1.9483">
        <ele>101.5</ele>
        <time>2023-11-29T13:34:09Z</time>
      </trkpt>
      <trkpt lat="49.13787" lon="1.94842">
        <ele>102</ele>
        <time>2023-11-29T13:34:15Z</time>
      </trkpt>
      <trkpt lat="49.13786" lon="1.94852">
        <ele>102.3</ele>
        <time>2023-11-29T13:34:20Z</time>
      </trkpt>
      <trkpt lat="49.13787" lon="1.94862">
        <ele>102.7</ele>
        <time>2023-11-29T13:34:26Z</time>
      </trkpt>
      <trkpt lat="49.13787" lon="1.94874">
        <ele>102.9</ele>
        <time>2023-11-29T13:34:31Z</time>
      </trkpt>
      <trkpt lat="49.13788" lon="1.94884">
        <ele>103.3</ele>
        <time>2023-11-29T13:34:37Z</time>
      </trkpt>
      <trkpt lat="49.13789" lon="1.94891">
        <ele>103.5</ele>
        <time>2023-11-29T13:34:42Z</time>
      </trkpt>
      <trkpt lat="49.13789" lon="1.94899">
        <ele>103.8</ele>
        <time>2023-11-29T13:34:47Z</time>
      </trkpt>
      <trkpt lat="49.13789" lon="1.94909">
        <ele>104.1</ele>
        <time>2023-11-29T13:34:53Z</time>
      </trkpt>
      <trkpt lat="49.13789" lon="1.94916">
        <ele>104.4</ele>
        <time>2023-11-29T13:34:58Z</time>
      </trkpt>
      <trkpt lat="49.1379" lon="1.94925">
        <ele>104.6</ele>
        <time>2023-11-29T13:35:04Z</time>
      </trkpt>
      <trkpt lat="49.1379" lon="1.94936">
        <ele>104.8</ele>
        <time>2023-11-29T13:35:10Z</time>
      </trkpt>
      <trkpt lat="49.13791" lon="1.94946">
        <ele>105.1</ele>
        <time>2023-11-29T13:35:15Z</time>
      </trkpt>
      <trkpt lat="49.13792" lon="1.94956">
        <ele>105.4</ele>
        <time>2023-11-29T13:35:20Z</time>
      </trkpt>
      <trkpt lat="49.13792" lon="1.94968">
        <ele>105.9</ele>
        <time>2023-11-29T13:35:26Z</time>
      </trkpt>
      <trkpt lat="49.13793" lon="1.94976">
        <ele>106.1</ele>
        <time>2023-11-29T13:35:31Z</time>
      </trkpt>
      <trkpt lat="49.13795" lon="1.94985">
        <ele>106.3</ele>
        <time>2023-11-29T13:35:36Z</time>
      </trkpt>
      <trkpt lat="49.13797" lon="1.94997">
        <ele>106.6</ele>
        <time>2023-11-29T13:35:42Z</time>
      </trkpt>
      <trkpt lat="49.13799" lon="1.9501">
        <ele>106.9</ele>
        <time>2023-11-29T13:35:48Z</time>
      </trkpt>
      <trkpt lat="49.13801" lon="1.95019">
        <ele>107</ele>
        <time>2023-11-29T13:35:53Z</time>
      </trkpt>
      <trkpt lat="49.13803" lon="1.95033">
        <ele>107.2</ele>
        <time>2023-11-29T13:35:59Z</time>
      </trkpt>
      <trkpt lat="49.13804" lon="1.95047">
        <ele>107.7</ele>
        <time>2023-11-29T13:36:05Z</time>
      </trkpt>
      <trkpt lat="49.13805" lon="1.95059">
        <ele>108</ele>
        <time>2023-11-29T13:36:11Z</time>
      </trkpt>
      <trkpt lat="49.13807" lon="1.95072">
        <ele>108</ele>
        <time>2023-11-29T13:36:17Z</time>
      </trkpt>
      <trkpt lat="49.13808" lon="1.95084">
        <ele>108.1</ele>
        <time>2023-11-29T13:36:22Z</time>
      </trkpt>
      <trkpt lat="49.13809" lon="1.95098">
        <ele>108.7</ele>
        <time>2023-11-29T13:36:28Z</time>
      </trkpt>
      <trkpt lat="49.13808" lon="1.95106">
        <ele>108.9</ele>
        <time>2023-11-29T13:36:33Z</time>
      </trkpt>
      <trkpt lat="49.13807" lon="1.95116">
        <ele>109.1</ele>
        <time>2023-11-29T13:36:39Z</time>
      </trkpt>
      <trkpt lat="49.13807" lon="1.95127">
        <ele>109</ele>
        <time>2023-11-29T13:36:45Z</time>
      </trkpt>
      <trkpt lat="49.13807" lon="1.95139">
        <ele>109</ele>
        <time>2023-11-29T13:36:51Z</time>
      </trkpt>
      <trkpt lat="49.13807" lon="1.9515">
        <ele>109.4</ele>
        <time>2023-11-29T13:36:57Z</time>
      </trkpt>
      <trkpt lat="49.13807" lon="1.95162">
        <ele>109.8</ele>
        <time>2023-11-29T13:37:03Z</time>
      </trkpt>
      <trkpt lat="49.13807" lon="1.95176">
        <ele>110</ele>
        <time>2023-11-29T13:37:08Z</time>
      </trkpt>
      <trkpt lat="49.13806" lon="1.9519">
        <ele>110</ele>
        <time>2023-11-29T13:37:13Z</time>
      </trkpt>
      <trkpt lat="49.13805" lon="1.95203">
        <ele>110.3</ele>
        <time>2023-11-29T13:37:18Z</time>
      </trkpt>
      <trkpt lat="49.13803" lon="1.95215">
        <ele>110.7</ele>
        <time>2023-11-29T13:37:24Z</time>
      </trkpt>
      <trkpt lat="49.13801" lon="1.95229">
        <ele>110.6</ele>
        <time>2023-11-29T13:37:30Z</time>
      </trkpt>
      <trkpt lat="49.13799" lon="1.9524">
        <ele>110.3</ele>
        <time>2023-11-29T13:37:35Z</time>
      </trkpt>
      <trkpt lat="49.13797" lon="1.9525">
        <ele>110</ele>
        <time>2023-11-29T13:37:41Z</time>
      </trkpt>
      <trkpt lat="49.13795" lon="1.9526">
        <ele>110</ele>
        <time>2023-11-29T13:37:47Z</time>
      </trkpt>
      <trkpt lat="49.13792" lon="1.95273">
        <ele>110</ele>
        <time>2023-11-29T13:37:53Z</time>
      </trkpt>
      <trkpt lat="49.13789" lon="1.95286">
        <ele>110</ele>
        <time>2023-11-29T13:37:59Z</time>
      </trkpt>
      <trkpt lat="49.13787" lon="1.95298">
        <ele>110</ele>
        <time>2023-11-29T13:38:05Z</time>
      </trkpt>
      <trkpt lat="49.13784" lon="1.95308">
        <ele>110</ele>
        <time>2023-11-29T13:38:10Z</time>
      </trkpt>
      <trkpt lat="49.13783" lon="1.95317">
        <ele>110</ele>
        <time>2023-11-29T13:38:16Z</time>
      </trkpt>
      <trkpt lat="49.13781" lon="1.95327">
        <ele>110</ele>
        <time>2023-11-29T13:38:21Z</time>
      </trkpt>
      <trkpt lat="49.13777" lon="1.9534">
        <ele>110</ele>
        <time>2023-11-29T13:38:27Z</time>
      </trkpt>
      <trkpt lat="49.13775" lon="1.9535">
        <ele>109.9</ele>
        <time>2023-11-29T13:38:33Z</time>
      </trkpt>
      <trkpt lat="49.13773" lon="1.95361">
        <ele>109.8</ele>
        <time>2023-11-29T13:38:39Z</time>
      </trkpt>
      <trkpt lat="49.13771" lon="1.95374">
        <ele>109.7</ele>
        <time>2023-11-29T13:38:45Z</time>
      </trkpt>
      <trkpt lat="49.1377" lon="1.95386">
        <ele>109.7</ele>
        <time>2023-11-29T13:38:51Z</time>
      </trkpt>
      <trkpt lat="49.13768" lon="1.95394">
        <ele>109.7</ele>
        <time>2023-11-29T13:38:56Z</time>
      </trkpt>
      <trkpt lat="49.13768" lon="1.95405">
        <ele>109.7</ele>
        <time>2023-11-29T13:39:01Z</time>
      </trkpt>
      <trkpt lat="49.13768" lon="1.95418">
        <ele>109.6</ele>
        <time>2023-11-29T13:39:07Z</time>
      </trkpt>
      <trkpt lat="49.13767" lon="1.95428">
        <ele>109.4</ele>
        <time>2023-11-29T13:39:12Z</time>
      </trkpt>
      <trkpt lat="49.13766" lon="1.95438">
        <ele>109.1</ele>
        <time>2023-11-29T13:39:17Z</time>
      </trkpt>
      <trkpt lat="49.13765" lon="1.95449">
        <ele>109.1</ele>
        <time>2023-11-29T13:39:23Z</time>
      </trkpt>
      <trkpt lat="49.13765" lon="1.9546">
        <ele>109.3</ele>
        <time>2023-11-29T13:39:29Z</time>
      </trkpt>
      <trkpt lat="49.13765" lon="1.95468">
        <ele>109.4</ele>
        <time>2023-11-29T13:39:34Z</time>
      </trkpt>
      <trkpt lat="49.13765" lon="1.95475">
        <ele>109.4</ele>
        <time>2023-11-29T13:39:39Z</time>
      </trkpt>
      <trkpt lat="49.13765" lon="1.95482">
        <ele>109.5</ele>
        <time>2023-11-29T13:39:44Z</time>
      </trkpt>
      <trkpt lat="49.13764" lon="1.9549">
        <ele>109.5</ele>
        <time>2023-11-29T13:39:50Z</time>
      </trkpt>
      <trkpt lat="49.13763" lon="1.95502">
        <ele>109.5</ele>
        <time>2023-11-29T13:39:56Z</time>
      </trkpt>
      <trkpt lat="49.13763" lon="1.95514">
        <ele>109.5</ele>
        <time>2023-11-29T13:40:02Z</time>
      </trkpt>
      <trkpt lat="49.13762" lon="1.95525">
        <ele>109.6</ele>
        <time>2023-11-29T13:40:08Z</time>
      </trkpt>
      <trkpt lat="49.13762" lon="1.95535">
        <ele>109.6</ele>
        <time>2023-11-29T13:40:13Z</time>
      </trkpt>
      <trkpt lat="49.13762" lon="1.95544">
        <ele>109.6</ele>
        <time>2023-11-29T13:40:19Z</time>
      </trkpt>
      <trkpt lat="49.1376" lon="1.95547">
        <ele>109.6</ele>
        <time>2023-11-29T13:40:24Z</time>
      </trkpt>
      <trkpt lat="49.1376" lon="1.95552">
        <ele>109.6</ele>
        <time>2023-11-29T13:40:29Z</time>
      </trkpt>
      <trkpt lat="49.13759" lon="1.95558">
        <ele>109.7</ele>
        <time>2023-11-29T13:40:34Z</time>
      </trkpt>
      <trkpt lat="49.13759" lon="1.95566">
        <ele>109.8</ele>
        <time>2023-11-29T13:40:40Z</time>
      </trkpt>
      <trkpt lat="49.13759" lon="1.95572">
        <ele>109.9</ele>
        <time>2023-11-29T13:40:45Z</time>
      </trkpt>
      <trkpt lat="49.1376" lon="1.95579">
        <ele>109.9</ele>
        <time>2023-11-29T13:40:51Z</time>
      </trkpt>
      <trkpt lat="49.1376" lon="1.95587">
        <ele>110</ele>
        <time>2023-11-29T13:40:57Z</time>
      </trkpt>
      <trkpt lat="49.1376" lon="1.95595">
        <ele>110</ele>
        <time>2023-11-29T13:41:02Z</time>
      </trkpt>
      <trkpt lat="49.13761" lon="1.95601">
        <ele>110</ele>
        <time>2023-11-29T13:41:07Z</time>
      </trkpt>
      <trkpt lat="49.1376" lon="1.95607">
        <ele>110</ele>
        <time>2023-11-29T13:41:13Z</time>
      </trkpt>
      <trkpt lat="49.13757" lon="1.95612">
        <ele>110</ele>
        <time>2023-11-29T13:41:18Z</time>
      </trkpt>
      <trkpt lat="49.13753" lon="1.95613">
        <ele>110.1</ele>
        <time>2023-11-29T13:41:24Z</time>
      </trkpt>
      <trkpt lat="49.13751" lon="1.95615">
        <ele>110.1</ele>
        <time>2023-11-29T13:41:30Z</time>
      </trkpt>
      <trkpt lat="49.13746" lon="1.95612">
        <ele>110</ele>
        <time>2023-11-29T13:41:36Z</time>
      </trkpt>
      <trkpt lat="49.13738" lon="1.9561">
        <ele>110</ele>
        <time>2023-11-29T13:41:42Z</time>
      </trkpt>
      <trkpt lat="49.13731" lon="1.95609">
        <ele>110</ele>
        <time>2023-11-29T13:41:47Z</time>
      </trkpt>
      <trkpt lat="49.13725" lon="1.95604">
        <ele>110</ele>
        <time>2023-11-29T13:41:53Z</time>
      </trkpt>
      <trkpt lat="49.13719" lon="1.95599">
        <ele>110</ele>
        <time>2023-11-29T13:41:58Z</time>
      </trkpt>
      <trkpt lat="49.13713" lon="1.95593">
        <ele>110</ele>
        <time>2023-11-29T13:42:04Z</time>
      </trkpt>
      <trkpt lat="49.13705" lon="1.95588">
        <ele>110</ele>
        <time>2023-11-29T13:42:10Z</time>
      </trkpt>
      <trkpt lat="49.13699" lon="1.95584">
        <ele>110</ele>
        <time>2023-11-29T13:42:15Z</time>
      </trkpt>
      <trkpt lat="49.13694" lon="1.95579">
        <ele>109.8</ele>
        <time>2023-11-29T13:42:20Z</time>
      </trkpt>
      <trkpt lat="49.13688" lon="1.95574">
        <ele>109.6</ele>
        <time>2023-11-29T13:42:25Z</time>
      </trkpt>
      <trkpt lat="49.13681" lon="1.95569">
        <ele>109.5</ele>
        <time>2023-11-29T13:42:31Z</time>
      </trkpt>
      <trkpt lat="49.13675" lon="1.95564">
        <ele>109.3</ele>
        <time>2023-11-29T13:42:36Z</time>
      </trkpt>
      <trkpt lat="49.13668" lon="1.95558">
        <ele>109.1</ele>
        <time>2023-11-29T13:42:42Z</time>
      </trkpt>
      <trkpt lat="49.13663" lon="1.95554">
        <ele>109</ele>
        <time>2023-11-29T13:42:47Z</time>
      </trkpt>
      <trkpt lat="49.13655" lon="1.95548">
        <ele>109</ele>
        <time>2023-11-29T13:42:53Z</time>
      </trkpt>
      <trkpt lat="49.1365" lon="1.95544">
        <ele>109</ele>
        <time>2023-11-29T13:42:58Z</time>
      </trkpt>
      <trkpt lat="49.13644" lon="1.9554">
        <ele>109</ele>
        <time>2023-11-29T13:43:03Z</time>
      </trkpt>
      <trkpt lat="49.13639" lon="1.95536">
        <ele>109</ele>
        <time>2023-11-29T13:43:08Z</time>
      </trkpt>
      <trkpt lat="49.13633" lon="1.95529">
        <ele>109</ele>
        <time>2023-11-29T13:43:13Z</time>
      </trkpt>
      <trkpt lat="49.13627" lon="1.95525">
        <ele>108.9</ele>
        <time>2023-11-29T13:43:18Z</time>
      </trkpt>
      <trkpt lat="49.1362" lon="1.9552">
        <ele>108.7</ele>
        <time>2023-11-29T13:43:24Z</time>
      </trkpt>
      <trkpt lat="49.13615" lon="1.95517">
        <ele>108.6</ele>
        <time>2023-11-29T13:43:29Z</time>
      </trkpt>
      <trkpt lat="49.13608" lon="1.95512">
        <ele>108.4</ele>
        <time>2023-11-29T13:43:35Z</time>
      </trkpt>
      <trkpt lat="49.136" lon="1.95509">
        <ele>108.3</ele>
        <time>2023-11-29T13:43:41Z</time>
      </trkpt>
      <trkpt lat="49.13593" lon="1.95506">
        <ele>108.2</ele>
        <time>2023-11-29T13:43:46Z</time>
      </trkpt>
      <trkpt lat="49.13586" lon="1.95504">
        <ele>108.1</ele>
        <time>2023-11-29T13:43:51Z</time>
      </trkpt>
      <trkpt lat="49.13578" lon="1.95501">
        <ele>108</ele>
        <time>2023-11-29T13:43:57Z</time>
      </trkpt>
      <trkpt lat="49.13572" lon="1.95499">
        <ele>108</ele>
        <time>2023-11-29T13:44:02Z</time>
      </trkpt>
      <trkpt lat="49.13566" lon="1.95497">
        <ele>107.9</ele>
        <time>2023-11-29T13:44:07Z</time>
      </trkpt>
      <trkpt lat="49.13558" lon="1.95494">
        <ele>107.8</ele>
        <time>2023-11-29T13:44:13Z</time>
      </trkpt>
      <trkpt lat="49.13551" lon="1.9549">
        <ele>107.6</ele>
        <time>2023-11-29T13:44:18Z</time>
      </trkpt>
      <trkpt lat="49.13545" lon="1.95486">
        <ele>107.5</ele>
        <time>2023-11-29T13:44:23Z</time>
      </trkpt>
      <trkpt lat="49.1354" lon="1.95482">
        <ele>107.3</ele>
        <time>2023-11-29T13:44:28Z</time>
      </trkpt>
      <trkpt lat="49.13533" lon="1.95477">
        <ele>107.2</ele>
        <time>2023-11-29T13:44:33Z</time>
      </trkpt>
      <trkpt lat="49.13525" lon="1.95471">
        <ele>106.9</ele>
        <time>2023-11-29T13:44:39Z</time>
      </trkpt>
      <trkpt lat="49.13519" lon="1.95466">
        <ele>106.5</ele>
        <time>2023-11-29T13:44:44Z</time>
      </trkpt>
      <trkpt lat="49.13512" lon="1.95461">
        <ele>106</ele>
        <time>2023-11-29T13:44:50Z</time>
      </trkpt>
      <trkpt lat="49.13506" lon="1.95455">
        <ele>105.6</ele>
        <time>2023-11-29T13:44:55Z</time>
      </trkpt>
      <trkpt lat="49.135" lon="1.95449">
        <ele>105.2</ele>
        <time>2023-11-29T13:45:01Z</time>
      </trkpt>
      <trkpt lat="49.13494" lon="1.95443">
        <ele>105</ele>
        <time>2023-11-29T13:45:06Z</time>
      </trkpt>
      <trkpt lat="49.13488" lon="1.95438">
        <ele>104.9</ele>
        <time>2023-11-29T13:45:12Z</time>
      </trkpt>
      <trkpt lat="49.13482" lon="1.95433">
        <ele>104.7</ele>
        <time>2023-11-29T13:45:17Z</time>
      </trkpt>
      <trkpt lat="49.13475" lon="1.95426">
        <ele>104.4</ele>
        <time>2023-11-29T13:45:23Z</time>
      </trkpt>
      <trkpt lat="49.13469" lon="1.95422">
        <ele>104.2</ele>
        <time>2023-11-29T13:45:28Z</time>
      </trkpt>
      <trkpt lat="49.13463" lon="1.95416">
        <ele>104</ele>
        <time>2023-11-29T13:45:34Z</time>
      </trkpt>
      <trkpt lat="49.13456" lon="1.95409">
        <ele>103.6</ele>
        <time>2023-11-29T13:45:39Z</time>
      </trkpt>
      <trkpt lat="49.1345" lon="1.95402">
        <ele>103.1</ele>
        <time>2023-11-29T13:45:45Z</time>
      </trkpt>
      <trkpt lat="49.13443" lon="1.95396">
        <ele>102.5</ele>
        <time>2023-11-29T13:45:51Z</time>
      </trkpt>
      <trkpt lat="49.13436" lon="1.95389">
        <ele>102</ele>
        <time>2023-11-29T13:45:57Z</time>
      </trkpt>
      <trkpt lat="49.13431" lon="1.95384">
        <ele>101.7</ele>
        <time>2023-11-29T13:46:02Z</time>
      </trkpt>
      <trkpt lat="49.13426" lon="1.95379">
        <ele>101.4</ele>
        <time>2023-11-29T13:46:07Z</time>
      </trkpt>
      <trkpt lat="49.13419" lon="1.95373">
        <ele>100.9</ele>
        <time>2023-11-29T13:46:13Z</time>
      </trkpt>
      <trkpt lat="49.13413" lon="1.95366">
        <ele>100.4</ele>
        <time>2023-11-29T13:46:19Z</time>
      </trkpt>
      <trkpt lat="49.13407" lon="1.95361">
        <ele>100</ele>
        <time>2023-11-29T13:46:24Z</time>
      </trkpt>
      <trkpt lat="49.13402" lon="1.95357">
        <ele>99.9</ele>
        <time>2023-11-29T13:46:29Z</time>
      </trkpt>
      <trkpt lat="49.13395" lon="1.95352">
        <ele>99.7</ele>
        <time>2023-11-29T13:46:35Z</time>
      </trkpt>
      <trkpt lat="49.13388" lon="1.95346">
        <ele>99.4</ele>
        <time>2023-11-29T13:46:41Z</time>
      </trkpt>
      <trkpt lat="49.13381" lon="1.95339">
        <ele>98.9</ele>
        <time>2023-11-29T13:46:47Z</time>
      </trkpt>
      <trkpt lat="49.13375" lon="1.95334">
        <ele>98.5</ele>
        <time>2023-11-29T13:46:52Z</time>
      </trkpt>
      <trkpt lat="49.13369" lon="1.95327">
        <ele>98.1</ele>
        <time>2023-11-29T13:46:58Z</time>
      </trkpt>
      <trkpt lat="49.13363" lon="1.95322">
        <ele>97.7</ele>
        <time>2023-11-29T13:47:03Z</time>
      </trkpt>
      <trkpt lat="49.13355" lon="1.95315">
        <ele>97.4</ele>
        <time>2023-11-29T13:47:09Z</time>
      </trkpt>
      <trkpt lat="49.1335" lon="1.9531">
        <ele>97.2</ele>
        <time>2023-11-29T13:47:14Z</time>
      </trkpt>
      <trkpt lat="49.13345" lon="1.95305">
        <ele>97</ele>
        <time>2023-11-29T13:47:19Z</time>
      </trkpt>
      <trkpt lat="49.13338" lon="1.953">
        <ele>96.6</ele>
        <time>2023-11-29T13:47:25Z</time>
      </trkpt>
      <trkpt lat="49.13332" lon="1.95295">
        <ele>96.2</ele>
        <time>2023-11-29T13:47:30Z</time>
      </trkpt>
      <trkpt lat="49.13325" lon="1.95292">
        <ele>95.9</ele>
        <time>2023-11-29T13:47:36Z</time>
      </trkpt>
      <trkpt lat="49.1332" lon="1.95299">
        <ele>96.2</ele>
        <time>2023-11-29T13:47:42Z</time>
      </trkpt>
      <trkpt lat="49.13316" lon="1.95308">
        <ele>96.5</ele>
        <time>2023-11-29T13:47:48Z</time>
      </trkpt>
      <trkpt lat="49.13312" lon="1.95318">
        <ele>96.7</ele>
        <time>2023-11-29T13:47:53Z</time>
      </trkpt>
      <trkpt lat="49.13307" lon="1.95331">
        <ele>96.9</ele>
        <time>2023-11-29T13:47:59Z</time>
      </trkpt>
      <trkpt lat="49.13303" lon="1.95342">
        <ele>97.2</ele>
        <time>2023-11-29T13:48:04Z</time>
      </trkpt>
      <trkpt lat="49.133" lon="1.95351">
        <ele>97.5</ele>
        <time>2023-11-29T13:48:09Z</time>
      </trkpt>
      <trkpt lat="49.13297" lon="1.95364">
        <ele>97.7</ele>
        <time>2023-11-29T13:48:15Z</time>
      </trkpt>
      <trkpt lat="49.13295" lon="1.95376">
        <ele>97.8</ele>
        <time>2023-11-29T13:48:21Z</time>
      </trkpt>
      <trkpt lat="49.13294" lon="1.95385">
        <ele>97.9</ele>
        <time>2023-11-29T13:48:26Z</time>
      </trkpt>
      <trkpt lat="49.13293" lon="1.95395">
        <ele>98.1</ele>
        <time>2023-11-29T13:48:32Z</time>
      </trkpt>
      <trkpt lat="49.13291" lon="1.95405">
        <ele>98.3</ele>
        <time>2023-11-29T13:48:37Z</time>
      </trkpt>
      <trkpt lat="49.13289" lon="1.95416">
        <ele>98.4</ele>
        <time>2023-11-29T13:48:43Z</time>
      </trkpt>
      <trkpt lat="49.13288" lon="1.95427">
        <ele>98.8</ele>
        <time>2023-11-29T13:48:49Z</time>
      </trkpt>
      <trkpt lat="49.13287" lon="1.95438">
        <ele>99.1</ele>
        <time>2023-11-29T13:48:54Z</time>
      </trkpt>
      <trkpt lat="49.13285" lon="1.95447">
        <ele>99.3</ele>
        <time>2023-11-29T13:49:00Z</time>
      </trkpt>
      <trkpt lat="49.13282" lon="1.95458">
        <ele>99.2</ele>
        <time>2023-11-29T13:49:06Z</time>
      </trkpt>
      <trkpt lat="49.13281" lon="1.95468">
        <ele>99.1</ele>
        <time>2023-11-29T13:49:11Z</time>
      </trkpt>
      <trkpt lat="49.13278" lon="1.95482">
        <ele>99.3</ele>
        <time>2023-11-29T13:49:17Z</time>
      </trkpt>
      <trkpt lat="49.13276" lon="1.95493">
        <ele>99.8</ele>
        <time>2023-11-29T13:49:23Z</time>
      </trkpt>
      <trkpt lat="49.13275" lon="1.95504">
        <ele>100</ele>
        <time>2023-11-29T13:49:29Z</time>
      </trkpt>
      <trkpt lat="49.13272" lon="1.95514">
        <ele>100</ele>
        <time>2023-11-29T13:49:35Z</time>
      </trkpt>
      <trkpt lat="49.13269" lon="1.95524">
        <ele>100</ele>
        <time>2023-11-29T13:49:41Z</time>
      </trkpt>
      <trkpt lat="49.13267" lon="1.95537">
        <ele>100.2</ele>
        <time>2023-11-29T13:49:47Z</time>
      </trkpt>
      <trkpt lat="49.13265" lon="1.95548">
        <ele>100.4</ele>
        <time>2023-11-29T13:49:53Z</time>
      </trkpt>
      <trkpt lat="49.13265" lon="1.95558">
        <ele>100.6</ele>
        <time>2023-11-29T13:49:59Z</time>
      </trkpt>
      <trkpt lat="49.13263" lon="1.95569">
        <ele>100.7</ele>
        <time>2023-11-29T13:50:05Z</time>
      </trkpt>
      <trkpt lat="49.13259" lon="1.9558">
        <ele>100.9</ele>
        <time>2023-11-29T13:50:10Z</time>
      </trkpt>
      <trkpt lat="49.13256" lon="1.9559">
        <ele>101</ele>
        <time>2023-11-29T13:50:15Z</time>
      </trkpt>
      <trkpt lat="49.13253" lon="1.95599">
        <ele>101.1</ele>
        <time>2023-11-29T13:50:20Z</time>
      </trkpt>
      <trkpt lat="49.1325" lon="1.95611">
        <ele>101</ele>
        <time>2023-11-29T13:50:26Z</time>
      </trkpt>
      <trkpt lat="49.13247" lon="1.95622">
        <ele>101.4</ele>
        <time>2023-11-29T13:50:32Z</time>
      </trkpt>
      <trkpt lat="49.13245" lon="1.95631">
        <ele>101.7</ele>
        <time>2023-11-29T13:50:37Z</time>
      </trkpt>
      <trkpt lat="49.13241" lon="1.95643">
        <ele>102.1</ele>
        <time>2023-11-29T13:50:42Z</time>
      </trkpt>
      <trkpt lat="49.13238" lon="1.95655">
        <ele>102.6</ele>
        <time>2023-11-29T13:50:48Z</time>
      </trkpt>
      <trkpt lat="49.13234" lon="1.95665">
        <ele>103</ele>
        <time>2023-11-29T13:50:53Z</time>
      </trkpt>
      <trkpt lat="49.13233" lon="1.95674">
        <ele>103</ele>
        <time>2023-11-29T13:50:59Z</time>
      </trkpt>
      <trkpt lat="49.13231" lon="1.95686">
        <ele>103</ele>
        <time>2023-11-29T13:51:05Z</time>
      </trkpt>
      <trkpt lat="49.13227" lon="1.95695">
        <ele>103</ele>
        <time>2023-11-29T13:51:10Z</time>
      </trkpt>
      <trkpt lat="49.13224" lon="1.95706">
        <ele>103</ele>
        <time>2023-11-29T13:51:15Z</time>
      </trkpt>
      <trkpt lat="49.13221" lon="1.95716">
        <ele>103</ele>
        <time>2023-11-29T13:51:20Z</time>
      </trkpt>
      <trkpt lat="49.13219" lon="1.95724">
        <ele>103.1</ele>
        <time>2023-11-29T13:51:25Z</time>
      </trkpt>
      <trkpt lat="49.13217" lon="1.95735">
        <ele>103.4</ele>
        <time>2023-11-29T13:51:31Z</time>
      </trkpt>
      <trkpt lat="49.13213" lon="1.95745">
        <ele>103.5</ele>
        <time>2023-11-29T13:51:37Z</time>
      </trkpt>
      <trkpt lat="49.1321" lon="1.95756">
        <ele>103.7</ele>
        <time>2023-11-29T13:51:43Z</time>
      </trkpt>
      <trkpt lat="49.13208" lon="1.95767">
        <ele>103.8</ele>
        <time>2023-11-29T13:51:48Z</time>
      </trkpt>
      <trkpt lat="49.13205" lon="1.95778">
        <ele>104</ele>
        <time>2023-11-29T13:51:54Z</time>
      </trkpt>
      <trkpt lat="49.13201" lon="1.95787">
        <ele>104</ele>
        <time>2023-11-29T13:52:00Z</time>
      </trkpt>
      <trkpt lat="49.13197" lon="1.95797">
        <ele>104</ele>
        <time>2023-11-29T13:52:05Z</time>
      </trkpt>
      <trkpt lat="49.13192" lon="1.95806">
        <ele>103.9</ele>
        <time>2023-11-29T13:52:11Z</time>
      </trkpt>
      <trkpt lat="49.13188" lon="1.95817">
        <ele>103.8</ele>
        <time>2023-11-29T13:52:17Z</time>
      </trkpt>
      <trkpt lat="49.13185" lon="1.95823">
        <ele>103.6</ele>
        <time>2023-11-29T13:52:23Z</time>
      </trkpt>
      <trkpt lat="49.1318" lon="1.9583">
        <ele>103.5</ele>
        <time>2023-11-29T13:52:28Z</time>
      </trkpt>
      <trkpt lat="49.13176" lon="1.95838">
        <ele>103.3</ele>
        <time>2023-11-29T13:52:34Z</time>
      </trkpt>
      <trkpt lat="49.1317" lon="1.95847">
        <ele>103.1</ele>
        <time>2023-11-29T13:52:40Z</time>
      </trkpt>
      <trkpt lat="49.13165" lon="1.95856">
        <ele>103</ele>
        <time>2023-11-29T13:52:46Z</time>
      </trkpt>
      <trkpt lat="49.13161" lon="1.95864">
        <ele>103</ele>
        <time>2023-11-29T13:52:52Z</time>
      </trkpt>
      <trkpt lat="49.13156" lon="1.95873">
        <ele>102.8</ele>
        <time>2023-11-29T13:52:57Z</time>
      </trkpt>
      <trkpt lat="49.13151" lon="1.95882">
        <ele>102.6</ele>
        <time>2023-11-29T13:53:03Z</time>
      </trkpt>
      <trkpt lat="49.13145" lon="1.95889">
        <ele>102.2</ele>
        <time>2023-11-29T13:53:08Z</time>
      </trkpt>
      <trkpt lat="49.1314" lon="1.95895">
        <ele>102.1</ele>
        <time>2023-11-29T13:53:13Z</time>
      </trkpt>
      <trkpt lat="49.13135" lon="1.95903">
        <ele>102</ele>
        <time>2023-11-29T13:53:19Z</time>
      </trkpt>
      <trkpt lat="49.13129" lon="1.95909">
        <ele>102</ele>
        <time>2023-11-29T13:53:25Z</time>
      </trkpt>
      <trkpt lat="49.13125" lon="1.95914">
        <ele>102</ele>
        <time>2023-11-29T13:53:30Z</time>
      </trkpt>
      <trkpt lat="49.13119" lon="1.95922">
        <ele>101.9</ele>
        <time>2023-11-29T13:53:36Z</time>
      </trkpt>
      <trkpt lat="49.13113" lon="1.95931">
        <ele>101.5</ele>
        <time>2023-11-29T13:53:42Z</time>
      </trkpt>
      <trkpt lat="49.13109" lon="1.95936">
        <ele>101.2</ele>
        <time>2023-11-29T13:53:48Z</time>
      </trkpt>
      <trkpt lat="49.13105" lon="1.95944">
        <ele>100.8</ele>
        <time>2023-11-29T13:53:53Z</time>
      </trkpt>
      <trkpt lat="49.13102" lon="1.95951">
        <ele>100.7</ele>
        <time>2023-11-29T13:53:59Z</time>
      </trkpt>
      <trkpt lat="49.13099" lon="1.95956">
        <ele>100.6</ele>
        <time>2023-11-29T13:54:05Z</time>
      </trkpt>
      <trkpt lat="49.13096" lon="1.95962">
        <ele>100.5</ele>
        <time>2023-11-29T13:54:10Z</time>
      </trkpt>
      <trkpt lat="49.1309" lon="1.95972">
        <ele>100.2</ele>
        <time>2023-11-29T13:54:16Z</time>
      </trkpt>
      <trkpt lat="49.13085" lon="1.95979">
        <ele>100.1</ele>
        <time>2023-11-29T13:54:22Z</time>
      </trkpt>
      <trkpt lat="49.13079" lon="1.95987">
        <ele>100</ele>
        <time>2023-11-29T13:54:28Z</time>
      </trkpt>
      <trkpt lat="49.13074" lon="1.95993">
        <ele>100</ele>
        <time>2023-11-29T13:54:34Z</time>
      </trkpt>
      <trkpt lat="49.13071" lon="1.96">
        <ele>100</ele>
        <time>2023-11-29T13:54:39Z</time>
      </trkpt>
      <trkpt lat="49.13067" lon="1.96005">
        <ele>99.9</ele>
        <time>2023-11-29T13:54:44Z</time>
      </trkpt>
      <trkpt lat="49.13063" lon="1.96012">
        <ele>99.7</ele>
        <time>2023-11-29T13:54:49Z</time>
      </trkpt>
      <trkpt lat="49.13057" lon="1.96018">
        <ele>99.4</ele>
        <time>2023-11-29T13:54:55Z</time>
      </trkpt>
      <trkpt lat="49.13052" lon="1.96025">
        <ele>99.1</ele>
        <time>2023-11-29T13:55:01Z</time>
      </trkpt>
      <trkpt lat="49.13048" lon="1.96031">
        <ele>99</ele>
        <time>2023-11-29T13:55:06Z</time>
      </trkpt>
      <trkpt lat="49.13043" lon="1.96039">
        <ele>98.8</ele>
        <time>2023-11-29T13:55:12Z</time>
      </trkpt>
      <trkpt lat="49.13037" lon="1.9605">
        <ele>98.5</ele>
        <time>2023-11-29T13:55:18Z</time>
      </trkpt>
      <trkpt lat="49.13031" lon="1.96056">
        <ele>98.1</ele>
        <time>2023-11-29T13:55:23Z</time>
      </trkpt>
      <trkpt lat="49.13025" lon="1.96057">
        <ele>98</ele>
        <time>2023-11-29T13:55:29Z</time>
      </trkpt>
      <trkpt lat="49.13021" lon="1.96048">
        <ele>98.2</ele>
        <time>2023-11-29T13:55:35Z</time>
      </trkpt>
      <trkpt lat="49.13017" lon="1.9604">
        <ele>98.3</ele>
        <time>2023-11-29T13:55:40Z</time>
      </trkpt>
      <trkpt lat="49.13012" lon="1.96032">
        <ele>98.4</ele>
        <time>2023-11-29T13:55:45Z</time>
      </trkpt>
      <trkpt lat="49.13007" lon="1.96025">
        <ele>98.3</ele>
        <time>2023-11-29T13:55:51Z</time>
      </trkpt>
      <trkpt lat="49.13004" lon="1.96019">
        <ele>98.4</ele>
        <time>2023-11-29T13:55:56Z</time>
      </trkpt>
      <trkpt lat="49.13" lon="1.96011">
        <ele>98.6</ele>
        <time>2023-11-29T13:56:02Z</time>
      </trkpt>
      <trkpt lat="49.12996" lon="1.96003">
        <ele>98.8</ele>
        <time>2023-11-29T13:56:07Z</time>
      </trkpt>
      <trkpt lat="49.12991" lon="1.95993">
        <ele>98.9</ele>
        <time>2023-11-29T13:56:13Z</time>
      </trkpt>
      <trkpt lat="49.12987" lon="1.95984">
        <ele>99.1</ele>
        <time>2023-11-29T13:56:19Z</time>
      </trkpt>
      <trkpt lat="49.12984" lon="1.95974">
        <ele>99.4</ele>
        <time>2023-11-29T13:56:25Z</time>
      </trkpt>
      <trkpt lat="49.12982" lon="1.95967">
        <ele>99.3</ele>
        <time>2023-11-29T13:56:30Z</time>
      </trkpt>
      <trkpt lat="49.12977" lon="1.95958">
        <ele>99.2</ele>
        <time>2023-11-29T13:56:36Z</time>
      </trkpt>
      <trkpt lat="49.12975" lon="1.9595">
        <ele>99.1</ele>
        <time>2023-11-29T13:56:41Z</time>
      </trkpt>
      <trkpt lat="49.12972" lon="1.9594">
        <ele>99</ele>
        <time>2023-11-29T13:56:46Z</time>
      </trkpt>
      <trkpt lat="49.12969" lon="1.95931">
        <ele>98.9</ele>
        <time>2023-11-29T13:56:51Z</time>
      </trkpt>
      <trkpt lat="49.12965" lon="1.9592">
        <ele>98.7</ele>
        <time>2023-11-29T13:56:57Z</time>
      </trkpt>
      <trkpt lat="49.12962" lon="1.95911">
        <ele>98.7</ele>
        <time>2023-11-29T13:57:02Z</time>
      </trkpt>
      <trkpt lat="49.12957" lon="1.95901">
        <ele>98.8</ele>
        <time>2023-11-29T13:57:08Z</time>
      </trkpt>
      <trkpt lat="49.12952" lon="1.9589">
        <ele>99</ele>
        <time>2023-11-29T13:57:14Z</time>
      </trkpt>
      <trkpt lat="49.12948" lon="1.95879">
        <ele>99</ele>
        <time>2023-11-29T13:57:20Z</time>
      </trkpt>
      <trkpt lat="49.12943" lon="1.95871">
        <ele>98.9</ele>
        <time>2023-11-29T13:57:26Z</time>
      </trkpt>
      <trkpt lat="49.12939" lon="1.95864">
        <ele>98.8</ele>
        <time>2023-11-29T13:57:31Z</time>
      </trkpt>
      <trkpt lat="49.12934" lon="1.95854">
        <ele>98.6</ele>
        <time>2023-11-29T13:57:37Z</time>
      </trkpt>
      <trkpt lat="49.12928" lon="1.95845">
        <ele>98.4</ele>
        <time>2023-11-29T13:57:43Z</time>
      </trkpt>
      <trkpt lat="49.12923" lon="1.95836">
        <ele>98.2</ele>
        <time>2023-11-29T13:57:49Z</time>
      </trkpt>
      <trkpt lat="49.12918" lon="1.95829">
        <ele>98.2</ele>
        <time>2023-11-29T13:57:54Z</time>
      </trkpt>
      <trkpt lat="49.12914" lon="1.95822">
        <ele>98.4</ele>
        <time>2023-11-29T13:57:59Z</time>
      </trkpt>
      <trkpt lat="49.12908" lon="1.95812">
        <ele>98.5</ele>
        <time>2023-11-29T13:58:05Z</time>
      </trkpt>
      <trkpt lat="49.12903" lon="1.95804">
        <ele>98.5</ele>
        <time>2023-11-29T13:58:10Z</time>
      </trkpt>
      <trkpt lat="49.12897" lon="1.95794">
        <ele>98.3</ele>
        <time>2023-11-29T13:58:16Z</time>
      </trkpt>
      <trkpt lat="49.12892" lon="1.95784">
        <ele>98.1</ele>
        <time>2023-11-29T13:58:22Z</time>
      </trkpt>
      <trkpt lat="49.12888" lon="1.95776">
        <ele>98</ele>
        <time>2023-11-29T13:58:27Z</time>
      </trkpt>
      <trkpt lat="49.12883" lon="1.95768">
        <ele>98</ele>
        <time>2023-11-29T13:58:32Z</time>
      </trkpt>
      <trkpt lat="49.12878" lon="1.9576">
        <ele>98</ele>
        <time>2023-11-29T13:58:38Z</time>
      </trkpt>
      <trkpt lat="49.12872" lon="1.95753">
        <ele>98</ele>
        <time>2023-11-29T13:58:44Z</time>
      </trkpt>
      <trkpt lat="49.12868" lon="1.95743">
        <ele>98.1</ele>
        <time>2023-11-29T13:58:49Z</time>
      </trkpt>
      <trkpt lat="49.12864" lon="1.95734">
        <ele>98.1</ele>
        <time>2023-11-29T13:58:54Z</time>
      </trkpt>
      <trkpt lat="49.1286" lon="1.95723">
        <ele>98</ele>
        <time>2023-11-29T13:59:00Z</time>
      </trkpt>
      <trkpt lat="49.12856" lon="1.95714">
        <ele>98</ele>
        <time>2023-11-29T13:59:05Z</time>
      </trkpt>
      <trkpt lat="49.12853" lon="1.95706">
        <ele>98</ele>
        <time>2023-11-29T13:59:10Z</time>
      </trkpt>
      <trkpt lat="49.12849" lon="1.95695">
        <ele>98</ele>
        <time>2023-11-29T13:59:16Z</time>
      </trkpt>
      <trkpt lat="49.12845" lon="1.95684">
        <ele>98</ele>
        <time>2023-11-29T13:59:22Z</time>
      </trkpt>
      <trkpt lat="49.1284" lon="1.95675">
        <ele>98</ele>
        <time>2023-11-29T13:59:27Z</time>
      </trkpt>
      <trkpt lat="49.12837" lon="1.95666">
        <ele>98</ele>
        <time>2023-11-29T13:59:32Z</time>
      </trkpt>
      <trkpt lat="49.12834" lon="1.95657">
        <ele>98</ele>
        <time>2023-11-29T13:59:38Z</time>
      </trkpt>
      <trkpt lat="49.12831" lon="1.95649">
        <ele>97.9</ele>
        <time>2023-11-29T13:59:43Z</time>
      </trkpt>
      <trkpt lat="49.12827" lon="1.95636">
        <ele>97.8</ele>
        <time>2023-11-29T13:59:49Z</time>
      </trkpt>
      <trkpt lat="49.12823" lon="1.95626">
        <ele>97.6</ele>
        <time>2023-11-29T13:59:55Z</time>
      </trkpt>
      <trkpt lat="49.12819" lon="1.95617">
        <ele>97.5</ele>
        <time>2023-11-29T14:00:00Z</time>
      </trkpt>
      <trkpt lat="49.12815" lon="1.95606">
        <ele>97.4</ele>
        <time>2023-11-29T14:00:05Z</time>
      </trkpt>
      <trkpt lat="49.1281" lon="1.95597">
        <ele>97.6</ele>
        <time>2023-11-29T14:00:11Z</time>
      </trkpt>
      <trkpt lat="49.12804" lon="1.95588">
        <ele>97.8</ele>
        <time>2023-11-29T14:00:17Z</time>
      </trkpt>
      <trkpt lat="49.12798" lon="1.95582">
        <ele>97.7</ele>
        <time>2023-11-29T14:00:23Z</time>
      </trkpt>
      <trkpt lat="49.12791" lon="1.95575">
        <ele>97.5</ele>
        <time>2023-11-29T14:00:29Z</time>
      </trkpt>
      <trkpt lat="49.12784" lon="1.95571">
        <ele>97.2</ele>
        <time>2023-11-29T14:00:34Z</time>
      </trkpt>
      <trkpt lat="49.12777" lon="1.95567">
        <ele>97</ele>
        <time>2023-11-29T14:00:40Z</time>
      </trkpt>
      <trkpt lat="49.1277" lon="1.95565">
        <ele>97</ele>
        <time>2023-11-29T14:00:45Z</time>
      </trkpt>
      <trkpt lat="49.12763" lon="1.95563">
        <ele>97</ele>
        <time>2023-11-29T14:00:51Z</time>
      </trkpt>
      <trkpt lat="49.12756" lon="1.95564">
        <ele>97</ele>
        <time>2023-11-29T14:00:57Z</time>
      </trkpt>
      <trkpt lat="49.12749" lon="1.95564">
        <ele>97</ele>
        <time>2023-11-29T14:01:03Z</time>
      </trkpt>
      <trkpt lat="49.12741" lon="1.95565">
        <ele>96.7</ele>
        <time>2023-11-29T14:01:09Z</time>
      </trkpt>
      <trkpt lat="49.12734" lon="1.95566">
        <ele>96.4</ele>
        <time>2023-11-29T14:01:14Z</time>
      </trkpt>
      <trkpt lat="49.12726" lon="1.95568">
        <ele>96.1</ele>
        <time>2023-11-29T14:01:20Z</time>
      </trkpt>
      <trkpt lat="49.12718" lon="1.95569">
        <ele>95.9</ele>
        <time>2023-11-29T14:01:26Z</time>
      </trkpt>
      <trkpt lat="49.12712" lon="1.95571">
        <ele>95.6</ele>
        <time>2023-11-29T14:01:31Z</time>
      </trkpt>
      <trkpt lat="49.12703" lon="1.95572">
        <ele>95.3</ele>
        <time>2023-11-29T14:01:37Z</time>
      </trkpt>
      <trkpt lat="49.12696" lon="1.95572">
        <ele>95</ele>
        <time>2023-11-29T14:01:42Z</time>
      </trkpt>
      <trkpt lat="49.12687" lon="1.95571">
        <ele>94.7</ele>
        <time>2023-11-29T14:01:48Z</time>
      </trkpt>
      <trkpt lat="49.12679" lon="1.95569">
        <ele>94.4</ele>
        <time>2023-11-29T14:01:54Z</time>
      </trkpt>
      <trkpt lat="49.12671" lon="1.95567">
        <ele>94.2</ele>
        <time>2023-11-29T14:01:59Z</time>
      </trkpt>
      <trkpt lat="49.12666" lon="1.95563">
        <ele>94</ele>
        <time>2023-11-29T14:02:05Z</time>
      </trkpt>
      <trkpt lat="49.12661" lon="1.95556">
        <ele>93.8</ele>
        <time>2023-11-29T14:02:10Z</time>
      </trkpt>
      <trkpt lat="49.12655" lon="1.95549">
        <ele>93.6</ele>
        <time>2023-11-29T14:02:16Z</time>
      </trkpt>
      <trkpt lat="49.12648" lon="1.95543">
        <ele>93.3</ele>
        <time>2023-11-29T14:02:21Z</time>
      </trkpt>
      <trkpt lat="49.1264" lon="1.95536">
        <ele>93.1</ele>
        <time>2023-11-29T14:02:27Z</time>
      </trkpt>
      <trkpt lat="49.12635" lon="1.9553">
        <ele>92.7</ele>
        <time>2023-11-29T14:02:32Z</time>
      </trkpt>
      <trkpt lat="49.12631" lon="1.95522">
        <ele>92.5</ele>
        <time>2023-11-29T14:02:38Z</time>
      </trkpt>
      <trkpt lat="49.12625" lon="1.95514">
        <ele>92.3</ele>
        <time>2023-11-29T14:02:44Z</time>
      </trkpt>
      <trkpt lat="49.1262" lon="1.95507">
        <ele>92.2</ele>
        <time>2023-11-29T14:02:49Z</time>
      </trkpt>
      <trkpt lat="49.12614" lon="1.95503">
        <ele>92</ele>
        <time>2023-11-29T14:02:55Z</time>
      </trkpt>
      <trkpt lat="49.12608" lon="1.95492">
        <ele>91.7</ele>
        <time>2023-11-29T14:03:01Z</time>
      </trkpt>
      <trkpt lat="49.12602" lon="1.95485">
        <ele>91.2</ele>
        <time>2023-11-29T14:03:06Z</time>
      </trkpt>
      <trkpt lat="49.12596" lon="1.95477">
        <ele>90.8</ele>
        <time>2023-11-29T14:03:11Z</time>
      </trkpt>
      <trkpt lat="49.1259" lon="1.9547">
        <ele>90.4</ele>
        <time>2023-11-29T14:03:16Z</time>
      </trkpt>
      <trkpt lat="49.12584" lon="1.95462">
        <ele>89.7</ele>
        <time>2023-11-29T14:03:22Z</time>
      </trkpt>
      <trkpt lat="49.12582" lon="1.95453">
        <ele>89.1</ele>
        <time>2023-11-29T14:03:28Z</time>
      </trkpt>
      <trkpt lat="49.1258" lon="1.95444">
        <ele>88.3</ele>
        <time>2023-11-29T14:03:33Z</time>
      </trkpt>
      <trkpt lat="49.12578" lon="1.95433">
        <ele>87.8</ele>
        <time>2023-11-29T14:03:38Z</time>
      </trkpt>
      <trkpt lat="49.12577" lon="1.95421">
        <ele>87.4</ele>
        <time>2023-11-29T14:03:44Z</time>
      </trkpt>
      <trkpt lat="49.12576" lon="1.95411">
        <ele>87</ele>
        <time>2023-11-29T14:03:49Z</time>
      </trkpt>
      <trkpt lat="49.12574" lon="1.95403">
        <ele>86.4</ele>
        <time>2023-11-29T14:03:54Z</time>
      </trkpt>
      <trkpt lat="49.12572" lon="1.95389">
        <ele>85.8</ele>
        <time>2023-11-29T14:04:00Z</time>
      </trkpt>
      <trkpt lat="49.12573" lon="1.95377">
        <ele>85.2</ele>
        <time>2023-11-29T14:04:06Z</time>
      </trkpt>
      <trkpt lat="49.12575" lon="1.9537">
        <ele>84.9</ele>
        <time>2023-11-29T14:04:12Z</time>
      </trkpt>
      <trkpt lat="49.12574" lon="1.95365">
        <ele>84.5</ele>
        <time>2023-11-29T14:04:17Z</time>
      </trkpt>
      <trkpt lat="49.12572" lon="1.95358">
        <ele>83.8</ele>
        <time>2023-11-29T14:04:22Z</time>
      </trkpt>
      <trkpt lat="49.12569" lon="1.9535">
        <ele>82.9</ele>
        <time>2023-11-29T14:04:28Z</time>
      </trkpt>
      <trkpt lat="49.12568" lon="1.95341">
        <ele>82.1</ele>
        <time>2023-11-29T14:04:33Z</time>
      </trkpt>
      <trkpt lat="49.12568" lon="1.95332">
        <ele>81.2</ele>
        <time>2023-11-29T14:04:39Z</time>
      </trkpt>
      <trkpt lat="49.12568" lon="1.95324">
        <ele>80.7</ele>
        <time>2023-11-29T14:04:44Z</time>
      </trkpt>
      <trkpt lat="49.12567" lon="1.95315">
        <ele>80</ele>
        <time>2023-11-29T14:04:49Z</time>
      </trkpt>
      <trkpt lat="49.12568" lon="1.95305">
        <ele>79.3</ele>
        <time>2023-11-29T14:04:54Z</time>
      </trkpt>
      <trkpt lat="49.12569" lon="1.95294">
        <ele>78.5</ele>
        <time>2023-11-29T14:05:00Z</time>
      </trkpt>
      <trkpt lat="49.12572" lon="1.95288">
        <ele>78.1</ele>
        <time>2023-11-29T14:05:05Z</time>
      </trkpt>
      <trkpt lat="49.12574" lon="1.95277">
        <ele>77.3</ele>
        <time>2023-11-29T14:05:10Z</time>
      </trkpt>
      <trkpt lat="49.12577" lon="1.95268">
        <ele>76.7</ele>
        <time>2023-11-29T14:05:15Z</time>
      </trkpt>
      <trkpt lat="49.12579" lon="1.95254">
        <ele>75.8</ele>
        <time>2023-11-29T14:05:21Z</time>
      </trkpt>
      <trkpt lat="49.12581" lon="1.95243">
        <ele>75.2</ele>
        <time>2023-11-29T14:05:27Z</time>
      </trkpt>
      <trkpt lat="49.12583" lon="1.95236">
        <ele>74.9</ele>
        <time>2023-11-29T14:05:32Z</time>
      </trkpt>
      <trkpt lat="49.12583" lon="1.95228">
        <ele>74.4</ele>
        <time>2023-11-29T14:05:38Z</time>
      </trkpt>
      <trkpt lat="49.12582" lon="1.95222">
        <ele>73.8</ele>
        <time>2023-11-29T14:05:43Z</time>
      </trkpt>
      <trkpt lat="49.12581" lon="1.95215">
        <ele>73.4</ele>
        <time>2023-11-29T14:05:48Z</time>
      </trkpt>
      <trkpt lat="49.1258" lon="1.952">
        <ele>72.6</ele>
        <time>2023-11-29T14:05:54Z</time>
      </trkpt>
      <trkpt lat="49.12581" lon="1.95189">
        <ele>72</ele>
        <time>2023-11-29T14:06:00Z</time>
      </trkpt>
      <trkpt lat="49.12579" lon="1.95185">
        <ele>71.5</ele>
        <time>2023-11-29T14:06:05Z</time>
      </trkpt>
      <trkpt lat="49.12574" lon="1.95183">
        <ele>70.2</ele>
        <time>2023-11-29T14:06:11Z</time>
      </trkpt>
      <trkpt lat="49.12567" lon="1.95183">
        <ele>68.6</ele>
        <time>2023-11-29T14:06:17Z</time>
      </trkpt>
      <trkpt lat="49.12559" lon="1.9518">
        <ele>66.7</ele>
        <time>2023-11-29T14:06:23Z</time>
      </trkpt>
      <trkpt lat="49.12553" lon="1.95175">
        <ele>65.3</ele>
        <time>2023-11-29T14:06:28Z</time>
      </trkpt>
      <trkpt lat="49.12549" lon="1.9517">
        <ele>64.2</ele>
        <time>2023-11-29T14:06:34Z</time>
      </trkpt>
      <trkpt lat="49.12546" lon="1.95161">
        <ele>63.2</ele>
        <time>2023-11-29T14:06:40Z</time>
      </trkpt>
      <trkpt lat="49.12546" lon="1.95153">
        <ele>62.6</ele>
        <time>2023-11-29T14:06:45Z</time>
      </trkpt>
      <trkpt lat="49.12546" lon="1.95144">
        <ele>62</ele>
        <time>2023-11-29T14:06:50Z</time>
      </trkpt>
      <trkpt lat="49.12548" lon="1.95134">
        <ele>61.4</ele>
        <time>2023-11-29T14:06:55Z</time>
      </trkpt>
      <trkpt lat="49.12549" lon="1.95123">
        <ele>60.6</ele>
        <time>2023-11-29T14:07:01Z</time>
      </trkpt>
      <trkpt lat="49.1255" lon="1.95112">
        <ele>59.6</ele>
        <time>2023-11-29T14:07:06Z</time>
      </trkpt>
      <trkpt lat="49.1255" lon="1.95098">
        <ele>58.3</ele>
        <time>2023-11-29T14:07:12Z</time>
      </trkpt>
      <trkpt lat="49.12549" lon="1.95086">
        <ele>57</ele>
        <time>2023-11-29T14:07:18Z</time>
      </trkpt>
      <trkpt lat="49.12549" lon="1.95079">
        <ele>56.6</ele>
        <time>2023-11-29T14:07:23Z</time>
      </trkpt>
      <trkpt lat="49.12549" lon="1.9507">
        <ele>56.2</ele>
        <time>2023-11-29T14:07:29Z</time>
      </trkpt>
      <trkpt lat="49.12548" lon="1.95064">
        <ele>55.8</ele>
        <time>2023-11-29T14:07:35Z</time>
      </trkpt>
      <trkpt lat="49.12549" lon="1.95055">
        <ele>55.5</ele>
        <time>2023-11-29T14:07:41Z</time>
      </trkpt>
      <trkpt lat="49.12549" lon="1.95046">
        <ele>55.3</ele>
        <time>2023-11-29T14:07:46Z</time>
      </trkpt>
      <trkpt lat="49.12546" lon="1.95035">
        <ele>54.8</ele>
        <time>2023-11-29T14:07:52Z</time>
      </trkpt>
      <trkpt lat="49.12541" lon="1.95027">
        <ele>54.5</ele>
        <time>2023-11-29T14:07:58Z</time>
      </trkpt>
      <trkpt lat="49.12535" lon="1.95023">
        <ele>54.2</ele>
        <time>2023-11-29T14:08:04Z</time>
      </trkpt>
      <trkpt lat="49.12532" lon="1.9502">
        <ele>54.1</ele>
        <time>2023-11-29T14:08:09Z</time>
      </trkpt>
      <trkpt lat="49.12527" lon="1.95017">
        <ele>54</ele>
        <time>2023-11-29T14:08:15Z</time>
      </trkpt>
      <trkpt lat="49.12523" lon="1.95015">
        <ele>53.8</ele>
        <time>2023-11-29T14:08:20Z</time>
      </trkpt>
      <trkpt lat="49.12517" lon="1.95011">
        <ele>53.6</ele>
        <time>2023-11-29T14:08:26Z</time>
      </trkpt>
      <trkpt lat="49.1251" lon="1.95003">
        <ele>53.3</ele>
        <time>2023-11-29T14:08:32Z</time>
      </trkpt>
      <trkpt lat="49.12502" lon="1.94992">
        <ele>53</ele>
        <time>2023-11-29T14:08:38Z</time>
      </trkpt>
      <trkpt lat="49.12495" lon="1.94985">
        <ele>52.9</ele>
        <time>2023-11-29T14:08:43Z</time>
      </trkpt>
      <trkpt lat="49.12489" lon="1.94978">
        <ele>52.9</ele>
        <time>2023-11-29T14:08:48Z</time>
      </trkpt>
      <trkpt lat="49.1248" lon="1.9497">
        <ele>53</ele>
        <time>2023-11-29T14:08:54Z</time>
      </trkpt>
      <trkpt lat="49.12474" lon="1.94964">
        <ele>53</ele>
        <time>2023-11-29T14:09:00Z</time>
      </trkpt>
      <trkpt lat="49.12468" lon="1.9496">
        <ele>52.9</ele>
        <time>2023-11-29T14:09:05Z</time>
      </trkpt>
      <trkpt lat="49.12461" lon="1.94954">
        <ele>52.9</ele>
        <time>2023-11-29T14:09:11Z</time>
      </trkpt>
      <trkpt lat="49.12455" lon="1.94948">
        <ele>52.9</ele>
        <time>2023-11-29T14:09:16Z</time>
      </trkpt>
      <trkpt lat="49.12447" lon="1.94938">
        <ele>53.2</ele>
        <time>2023-11-29T14:09:22Z</time>
      </trkpt>
      <trkpt lat="49.12443" lon="1.94934">
        <ele>53.3</ele>
        <time>2023-11-29T14:09:28Z</time>
      </trkpt>
      <trkpt lat="49.12439" lon="1.94928">
        <ele>53.5</ele>
        <time>2023-11-29T14:09:34Z</time>
      </trkpt>
      <trkpt lat="49.12436" lon="1.94924">
        <ele>53.7</ele>
        <time>2023-11-29T14:09:39Z</time>
      </trkpt>
      <trkpt lat="49.12432" lon="1.94918">
        <ele>53.9</ele>
        <time>2023-11-29T14:09:45Z</time>
      </trkpt>
      <trkpt lat="49.12428" lon="1.9491">
        <ele>54.1</ele>
        <time>2023-11-29T14:09:50Z</time>
      </trkpt>
      <trkpt lat="49.12426" lon="1.94905">
        <ele>54.3</ele>
        <time>2023-11-29T14:09:56Z</time>
      </trkpt>
      <trkpt lat="49.12426" lon="1.94905">
        <ele>54.3</ele>
        <time>2023-11-29T14:10:01Z</time>
      </trkpt>
      <trkpt lat="49.12426" lon="1.94905">
        <ele>54.3</ele>
        <time>2023-11-29T14:10:07Z</time>
      </trkpt>
      <trkpt lat="49.12426" lon="1.94906">
        <ele>54.2</ele>
        <time>2023-11-29T14:10:13Z</time>
      </trkpt>
      <trkpt lat="49.12427" lon="1.94908">
        <ele>54.2</ele>
        <time>2023-11-29T14:10:19Z</time>
      </trkpt>
      <trkpt lat="49.12428" lon="1.9491">
        <ele>54.1</ele>
        <time>2023-11-29T14:10:25Z</time>
      </trkpt>
      <trkpt lat="49.12428" lon="1.9491">
        <ele>54.1</ele>
        <time>2023-11-29T14:10:31Z</time>
      </trkpt>
      <trkpt lat="49.12428" lon="1.9491">
        <ele>54.1</ele>
        <time>2023-11-29T14:10:36Z</time>
      </trkpt>
      <trkpt lat="49.12428" lon="1.9491">
        <ele>54.1</ele>
        <time>2023-11-29T14:10:42Z</time>
      </trkpt>
      <trkpt lat="49.12428" lon="1.94911">
        <ele>54.1</ele>
        <time>2023-11-29T14:10:47Z</time>
      </trkpt>
      <trkpt lat="49.12428" lon="1.94911">
        <ele>54.1</ele>
        <time>2023-11-29T14:10:53Z</time>
      </trkpt>
      <trkpt lat="49.12428" lon="1.9491">
        <ele>54.1</ele>
        <time>2023-11-29T14:10:58Z</time>
      </trkpt>
      <trkpt lat="49.12428" lon="1.9491">
        <ele>54.1</ele>
        <time>2023-11-29T14:11:04Z</time>
      </trkpt>
      <trkpt lat="49.12428" lon="1.9491">
        <ele>54.1</ele>
        <time>2023-11-29T14:11:09Z</time>
      </trkpt>
      <trkpt lat="49.12428" lon="1.94909">
        <ele>54.2</ele>
        <time>2023-11-29T14:11:15Z</time>
      </trkpt>
      <trkpt lat="49.12428" lon="1.94909">
        <ele>54.2</ele>
        <time>2023-11-29T14:11:20Z</time>
      </trkpt>
      <trkpt lat="49.12428" lon="1.94909">
        <ele>54.2</ele>
        <time>2023-11-29T14:11:26Z</time>
      </trkpt>
      <trkpt lat="49.12428" lon="1.94909">
        <ele>54.2</ele>
        <time>2023-11-29T14:11:31Z</time>
      </trkpt>
      <trkpt lat="49.12428" lon="1.94909">
        <ele>54.2</ele>
        <time>2023-11-29T14:11:37Z</time>
      </trkpt>
      <trkpt lat="49.12429" lon="1.94908">
        <ele>54.2</ele>
        <time>2023-11-29T14:11:43Z</time>
      </trkpt>
      <trkpt lat="49.12429" lon="1.94908">
        <ele>54.2</ele>
        <time>2023-11-29T14:11:48Z</time>
      </trkpt>
      <trkpt lat="49.1243" lon="1.94909">
        <ele>54.2</ele>
        <time>2023-11-29T14:11:54Z</time>
      </trkpt>
      <trkpt lat="49.1243" lon="1.94909">
        <ele>54.2</ele>
        <time>2023-11-29T14:11:59Z</time>
      </trkpt>
      <trkpt lat="49.1243" lon="1.94909">
        <ele>54.1</ele>
        <time>2023-11-29T14:12:05Z</time>
      </trkpt>
      <trkpt lat="49.1243" lon="1.94909">
        <ele>54.1</ele>
        <time>2023-11-29T14:12:10Z</time>
      </trkpt>
      <trkpt lat="49.12429" lon="1.94909">
        <ele>54.1</ele>
        <time>2023-11-29T14:12:16Z</time>
      </trkpt>
      <trkpt lat="49.1243" lon="1.94909">
        <ele>54.1</ele>
        <time>2023-11-29T14:12:21Z</time>
      </trkpt>
      <trkpt lat="49.12429" lon="1.94909">
        <ele>54.2</ele>
        <time>2023-11-29T14:12:27Z</time>
      </trkpt>
      <trkpt lat="49.12429" lon="1.94909">
        <ele>54.2</ele>
        <time>2023-11-29T14:12:32Z</time>
      </trkpt>
      <trkpt lat="49.12429" lon="1.94908">
        <ele>54.2</ele>
        <time>2023-11-29T14:12:38Z</time>
      </trkpt>
      <trkpt lat="49.1243" lon="1.9491">
        <ele>54.1</ele>
        <time>2023-11-29T14:12:43Z</time>
      </trkpt>
      <trkpt lat="49.12433" lon="1.94918">
        <ele>53.9</ele>
        <time>2023-11-29T14:12:48Z</time>
      </trkpt>
      <trkpt lat="49.12426" lon="1.94919">
        <ele>53.8</ele>
        <time>2023-11-29T14:12:54Z</time>
      </trkpt>
      <trkpt lat="49.12419" lon="1.94922">
        <ele>53.6</ele>
        <time>2023-11-29T14:12:59Z</time>
      </trkpt>
      <trkpt lat="49.12412" lon="1.94926">
        <ele>53.5</ele>
        <time>2023-11-29T14:13:05Z</time>
      </trkpt>
      <trkpt lat="49.12406" lon="1.94929">
        <ele>53.5</ele>
        <time>2023-11-29T14:13:10Z</time>
      </trkpt>
      <trkpt lat="49.12399" lon="1.94933">
        <ele>53.4</ele>
        <time>2023-11-29T14:13:16Z</time>
      </trkpt>
      <trkpt lat="49.12398" lon="1.94931">
        <ele>53.6</ele>
        <time>2023-11-29T14:13:21Z</time>
      </trkpt>
      <trkpt lat="49.12399" lon="1.94931">
        <ele>53.6</ele>
        <time>2023-11-29T14:13:27Z</time>
      </trkpt>
      <trkpt lat="49.12399" lon="1.9493">
        <ele>53.7</ele>
        <time>2023-11-29T14:13:33Z</time>
      </trkpt>
      <trkpt lat="49.124" lon="1.9493">
        <ele>53.6</ele>
        <time>2023-11-29T14:13:38Z</time>
      </trkpt>
      <trkpt lat="49.12394" lon="1.94934">
        <ele>53.6</ele>
        <time>2023-11-29T14:13:44Z</time>
      </trkpt>
      <trkpt lat="49.12389" lon="1.94931">
        <ele>54</ele>
        <time>2023-11-29T14:13:49Z</time>
      </trkpt>
      <trkpt lat="49.12385" lon="1.94934">
        <ele>53.9</ele>
        <time>2023-11-29T14:13:55Z</time>
      </trkpt>
      <trkpt lat="49.12384" lon="1.94936">
        <ele>53.9</ele>
        <time>2023-11-29T14:14:00Z</time>
      </trkpt>
      <trkpt lat="49.12384" lon="1.94936">
        <ele>53.9</ele>
        <time>2023-11-29T14:14:06Z</time>
      </trkpt>
      <trkpt lat="49.12384" lon="1.94936">
        <ele>53.9</ele>
        <time>2023-11-29T14:14:11Z</time>
      </trkpt>
      <trkpt lat="49.12384" lon="1.94936">
        <ele>53.9</ele>
        <time>2023-11-29T14:14:16Z</time>
      </trkpt>
      <trkpt lat="49.12384" lon="1.94936">
        <ele>53.8</ele>
        <time>2023-11-29T14:14:22Z</time>
      </trkpt>
      <trkpt lat="49.12384" lon="1.94936">
        <ele>53.8</ele>
        <time>2023-11-29T14:14:27Z</time>
      </trkpt>
      <trkpt lat="49.12384" lon="1.94937">
        <ele>53.8</ele>
        <time>2023-11-29T14:14:33Z</time>
      </trkpt>
      <trkpt lat="49.12384" lon="1.94937">
        <ele>53.8</ele>
        <time>2023-11-29T14:14:38Z</time>
      </trkpt>
      <trkpt lat="49.12384" lon="1.94937">
        <ele>53.8</ele>
        <time>2023-11-29T14:14:44Z</time>
      </trkpt>
      <trkpt lat="49.12384" lon="1.94936">
        <ele>53.8</ele>
        <time>2023-11-29T14:14:49Z</time>
      </trkpt>
      <trkpt lat="49.12387" lon="1.94939">
        <ele>53.5</ele>
        <time>2023-11-29T14:14:55Z</time>
      </trkpt>
      <trkpt lat="49.1239" lon="1.9494">
        <ele>53.3</ele>
        <time>2023-11-29T14:15:00Z</time>
      </trkpt>
      <trkpt lat="49.12394" lon="1.94939">
        <ele>53.2</ele>
        <time>2023-11-29T14:15:06Z</time>
      </trkpt>
      <trkpt lat="49.12395" lon="1.94938">
        <ele>53.3</ele>
        <time>2023-11-29T14:15:12Z</time>
      </trkpt>
      <trkpt lat="49.12396" lon="1.94937">
        <ele>53.3</ele>
        <time>2023-11-29T14:15:18Z</time>
      </trkpt>
      <trkpt lat="49.12397" lon="1.94936">
        <ele>53.3</ele>
        <time>2023-11-29T14:15:24Z</time>
      </trkpt>
      <trkpt lat="49.12397" lon="1.94936">
        <ele>53.3</ele>
        <time>2023-11-29T14:15:29Z</time>
      </trkpt>
      <trkpt lat="49.12398" lon="1.94935">
        <ele>53.4</ele>
        <time>2023-11-29T14:15:35Z</time>
      </trkpt>
      <trkpt lat="49.12398" lon="1.94934">
        <ele>53.4</ele>
        <time>2023-11-29T14:15:41Z</time>
      </trkpt>
      <trkpt lat="49.12398" lon="1.94934">
        <ele>53.5</ele>
        <time>2023-11-29T14:15:47Z</time>
      </trkpt>
      <trkpt lat="49.12398" lon="1.94932">
        <ele>53.5</ele>
        <time>2023-11-29T14:15:53Z</time>
      </trkpt>
      <trkpt lat="49.12398" lon="1.94932">
        <ele>53.6</ele>
        <time>2023-11-29T14:15:59Z</time>
      </trkpt>
      <trkpt lat="49.12399" lon="1.94931">
        <ele>53.6</ele>
        <time>2023-11-29T14:16:05Z</time>
      </trkpt>
      <trkpt lat="49.12402" lon="1.9493">
        <ele>53.6</ele>
        <time>2023-11-29T14:16:11Z</time>
      </trkpt>
      <trkpt lat="49.12402" lon="1.9493">
        <ele>53.6</ele>
        <time>2023-11-29T14:16:16Z</time>
      </trkpt>
      <trkpt lat="49.12402" lon="1.9493">
        <ele>53.5</ele>
        <time>2023-11-29T14:16:22Z</time>
      </trkpt>
      <trkpt lat="49.12403" lon="1.94931">
        <ele>53.5</ele>
        <time>2023-11-29T14:16:28Z</time>
      </trkpt>
      <trkpt lat="49.12402" lon="1.9493">
        <ele>53.5</ele>
        <time>2023-11-29T14:16:34Z</time>
      </trkpt>
      <trkpt lat="49.124" lon="1.94936">
        <ele>53.2</ele>
        <time>2023-11-29T14:16:40Z</time>
      </trkpt>
      <trkpt lat="49.12402" lon="1.94932">
        <ele>53.4</ele>
        <time>2023-11-29T14:16:46Z</time>
      </trkpt>
      <trkpt lat="49.12405" lon="1.94935">
        <ele>53.1</ele>
        <time>2023-11-29T14:16:52Z</time>
      </trkpt>
      <trkpt lat="49.12407" lon="1.94939">
        <ele>52.7</ele>
        <time>2023-11-29T14:16:57Z</time>
      </trkpt>
      <trkpt lat="49.12408" lon="1.9494">
        <ele>52.7</ele>
        <time>2023-11-29T14:17:03Z</time>
      </trkpt>
      <trkpt lat="49.12407" lon="1.94939">
        <ele>52.7</ele>
        <time>2023-11-29T14:17:09Z</time>
      </trkpt>
      <trkpt lat="49.12407" lon="1.94939">
        <ele>52.8</ele>
        <time>2023-11-29T14:17:14Z</time>
      </trkpt>
    </trkseg>
  </trk>
</gpx>